<?xml version="1.0" encoding="UTF-8" standalone="no" ?>
<gpx xmlns="http://www.topografix.com/GPX/1/1" xmlns:xsi="http://www.w3.org/2001/XMLSchema-instance" xsi:schemaLocation="http://www.topografix.com/GPX/1/1 http://www.topografix.com/GPX/1/1/gpx.xsd" version="1.1" creator="VisuGPX - https://www.visugpx.com">
  <metadata>
    <name>2020-06-06 15:34:18</name>
  </metadata>
  <trk>
    <name><![CDATA[2020-06-06 15:34:18]]></name>
    <trkseg>
      <trkpt lat="44.00981" lon="1.98292">
        <ele>257.29</ele>
        <time>2020-06-06T07:02:06Z</time>
      </trkpt>
      <trkpt lat="44.00981" lon="1.98291">
        <ele>256.33</ele>
        <time>2020-06-06T07:02:13Z</time>
      </trkpt>
      <trkpt lat="44.00982" lon="1.98291">
        <ele>255.85</ele>
        <time>2020-06-06T07:02:20Z</time>
      </trkpt>
      <trkpt lat="44.0098" lon="1.98292">
        <ele>255.37</ele>
        <time>2020-06-06T07:02:26Z</time>
      </trkpt>
      <trkpt lat="44.0098" lon="1.98293">
        <ele>255.37</ele>
        <time>2020-06-06T07:02:28Z</time>
      </trkpt>
      <trkpt lat="44.00973" lon="1.98307">
        <ele>256.33</ele>
        <time>2020-06-06T07:02:38Z</time>
      </trkpt>
      <trkpt lat="44.00973" lon="1.98319">
        <ele>255.37</ele>
        <time>2020-06-06T07:02:47Z</time>
      </trkpt>
      <trkpt lat="44.00974" lon="1.9832">
        <ele>254.89</ele>
        <time>2020-06-06T07:02:49Z</time>
      </trkpt>
      <trkpt lat="44.00977" lon="1.98331">
        <ele>253.93</ele>
        <time>2020-06-06T07:02:55Z</time>
      </trkpt>
      <trkpt lat="44.00972" lon="1.98351">
        <ele>252</ele>
        <time>2020-06-06T07:03:07Z</time>
      </trkpt>
      <trkpt lat="44.00968" lon="1.98363">
        <ele>253.44</ele>
        <time>2020-06-06T07:03:17Z</time>
      </trkpt>
      <trkpt lat="44.00968" lon="1.98366">
        <ele>253.93</ele>
        <time>2020-06-06T07:03:25Z</time>
      </trkpt>
      <trkpt lat="44.00967" lon="1.98373">
        <ele>253.44</ele>
        <time>2020-06-06T07:03:33Z</time>
      </trkpt>
      <trkpt lat="44.00968" lon="1.98372">
        <ele>252.96</ele>
        <time>2020-06-06T07:03:36Z</time>
      </trkpt>
      <trkpt lat="44.00972" lon="1.98366">
        <ele>252.48</ele>
        <time>2020-06-06T07:03:42Z</time>
      </trkpt>
      <trkpt lat="44.00975" lon="1.98366">
        <ele>252.48</ele>
        <time>2020-06-06T07:03:46Z</time>
      </trkpt>
      <trkpt lat="44.00986" lon="1.98373">
        <ele>253.44</ele>
        <time>2020-06-06T07:03:55Z</time>
      </trkpt>
      <trkpt lat="44.00992" lon="1.98383">
        <ele>252.48</ele>
        <time>2020-06-06T07:04:04Z</time>
      </trkpt>
      <trkpt lat="44.00995" lon="1.98391">
        <ele>251.52</ele>
        <time>2020-06-06T07:04:10Z</time>
      </trkpt>
      <trkpt lat="44.01002" lon="1.98405">
        <ele>250.56</ele>
        <time>2020-06-06T07:04:21Z</time>
      </trkpt>
      <trkpt lat="44.01011" lon="1.98417">
        <ele>252.48</ele>
        <time>2020-06-06T07:04:31Z</time>
      </trkpt>
      <trkpt lat="44.01012" lon="1.98419">
        <ele>252.48</ele>
        <time>2020-06-06T07:04:33Z</time>
      </trkpt>
      <trkpt lat="44.01016" lon="1.98428">
        <ele>253.93</ele>
        <time>2020-06-06T07:04:39Z</time>
      </trkpt>
      <trkpt lat="44.01021" lon="1.98441">
        <ele>257.77</ele>
        <time>2020-06-06T07:04:48Z</time>
      </trkpt>
      <trkpt lat="44.01029" lon="1.98456">
        <ele>260.65</ele>
        <time>2020-06-06T07:04:59Z</time>
      </trkpt>
      <trkpt lat="44.01036" lon="1.98467">
        <ele>258.73</ele>
        <time>2020-06-06T07:05:07Z</time>
      </trkpt>
      <trkpt lat="44.01044" lon="1.9848">
        <ele>259.69</ele>
        <time>2020-06-06T07:05:17Z</time>
      </trkpt>
      <trkpt lat="44.01052" lon="1.98494">
        <ele>260.17</ele>
        <time>2020-06-06T07:05:27Z</time>
      </trkpt>
      <trkpt lat="44.01058" lon="1.98506">
        <ele>260.65</ele>
        <time>2020-06-06T07:05:35Z</time>
      </trkpt>
      <trkpt lat="44.01062" lon="1.98517">
        <ele>260.17</ele>
        <time>2020-06-06T07:05:43Z</time>
      </trkpt>
      <trkpt lat="44.01066" lon="1.98525">
        <ele>260.65</ele>
        <time>2020-06-06T07:05:50Z</time>
      </trkpt>
      <trkpt lat="44.01066" lon="1.98525">
        <ele>260.65</ele>
        <time>2020-06-06T07:05:51Z</time>
      </trkpt>
      <trkpt lat="44.01067" lon="1.98529">
        <ele>260.17</ele>
        <time>2020-06-06T07:05:56Z</time>
      </trkpt>
      <trkpt lat="44.01063" lon="1.98524">
        <ele>259.69</ele>
        <time>2020-06-06T07:06:00Z</time>
      </trkpt>
      <trkpt lat="44.01061" lon="1.98525">
        <ele>259.69</ele>
        <time>2020-06-06T07:06:05Z</time>
      </trkpt>
      <trkpt lat="44.01062" lon="1.98525">
        <ele>260.17</ele>
        <time>2020-06-06T07:06:10Z</time>
      </trkpt>
      <trkpt lat="44.01071" lon="1.98537">
        <ele>262.58</ele>
        <time>2020-06-06T07:06:20Z</time>
      </trkpt>
      <trkpt lat="44.01079" lon="1.98559">
        <ele>264.5</ele>
        <time>2020-06-06T07:06:31Z</time>
      </trkpt>
      <trkpt lat="44.01086" lon="1.98575">
        <ele>263.54</ele>
        <time>2020-06-06T07:06:39Z</time>
      </trkpt>
      <trkpt lat="44.01094" lon="1.98588">
        <ele>263.54</ele>
        <time>2020-06-06T07:06:47Z</time>
      </trkpt>
      <trkpt lat="44.01103" lon="1.98602">
        <ele>264.02</ele>
        <time>2020-06-06T07:06:57Z</time>
      </trkpt>
      <trkpt lat="44.01112" lon="1.98613">
        <ele>264.02</ele>
        <time>2020-06-06T07:07:06Z</time>
      </trkpt>
      <trkpt lat="44.01123" lon="1.98625">
        <ele>264.02</ele>
        <time>2020-06-06T07:07:16Z</time>
      </trkpt>
      <trkpt lat="44.01132" lon="1.98634">
        <ele>264.5</ele>
        <time>2020-06-06T07:07:25Z</time>
      </trkpt>
      <trkpt lat="44.01145" lon="1.98647">
        <ele>264.02</ele>
        <time>2020-06-06T07:07:36Z</time>
      </trkpt>
      <trkpt lat="44.01155" lon="1.98658">
        <ele>264.02</ele>
        <time>2020-06-06T07:07:46Z</time>
      </trkpt>
      <trkpt lat="44.01166" lon="1.98669">
        <ele>264.02</ele>
        <time>2020-06-06T07:07:55Z</time>
      </trkpt>
      <trkpt lat="44.01176" lon="1.98679">
        <ele>264.02</ele>
        <time>2020-06-06T07:08:05Z</time>
      </trkpt>
      <trkpt lat="44.01184" lon="1.98689">
        <ele>264.98</ele>
        <time>2020-06-06T07:08:13Z</time>
      </trkpt>
      <trkpt lat="44.01196" lon="1.98702">
        <ele>264.5</ele>
        <time>2020-06-06T07:08:24Z</time>
      </trkpt>
      <trkpt lat="44.0121" lon="1.98716">
        <ele>264.5</ele>
        <time>2020-06-06T07:08:36Z</time>
      </trkpt>
      <trkpt lat="44.0122" lon="1.98728">
        <ele>264.98</ele>
        <time>2020-06-06T07:08:46Z</time>
      </trkpt>
      <trkpt lat="44.01231" lon="1.98743">
        <ele>266.42</ele>
        <time>2020-06-06T07:08:57Z</time>
      </trkpt>
      <trkpt lat="44.01241" lon="1.98761">
        <ele>268.35</ele>
        <time>2020-06-06T07:09:08Z</time>
      </trkpt>
      <trkpt lat="44.01251" lon="1.98779">
        <ele>268.35</ele>
        <time>2020-06-06T07:09:20Z</time>
      </trkpt>
      <trkpt lat="44.01257" lon="1.98795">
        <ele>270.75</ele>
        <time>2020-06-06T07:09:30Z</time>
      </trkpt>
      <trkpt lat="44.01265" lon="1.98812">
        <ele>271.71</ele>
        <time>2020-06-06T07:09:41Z</time>
      </trkpt>
      <trkpt lat="44.01269" lon="1.98833">
        <ele>270.27</ele>
        <time>2020-06-06T07:09:52Z</time>
      </trkpt>
      <trkpt lat="44.01274" lon="1.98851">
        <ele>268.35</ele>
        <time>2020-06-06T07:10:02Z</time>
      </trkpt>
      <trkpt lat="44.01278" lon="1.98873">
        <ele>267.38</ele>
        <time>2020-06-06T07:10:14Z</time>
      </trkpt>
      <trkpt lat="44.01281" lon="1.98891">
        <ele>266.42</ele>
        <time>2020-06-06T07:10:24Z</time>
      </trkpt>
      <trkpt lat="44.01282" lon="1.98908">
        <ele>265.94</ele>
        <time>2020-06-06T07:10:34Z</time>
      </trkpt>
      <trkpt lat="44.01282" lon="1.9892">
        <ele>265.46</ele>
        <time>2020-06-06T07:10:42Z</time>
      </trkpt>
      <trkpt lat="44.01283" lon="1.9893">
        <ele>264.98</ele>
        <time>2020-06-06T07:10:48Z</time>
      </trkpt>
      <trkpt lat="44.01284" lon="1.98952">
        <ele>265.94</ele>
        <time>2020-06-06T07:10:59Z</time>
      </trkpt>
      <trkpt lat="44.01284" lon="1.98971">
        <ele>264.98</ele>
        <time>2020-06-06T07:11:09Z</time>
      </trkpt>
      <trkpt lat="44.01285" lon="1.98986">
        <ele>265.46</ele>
        <time>2020-06-06T07:11:18Z</time>
      </trkpt>
      <trkpt lat="44.01285" lon="1.98999">
        <ele>264.5</ele>
        <time>2020-06-06T07:11:26Z</time>
      </trkpt>
      <trkpt lat="44.01285" lon="1.99015">
        <ele>264.5</ele>
        <time>2020-06-06T07:11:35Z</time>
      </trkpt>
      <trkpt lat="44.01285" lon="1.99024">
        <ele>265.46</ele>
        <time>2020-06-06T07:11:40Z</time>
      </trkpt>
      <trkpt lat="44.01286" lon="1.99045">
        <ele>264.02</ele>
        <time>2020-06-06T07:11:51Z</time>
      </trkpt>
      <trkpt lat="44.01288" lon="1.99063">
        <ele>263.54</ele>
        <time>2020-06-06T07:12:01Z</time>
      </trkpt>
      <trkpt lat="44.0129" lon="1.99084">
        <ele>264.5</ele>
        <time>2020-06-06T07:12:12Z</time>
      </trkpt>
      <trkpt lat="44.01292" lon="1.99106">
        <ele>265.46</ele>
        <time>2020-06-06T07:12:23Z</time>
      </trkpt>
      <trkpt lat="44.01295" lon="1.99126">
        <ele>263.54</ele>
        <time>2020-06-06T07:12:34Z</time>
      </trkpt>
      <trkpt lat="44.01298" lon="1.99146">
        <ele>262.1</ele>
        <time>2020-06-06T07:12:45Z</time>
      </trkpt>
      <trkpt lat="44.01302" lon="1.99169">
        <ele>260.65</ele>
        <time>2020-06-06T07:12:57Z</time>
      </trkpt>
      <trkpt lat="44.01304" lon="1.99187">
        <ele>260.17</ele>
        <time>2020-06-06T07:13:07Z</time>
      </trkpt>
      <trkpt lat="44.01308" lon="1.99203">
        <ele>259.69</ele>
        <time>2020-06-06T07:13:16Z</time>
      </trkpt>
      <trkpt lat="44.01309" lon="1.99219">
        <ele>259.69</ele>
        <time>2020-06-06T07:13:24Z</time>
      </trkpt>
      <trkpt lat="44.01312" lon="1.99238">
        <ele>261.14</ele>
        <time>2020-06-06T07:13:34Z</time>
      </trkpt>
      <trkpt lat="44.01314" lon="1.99249">
        <ele>260.65</ele>
        <time>2020-06-06T07:13:40Z</time>
      </trkpt>
      <trkpt lat="44.01318" lon="1.9927">
        <ele>260.65</ele>
        <time>2020-06-06T07:13:51Z</time>
      </trkpt>
      <trkpt lat="44.01321" lon="1.99288">
        <ele>261.62</ele>
        <time>2020-06-06T07:14:01Z</time>
      </trkpt>
      <trkpt lat="44.01323" lon="1.99305">
        <ele>261.14</ele>
        <time>2020-06-06T07:14:10Z</time>
      </trkpt>
      <trkpt lat="44.01326" lon="1.99324">
        <ele>260.65</ele>
        <time>2020-06-06T07:14:19Z</time>
      </trkpt>
      <trkpt lat="44.01327" lon="1.9934">
        <ele>261.14</ele>
        <time>2020-06-06T07:14:27Z</time>
      </trkpt>
      <trkpt lat="44.01328" lon="1.99348">
        <ele>262.1</ele>
        <time>2020-06-06T07:14:31Z</time>
      </trkpt>
      <trkpt lat="44.01331" lon="1.99362">
        <ele>260.17</ele>
        <time>2020-06-06T07:14:39Z</time>
      </trkpt>
      <trkpt lat="44.01337" lon="1.99383">
        <ele>257.77</ele>
        <time>2020-06-06T07:14:49Z</time>
      </trkpt>
      <trkpt lat="44.01342" lon="1.99395">
        <ele>256.33</ele>
        <time>2020-06-06T07:14:56Z</time>
      </trkpt>
      <trkpt lat="44.01354" lon="1.99411">
        <ele>254.41</ele>
        <time>2020-06-06T07:15:07Z</time>
      </trkpt>
      <trkpt lat="44.01359" lon="1.99417">
        <ele>253.93</ele>
        <time>2020-06-06T07:15:15Z</time>
      </trkpt>
      <trkpt lat="44.01366" lon="1.9942">
        <ele>252.96</ele>
        <time>2020-06-06T07:15:23Z</time>
      </trkpt>
      <trkpt lat="44.01381" lon="1.99426">
        <ele>250.56</ele>
        <time>2020-06-06T07:15:32Z</time>
      </trkpt>
      <trkpt lat="44.01393" lon="1.9943">
        <ele>248.64</ele>
        <time>2020-06-06T07:15:41Z</time>
      </trkpt>
      <trkpt lat="44.01398" lon="1.99432">
        <ele>247.68</ele>
        <time>2020-06-06T07:15:48Z</time>
      </trkpt>
      <trkpt lat="44.01416" lon="1.99445">
        <ele>245.27</ele>
        <time>2020-06-06T07:15:59Z</time>
      </trkpt>
      <trkpt lat="44.01424" lon="1.99454">
        <ele>243.83</ele>
        <time>2020-06-06T07:16:06Z</time>
      </trkpt>
      <trkpt lat="44.01425" lon="1.9946">
        <ele>242.87</ele>
        <time>2020-06-06T07:16:13Z</time>
      </trkpt>
      <trkpt lat="44.01425" lon="1.9946">
        <ele>242.39</ele>
        <time>2020-06-06T07:16:15Z</time>
      </trkpt>
      <trkpt lat="44.01431" lon="1.99465">
        <ele>242.39</ele>
        <time>2020-06-06T07:16:20Z</time>
      </trkpt>
      <trkpt lat="44.01446" lon="1.99479">
        <ele>242.87</ele>
        <time>2020-06-06T07:16:31Z</time>
      </trkpt>
      <trkpt lat="44.0146" lon="1.99491">
        <ele>245.75</ele>
        <time>2020-06-06T07:16:42Z</time>
      </trkpt>
      <trkpt lat="44.01462" lon="1.99491">
        <ele>246.23</ele>
        <time>2020-06-06T07:16:49Z</time>
      </trkpt>
      <trkpt lat="44.01475" lon="1.995">
        <ele>246.72</ele>
        <time>2020-06-06T07:16:57Z</time>
      </trkpt>
      <trkpt lat="44.01487" lon="1.99507">
        <ele>248.64</ele>
        <time>2020-06-06T07:17:05Z</time>
      </trkpt>
      <trkpt lat="44.015" lon="1.99515">
        <ele>250.08</ele>
        <time>2020-06-06T07:17:14Z</time>
      </trkpt>
      <trkpt lat="44.01502" lon="1.9952">
        <ele>249.12</ele>
        <time>2020-06-06T07:17:20Z</time>
      </trkpt>
      <trkpt lat="44.01503" lon="1.9952">
        <ele>249.6</ele>
        <time>2020-06-06T07:17:22Z</time>
      </trkpt>
      <trkpt lat="44.01504" lon="1.9952">
        <ele>249.6</ele>
        <time>2020-06-06T07:17:23Z</time>
      </trkpt>
      <trkpt lat="44.01506" lon="1.99519">
        <ele>250.08</ele>
        <time>2020-06-06T07:17:24Z</time>
      </trkpt>
      <trkpt lat="44.01507" lon="1.99519">
        <ele>249.6</ele>
        <time>2020-06-06T07:17:25Z</time>
      </trkpt>
      <trkpt lat="44.01509" lon="1.99519">
        <ele>249.6</ele>
        <time>2020-06-06T07:17:26Z</time>
      </trkpt>
      <trkpt lat="44.01511" lon="1.99519">
        <ele>249.6</ele>
        <time>2020-06-06T07:17:27Z</time>
      </trkpt>
      <trkpt lat="44.01513" lon="1.99519">
        <ele>250.08</ele>
        <time>2020-06-06T07:17:28Z</time>
      </trkpt>
      <trkpt lat="44.01527" lon="1.99521">
        <ele>252</ele>
        <time>2020-06-06T07:17:37Z</time>
      </trkpt>
      <trkpt lat="44.01546" lon="1.99518">
        <ele>253.44</ele>
        <time>2020-06-06T07:17:49Z</time>
      </trkpt>
      <trkpt lat="44.01562" lon="1.99517">
        <ele>255.37</ele>
        <time>2020-06-06T07:17:59Z</time>
      </trkpt>
      <trkpt lat="44.01572" lon="1.99517">
        <ele>256.33</ele>
        <time>2020-06-06T07:18:06Z</time>
      </trkpt>
      <trkpt lat="44.01586" lon="1.99519">
        <ele>259.21</ele>
        <time>2020-06-06T07:18:16Z</time>
      </trkpt>
      <trkpt lat="44.016" lon="1.9952">
        <ele>262.1</ele>
        <time>2020-06-06T07:18:25Z</time>
      </trkpt>
      <trkpt lat="44.01616" lon="1.9952">
        <ele>264.5</ele>
        <time>2020-06-06T07:18:35Z</time>
      </trkpt>
      <trkpt lat="44.01629" lon="1.99516">
        <ele>265.94</ele>
        <time>2020-06-06T07:18:44Z</time>
      </trkpt>
      <trkpt lat="44.01642" lon="1.99507">
        <ele>266.42</ele>
        <time>2020-06-06T07:18:55Z</time>
      </trkpt>
      <trkpt lat="44.01655" lon="1.99499">
        <ele>265.46</ele>
        <time>2020-06-06T07:19:05Z</time>
      </trkpt>
      <trkpt lat="44.01667" lon="1.9949">
        <ele>264.98</ele>
        <time>2020-06-06T07:19:15Z</time>
      </trkpt>
      <trkpt lat="44.01678" lon="1.99482">
        <ele>265.46</ele>
        <time>2020-06-06T07:19:25Z</time>
      </trkpt>
      <trkpt lat="44.01689" lon="1.99473">
        <ele>264.98</ele>
        <time>2020-06-06T07:19:34Z</time>
      </trkpt>
      <trkpt lat="44.01705" lon="1.99467">
        <ele>265.94</ele>
        <time>2020-06-06T07:19:46Z</time>
      </trkpt>
      <trkpt lat="44.01717" lon="1.99465">
        <ele>265.94</ele>
        <time>2020-06-06T07:19:56Z</time>
      </trkpt>
      <trkpt lat="44.0173" lon="1.99464">
        <ele>266.42</ele>
        <time>2020-06-06T07:20:06Z</time>
      </trkpt>
      <trkpt lat="44.01742" lon="1.99462">
        <ele>266.9</ele>
        <time>2020-06-06T07:20:16Z</time>
      </trkpt>
      <trkpt lat="44.01747" lon="1.99462">
        <ele>267.38</ele>
        <time>2020-06-06T07:20:20Z</time>
      </trkpt>
      <trkpt lat="44.01748" lon="1.9946">
        <ele>268.35</ele>
        <time>2020-06-06T07:20:26Z</time>
      </trkpt>
      <trkpt lat="44.0175" lon="1.99461">
        <ele>268.83</ele>
        <time>2020-06-06T07:20:28Z</time>
      </trkpt>
      <trkpt lat="44.01751" lon="1.99462">
        <ele>268.83</ele>
        <time>2020-06-06T07:20:29Z</time>
      </trkpt>
      <trkpt lat="44.01759" lon="1.99468">
        <ele>269.31</ele>
        <time>2020-06-06T07:20:38Z</time>
      </trkpt>
      <trkpt lat="44.0176" lon="1.99468">
        <ele>268.83</ele>
        <time>2020-06-06T07:20:51Z</time>
      </trkpt>
      <trkpt lat="44.01762" lon="1.99468">
        <ele>268.83</ele>
        <time>2020-06-06T07:20:52Z</time>
      </trkpt>
      <trkpt lat="44.01763" lon="1.99467">
        <ele>268.83</ele>
        <time>2020-06-06T07:20:53Z</time>
      </trkpt>
      <trkpt lat="44.01765" lon="1.99467">
        <ele>268.83</ele>
        <time>2020-06-06T07:20:54Z</time>
      </trkpt>
      <trkpt lat="44.01767" lon="1.99467">
        <ele>268.83</ele>
        <time>2020-06-06T07:20:55Z</time>
      </trkpt>
      <trkpt lat="44.01781" lon="1.99465">
        <ele>267.86</ele>
        <time>2020-06-06T07:21:06Z</time>
      </trkpt>
      <trkpt lat="44.01782" lon="1.99466">
        <ele>267.86</ele>
        <time>2020-06-06T07:21:12Z</time>
      </trkpt>
      <trkpt lat="44.01795" lon="1.99471">
        <ele>268.83</ele>
        <time>2020-06-06T07:21:20Z</time>
      </trkpt>
      <trkpt lat="44.01797" lon="1.99471">
        <ele>268.35</ele>
        <time>2020-06-06T07:21:21Z</time>
      </trkpt>
      <trkpt lat="44.01798" lon="1.9947">
        <ele>268.35</ele>
        <time>2020-06-06T07:21:22Z</time>
      </trkpt>
      <trkpt lat="44.01799" lon="1.99471">
        <ele>267.86</ele>
        <time>2020-06-06T07:21:28Z</time>
      </trkpt>
      <trkpt lat="44.018" lon="1.99472">
        <ele>267.86</ele>
        <time>2020-06-06T07:21:29Z</time>
      </trkpt>
      <trkpt lat="44.01801" lon="1.99472">
        <ele>267.86</ele>
        <time>2020-06-06T07:21:30Z</time>
      </trkpt>
      <trkpt lat="44.01821" lon="1.99476">
        <ele>269.31</ele>
        <time>2020-06-06T07:21:42Z</time>
      </trkpt>
      <trkpt lat="44.01843" lon="1.99483">
        <ele>270.27</ele>
        <time>2020-06-06T07:21:55Z</time>
      </trkpt>
      <trkpt lat="44.01862" lon="1.99491">
        <ele>270.75</ele>
        <time>2020-06-06T07:22:06Z</time>
      </trkpt>
      <trkpt lat="44.01878" lon="1.99497">
        <ele>271.23</ele>
        <time>2020-06-06T07:22:16Z</time>
      </trkpt>
      <trkpt lat="44.01896" lon="1.99503">
        <ele>271.71</ele>
        <time>2020-06-06T07:22:26Z</time>
      </trkpt>
      <trkpt lat="44.01911" lon="1.99505">
        <ele>272.19</ele>
        <time>2020-06-06T07:22:35Z</time>
      </trkpt>
      <trkpt lat="44.01933" lon="1.99505">
        <ele>272.19</ele>
        <time>2020-06-06T07:22:48Z</time>
      </trkpt>
      <trkpt lat="44.01954" lon="1.99508">
        <ele>272.67</ele>
        <time>2020-06-06T07:23:00Z</time>
      </trkpt>
      <trkpt lat="44.01973" lon="1.9951">
        <ele>271.71</ele>
        <time>2020-06-06T07:23:12Z</time>
      </trkpt>
      <trkpt lat="44.01988" lon="1.99511">
        <ele>272.19</ele>
        <time>2020-06-06T07:23:24Z</time>
      </trkpt>
      <trkpt lat="44.02002" lon="1.99513">
        <ele>272.19</ele>
        <time>2020-06-06T07:23:34Z</time>
      </trkpt>
      <trkpt lat="44.02017" lon="1.99513">
        <ele>273.15</ele>
        <time>2020-06-06T07:23:45Z</time>
      </trkpt>
      <trkpt lat="44.02034" lon="1.99513">
        <ele>273.15</ele>
        <time>2020-06-06T07:23:57Z</time>
      </trkpt>
      <trkpt lat="44.02047" lon="1.99514">
        <ele>274.59</ele>
        <time>2020-06-06T07:24:07Z</time>
      </trkpt>
      <trkpt lat="44.02062" lon="1.99515">
        <ele>275.07</ele>
        <time>2020-06-06T07:24:18Z</time>
      </trkpt>
      <trkpt lat="44.02077" lon="1.99521">
        <ele>275.56</ele>
        <time>2020-06-06T07:24:29Z</time>
      </trkpt>
      <trkpt lat="44.02095" lon="1.99529">
        <ele>276.04</ele>
        <time>2020-06-06T07:24:42Z</time>
      </trkpt>
      <trkpt lat="44.02108" lon="1.99537">
        <ele>274.59</ele>
        <time>2020-06-06T07:24:52Z</time>
      </trkpt>
      <trkpt lat="44.02116" lon="1.99545">
        <ele>273.63</ele>
        <time>2020-06-06T07:25:00Z</time>
      </trkpt>
      <trkpt lat="44.02128" lon="1.99559">
        <ele>275.07</ele>
        <time>2020-06-06T07:25:11Z</time>
      </trkpt>
      <trkpt lat="44.02135" lon="1.9957">
        <ele>275.56</ele>
        <time>2020-06-06T07:25:18Z</time>
      </trkpt>
      <trkpt lat="44.02144" lon="1.99585">
        <ele>275.07</ele>
        <time>2020-06-06T07:25:28Z</time>
      </trkpt>
      <trkpt lat="44.02148" lon="1.99595">
        <ele>275.56</ele>
        <time>2020-06-06T07:25:35Z</time>
      </trkpt>
      <trkpt lat="44.02149" lon="1.99596">
        <ele>275.56</ele>
        <time>2020-06-06T07:25:36Z</time>
      </trkpt>
      <trkpt lat="44.02149" lon="1.99597">
        <ele>275.56</ele>
        <time>2020-06-06T07:25:37Z</time>
      </trkpt>
      <trkpt lat="44.0215" lon="1.99598">
        <ele>275.56</ele>
        <time>2020-06-06T07:25:38Z</time>
      </trkpt>
      <trkpt lat="44.02152" lon="1.99599">
        <ele>275.56</ele>
        <time>2020-06-06T07:25:39Z</time>
      </trkpt>
      <trkpt lat="44.02153" lon="1.99599">
        <ele>275.07</ele>
        <time>2020-06-06T07:25:40Z</time>
      </trkpt>
      <trkpt lat="44.02154" lon="1.99599">
        <ele>275.07</ele>
        <time>2020-06-06T07:25:41Z</time>
      </trkpt>
      <trkpt lat="44.02162" lon="1.99595">
        <ele>275.56</ele>
        <time>2020-06-06T07:25:49Z</time>
      </trkpt>
      <trkpt lat="44.02163" lon="1.99591">
        <ele>275.56</ele>
        <time>2020-06-06T07:25:56Z</time>
      </trkpt>
      <trkpt lat="44.02164" lon="1.9959">
        <ele>275.07</ele>
        <time>2020-06-06T07:25:58Z</time>
      </trkpt>
      <trkpt lat="44.02175" lon="1.99574">
        <ele>275.56</ele>
        <time>2020-06-06T07:26:08Z</time>
      </trkpt>
      <trkpt lat="44.02188" lon="1.99551">
        <ele>278.44</ele>
        <time>2020-06-06T07:26:22Z</time>
      </trkpt>
      <trkpt lat="44.02199" lon="1.99536">
        <ele>278.44</ele>
        <time>2020-06-06T07:26:33Z</time>
      </trkpt>
      <trkpt lat="44.02211" lon="1.99518">
        <ele>278.92</ele>
        <time>2020-06-06T07:26:46Z</time>
      </trkpt>
      <trkpt lat="44.02225" lon="1.995">
        <ele>280.36</ele>
        <time>2020-06-06T07:26:59Z</time>
      </trkpt>
      <trkpt lat="44.02229" lon="1.99494">
        <ele>280.84</ele>
        <time>2020-06-06T07:27:03Z</time>
      </trkpt>
      <trkpt lat="44.0223" lon="1.99494">
        <ele>280.84</ele>
        <time>2020-06-06T07:27:04Z</time>
      </trkpt>
      <trkpt lat="44.0223" lon="1.99492">
        <ele>280.84</ele>
        <time>2020-06-06T07:27:05Z</time>
      </trkpt>
      <trkpt lat="44.02241" lon="1.99476">
        <ele>281.8</ele>
        <time>2020-06-06T07:27:17Z</time>
      </trkpt>
      <trkpt lat="44.02253" lon="1.9946">
        <ele>283.25</ele>
        <time>2020-06-06T07:27:29Z</time>
      </trkpt>
      <trkpt lat="44.02263" lon="1.99444">
        <ele>284.21</ele>
        <time>2020-06-06T07:27:40Z</time>
      </trkpt>
      <trkpt lat="44.02264" lon="1.99443">
        <ele>284.69</ele>
        <time>2020-06-06T07:27:41Z</time>
      </trkpt>
      <trkpt lat="44.02265" lon="1.99442">
        <ele>284.21</ele>
        <time>2020-06-06T07:27:42Z</time>
      </trkpt>
      <trkpt lat="44.02274" lon="1.99426">
        <ele>285.17</ele>
        <time>2020-06-06T07:27:53Z</time>
      </trkpt>
      <trkpt lat="44.02277" lon="1.99422">
        <ele>286.13</ele>
        <time>2020-06-06T07:28:00Z</time>
      </trkpt>
      <trkpt lat="44.02278" lon="1.99421">
        <ele>285.17</ele>
        <time>2020-06-06T07:28:09Z</time>
      </trkpt>
      <trkpt lat="44.02277" lon="1.99419">
        <ele>284.21</ele>
        <time>2020-06-06T07:28:24Z</time>
      </trkpt>
      <trkpt lat="44.02277" lon="1.99419">
        <ele>283.25</ele>
        <time>2020-06-06T07:28:33Z</time>
      </trkpt>
      <trkpt lat="44.02281" lon="1.99418">
        <ele>284.21</ele>
        <time>2020-06-06T07:28:39Z</time>
      </trkpt>
      <trkpt lat="44.02281" lon="1.99416">
        <ele>284.21</ele>
        <time>2020-06-06T07:28:40Z</time>
      </trkpt>
      <trkpt lat="44.02281" lon="1.99415">
        <ele>284.21</ele>
        <time>2020-06-06T07:28:41Z</time>
      </trkpt>
      <trkpt lat="44.02282" lon="1.99413">
        <ele>284.21</ele>
        <time>2020-06-06T07:28:42Z</time>
      </trkpt>
      <trkpt lat="44.02281" lon="1.99412">
        <ele>284.69</ele>
        <time>2020-06-06T07:28:47Z</time>
      </trkpt>
      <trkpt lat="44.02281" lon="1.99412">
        <ele>284.69</ele>
        <time>2020-06-06T07:28:54Z</time>
      </trkpt>
      <trkpt lat="44.02282" lon="1.99412">
        <ele>284.69</ele>
        <time>2020-06-06T07:29:00Z</time>
      </trkpt>
      <trkpt lat="44.02282" lon="1.9941">
        <ele>284.69</ele>
        <time>2020-06-06T07:29:02Z</time>
      </trkpt>
      <trkpt lat="44.02285" lon="1.99408">
        <ele>285.17</ele>
        <time>2020-06-06T07:29:05Z</time>
      </trkpt>
      <trkpt lat="44.02285" lon="1.99407">
        <ele>285.65</ele>
        <time>2020-06-06T07:29:06Z</time>
      </trkpt>
      <trkpt lat="44.02286" lon="1.99406">
        <ele>286.13</ele>
        <time>2020-06-06T07:29:07Z</time>
      </trkpt>
      <trkpt lat="44.02289" lon="1.99401">
        <ele>286.13</ele>
        <time>2020-06-06T07:29:12Z</time>
      </trkpt>
      <trkpt lat="44.0229" lon="1.99399">
        <ele>286.13</ele>
        <time>2020-06-06T07:29:13Z</time>
      </trkpt>
      <trkpt lat="44.02291" lon="1.99398">
        <ele>286.13</ele>
        <time>2020-06-06T07:29:14Z</time>
      </trkpt>
      <trkpt lat="44.02292" lon="1.99397">
        <ele>286.13</ele>
        <time>2020-06-06T07:29:15Z</time>
      </trkpt>
      <trkpt lat="44.02293" lon="1.99396">
        <ele>286.61</ele>
        <time>2020-06-06T07:29:16Z</time>
      </trkpt>
      <trkpt lat="44.02294" lon="1.99395">
        <ele>286.61</ele>
        <time>2020-06-06T07:29:17Z</time>
      </trkpt>
      <trkpt lat="44.02295" lon="1.99393">
        <ele>286.61</ele>
        <time>2020-06-06T07:29:18Z</time>
      </trkpt>
      <trkpt lat="44.02296" lon="1.99392">
        <ele>287.09</ele>
        <time>2020-06-06T07:29:19Z</time>
      </trkpt>
      <trkpt lat="44.02301" lon="1.99378">
        <ele>287.09</ele>
        <time>2020-06-06T07:29:27Z</time>
      </trkpt>
      <trkpt lat="44.02308" lon="1.99364">
        <ele>288.53</ele>
        <time>2020-06-06T07:29:36Z</time>
      </trkpt>
      <trkpt lat="44.02316" lon="1.99347">
        <ele>289.01</ele>
        <time>2020-06-06T07:29:46Z</time>
      </trkpt>
      <trkpt lat="44.02325" lon="1.99332">
        <ele>289.97</ele>
        <time>2020-06-06T07:29:57Z</time>
      </trkpt>
      <trkpt lat="44.0233" lon="1.99324">
        <ele>289.97</ele>
        <time>2020-06-06T07:30:04Z</time>
      </trkpt>
      <trkpt lat="44.0233" lon="1.99322">
        <ele>289.97</ele>
        <time>2020-06-06T07:30:05Z</time>
      </trkpt>
      <trkpt lat="44.02341" lon="1.99305">
        <ele>290.94</ele>
        <time>2020-06-06T07:30:17Z</time>
      </trkpt>
      <trkpt lat="44.02348" lon="1.99292">
        <ele>290.46</ele>
        <time>2020-06-06T07:30:26Z</time>
      </trkpt>
      <trkpt lat="44.02358" lon="1.99278">
        <ele>289.97</ele>
        <time>2020-06-06T07:30:36Z</time>
      </trkpt>
      <trkpt lat="44.02364" lon="1.9927">
        <ele>290.46</ele>
        <time>2020-06-06T07:30:43Z</time>
      </trkpt>
      <trkpt lat="44.0237" lon="1.99264">
        <ele>290.46</ele>
        <time>2020-06-06T07:30:50Z</time>
      </trkpt>
      <trkpt lat="44.02374" lon="1.99259">
        <ele>289.97</ele>
        <time>2020-06-06T07:30:55Z</time>
      </trkpt>
      <trkpt lat="44.02375" lon="1.99258">
        <ele>289.97</ele>
        <time>2020-06-06T07:30:56Z</time>
      </trkpt>
      <trkpt lat="44.02387" lon="1.99242">
        <ele>287.09</ele>
        <time>2020-06-06T07:31:08Z</time>
      </trkpt>
      <trkpt lat="44.02399" lon="1.99227">
        <ele>285.65</ele>
        <time>2020-06-06T07:31:20Z</time>
      </trkpt>
      <trkpt lat="44.02407" lon="1.99215">
        <ele>284.69</ele>
        <time>2020-06-06T07:31:29Z</time>
      </trkpt>
      <trkpt lat="44.02419" lon="1.99201">
        <ele>284.21</ele>
        <time>2020-06-06T07:31:40Z</time>
      </trkpt>
      <trkpt lat="44.02431" lon="1.99188">
        <ele>284.21</ele>
        <time>2020-06-06T07:31:51Z</time>
      </trkpt>
      <trkpt lat="44.02443" lon="1.99174">
        <ele>284.21</ele>
        <time>2020-06-06T07:32:02Z</time>
      </trkpt>
      <trkpt lat="44.0245" lon="1.99165">
        <ele>284.69</ele>
        <time>2020-06-06T07:32:11Z</time>
      </trkpt>
      <trkpt lat="44.02454" lon="1.99159">
        <ele>284.69</ele>
        <time>2020-06-06T07:32:16Z</time>
      </trkpt>
      <trkpt lat="44.02465" lon="1.99138">
        <ele>283.25</ele>
        <time>2020-06-06T07:32:29Z</time>
      </trkpt>
      <trkpt lat="44.02467" lon="1.99135">
        <ele>282.77</ele>
        <time>2020-06-06T07:32:36Z</time>
      </trkpt>
      <trkpt lat="44.02471" lon="1.99127">
        <ele>283.25</ele>
        <time>2020-06-06T07:32:42Z</time>
      </trkpt>
      <trkpt lat="44.02482" lon="1.9911">
        <ele>282.77</ele>
        <time>2020-06-06T07:32:54Z</time>
      </trkpt>
      <trkpt lat="44.02493" lon="1.99093">
        <ele>282.28</ele>
        <time>2020-06-06T07:33:06Z</time>
      </trkpt>
      <trkpt lat="44.02504" lon="1.99082">
        <ele>281.8</ele>
        <time>2020-06-06T07:33:16Z</time>
      </trkpt>
      <trkpt lat="44.02515" lon="1.99073">
        <ele>283.25</ele>
        <time>2020-06-06T07:33:25Z</time>
      </trkpt>
      <trkpt lat="44.02527" lon="1.99063">
        <ele>283.25</ele>
        <time>2020-06-06T07:33:35Z</time>
      </trkpt>
      <trkpt lat="44.02541" lon="1.99052">
        <ele>282.77</ele>
        <time>2020-06-06T07:33:46Z</time>
      </trkpt>
      <trkpt lat="44.02555" lon="1.99045">
        <ele>281.8</ele>
        <time>2020-06-06T07:33:56Z</time>
      </trkpt>
      <trkpt lat="44.02567" lon="1.9904">
        <ele>282.77</ele>
        <time>2020-06-06T07:34:06Z</time>
      </trkpt>
      <trkpt lat="44.02572" lon="1.99039">
        <ele>282.28</ele>
        <time>2020-06-06T07:34:13Z</time>
      </trkpt>
      <trkpt lat="44.02577" lon="1.99037">
        <ele>283.73</ele>
        <time>2020-06-06T07:34:18Z</time>
      </trkpt>
      <trkpt lat="44.02587" lon="1.99031">
        <ele>285.65</ele>
        <time>2020-06-06T07:34:26Z</time>
      </trkpt>
      <trkpt lat="44.02595" lon="1.99028">
        <ele>286.61</ele>
        <time>2020-06-06T07:34:34Z</time>
      </trkpt>
      <trkpt lat="44.02598" lon="1.99027">
        <ele>286.13</ele>
        <time>2020-06-06T07:34:46Z</time>
      </trkpt>
      <trkpt lat="44.0261" lon="1.99022">
        <ele>289.01</ele>
        <time>2020-06-06T07:34:55Z</time>
      </trkpt>
      <trkpt lat="44.02619" lon="1.99019">
        <ele>290.46</ele>
        <time>2020-06-06T07:35:02Z</time>
      </trkpt>
      <trkpt lat="44.0262" lon="1.99019">
        <ele>290.94</ele>
        <time>2020-06-06T07:35:03Z</time>
      </trkpt>
      <trkpt lat="44.02622" lon="1.99018">
        <ele>291.42</ele>
        <time>2020-06-06T07:35:04Z</time>
      </trkpt>
      <trkpt lat="44.02623" lon="1.99018">
        <ele>291.42</ele>
        <time>2020-06-06T07:35:05Z</time>
      </trkpt>
      <trkpt lat="44.02624" lon="1.99017">
        <ele>291.42</ele>
        <time>2020-06-06T07:35:06Z</time>
      </trkpt>
      <trkpt lat="44.02625" lon="1.99016">
        <ele>291.9</ele>
        <time>2020-06-06T07:35:07Z</time>
      </trkpt>
      <trkpt lat="44.02626" lon="1.99015">
        <ele>291.9</ele>
        <time>2020-06-06T07:35:08Z</time>
      </trkpt>
      <trkpt lat="44.02638" lon="1.99">
        <ele>290.94</ele>
        <time>2020-06-06T07:35:19Z</time>
      </trkpt>
      <trkpt lat="44.02645" lon="1.98993">
        <ele>288.53</ele>
        <time>2020-06-06T07:35:26Z</time>
      </trkpt>
      <trkpt lat="44.02658" lon="1.98974">
        <ele>286.13</ele>
        <time>2020-06-06T07:35:39Z</time>
      </trkpt>
      <trkpt lat="44.02669" lon="1.98958">
        <ele>284.21</ele>
        <time>2020-06-06T07:35:50Z</time>
      </trkpt>
      <trkpt lat="44.02682" lon="1.98942">
        <ele>282.77</ele>
        <time>2020-06-06T07:36:02Z</time>
      </trkpt>
      <trkpt lat="44.02693" lon="1.98931">
        <ele>281.8</ele>
        <time>2020-06-06T07:36:10Z</time>
      </trkpt>
      <trkpt lat="44.02704" lon="1.98919">
        <ele>279.88</ele>
        <time>2020-06-06T07:36:20Z</time>
      </trkpt>
      <trkpt lat="44.02718" lon="1.98907">
        <ele>279.88</ele>
        <time>2020-06-06T07:36:32Z</time>
      </trkpt>
      <trkpt lat="44.02731" lon="1.98892">
        <ele>279.4</ele>
        <time>2020-06-06T07:36:44Z</time>
      </trkpt>
      <trkpt lat="44.0274" lon="1.9888">
        <ele>279.4</ele>
        <time>2020-06-06T07:36:54Z</time>
      </trkpt>
      <trkpt lat="44.02748" lon="1.98866">
        <ele>278.44</ele>
        <time>2020-06-06T07:37:04Z</time>
      </trkpt>
      <trkpt lat="44.02757" lon="1.9885">
        <ele>277.48</ele>
        <time>2020-06-06T07:37:14Z</time>
      </trkpt>
      <trkpt lat="44.0276" lon="1.98839">
        <ele>277</ele>
        <time>2020-06-06T07:37:22Z</time>
      </trkpt>
      <trkpt lat="44.02766" lon="1.98817">
        <ele>277</ele>
        <time>2020-06-06T07:37:34Z</time>
      </trkpt>
      <trkpt lat="44.02769" lon="1.98799">
        <ele>276.52</ele>
        <time>2020-06-06T07:37:44Z</time>
      </trkpt>
      <trkpt lat="44.02771" lon="1.98788">
        <ele>276.52</ele>
        <time>2020-06-06T07:37:51Z</time>
      </trkpt>
      <trkpt lat="44.02771" lon="1.98787">
        <ele>277</ele>
        <time>2020-06-06T07:37:52Z</time>
      </trkpt>
      <trkpt lat="44.02771" lon="1.98785">
        <ele>277</ele>
        <time>2020-06-06T07:37:53Z</time>
      </trkpt>
      <trkpt lat="44.02772" lon="1.98783">
        <ele>277</ele>
        <time>2020-06-06T07:37:54Z</time>
      </trkpt>
      <trkpt lat="44.02775" lon="1.98774">
        <ele>277.48</ele>
        <time>2020-06-06T07:38:01Z</time>
      </trkpt>
      <trkpt lat="44.02779" lon="1.98757">
        <ele>277.96</ele>
        <time>2020-06-06T07:38:10Z</time>
      </trkpt>
      <trkpt lat="44.02781" lon="1.98751">
        <ele>278.44</ele>
        <time>2020-06-06T07:38:14Z</time>
      </trkpt>
      <trkpt lat="44.02782" lon="1.9875">
        <ele>277.96</ele>
        <time>2020-06-06T07:38:15Z</time>
      </trkpt>
      <trkpt lat="44.02782" lon="1.98748">
        <ele>277.96</ele>
        <time>2020-06-06T07:38:16Z</time>
      </trkpt>
      <trkpt lat="44.02783" lon="1.98747">
        <ele>277.96</ele>
        <time>2020-06-06T07:38:17Z</time>
      </trkpt>
      <trkpt lat="44.02784" lon="1.98745">
        <ele>277.96</ele>
        <time>2020-06-06T07:38:18Z</time>
      </trkpt>
      <trkpt lat="44.02784" lon="1.98743">
        <ele>277.96</ele>
        <time>2020-06-06T07:38:19Z</time>
      </trkpt>
      <trkpt lat="44.02785" lon="1.98742">
        <ele>277.96</ele>
        <time>2020-06-06T07:38:20Z</time>
      </trkpt>
      <trkpt lat="44.02786" lon="1.9874">
        <ele>277.96</ele>
        <time>2020-06-06T07:38:21Z</time>
      </trkpt>
      <trkpt lat="44.02786" lon="1.98739">
        <ele>277.96</ele>
        <time>2020-06-06T07:38:22Z</time>
      </trkpt>
      <trkpt lat="44.02793" lon="1.98723">
        <ele>279.4</ele>
        <time>2020-06-06T07:38:32Z</time>
      </trkpt>
      <trkpt lat="44.02799" lon="1.98709">
        <ele>280.36</ele>
        <time>2020-06-06T07:38:41Z</time>
      </trkpt>
      <trkpt lat="44.02802" lon="1.98705">
        <ele>279.88</ele>
        <time>2020-06-06T07:38:47Z</time>
      </trkpt>
      <trkpt lat="44.02802" lon="1.98706">
        <ele>278.92</ele>
        <time>2020-06-06T07:39:03Z</time>
      </trkpt>
      <trkpt lat="44.02804" lon="1.98702">
        <ele>278.92</ele>
        <time>2020-06-06T07:39:09Z</time>
      </trkpt>
      <trkpt lat="44.02807" lon="1.98697">
        <ele>278.44</ele>
        <time>2020-06-06T07:39:16Z</time>
      </trkpt>
      <trkpt lat="44.02809" lon="1.98693">
        <ele>278.92</ele>
        <time>2020-06-06T07:39:19Z</time>
      </trkpt>
      <trkpt lat="44.0281" lon="1.98692">
        <ele>279.4</ele>
        <time>2020-06-06T07:39:20Z</time>
      </trkpt>
      <trkpt lat="44.02819" lon="1.98675">
        <ele>280.84</ele>
        <time>2020-06-06T07:39:30Z</time>
      </trkpt>
      <trkpt lat="44.02833" lon="1.98656">
        <ele>280.36</ele>
        <time>2020-06-06T07:39:42Z</time>
      </trkpt>
      <trkpt lat="44.02842" lon="1.98644">
        <ele>283.25</ele>
        <time>2020-06-06T07:39:51Z</time>
      </trkpt>
      <trkpt lat="44.02856" lon="1.9863">
        <ele>285.17</ele>
        <time>2020-06-06T07:40:03Z</time>
      </trkpt>
      <trkpt lat="44.0287" lon="1.98613">
        <ele>285.17</ele>
        <time>2020-06-06T07:40:15Z</time>
      </trkpt>
      <trkpt lat="44.02883" lon="1.98601">
        <ele>286.61</ele>
        <time>2020-06-06T07:40:25Z</time>
      </trkpt>
      <trkpt lat="44.02892" lon="1.98592">
        <ele>287.57</ele>
        <time>2020-06-06T07:40:33Z</time>
      </trkpt>
      <trkpt lat="44.02905" lon="1.9858">
        <ele>288.05</ele>
        <time>2020-06-06T07:40:43Z</time>
      </trkpt>
      <trkpt lat="44.02913" lon="1.98572">
        <ele>289.01</ele>
        <time>2020-06-06T07:40:50Z</time>
      </trkpt>
      <trkpt lat="44.02914" lon="1.98571">
        <ele>289.01</ele>
        <time>2020-06-06T07:40:51Z</time>
      </trkpt>
      <trkpt lat="44.0293" lon="1.98557">
        <ele>289.01</ele>
        <time>2020-06-06T07:41:04Z</time>
      </trkpt>
      <trkpt lat="44.02943" lon="1.98543">
        <ele>289.01</ele>
        <time>2020-06-06T07:41:15Z</time>
      </trkpt>
      <trkpt lat="44.02953" lon="1.98528">
        <ele>289.49</ele>
        <time>2020-06-06T07:41:26Z</time>
      </trkpt>
      <trkpt lat="44.0296" lon="1.98519">
        <ele>290.46</ele>
        <time>2020-06-06T07:41:34Z</time>
      </trkpt>
      <trkpt lat="44.0297" lon="1.98508">
        <ele>291.9</ele>
        <time>2020-06-06T07:41:44Z</time>
      </trkpt>
      <trkpt lat="44.02978" lon="1.98501">
        <ele>293.34</ele>
        <time>2020-06-06T07:41:52Z</time>
      </trkpt>
      <trkpt lat="44.0298" lon="1.98499">
        <ele>293.34</ele>
        <time>2020-06-06T07:41:54Z</time>
      </trkpt>
      <trkpt lat="44.02981" lon="1.98497">
        <ele>293.82</ele>
        <time>2020-06-06T07:41:55Z</time>
      </trkpt>
      <trkpt lat="44.02982" lon="1.98496">
        <ele>293.82</ele>
        <time>2020-06-06T07:41:56Z</time>
      </trkpt>
      <trkpt lat="44.02983" lon="1.98495">
        <ele>294.3</ele>
        <time>2020-06-06T07:41:57Z</time>
      </trkpt>
      <trkpt lat="44.02984" lon="1.98494">
        <ele>294.3</ele>
        <time>2020-06-06T07:41:58Z</time>
      </trkpt>
      <trkpt lat="44.02992" lon="1.98488">
        <ele>294.78</ele>
        <time>2020-06-06T07:42:05Z</time>
      </trkpt>
      <trkpt lat="44.03" lon="1.98478">
        <ele>296.22</ele>
        <time>2020-06-06T07:42:14Z</time>
      </trkpt>
      <trkpt lat="44.03011" lon="1.98466">
        <ele>297.18</ele>
        <time>2020-06-06T07:42:25Z</time>
      </trkpt>
      <trkpt lat="44.0302" lon="1.98455">
        <ele>298.15</ele>
        <time>2020-06-06T07:42:34Z</time>
      </trkpt>
      <trkpt lat="44.03026" lon="1.98448">
        <ele>299.11</ele>
        <time>2020-06-06T07:42:42Z</time>
      </trkpt>
      <trkpt lat="44.03028" lon="1.98449">
        <ele>299.11</ele>
        <time>2020-06-06T07:42:59Z</time>
      </trkpt>
      <trkpt lat="44.0303" lon="1.98442">
        <ele>300.07</ele>
        <time>2020-06-06T07:43:04Z</time>
      </trkpt>
      <trkpt lat="44.03042" lon="1.98429">
        <ele>300.55</ele>
        <time>2020-06-06T07:43:15Z</time>
      </trkpt>
      <trkpt lat="44.03044" lon="1.98427">
        <ele>301.03</ele>
        <time>2020-06-06T07:43:19Z</time>
      </trkpt>
      <trkpt lat="44.03045" lon="1.98427">
        <ele>301.03</ele>
        <time>2020-06-06T07:43:20Z</time>
      </trkpt>
      <trkpt lat="44.03046" lon="1.98426">
        <ele>301.03</ele>
        <time>2020-06-06T07:43:21Z</time>
      </trkpt>
      <trkpt lat="44.03047" lon="1.98424">
        <ele>300.55</ele>
        <time>2020-06-06T07:43:28Z</time>
      </trkpt>
      <trkpt lat="44.03051" lon="1.98423">
        <ele>301.51</ele>
        <time>2020-06-06T07:43:36Z</time>
      </trkpt>
      <trkpt lat="44.03059" lon="1.9841">
        <ele>300.55</ele>
        <time>2020-06-06T07:43:47Z</time>
      </trkpt>
      <trkpt lat="44.03066" lon="1.98396">
        <ele>300.07</ele>
        <time>2020-06-06T07:43:56Z</time>
      </trkpt>
      <trkpt lat="44.03078" lon="1.98378">
        <ele>301.03</ele>
        <time>2020-06-06T07:44:07Z</time>
      </trkpt>
      <trkpt lat="44.03089" lon="1.98365">
        <ele>301.99</ele>
        <time>2020-06-06T07:44:17Z</time>
      </trkpt>
      <trkpt lat="44.03103" lon="1.98355">
        <ele>301.03</ele>
        <time>2020-06-06T07:44:28Z</time>
      </trkpt>
      <trkpt lat="44.03118" lon="1.98354">
        <ele>300.07</ele>
        <time>2020-06-06T07:44:39Z</time>
      </trkpt>
      <trkpt lat="44.03132" lon="1.98352">
        <ele>300.55</ele>
        <time>2020-06-06T07:44:50Z</time>
      </trkpt>
      <trkpt lat="44.03143" lon="1.98345">
        <ele>301.51</ele>
        <time>2020-06-06T07:45:00Z</time>
      </trkpt>
      <trkpt lat="44.0316" lon="1.98332">
        <ele>301.03</ele>
        <time>2020-06-06T07:45:13Z</time>
      </trkpt>
      <trkpt lat="44.03174" lon="1.98321">
        <ele>301.99</ele>
        <time>2020-06-06T07:45:25Z</time>
      </trkpt>
      <trkpt lat="44.03186" lon="1.98312">
        <ele>302.47</ele>
        <time>2020-06-06T07:45:34Z</time>
      </trkpt>
      <trkpt lat="44.03199" lon="1.98306">
        <ele>302.95</ele>
        <time>2020-06-06T07:45:44Z</time>
      </trkpt>
      <trkpt lat="44.03213" lon="1.983">
        <ele>302.95</ele>
        <time>2020-06-06T07:45:55Z</time>
      </trkpt>
      <trkpt lat="44.03227" lon="1.98294">
        <ele>301.99</ele>
        <time>2020-06-06T07:46:06Z</time>
      </trkpt>
      <trkpt lat="44.0324" lon="1.98288">
        <ele>301.03</ele>
        <time>2020-06-06T07:46:17Z</time>
      </trkpt>
      <trkpt lat="44.03257" lon="1.98282">
        <ele>300.07</ele>
        <time>2020-06-06T07:46:30Z</time>
      </trkpt>
      <trkpt lat="44.03272" lon="1.98275">
        <ele>299.59</ele>
        <time>2020-06-06T07:46:41Z</time>
      </trkpt>
      <trkpt lat="44.03287" lon="1.98267">
        <ele>299.59</ele>
        <time>2020-06-06T07:46:53Z</time>
      </trkpt>
      <trkpt lat="44.03301" lon="1.98262">
        <ele>300.07</ele>
        <time>2020-06-06T07:47:03Z</time>
      </trkpt>
      <trkpt lat="44.03314" lon="1.98258">
        <ele>301.51</ele>
        <time>2020-06-06T07:47:13Z</time>
      </trkpt>
      <trkpt lat="44.03323" lon="1.98256">
        <ele>301.51</ele>
        <time>2020-06-06T07:47:21Z</time>
      </trkpt>
      <trkpt lat="44.03326" lon="1.98256">
        <ele>301.51</ele>
        <time>2020-06-06T07:47:29Z</time>
      </trkpt>
      <trkpt lat="44.03333" lon="1.98254">
        <ele>301.51</ele>
        <time>2020-06-06T07:47:38Z</time>
      </trkpt>
      <trkpt lat="44.03354" lon="1.98254">
        <ele>300.07</ele>
        <time>2020-06-06T07:47:50Z</time>
      </trkpt>
      <trkpt lat="44.0337" lon="1.98253">
        <ele>300.07</ele>
        <time>2020-06-06T07:47:59Z</time>
      </trkpt>
      <trkpt lat="44.0339" lon="1.98253">
        <ele>300.07</ele>
        <time>2020-06-06T07:48:11Z</time>
      </trkpt>
      <trkpt lat="44.03409" lon="1.98258">
        <ele>297.18</ele>
        <time>2020-06-06T07:48:23Z</time>
      </trkpt>
      <trkpt lat="44.03427" lon="1.9826">
        <ele>296.7</ele>
        <time>2020-06-06T07:48:36Z</time>
      </trkpt>
      <trkpt lat="44.03441" lon="1.98258">
        <ele>297.18</ele>
        <time>2020-06-06T07:48:46Z</time>
      </trkpt>
      <trkpt lat="44.03452" lon="1.98256">
        <ele>297.67</ele>
        <time>2020-06-06T07:48:54Z</time>
      </trkpt>
      <trkpt lat="44.03464" lon="1.98251">
        <ele>296.22</ele>
        <time>2020-06-06T07:49:03Z</time>
      </trkpt>
      <trkpt lat="44.03476" lon="1.98245">
        <ele>297.18</ele>
        <time>2020-06-06T07:49:12Z</time>
      </trkpt>
      <trkpt lat="44.03488" lon="1.9824">
        <ele>296.22</ele>
        <time>2020-06-06T07:49:20Z</time>
      </trkpt>
      <trkpt lat="44.03502" lon="1.98234">
        <ele>294.3</ele>
        <time>2020-06-06T07:49:30Z</time>
      </trkpt>
      <trkpt lat="44.03519" lon="1.98229">
        <ele>294.78</ele>
        <time>2020-06-06T07:49:43Z</time>
      </trkpt>
      <trkpt lat="44.03534" lon="1.98223">
        <ele>291.42</ele>
        <time>2020-06-06T07:49:53Z</time>
      </trkpt>
      <trkpt lat="44.03545" lon="1.98222">
        <ele>289.97</ele>
        <time>2020-06-06T07:50:01Z</time>
      </trkpt>
      <trkpt lat="44.0356" lon="1.98221">
        <ele>290.94</ele>
        <time>2020-06-06T07:50:12Z</time>
      </trkpt>
      <trkpt lat="44.03573" lon="1.98219">
        <ele>291.42</ele>
        <time>2020-06-06T07:50:21Z</time>
      </trkpt>
      <trkpt lat="44.03582" lon="1.98215">
        <ele>292.86</ele>
        <time>2020-06-06T07:50:28Z</time>
      </trkpt>
      <trkpt lat="44.03583" lon="1.98215">
        <ele>293.34</ele>
        <time>2020-06-06T07:50:29Z</time>
      </trkpt>
      <trkpt lat="44.03584" lon="1.98214">
        <ele>293.82</ele>
        <time>2020-06-06T07:50:32Z</time>
      </trkpt>
      <trkpt lat="44.03584" lon="1.98213">
        <ele>293.82</ele>
        <time>2020-06-06T07:50:33Z</time>
      </trkpt>
      <trkpt lat="44.03584" lon="1.98211">
        <ele>293.82</ele>
        <time>2020-06-06T07:50:34Z</time>
      </trkpt>
      <trkpt lat="44.03592" lon="1.98204">
        <ele>296.7</ele>
        <time>2020-06-06T07:50:42Z</time>
      </trkpt>
      <trkpt lat="44.03599" lon="1.98195">
        <ele>299.59</ele>
        <time>2020-06-06T07:50:49Z</time>
      </trkpt>
      <trkpt lat="44.036" lon="1.98194">
        <ele>300.07</ele>
        <time>2020-06-06T07:50:50Z</time>
      </trkpt>
      <trkpt lat="44.03601" lon="1.98193">
        <ele>300.55</ele>
        <time>2020-06-06T07:50:51Z</time>
      </trkpt>
      <trkpt lat="44.03602" lon="1.98192">
        <ele>300.55</ele>
        <time>2020-06-06T07:50:52Z</time>
      </trkpt>
      <trkpt lat="44.03604" lon="1.9819">
        <ele>301.03</ele>
        <time>2020-06-06T07:50:53Z</time>
      </trkpt>
      <trkpt lat="44.03611" lon="1.98184">
        <ele>301.99</ele>
        <time>2020-06-06T07:51:00Z</time>
      </trkpt>
      <trkpt lat="44.03618" lon="1.98183">
        <ele>302.47</ele>
        <time>2020-06-06T07:51:07Z</time>
      </trkpt>
      <trkpt lat="44.03626" lon="1.98178">
        <ele>302.95</ele>
        <time>2020-06-06T07:51:14Z</time>
      </trkpt>
      <trkpt lat="44.03639" lon="1.98177">
        <ele>303.43</ele>
        <time>2020-06-06T07:51:22Z</time>
      </trkpt>
      <trkpt lat="44.03652" lon="1.98177">
        <ele>303.43</ele>
        <time>2020-06-06T07:51:31Z</time>
      </trkpt>
      <trkpt lat="44.03666" lon="1.98178">
        <ele>301.03</ele>
        <time>2020-06-06T07:51:39Z</time>
      </trkpt>
      <trkpt lat="44.03679" lon="1.98183">
        <ele>299.11</ele>
        <time>2020-06-06T07:51:48Z</time>
      </trkpt>
      <trkpt lat="44.0369" lon="1.98186">
        <ele>297.67</ele>
        <time>2020-06-06T07:51:56Z</time>
      </trkpt>
      <trkpt lat="44.037" lon="1.98183">
        <ele>295.26</ele>
        <time>2020-06-06T07:52:02Z</time>
      </trkpt>
      <trkpt lat="44.03701" lon="1.98182">
        <ele>294.78</ele>
        <time>2020-06-06T07:52:03Z</time>
      </trkpt>
      <trkpt lat="44.03702" lon="1.98182">
        <ele>294.3</ele>
        <time>2020-06-06T07:52:04Z</time>
      </trkpt>
      <trkpt lat="44.03704" lon="1.98181">
        <ele>293.82</ele>
        <time>2020-06-06T07:52:05Z</time>
      </trkpt>
      <trkpt lat="44.03705" lon="1.98181">
        <ele>293.34</ele>
        <time>2020-06-06T07:52:06Z</time>
      </trkpt>
      <trkpt lat="44.03706" lon="1.98181">
        <ele>292.86</ele>
        <time>2020-06-06T07:52:07Z</time>
      </trkpt>
      <trkpt lat="44.03707" lon="1.9818">
        <ele>292.86</ele>
        <time>2020-06-06T07:52:08Z</time>
      </trkpt>
      <trkpt lat="44.03709" lon="1.98179">
        <ele>291.9</ele>
        <time>2020-06-06T07:52:10Z</time>
      </trkpt>
      <trkpt lat="44.0371" lon="1.98179">
        <ele>290.94</ele>
        <time>2020-06-06T07:52:11Z</time>
      </trkpt>
      <trkpt lat="44.03712" lon="1.98178">
        <ele>290.94</ele>
        <time>2020-06-06T07:52:12Z</time>
      </trkpt>
      <trkpt lat="44.03713" lon="1.98178">
        <ele>290.46</ele>
        <time>2020-06-06T07:52:13Z</time>
      </trkpt>
      <trkpt lat="44.03714" lon="1.98177">
        <ele>290.46</ele>
        <time>2020-06-06T07:52:14Z</time>
      </trkpt>
      <trkpt lat="44.03715" lon="1.98176">
        <ele>290.46</ele>
        <time>2020-06-06T07:52:15Z</time>
      </trkpt>
      <trkpt lat="44.03728" lon="1.9817">
        <ele>289.49</ele>
        <time>2020-06-06T07:52:25Z</time>
      </trkpt>
      <trkpt lat="44.03743" lon="1.98164">
        <ele>285.17</ele>
        <time>2020-06-06T07:52:34Z</time>
      </trkpt>
      <trkpt lat="44.03757" lon="1.98161">
        <ele>281.32</ele>
        <time>2020-06-06T07:52:42Z</time>
      </trkpt>
      <trkpt lat="44.0377" lon="1.98157">
        <ele>279.88</ele>
        <time>2020-06-06T07:52:50Z</time>
      </trkpt>
      <trkpt lat="44.03785" lon="1.98151">
        <ele>276.52</ele>
        <time>2020-06-06T07:53:00Z</time>
      </trkpt>
      <trkpt lat="44.03796" lon="1.98146">
        <ele>274.11</ele>
        <time>2020-06-06T07:53:08Z</time>
      </trkpt>
      <trkpt lat="44.03805" lon="1.9814">
        <ele>272.67</ele>
        <time>2020-06-06T07:53:16Z</time>
      </trkpt>
      <trkpt lat="44.03814" lon="1.98134">
        <ele>273.15</ele>
        <time>2020-06-06T07:53:24Z</time>
      </trkpt>
      <trkpt lat="44.03825" lon="1.98127">
        <ele>274.59</ele>
        <time>2020-06-06T07:53:32Z</time>
      </trkpt>
      <trkpt lat="44.03834" lon="1.98124">
        <ele>275.07</ele>
        <time>2020-06-06T07:53:38Z</time>
      </trkpt>
      <trkpt lat="44.03845" lon="1.98121">
        <ele>274.11</ele>
        <time>2020-06-06T07:53:46Z</time>
      </trkpt>
      <trkpt lat="44.03862" lon="1.98119">
        <ele>271.23</ele>
        <time>2020-06-06T07:53:57Z</time>
      </trkpt>
      <trkpt lat="44.03873" lon="1.98116">
        <ele>271.71</ele>
        <time>2020-06-06T07:54:05Z</time>
      </trkpt>
      <trkpt lat="44.03886" lon="1.98114">
        <ele>270.75</ele>
        <time>2020-06-06T07:54:13Z</time>
      </trkpt>
      <trkpt lat="44.03898" lon="1.9811">
        <ele>270.75</ele>
        <time>2020-06-06T07:54:22Z</time>
      </trkpt>
      <trkpt lat="44.03909" lon="1.98105">
        <ele>269.79</ele>
        <time>2020-06-06T07:54:31Z</time>
      </trkpt>
      <trkpt lat="44.0392" lon="1.98097">
        <ele>269.31</ele>
        <time>2020-06-06T07:54:40Z</time>
      </trkpt>
      <trkpt lat="44.0393" lon="1.98087">
        <ele>269.79</ele>
        <time>2020-06-06T07:54:49Z</time>
      </trkpt>
      <trkpt lat="44.03937" lon="1.9808">
        <ele>269.79</ele>
        <time>2020-06-06T07:54:56Z</time>
      </trkpt>
      <trkpt lat="44.03948" lon="1.98069">
        <ele>269.31</ele>
        <time>2020-06-06T07:55:05Z</time>
      </trkpt>
      <trkpt lat="44.03955" lon="1.98062">
        <ele>269.79</ele>
        <time>2020-06-06T07:55:11Z</time>
      </trkpt>
      <trkpt lat="44.03961" lon="1.98054">
        <ele>270.27</ele>
        <time>2020-06-06T07:55:17Z</time>
      </trkpt>
      <trkpt lat="44.03964" lon="1.9805">
        <ele>271.23</ele>
        <time>2020-06-06T07:55:20Z</time>
      </trkpt>
      <trkpt lat="44.03965" lon="1.98048">
        <ele>271.23</ele>
        <time>2020-06-06T07:55:21Z</time>
      </trkpt>
      <trkpt lat="44.03966" lon="1.98047">
        <ele>271.23</ele>
        <time>2020-06-06T07:55:22Z</time>
      </trkpt>
      <trkpt lat="44.03967" lon="1.98046">
        <ele>271.23</ele>
        <time>2020-06-06T07:55:23Z</time>
      </trkpt>
      <trkpt lat="44.03968" lon="1.98044">
        <ele>271.23</ele>
        <time>2020-06-06T07:55:24Z</time>
      </trkpt>
      <trkpt lat="44.03979" lon="1.98029">
        <ele>270.27</ele>
        <time>2020-06-06T07:55:34Z</time>
      </trkpt>
      <trkpt lat="44.03988" lon="1.98016">
        <ele>268.83</ele>
        <time>2020-06-06T07:55:42Z</time>
      </trkpt>
      <trkpt lat="44.03996" lon="1.98004">
        <ele>267.38</ele>
        <time>2020-06-06T07:55:50Z</time>
      </trkpt>
      <trkpt lat="44.04003" lon="1.97992">
        <ele>265.94</ele>
        <time>2020-06-06T07:55:59Z</time>
      </trkpt>
      <trkpt lat="44.04011" lon="1.97975">
        <ele>264.02</ele>
        <time>2020-06-06T07:56:09Z</time>
      </trkpt>
      <trkpt lat="44.04019" lon="1.97961">
        <ele>262.58</ele>
        <time>2020-06-06T07:56:18Z</time>
      </trkpt>
      <trkpt lat="44.04025" lon="1.97948">
        <ele>262.58</ele>
        <time>2020-06-06T07:56:27Z</time>
      </trkpt>
      <trkpt lat="44.0403" lon="1.97937">
        <ele>264.02</ele>
        <time>2020-06-06T07:56:34Z</time>
      </trkpt>
      <trkpt lat="44.04036" lon="1.97924">
        <ele>264.98</ele>
        <time>2020-06-06T07:56:41Z</time>
      </trkpt>
      <trkpt lat="44.04036" lon="1.97922">
        <ele>264.98</ele>
        <time>2020-06-06T07:56:42Z</time>
      </trkpt>
      <trkpt lat="44.04037" lon="1.9792">
        <ele>264.98</ele>
        <time>2020-06-06T07:56:43Z</time>
      </trkpt>
      <trkpt lat="44.04038" lon="1.97918">
        <ele>265.46</ele>
        <time>2020-06-06T07:56:44Z</time>
      </trkpt>
      <trkpt lat="44.04038" lon="1.97915">
        <ele>265.94</ele>
        <time>2020-06-06T07:56:45Z</time>
      </trkpt>
      <trkpt lat="44.04044" lon="1.97893">
        <ele>268.83</ele>
        <time>2020-06-06T07:56:55Z</time>
      </trkpt>
      <trkpt lat="44.04054" lon="1.97872">
        <ele>261.14</ele>
        <time>2020-06-06T07:57:05Z</time>
      </trkpt>
      <trkpt lat="44.04061" lon="1.97855">
        <ele>257.77</ele>
        <time>2020-06-06T07:57:15Z</time>
      </trkpt>
      <trkpt lat="44.0407" lon="1.9784">
        <ele>253.44</ele>
        <time>2020-06-06T07:57:24Z</time>
      </trkpt>
      <trkpt lat="44.04077" lon="1.97829">
        <ele>250.08</ele>
        <time>2020-06-06T07:57:32Z</time>
      </trkpt>
      <trkpt lat="44.04085" lon="1.97816">
        <ele>246.72</ele>
        <time>2020-06-06T07:57:41Z</time>
      </trkpt>
      <trkpt lat="44.04089" lon="1.9781">
        <ele>245.75</ele>
        <time>2020-06-06T07:57:45Z</time>
      </trkpt>
      <trkpt lat="44.0409" lon="1.97809">
        <ele>245.27</ele>
        <time>2020-06-06T07:57:46Z</time>
      </trkpt>
      <trkpt lat="44.04091" lon="1.97808">
        <ele>245.27</ele>
        <time>2020-06-06T07:57:47Z</time>
      </trkpt>
      <trkpt lat="44.04102" lon="1.97797">
        <ele>244.31</ele>
        <time>2020-06-06T07:57:56Z</time>
      </trkpt>
      <trkpt lat="44.04111" lon="1.97787">
        <ele>242.87</ele>
        <time>2020-06-06T07:58:05Z</time>
      </trkpt>
      <trkpt lat="44.04122" lon="1.97775">
        <ele>241.91</ele>
        <time>2020-06-06T07:58:15Z</time>
      </trkpt>
      <trkpt lat="44.04134" lon="1.97763">
        <ele>241.43</ele>
        <time>2020-06-06T07:58:26Z</time>
      </trkpt>
      <trkpt lat="44.04148" lon="1.9775">
        <ele>241.43</ele>
        <time>2020-06-06T07:58:37Z</time>
      </trkpt>
      <trkpt lat="44.04157" lon="1.9774">
        <ele>240.47</ele>
        <time>2020-06-06T07:58:46Z</time>
      </trkpt>
      <trkpt lat="44.04165" lon="1.97732">
        <ele>240.47</ele>
        <time>2020-06-06T07:58:55Z</time>
      </trkpt>
      <trkpt lat="44.0417" lon="1.97728">
        <ele>239.51</ele>
        <time>2020-06-06T07:59:01Z</time>
      </trkpt>
      <trkpt lat="44.04177" lon="1.9772">
        <ele>239.02</ele>
        <time>2020-06-06T07:59:08Z</time>
      </trkpt>
      <trkpt lat="44.04185" lon="1.9771">
        <ele>239.51</ele>
        <time>2020-06-06T07:59:17Z</time>
      </trkpt>
      <trkpt lat="44.04195" lon="1.977">
        <ele>240.47</ele>
        <time>2020-06-06T07:59:26Z</time>
      </trkpt>
      <trkpt lat="44.04205" lon="1.97688">
        <ele>240.95</ele>
        <time>2020-06-06T07:59:37Z</time>
      </trkpt>
      <trkpt lat="44.04214" lon="1.97676">
        <ele>241.91</ele>
        <time>2020-06-06T07:59:46Z</time>
      </trkpt>
      <trkpt lat="44.04226" lon="1.97662">
        <ele>239.51</ele>
        <time>2020-06-06T07:59:56Z</time>
      </trkpt>
      <trkpt lat="44.04233" lon="1.97654">
        <ele>239.51</ele>
        <time>2020-06-06T08:00:02Z</time>
      </trkpt>
      <trkpt lat="44.04243" lon="1.97642">
        <ele>239.99</ele>
        <time>2020-06-06T08:00:11Z</time>
      </trkpt>
      <trkpt lat="44.04255" lon="1.97628">
        <ele>241.91</ele>
        <time>2020-06-06T08:00:22Z</time>
      </trkpt>
      <trkpt lat="44.04262" lon="1.97622">
        <ele>243.35</ele>
        <time>2020-06-06T08:00:29Z</time>
      </trkpt>
      <trkpt lat="44.04273" lon="1.97613">
        <ele>244.79</ele>
        <time>2020-06-06T08:00:38Z</time>
      </trkpt>
      <trkpt lat="44.04282" lon="1.9761">
        <ele>245.75</ele>
        <time>2020-06-06T08:00:44Z</time>
      </trkpt>
      <trkpt lat="44.04283" lon="1.9761">
        <ele>245.75</ele>
        <time>2020-06-06T08:00:45Z</time>
      </trkpt>
      <trkpt lat="44.04296" lon="1.97609">
        <ele>244.79</ele>
        <time>2020-06-06T08:00:54Z</time>
      </trkpt>
      <trkpt lat="44.04308" lon="1.9761">
        <ele>245.27</ele>
        <time>2020-06-06T08:01:02Z</time>
      </trkpt>
      <trkpt lat="44.04328" lon="1.97616">
        <ele>242.87</ele>
        <time>2020-06-06T08:01:15Z</time>
      </trkpt>
      <trkpt lat="44.04338" lon="1.9762">
        <ele>241.43</ele>
        <time>2020-06-06T08:01:23Z</time>
      </trkpt>
      <trkpt lat="44.04347" lon="1.97625">
        <ele>241.91</ele>
        <time>2020-06-06T08:01:31Z</time>
      </trkpt>
      <trkpt lat="44.04355" lon="1.97628">
        <ele>242.39</ele>
        <time>2020-06-06T08:01:38Z</time>
      </trkpt>
      <trkpt lat="44.04366" lon="1.97632">
        <ele>242.39</ele>
        <time>2020-06-06T08:01:46Z</time>
      </trkpt>
      <trkpt lat="44.04376" lon="1.97636">
        <ele>240.47</ele>
        <time>2020-06-06T08:01:54Z</time>
      </trkpt>
      <trkpt lat="44.04387" lon="1.9764">
        <ele>239.99</ele>
        <time>2020-06-06T08:02:02Z</time>
      </trkpt>
      <trkpt lat="44.04389" lon="1.9764">
        <ele>240.47</ele>
        <time>2020-06-06T08:02:03Z</time>
      </trkpt>
      <trkpt lat="44.0439" lon="1.9764">
        <ele>240.47</ele>
        <time>2020-06-06T08:02:04Z</time>
      </trkpt>
      <trkpt lat="44.04407" lon="1.97644">
        <ele>239.99</ele>
        <time>2020-06-06T08:02:14Z</time>
      </trkpt>
      <trkpt lat="44.0442" lon="1.97645">
        <ele>240.95</ele>
        <time>2020-06-06T08:02:23Z</time>
      </trkpt>
      <trkpt lat="44.04431" lon="1.97648">
        <ele>240.95</ele>
        <time>2020-06-06T08:02:32Z</time>
      </trkpt>
      <trkpt lat="44.04446" lon="1.97651">
        <ele>241.43</ele>
        <time>2020-06-06T08:02:42Z</time>
      </trkpt>
      <trkpt lat="44.04456" lon="1.97655">
        <ele>239.99</ele>
        <time>2020-06-06T08:02:50Z</time>
      </trkpt>
      <trkpt lat="44.04462" lon="1.9766">
        <ele>237.58</ele>
        <time>2020-06-06T08:02:56Z</time>
      </trkpt>
      <trkpt lat="44.04474" lon="1.97669">
        <ele>236.14</ele>
        <time>2020-06-06T08:03:06Z</time>
      </trkpt>
      <trkpt lat="44.04484" lon="1.97676">
        <ele>234.7</ele>
        <time>2020-06-06T08:03:15Z</time>
      </trkpt>
      <trkpt lat="44.04492" lon="1.97678">
        <ele>233.74</ele>
        <time>2020-06-06T08:03:22Z</time>
      </trkpt>
      <trkpt lat="44.04493" lon="1.97678">
        <ele>233.26</ele>
        <time>2020-06-06T08:03:23Z</time>
      </trkpt>
      <trkpt lat="44.04494" lon="1.97678">
        <ele>233.26</ele>
        <time>2020-06-06T08:03:24Z</time>
      </trkpt>
      <trkpt lat="44.04496" lon="1.97678">
        <ele>232.78</ele>
        <time>2020-06-06T08:03:25Z</time>
      </trkpt>
      <trkpt lat="44.045" lon="1.97676">
        <ele>231.33</ele>
        <time>2020-06-06T08:03:31Z</time>
      </trkpt>
      <trkpt lat="44.04501" lon="1.97678">
        <ele>231.33</ele>
        <time>2020-06-06T08:03:34Z</time>
      </trkpt>
      <trkpt lat="44.04502" lon="1.97679">
        <ele>231.33</ele>
        <time>2020-06-06T08:03:35Z</time>
      </trkpt>
      <trkpt lat="44.04503" lon="1.9768">
        <ele>230.85</ele>
        <time>2020-06-06T08:03:36Z</time>
      </trkpt>
      <trkpt lat="44.04505" lon="1.97682">
        <ele>230.37</ele>
        <time>2020-06-06T08:03:37Z</time>
      </trkpt>
      <trkpt lat="44.04506" lon="1.97683">
        <ele>229.89</ele>
        <time>2020-06-06T08:03:38Z</time>
      </trkpt>
      <trkpt lat="44.04507" lon="1.97684">
        <ele>229.89</ele>
        <time>2020-06-06T08:03:39Z</time>
      </trkpt>
      <trkpt lat="44.04509" lon="1.97685">
        <ele>229.41</ele>
        <time>2020-06-06T08:03:40Z</time>
      </trkpt>
      <trkpt lat="44.0452" lon="1.97691">
        <ele>229.41</ele>
        <time>2020-06-06T08:03:49Z</time>
      </trkpt>
      <trkpt lat="44.04532" lon="1.97696">
        <ele>227.49</ele>
        <time>2020-06-06T08:03:57Z</time>
      </trkpt>
      <trkpt lat="44.04547" lon="1.97704">
        <ele>225.57</ele>
        <time>2020-06-06T08:04:07Z</time>
      </trkpt>
      <trkpt lat="44.04564" lon="1.97709">
        <ele>221.24</ele>
        <time>2020-06-06T08:04:18Z</time>
      </trkpt>
      <trkpt lat="44.04574" lon="1.97708">
        <ele>221.72</ele>
        <time>2020-06-06T08:04:27Z</time>
      </trkpt>
      <trkpt lat="44.04575" lon="1.97707">
        <ele>223.16</ele>
        <time>2020-06-06T08:04:34Z</time>
      </trkpt>
      <trkpt lat="44.04575" lon="1.97706">
        <ele>226.05</ele>
        <time>2020-06-06T08:04:48Z</time>
      </trkpt>
      <trkpt lat="44.04576" lon="1.97707">
        <ele>223.64</ele>
        <time>2020-06-06T08:05:05Z</time>
      </trkpt>
      <trkpt lat="44.04583" lon="1.97706">
        <ele>225.09</ele>
        <time>2020-06-06T08:05:15Z</time>
      </trkpt>
      <trkpt lat="44.04596" lon="1.97702">
        <ele>227.97</ele>
        <time>2020-06-06T08:05:25Z</time>
      </trkpt>
      <trkpt lat="44.04611" lon="1.97698">
        <ele>228.93</ele>
        <time>2020-06-06T08:05:36Z</time>
      </trkpt>
      <trkpt lat="44.04625" lon="1.97693">
        <ele>229.41</ele>
        <time>2020-06-06T08:05:45Z</time>
      </trkpt>
      <trkpt lat="44.04639" lon="1.97683">
        <ele>226.53</ele>
        <time>2020-06-06T08:05:55Z</time>
      </trkpt>
      <trkpt lat="44.04649" lon="1.97676">
        <ele>225.57</ele>
        <time>2020-06-06T08:06:03Z</time>
      </trkpt>
      <trkpt lat="44.0466" lon="1.97669">
        <ele>224.12</ele>
        <time>2020-06-06T08:06:11Z</time>
      </trkpt>
      <trkpt lat="44.04671" lon="1.97657">
        <ele>221.72</ele>
        <time>2020-06-06T08:06:21Z</time>
      </trkpt>
      <trkpt lat="44.04684" lon="1.97647">
        <ele>221.24</ele>
        <time>2020-06-06T08:06:31Z</time>
      </trkpt>
      <trkpt lat="44.04696" lon="1.97642">
        <ele>222.68</ele>
        <time>2020-06-06T08:06:40Z</time>
      </trkpt>
      <trkpt lat="44.04711" lon="1.97637">
        <ele>221.24</ele>
        <time>2020-06-06T08:06:50Z</time>
      </trkpt>
      <trkpt lat="44.04725" lon="1.97635">
        <ele>223.16</ele>
        <time>2020-06-06T08:07:00Z</time>
      </trkpt>
      <trkpt lat="44.04739" lon="1.9763">
        <ele>223.16</ele>
        <time>2020-06-06T08:07:09Z</time>
      </trkpt>
      <trkpt lat="44.04756" lon="1.97627">
        <ele>221.72</ele>
        <time>2020-06-06T08:07:20Z</time>
      </trkpt>
      <trkpt lat="44.04773" lon="1.97623">
        <ele>220.76</ele>
        <time>2020-06-06T08:07:32Z</time>
      </trkpt>
      <trkpt lat="44.04789" lon="1.9762">
        <ele>221.24</ele>
        <time>2020-06-06T08:07:43Z</time>
      </trkpt>
      <trkpt lat="44.04804" lon="1.97619">
        <ele>220.28</ele>
        <time>2020-06-06T08:07:53Z</time>
      </trkpt>
      <trkpt lat="44.0482" lon="1.97617">
        <ele>220.28</ele>
        <time>2020-06-06T08:08:04Z</time>
      </trkpt>
      <trkpt lat="44.04833" lon="1.97615">
        <ele>218.36</ele>
        <time>2020-06-06T08:08:14Z</time>
      </trkpt>
      <trkpt lat="44.04848" lon="1.97615">
        <ele>215.95</ele>
        <time>2020-06-06T08:08:24Z</time>
      </trkpt>
      <trkpt lat="44.04862" lon="1.97615">
        <ele>214.99</ele>
        <time>2020-06-06T08:08:35Z</time>
      </trkpt>
      <trkpt lat="44.04881" lon="1.97616">
        <ele>215.95</ele>
        <time>2020-06-06T08:08:48Z</time>
      </trkpt>
      <trkpt lat="44.04892" lon="1.97616">
        <ele>215.47</ele>
        <time>2020-06-06T08:08:57Z</time>
      </trkpt>
      <trkpt lat="44.04906" lon="1.97624">
        <ele>214.03</ele>
        <time>2020-06-06T08:09:08Z</time>
      </trkpt>
      <trkpt lat="44.0492" lon="1.97633">
        <ele>214.03</ele>
        <time>2020-06-06T08:09:19Z</time>
      </trkpt>
      <trkpt lat="44.0493" lon="1.97641">
        <ele>213.07</ele>
        <time>2020-06-06T08:09:27Z</time>
      </trkpt>
      <trkpt lat="44.04941" lon="1.97649">
        <ele>212.59</ele>
        <time>2020-06-06T08:09:35Z</time>
      </trkpt>
      <trkpt lat="44.04953" lon="1.97658">
        <ele>211.63</ele>
        <time>2020-06-06T08:09:45Z</time>
      </trkpt>
      <trkpt lat="44.04965" lon="1.97664">
        <ele>209.7</ele>
        <time>2020-06-06T08:09:54Z</time>
      </trkpt>
      <trkpt lat="44.04978" lon="1.97665">
        <ele>208.74</ele>
        <time>2020-06-06T08:10:03Z</time>
      </trkpt>
      <trkpt lat="44.04992" lon="1.97665">
        <ele>209.7</ele>
        <time>2020-06-06T08:10:14Z</time>
      </trkpt>
      <trkpt lat="44.05005" lon="1.97664">
        <ele>211.15</ele>
        <time>2020-06-06T08:10:24Z</time>
      </trkpt>
      <trkpt lat="44.05019" lon="1.97666">
        <ele>212.59</ele>
        <time>2020-06-06T08:10:33Z</time>
      </trkpt>
      <trkpt lat="44.05033" lon="1.97664">
        <ele>213.55</ele>
        <time>2020-06-06T08:10:43Z</time>
      </trkpt>
      <trkpt lat="44.0504" lon="1.9766">
        <ele>214.99</ele>
        <time>2020-06-06T08:10:49Z</time>
      </trkpt>
      <trkpt lat="44.05042" lon="1.97659">
        <ele>214.99</ele>
        <time>2020-06-06T08:10:50Z</time>
      </trkpt>
      <trkpt lat="44.0505" lon="1.97654">
        <ele>214.99</ele>
        <time>2020-06-06T08:10:58Z</time>
      </trkpt>
      <trkpt lat="44.05061" lon="1.97645">
        <ele>214.99</ele>
        <time>2020-06-06T08:11:08Z</time>
      </trkpt>
      <trkpt lat="44.05071" lon="1.97638">
        <ele>215.47</ele>
        <time>2020-06-06T08:11:17Z</time>
      </trkpt>
      <trkpt lat="44.0508" lon="1.97635">
        <ele>216.91</ele>
        <time>2020-06-06T08:11:26Z</time>
      </trkpt>
      <trkpt lat="44.05082" lon="1.97636">
        <ele>217.88</ele>
        <time>2020-06-06T08:11:29Z</time>
      </trkpt>
      <trkpt lat="44.05089" lon="1.9764">
        <ele>218.36</ele>
        <time>2020-06-06T08:11:36Z</time>
      </trkpt>
      <trkpt lat="44.05093" lon="1.97644">
        <ele>218.36</ele>
        <time>2020-06-06T08:11:40Z</time>
      </trkpt>
      <trkpt lat="44.05094" lon="1.97645">
        <ele>218.36</ele>
        <time>2020-06-06T08:11:41Z</time>
      </trkpt>
      <trkpt lat="44.05096" lon="1.97646">
        <ele>218.36</ele>
        <time>2020-06-06T08:11:42Z</time>
      </trkpt>
      <trkpt lat="44.05097" lon="1.97647">
        <ele>218.84</ele>
        <time>2020-06-06T08:11:43Z</time>
      </trkpt>
      <trkpt lat="44.05099" lon="1.97648">
        <ele>218.84</ele>
        <time>2020-06-06T08:11:44Z</time>
      </trkpt>
      <trkpt lat="44.05115" lon="1.97656">
        <ele>218.84</ele>
        <time>2020-06-06T08:11:53Z</time>
      </trkpt>
      <trkpt lat="44.05119" lon="1.97655">
        <ele>219.32</ele>
        <time>2020-06-06T08:11:56Z</time>
      </trkpt>
      <trkpt lat="44.0512" lon="1.97655">
        <ele>219.32</ele>
        <time>2020-06-06T08:11:57Z</time>
      </trkpt>
      <trkpt lat="44.0513" lon="1.97646">
        <ele>219.8</ele>
        <time>2020-06-06T08:12:05Z</time>
      </trkpt>
      <trkpt lat="44.05142" lon="1.97633">
        <ele>217.88</ele>
        <time>2020-06-06T08:12:15Z</time>
      </trkpt>
      <trkpt lat="44.05152" lon="1.97624">
        <ele>219.32</ele>
        <time>2020-06-06T08:12:25Z</time>
      </trkpt>
      <trkpt lat="44.05156" lon="1.97617">
        <ele>218.36</ele>
        <time>2020-06-06T08:12:33Z</time>
      </trkpt>
      <trkpt lat="44.05158" lon="1.97613">
        <ele>216.91</ele>
        <time>2020-06-06T08:12:41Z</time>
      </trkpt>
      <trkpt lat="44.05157" lon="1.97614">
        <ele>215.95</ele>
        <time>2020-06-06T08:12:47Z</time>
      </trkpt>
      <trkpt lat="44.05156" lon="1.97616">
        <ele>215.47</ele>
        <time>2020-06-06T08:12:48Z</time>
      </trkpt>
      <trkpt lat="44.05152" lon="1.97621">
        <ele>213.55</ele>
        <time>2020-06-06T08:12:52Z</time>
      </trkpt>
      <trkpt lat="44.05143" lon="1.97632">
        <ele>210.67</ele>
        <time>2020-06-06T08:13:02Z</time>
      </trkpt>
      <trkpt lat="44.05137" lon="1.97642">
        <ele>208.26</ele>
        <time>2020-06-06T08:13:09Z</time>
      </trkpt>
      <trkpt lat="44.05125" lon="1.97655">
        <ele>207.3</ele>
        <time>2020-06-06T08:13:19Z</time>
      </trkpt>
      <trkpt lat="44.05115" lon="1.9767">
        <ele>208.74</ele>
        <time>2020-06-06T08:13:29Z</time>
      </trkpt>
      <trkpt lat="44.05106" lon="1.97684">
        <ele>210.19</ele>
        <time>2020-06-06T08:13:38Z</time>
      </trkpt>
      <trkpt lat="44.05098" lon="1.97696">
        <ele>208.74</ele>
        <time>2020-06-06T08:13:47Z</time>
      </trkpt>
      <trkpt lat="44.05088" lon="1.9771">
        <ele>210.67</ele>
        <time>2020-06-06T08:13:57Z</time>
      </trkpt>
      <trkpt lat="44.0508" lon="1.97725">
        <ele>214.03</ele>
        <time>2020-06-06T08:14:06Z</time>
      </trkpt>
      <trkpt lat="44.05071" lon="1.97744">
        <ele>214.99</ele>
        <time>2020-06-06T08:14:17Z</time>
      </trkpt>
      <trkpt lat="44.05065" lon="1.97759">
        <ele>215.47</ele>
        <time>2020-06-06T08:14:26Z</time>
      </trkpt>
      <trkpt lat="44.05059" lon="1.97775">
        <ele>216.43</ele>
        <time>2020-06-06T08:14:36Z</time>
      </trkpt>
      <trkpt lat="44.05052" lon="1.9779">
        <ele>217.4</ele>
        <time>2020-06-06T08:14:45Z</time>
      </trkpt>
      <trkpt lat="44.05048" lon="1.97803">
        <ele>217.4</ele>
        <time>2020-06-06T08:14:53Z</time>
      </trkpt>
      <trkpt lat="44.05045" lon="1.97808">
        <ele>218.36</ele>
        <time>2020-06-06T08:14:59Z</time>
      </trkpt>
      <trkpt lat="44.05038" lon="1.97825">
        <ele>219.8</ele>
        <time>2020-06-06T08:15:09Z</time>
      </trkpt>
      <trkpt lat="44.05032" lon="1.97843">
        <ele>221.24</ele>
        <time>2020-06-06T08:15:18Z</time>
      </trkpt>
      <trkpt lat="44.05026" lon="1.97862">
        <ele>221.72</ele>
        <time>2020-06-06T08:15:28Z</time>
      </trkpt>
      <trkpt lat="44.05021" lon="1.97882">
        <ele>221.24</ele>
        <time>2020-06-06T08:15:37Z</time>
      </trkpt>
      <trkpt lat="44.05015" lon="1.97903">
        <ele>219.32</ele>
        <time>2020-06-06T08:15:48Z</time>
      </trkpt>
      <trkpt lat="44.05008" lon="1.97918">
        <ele>219.8</ele>
        <time>2020-06-06T08:15:58Z</time>
      </trkpt>
      <trkpt lat="44.04997" lon="1.97926">
        <ele>221.24</ele>
        <time>2020-06-06T08:16:07Z</time>
      </trkpt>
      <trkpt lat="44.04997" lon="1.97927">
        <ele>222.2</ele>
        <time>2020-06-06T08:16:12Z</time>
      </trkpt>
      <trkpt lat="44.04991" lon="1.97933">
        <ele>221.72</ele>
        <time>2020-06-06T08:16:19Z</time>
      </trkpt>
      <trkpt lat="44.04985" lon="1.9794">
        <ele>220.76</ele>
        <time>2020-06-06T08:16:26Z</time>
      </trkpt>
      <trkpt lat="44.0498" lon="1.97955">
        <ele>219.32</ele>
        <time>2020-06-06T08:16:35Z</time>
      </trkpt>
      <trkpt lat="44.04976" lon="1.97969">
        <ele>218.84</ele>
        <time>2020-06-06T08:16:44Z</time>
      </trkpt>
      <trkpt lat="44.04973" lon="1.97979">
        <ele>218.84</ele>
        <time>2020-06-06T08:16:51Z</time>
      </trkpt>
      <trkpt lat="44.04973" lon="1.9798">
        <ele>220.28</ele>
        <time>2020-06-06T08:16:57Z</time>
      </trkpt>
      <trkpt lat="44.04973" lon="1.97988">
        <ele>220.28</ele>
        <time>2020-06-06T08:17:04Z</time>
      </trkpt>
      <trkpt lat="44.04973" lon="1.97996">
        <ele>220.28</ele>
        <time>2020-06-06T08:17:11Z</time>
      </trkpt>
      <trkpt lat="44.04973" lon="1.98003">
        <ele>222.2</ele>
        <time>2020-06-06T08:17:19Z</time>
      </trkpt>
      <trkpt lat="44.04968" lon="1.98002">
        <ele>223.16</ele>
        <time>2020-06-06T08:17:29Z</time>
      </trkpt>
      <trkpt lat="44.04968" lon="1.98005">
        <ele>219.8</ele>
        <time>2020-06-06T08:17:43Z</time>
      </trkpt>
      <trkpt lat="44.0497" lon="1.98007">
        <ele>217.4</ele>
        <time>2020-06-06T08:18:07Z</time>
      </trkpt>
      <trkpt lat="44.04972" lon="1.98006">
        <ele>218.36</ele>
        <time>2020-06-06T08:18:19Z</time>
      </trkpt>
      <trkpt lat="44.04974" lon="1.98007">
        <ele>217.88</ele>
        <time>2020-06-06T08:18:38Z</time>
      </trkpt>
      <trkpt lat="44.04974" lon="1.98005">
        <ele>218.36</ele>
        <time>2020-06-06T08:18:48Z</time>
      </trkpt>
      <trkpt lat="44.04973" lon="1.98003">
        <ele>218.84</ele>
        <time>2020-06-06T08:18:55Z</time>
      </trkpt>
      <trkpt lat="44.0497" lon="1.97994">
        <ele>218.84</ele>
        <time>2020-06-06T08:19:03Z</time>
      </trkpt>
      <trkpt lat="44.04968" lon="1.97994">
        <ele>219.32</ele>
        <time>2020-06-06T08:19:06Z</time>
      </trkpt>
      <trkpt lat="44.04968" lon="1.98005">
        <ele>220.76</ele>
        <time>2020-06-06T08:19:15Z</time>
      </trkpt>
      <trkpt lat="44.04969" lon="1.98006">
        <ele>218.36</ele>
        <time>2020-06-06T08:19:24Z</time>
      </trkpt>
      <trkpt lat="44.04969" lon="1.98011">
        <ele>218.84</ele>
        <time>2020-06-06T08:19:30Z</time>
      </trkpt>
      <trkpt lat="44.04967" lon="1.98024">
        <ele>219.32</ele>
        <time>2020-06-06T08:19:39Z</time>
      </trkpt>
      <trkpt lat="44.04964" lon="1.98036">
        <ele>221.72</ele>
        <time>2020-06-06T08:19:47Z</time>
      </trkpt>
      <trkpt lat="44.04963" lon="1.98046">
        <ele>223.16</ele>
        <time>2020-06-06T08:19:54Z</time>
      </trkpt>
      <trkpt lat="44.04958" lon="1.98058">
        <ele>222.2</ele>
        <time>2020-06-06T08:20:02Z</time>
      </trkpt>
      <trkpt lat="44.04953" lon="1.98069">
        <ele>222.2</ele>
        <time>2020-06-06T08:20:10Z</time>
      </trkpt>
      <trkpt lat="44.04947" lon="1.98082">
        <ele>224.12</ele>
        <time>2020-06-06T08:20:18Z</time>
      </trkpt>
      <trkpt lat="44.04941" lon="1.98096">
        <ele>225.57</ele>
        <time>2020-06-06T08:20:26Z</time>
      </trkpt>
      <trkpt lat="44.04937" lon="1.98108">
        <ele>227.97</ele>
        <time>2020-06-06T08:20:35Z</time>
      </trkpt>
      <trkpt lat="44.04934" lon="1.98122">
        <ele>229.41</ele>
        <time>2020-06-06T08:20:43Z</time>
      </trkpt>
      <trkpt lat="44.04929" lon="1.98138">
        <ele>229.41</ele>
        <time>2020-06-06T08:20:53Z</time>
      </trkpt>
      <trkpt lat="44.04926" lon="1.98147">
        <ele>229.41</ele>
        <time>2020-06-06T08:21:01Z</time>
      </trkpt>
      <trkpt lat="44.04925" lon="1.98153">
        <ele>228.93</ele>
        <time>2020-06-06T08:21:07Z</time>
      </trkpt>
      <trkpt lat="44.04922" lon="1.98167">
        <ele>228.93</ele>
        <time>2020-06-06T08:21:16Z</time>
      </trkpt>
      <trkpt lat="44.04918" lon="1.98183">
        <ele>232.3</ele>
        <time>2020-06-06T08:21:26Z</time>
      </trkpt>
      <trkpt lat="44.04919" lon="1.98203">
        <ele>233.26</ele>
        <time>2020-06-06T08:21:36Z</time>
      </trkpt>
      <trkpt lat="44.04923" lon="1.9822">
        <ele>234.22</ele>
        <time>2020-06-06T08:21:46Z</time>
      </trkpt>
      <trkpt lat="44.04928" lon="1.98239">
        <ele>234.7</ele>
        <time>2020-06-06T08:21:57Z</time>
      </trkpt>
      <trkpt lat="44.04933" lon="1.98255">
        <ele>235.18</ele>
        <time>2020-06-06T08:22:06Z</time>
      </trkpt>
      <trkpt lat="44.04937" lon="1.98263">
        <ele>235.66</ele>
        <time>2020-06-06T08:22:11Z</time>
      </trkpt>
      <trkpt lat="44.04938" lon="1.98276">
        <ele>237.1</ele>
        <time>2020-06-06T08:22:18Z</time>
      </trkpt>
      <trkpt lat="44.04938" lon="1.98293">
        <ele>238.54</ele>
        <time>2020-06-06T08:22:27Z</time>
      </trkpt>
      <trkpt lat="44.04936" lon="1.98299">
        <ele>238.06</ele>
        <time>2020-06-06T08:22:30Z</time>
      </trkpt>
      <trkpt lat="44.04931" lon="1.9832">
        <ele>238.54</ele>
        <time>2020-06-06T08:22:41Z</time>
      </trkpt>
      <trkpt lat="44.04926" lon="1.98337">
        <ele>239.99</ele>
        <time>2020-06-06T08:22:50Z</time>
      </trkpt>
      <trkpt lat="44.04921" lon="1.98356">
        <ele>240.47</ele>
        <time>2020-06-06T08:23:00Z</time>
      </trkpt>
      <trkpt lat="44.04916" lon="1.98368">
        <ele>240.47</ele>
        <time>2020-06-06T08:23:08Z</time>
      </trkpt>
      <trkpt lat="44.04912" lon="1.98382">
        <ele>240.95</ele>
        <time>2020-06-06T08:23:16Z</time>
      </trkpt>
      <trkpt lat="44.0491" lon="1.98393">
        <ele>242.39</ele>
        <time>2020-06-06T08:23:21Z</time>
      </trkpt>
      <trkpt lat="44.04904" lon="1.98411">
        <ele>242.39</ele>
        <time>2020-06-06T08:23:31Z</time>
      </trkpt>
      <trkpt lat="44.049" lon="1.98423">
        <ele>243.83</ele>
        <time>2020-06-06T08:23:38Z</time>
      </trkpt>
      <trkpt lat="44.04897" lon="1.98433">
        <ele>246.23</ele>
        <time>2020-06-06T08:23:44Z</time>
      </trkpt>
      <trkpt lat="44.04893" lon="1.98451">
        <ele>250.56</ele>
        <time>2020-06-06T08:23:53Z</time>
      </trkpt>
      <trkpt lat="44.04892" lon="1.98459">
        <ele>250.56</ele>
        <time>2020-06-06T08:23:59Z</time>
      </trkpt>
      <trkpt lat="44.04892" lon="1.98468">
        <ele>249.12</ele>
        <time>2020-06-06T08:24:05Z</time>
      </trkpt>
      <trkpt lat="44.04893" lon="1.98488">
        <ele>245.75</ele>
        <time>2020-06-06T08:24:16Z</time>
      </trkpt>
      <trkpt lat="44.04893" lon="1.98489">
        <ele>245.75</ele>
        <time>2020-06-06T08:24:17Z</time>
      </trkpt>
      <trkpt lat="44.04894" lon="1.98503">
        <ele>245.75</ele>
        <time>2020-06-06T08:24:25Z</time>
      </trkpt>
      <trkpt lat="44.04895" lon="1.98522">
        <ele>245.75</ele>
        <time>2020-06-06T08:24:35Z</time>
      </trkpt>
      <trkpt lat="44.04892" lon="1.98542">
        <ele>245.75</ele>
        <time>2020-06-06T08:24:45Z</time>
      </trkpt>
      <trkpt lat="44.04887" lon="1.98555">
        <ele>245.75</ele>
        <time>2020-06-06T08:24:53Z</time>
      </trkpt>
      <trkpt lat="44.04878" lon="1.98571">
        <ele>246.23</ele>
        <time>2020-06-06T08:25:04Z</time>
      </trkpt>
      <trkpt lat="44.04871" lon="1.98581">
        <ele>244.31</ele>
        <time>2020-06-06T08:25:13Z</time>
      </trkpt>
      <trkpt lat="44.04861" lon="1.98592">
        <ele>243.83</ele>
        <time>2020-06-06T08:25:23Z</time>
      </trkpt>
      <trkpt lat="44.04853" lon="1.986">
        <ele>242.39</ele>
        <time>2020-06-06T08:25:31Z</time>
      </trkpt>
      <trkpt lat="44.04844" lon="1.98611">
        <ele>241.91</ele>
        <time>2020-06-06T08:25:40Z</time>
      </trkpt>
      <trkpt lat="44.04836" lon="1.98623">
        <ele>242.39</ele>
        <time>2020-06-06T08:25:49Z</time>
      </trkpt>
      <trkpt lat="44.04827" lon="1.98633">
        <ele>243.35</ele>
        <time>2020-06-06T08:25:57Z</time>
      </trkpt>
      <trkpt lat="44.04813" lon="1.98648">
        <ele>244.79</ele>
        <time>2020-06-06T08:26:08Z</time>
      </trkpt>
      <trkpt lat="44.04798" lon="1.98663">
        <ele>243.83</ele>
        <time>2020-06-06T08:26:19Z</time>
      </trkpt>
      <trkpt lat="44.04787" lon="1.98675">
        <ele>242.39</ele>
        <time>2020-06-06T08:26:28Z</time>
      </trkpt>
      <trkpt lat="44.04776" lon="1.98685">
        <ele>239.51</ele>
        <time>2020-06-06T08:26:37Z</time>
      </trkpt>
      <trkpt lat="44.04766" lon="1.98694">
        <ele>239.02</ele>
        <time>2020-06-06T08:26:46Z</time>
      </trkpt>
      <trkpt lat="44.04753" lon="1.98706">
        <ele>239.02</ele>
        <time>2020-06-06T08:26:58Z</time>
      </trkpt>
      <trkpt lat="44.04744" lon="1.98716">
        <ele>237.58</ele>
        <time>2020-06-06T08:27:06Z</time>
      </trkpt>
      <trkpt lat="44.04737" lon="1.98728">
        <ele>234.7</ele>
        <time>2020-06-06T08:27:15Z</time>
      </trkpt>
      <trkpt lat="44.04734" lon="1.98733">
        <ele>233.74</ele>
        <time>2020-06-06T08:27:23Z</time>
      </trkpt>
      <trkpt lat="44.04734" lon="1.98733">
        <ele>234.7</ele>
        <time>2020-06-06T08:27:39Z</time>
      </trkpt>
      <trkpt lat="44.04735" lon="1.98734">
        <ele>235.18</ele>
        <time>2020-06-06T08:27:45Z</time>
      </trkpt>
      <trkpt lat="44.04741" lon="1.98748">
        <ele>235.66</ele>
        <time>2020-06-06T08:27:55Z</time>
      </trkpt>
      <trkpt lat="44.04745" lon="1.98771">
        <ele>233.26</ele>
        <time>2020-06-06T08:28:06Z</time>
      </trkpt>
      <trkpt lat="44.04747" lon="1.98786">
        <ele>231.33</ele>
        <time>2020-06-06T08:28:14Z</time>
      </trkpt>
      <trkpt lat="44.04748" lon="1.9879">
        <ele>231.33</ele>
        <time>2020-06-06T08:28:16Z</time>
      </trkpt>
      <trkpt lat="44.04748" lon="1.98804">
        <ele>231.81</ele>
        <time>2020-06-06T08:28:23Z</time>
      </trkpt>
      <trkpt lat="44.04748" lon="1.98807">
        <ele>232.78</ele>
        <time>2020-06-06T08:28:29Z</time>
      </trkpt>
      <trkpt lat="44.04756" lon="1.9882">
        <ele>233.74</ele>
        <time>2020-06-06T08:28:38Z</time>
      </trkpt>
      <trkpt lat="44.04769" lon="1.98832">
        <ele>234.7</ele>
        <time>2020-06-06T08:28:48Z</time>
      </trkpt>
      <trkpt lat="44.04781" lon="1.98841">
        <ele>238.06</ele>
        <time>2020-06-06T08:28:58Z</time>
      </trkpt>
      <trkpt lat="44.04793" lon="1.98847">
        <ele>239.51</ele>
        <time>2020-06-06T08:29:08Z</time>
      </trkpt>
      <trkpt lat="44.04802" lon="1.98852">
        <ele>241.43</ele>
        <time>2020-06-06T08:29:17Z</time>
      </trkpt>
      <trkpt lat="44.0481" lon="1.98856">
        <ele>243.83</ele>
        <time>2020-06-06T08:29:24Z</time>
      </trkpt>
      <trkpt lat="44.04823" lon="1.98857">
        <ele>249.12</ele>
        <time>2020-06-06T08:29:34Z</time>
      </trkpt>
      <trkpt lat="44.04834" lon="1.98855">
        <ele>249.12</ele>
        <time>2020-06-06T08:29:42Z</time>
      </trkpt>
      <trkpt lat="44.04847" lon="1.9884">
        <ele>248.16</ele>
        <time>2020-06-06T08:29:52Z</time>
      </trkpt>
      <trkpt lat="44.04855" lon="1.98825">
        <ele>249.6</ele>
        <time>2020-06-06T08:30:01Z</time>
      </trkpt>
      <trkpt lat="44.04862" lon="1.98813">
        <ele>251.52</ele>
        <time>2020-06-06T08:30:09Z</time>
      </trkpt>
      <trkpt lat="44.04871" lon="1.98806">
        <ele>253.44</ele>
        <time>2020-06-06T08:30:17Z</time>
      </trkpt>
      <trkpt lat="44.04882" lon="1.988">
        <ele>255.37</ele>
        <time>2020-06-06T08:30:26Z</time>
      </trkpt>
      <trkpt lat="44.04894" lon="1.98797">
        <ele>257.29</ele>
        <time>2020-06-06T08:30:35Z</time>
      </trkpt>
      <trkpt lat="44.04906" lon="1.98798">
        <ele>258.73</ele>
        <time>2020-06-06T08:30:44Z</time>
      </trkpt>
      <trkpt lat="44.04916" lon="1.988">
        <ele>258.73</ele>
        <time>2020-06-06T08:30:53Z</time>
      </trkpt>
      <trkpt lat="44.04927" lon="1.98803">
        <ele>261.62</ele>
        <time>2020-06-06T08:31:03Z</time>
      </trkpt>
      <trkpt lat="44.04937" lon="1.98807">
        <ele>264.98</ele>
        <time>2020-06-06T08:31:12Z</time>
      </trkpt>
      <trkpt lat="44.04938" lon="1.98807">
        <ele>265.46</ele>
        <time>2020-06-06T08:31:13Z</time>
      </trkpt>
      <trkpt lat="44.04948" lon="1.98812">
        <ele>266.9</ele>
        <time>2020-06-06T08:31:22Z</time>
      </trkpt>
      <trkpt lat="44.04953" lon="1.98814">
        <ele>266.42</ele>
        <time>2020-06-06T08:31:28Z</time>
      </trkpt>
      <trkpt lat="44.04956" lon="1.98816">
        <ele>266.42</ele>
        <time>2020-06-06T08:31:33Z</time>
      </trkpt>
      <trkpt lat="44.04966" lon="1.98821">
        <ele>268.83</ele>
        <time>2020-06-06T08:31:42Z</time>
      </trkpt>
      <trkpt lat="44.04974" lon="1.98825">
        <ele>271.23</ele>
        <time>2020-06-06T08:31:49Z</time>
      </trkpt>
      <trkpt lat="44.04983" lon="1.98831">
        <ele>272.19</ele>
        <time>2020-06-06T08:31:58Z</time>
      </trkpt>
      <trkpt lat="44.04992" lon="1.98838">
        <ele>273.15</ele>
        <time>2020-06-06T08:32:06Z</time>
      </trkpt>
      <trkpt lat="44.05004" lon="1.98843">
        <ele>272.67</ele>
        <time>2020-06-06T08:32:15Z</time>
      </trkpt>
      <trkpt lat="44.05006" lon="1.98845">
        <ele>272.67</ele>
        <time>2020-06-06T08:32:17Z</time>
      </trkpt>
      <trkpt lat="44.05019" lon="1.98847">
        <ele>273.15</ele>
        <time>2020-06-06T08:32:27Z</time>
      </trkpt>
      <trkpt lat="44.05028" lon="1.98847">
        <ele>273.63</ele>
        <time>2020-06-06T08:32:34Z</time>
      </trkpt>
      <trkpt lat="44.05037" lon="1.98847">
        <ele>274.59</ele>
        <time>2020-06-06T08:32:42Z</time>
      </trkpt>
      <trkpt lat="44.05045" lon="1.98846">
        <ele>275.07</ele>
        <time>2020-06-06T08:32:50Z</time>
      </trkpt>
      <trkpt lat="44.05053" lon="1.98845">
        <ele>277.96</ele>
        <time>2020-06-06T08:32:58Z</time>
      </trkpt>
      <trkpt lat="44.05059" lon="1.98845">
        <ele>278.92</ele>
        <time>2020-06-06T08:33:04Z</time>
      </trkpt>
      <trkpt lat="44.0507" lon="1.98845">
        <ele>281.8</ele>
        <time>2020-06-06T08:33:13Z</time>
      </trkpt>
      <trkpt lat="44.05076" lon="1.98846">
        <ele>283.25</ele>
        <time>2020-06-06T08:33:19Z</time>
      </trkpt>
      <trkpt lat="44.05085" lon="1.98848">
        <ele>284.69</ele>
        <time>2020-06-06T08:33:28Z</time>
      </trkpt>
      <trkpt lat="44.05094" lon="1.98852">
        <ele>285.65</ele>
        <time>2020-06-06T08:33:37Z</time>
      </trkpt>
      <trkpt lat="44.05103" lon="1.98855">
        <ele>286.61</ele>
        <time>2020-06-06T08:33:45Z</time>
      </trkpt>
      <trkpt lat="44.0511" lon="1.98858">
        <ele>288.53</ele>
        <time>2020-06-06T08:33:53Z</time>
      </trkpt>
      <trkpt lat="44.05117" lon="1.98862">
        <ele>289.01</ele>
        <time>2020-06-06T08:34:00Z</time>
      </trkpt>
      <trkpt lat="44.05121" lon="1.98864">
        <ele>289.49</ele>
        <time>2020-06-06T08:34:05Z</time>
      </trkpt>
      <trkpt lat="44.05131" lon="1.98873">
        <ele>289.97</ele>
        <time>2020-06-06T08:34:16Z</time>
      </trkpt>
      <trkpt lat="44.05135" lon="1.98874">
        <ele>290.94</ele>
        <time>2020-06-06T08:34:20Z</time>
      </trkpt>
      <trkpt lat="44.05148" lon="1.98878">
        <ele>293.82</ele>
        <time>2020-06-06T08:34:31Z</time>
      </trkpt>
      <trkpt lat="44.05158" lon="1.98883">
        <ele>293.34</ele>
        <time>2020-06-06T08:34:40Z</time>
      </trkpt>
      <trkpt lat="44.05167" lon="1.98887">
        <ele>294.3</ele>
        <time>2020-06-06T08:34:48Z</time>
      </trkpt>
      <trkpt lat="44.05181" lon="1.98889">
        <ele>294.78</ele>
        <time>2020-06-06T08:34:58Z</time>
      </trkpt>
      <trkpt lat="44.05188" lon="1.98895">
        <ele>292.86</ele>
        <time>2020-06-06T08:35:03Z</time>
      </trkpt>
      <trkpt lat="44.05197" lon="1.989">
        <ele>288.05</ele>
        <time>2020-06-06T08:35:10Z</time>
      </trkpt>
      <trkpt lat="44.05201" lon="1.98902">
        <ele>286.61</ele>
        <time>2020-06-06T08:35:17Z</time>
      </trkpt>
      <trkpt lat="44.05202" lon="1.98902">
        <ele>286.13</ele>
        <time>2020-06-06T08:35:18Z</time>
      </trkpt>
      <trkpt lat="44.05208" lon="1.98902">
        <ele>284.69</ele>
        <time>2020-06-06T08:35:23Z</time>
      </trkpt>
      <trkpt lat="44.05223" lon="1.98908">
        <ele>280.84</ele>
        <time>2020-06-06T08:35:33Z</time>
      </trkpt>
      <trkpt lat="44.05236" lon="1.98909">
        <ele>280.36</ele>
        <time>2020-06-06T08:35:43Z</time>
      </trkpt>
      <trkpt lat="44.05248" lon="1.9891">
        <ele>278.92</ele>
        <time>2020-06-06T08:35:52Z</time>
      </trkpt>
      <trkpt lat="44.05263" lon="1.98914">
        <ele>277.48</ele>
        <time>2020-06-06T08:36:03Z</time>
      </trkpt>
      <trkpt lat="44.05277" lon="1.98916">
        <ele>275.56</ele>
        <time>2020-06-06T08:36:13Z</time>
      </trkpt>
      <trkpt lat="44.05284" lon="1.98916">
        <ele>276.52</ele>
        <time>2020-06-06T08:36:21Z</time>
      </trkpt>
      <trkpt lat="44.05289" lon="1.98918">
        <ele>275.56</ele>
        <time>2020-06-06T08:36:27Z</time>
      </trkpt>
      <trkpt lat="44.05301" lon="1.98921">
        <ele>274.59</ele>
        <time>2020-06-06T08:36:36Z</time>
      </trkpt>
      <trkpt lat="44.05317" lon="1.98923">
        <ele>274.59</ele>
        <time>2020-06-06T08:36:47Z</time>
      </trkpt>
      <trkpt lat="44.05334" lon="1.98925">
        <ele>274.59</ele>
        <time>2020-06-06T08:36:59Z</time>
      </trkpt>
      <trkpt lat="44.05345" lon="1.98919">
        <ele>274.11</ele>
        <time>2020-06-06T08:37:08Z</time>
      </trkpt>
      <trkpt lat="44.0535" lon="1.98915">
        <ele>274.11</ele>
        <time>2020-06-06T08:37:13Z</time>
      </trkpt>
      <trkpt lat="44.05352" lon="1.98913">
        <ele>274.59</ele>
        <time>2020-06-06T08:37:21Z</time>
      </trkpt>
      <trkpt lat="44.05352" lon="1.98913">
        <ele>273.63</ele>
        <time>2020-06-06T08:37:30Z</time>
      </trkpt>
      <trkpt lat="44.05354" lon="1.98907">
        <ele>275.07</ele>
        <time>2020-06-06T08:37:36Z</time>
      </trkpt>
      <trkpt lat="44.05354" lon="1.98902">
        <ele>275.56</ele>
        <time>2020-06-06T08:37:43Z</time>
      </trkpt>
      <trkpt lat="44.05355" lon="1.98898">
        <ele>275.07</ele>
        <time>2020-06-06T08:37:49Z</time>
      </trkpt>
      <trkpt lat="44.05356" lon="1.98894">
        <ele>274.59</ele>
        <time>2020-06-06T08:37:57Z</time>
      </trkpt>
      <trkpt lat="44.05356" lon="1.98893">
        <ele>275.07</ele>
        <time>2020-06-06T08:38:03Z</time>
      </trkpt>
      <trkpt lat="44.05358" lon="1.98884">
        <ele>274.59</ele>
        <time>2020-06-06T08:38:10Z</time>
      </trkpt>
      <trkpt lat="44.05362" lon="1.98866">
        <ele>274.11</ele>
        <time>2020-06-06T08:38:21Z</time>
      </trkpt>
      <trkpt lat="44.05364" lon="1.98857">
        <ele>273.63</ele>
        <time>2020-06-06T08:38:27Z</time>
      </trkpt>
      <trkpt lat="44.05368" lon="1.98856">
        <ele>273.63</ele>
        <time>2020-06-06T08:38:31Z</time>
      </trkpt>
      <trkpt lat="44.0538" lon="1.98858">
        <ele>272.67</ele>
        <time>2020-06-06T08:38:41Z</time>
      </trkpt>
      <trkpt lat="44.05392" lon="1.9886">
        <ele>271.23</ele>
        <time>2020-06-06T08:38:50Z</time>
      </trkpt>
      <trkpt lat="44.05407" lon="1.9886">
        <ele>270.27</ele>
        <time>2020-06-06T08:39:01Z</time>
      </trkpt>
      <trkpt lat="44.05419" lon="1.98859">
        <ele>269.79</ele>
        <time>2020-06-06T08:39:10Z</time>
      </trkpt>
      <trkpt lat="44.05433" lon="1.9886">
        <ele>268.83</ele>
        <time>2020-06-06T08:39:20Z</time>
      </trkpt>
      <trkpt lat="44.05436" lon="1.98861">
        <ele>269.79</ele>
        <time>2020-06-06T08:39:22Z</time>
      </trkpt>
      <trkpt lat="44.05444" lon="1.98861">
        <ele>271.23</ele>
        <time>2020-06-06T08:39:28Z</time>
      </trkpt>
      <trkpt lat="44.05461" lon="1.98862">
        <ele>271.23</ele>
        <time>2020-06-06T08:39:40Z</time>
      </trkpt>
      <trkpt lat="44.05475" lon="1.98862">
        <ele>271.71</ele>
        <time>2020-06-06T08:39:50Z</time>
      </trkpt>
      <trkpt lat="44.05485" lon="1.98864">
        <ele>272.19</ele>
        <time>2020-06-06T08:39:59Z</time>
      </trkpt>
      <trkpt lat="44.05498" lon="1.98865">
        <ele>271.71</ele>
        <time>2020-06-06T08:40:09Z</time>
      </trkpt>
      <trkpt lat="44.05501" lon="1.98865">
        <ele>272.19</ele>
        <time>2020-06-06T08:40:11Z</time>
      </trkpt>
      <trkpt lat="44.05503" lon="1.98865">
        <ele>271.23</ele>
        <time>2020-06-06T08:40:13Z</time>
      </trkpt>
      <trkpt lat="44.05508" lon="1.98866">
        <ele>269.79</ele>
        <time>2020-06-06T08:40:17Z</time>
      </trkpt>
      <trkpt lat="44.05515" lon="1.98866">
        <ele>268.35</ele>
        <time>2020-06-06T08:40:22Z</time>
      </trkpt>
      <trkpt lat="44.05517" lon="1.98866">
        <ele>268.35</ele>
        <time>2020-06-06T08:40:24Z</time>
      </trkpt>
      <trkpt lat="44.05527" lon="1.98869">
        <ele>265.94</ele>
        <time>2020-06-06T08:40:32Z</time>
      </trkpt>
      <trkpt lat="44.0553" lon="1.98868">
        <ele>264.98</ele>
        <time>2020-06-06T08:40:34Z</time>
      </trkpt>
      <trkpt lat="44.05542" lon="1.9887">
        <ele>261.14</ele>
        <time>2020-06-06T08:40:42Z</time>
      </trkpt>
      <trkpt lat="44.05554" lon="1.98874">
        <ele>260.17</ele>
        <time>2020-06-06T08:40:52Z</time>
      </trkpt>
      <trkpt lat="44.05559" lon="1.98878">
        <ele>259.69</ele>
        <time>2020-06-06T08:40:58Z</time>
      </trkpt>
      <trkpt lat="44.05561" lon="1.9888">
        <ele>259.21</ele>
        <time>2020-06-06T08:41:00Z</time>
      </trkpt>
      <trkpt lat="44.05569" lon="1.98894">
        <ele>257.77</ele>
        <time>2020-06-06T08:41:10Z</time>
      </trkpt>
      <trkpt lat="44.05576" lon="1.98907">
        <ele>258.25</ele>
        <time>2020-06-06T08:41:19Z</time>
      </trkpt>
      <trkpt lat="44.05585" lon="1.98919">
        <ele>258.73</ele>
        <time>2020-06-06T08:41:29Z</time>
      </trkpt>
      <trkpt lat="44.05597" lon="1.98928">
        <ele>260.65</ele>
        <time>2020-06-06T08:41:39Z</time>
      </trkpt>
      <trkpt lat="44.05607" lon="1.98934">
        <ele>262.58</ele>
        <time>2020-06-06T08:41:48Z</time>
      </trkpt>
      <trkpt lat="44.0562" lon="1.98942">
        <ele>264.02</ele>
        <time>2020-06-06T08:41:59Z</time>
      </trkpt>
      <trkpt lat="44.05629" lon="1.98948">
        <ele>264.98</ele>
        <time>2020-06-06T08:42:06Z</time>
      </trkpt>
      <trkpt lat="44.05632" lon="1.98961">
        <ele>264.98</ele>
        <time>2020-06-06T08:42:14Z</time>
      </trkpt>
      <trkpt lat="44.05632" lon="1.98962">
        <ele>264.98</ele>
        <time>2020-06-06T08:42:15Z</time>
      </trkpt>
      <trkpt lat="44.05634" lon="1.98977">
        <ele>264.5</ele>
        <time>2020-06-06T08:42:23Z</time>
      </trkpt>
      <trkpt lat="44.05632" lon="1.98995">
        <ele>264.98</ele>
        <time>2020-06-06T08:42:32Z</time>
      </trkpt>
      <trkpt lat="44.05627" lon="1.99014">
        <ele>264.5</ele>
        <time>2020-06-06T08:42:43Z</time>
      </trkpt>
      <trkpt lat="44.05627" lon="1.99015">
        <ele>264.98</ele>
        <time>2020-06-06T08:42:44Z</time>
      </trkpt>
      <trkpt lat="44.05625" lon="1.99019">
        <ele>264.98</ele>
        <time>2020-06-06T08:42:47Z</time>
      </trkpt>
      <trkpt lat="44.05621" lon="1.99029">
        <ele>264.98</ele>
        <time>2020-06-06T08:42:56Z</time>
      </trkpt>
      <trkpt lat="44.05621" lon="1.99027">
        <ele>264.98</ele>
        <time>2020-06-06T08:43:11Z</time>
      </trkpt>
      <trkpt lat="44.05621" lon="1.99027">
        <ele>264.98</ele>
        <time>2020-06-06T08:43:12Z</time>
      </trkpt>
      <trkpt lat="44.05619" lon="1.9903">
        <ele>265.46</ele>
        <time>2020-06-06T08:43:16Z</time>
      </trkpt>
      <trkpt lat="44.05619" lon="1.99037">
        <ele>264.98</ele>
        <time>2020-06-06T08:43:23Z</time>
      </trkpt>
      <trkpt lat="44.05619" lon="1.99037">
        <ele>264.98</ele>
        <time>2020-06-06T08:43:28Z</time>
      </trkpt>
      <trkpt lat="44.05619" lon="1.99038">
        <ele>264.02</ele>
        <time>2020-06-06T08:43:43Z</time>
      </trkpt>
      <trkpt lat="44.05611" lon="1.99051">
        <ele>264.98</ele>
        <time>2020-06-06T08:43:51Z</time>
      </trkpt>
      <trkpt lat="44.05605" lon="1.99068">
        <ele>266.42</ele>
        <time>2020-06-06T08:44:00Z</time>
      </trkpt>
      <trkpt lat="44.05598" lon="1.99084">
        <ele>267.38</ele>
        <time>2020-06-06T08:44:09Z</time>
      </trkpt>
      <trkpt lat="44.05591" lon="1.99098">
        <ele>265.46</ele>
        <time>2020-06-06T08:44:18Z</time>
      </trkpt>
      <trkpt lat="44.05588" lon="1.99098">
        <ele>266.42</ele>
        <time>2020-06-06T08:44:25Z</time>
      </trkpt>
      <trkpt lat="44.05588" lon="1.99105">
        <ele>265.94</ele>
        <time>2020-06-06T08:44:36Z</time>
      </trkpt>
      <trkpt lat="44.05588" lon="1.99107">
        <ele>265.94</ele>
        <time>2020-06-06T08:44:37Z</time>
      </trkpt>
      <trkpt lat="44.05585" lon="1.99115">
        <ele>265.46</ele>
        <time>2020-06-06T08:44:45Z</time>
      </trkpt>
      <trkpt lat="44.05578" lon="1.99132">
        <ele>265.46</ele>
        <time>2020-06-06T08:44:56Z</time>
      </trkpt>
      <trkpt lat="44.05572" lon="1.99146">
        <ele>265.94</ele>
        <time>2020-06-06T08:45:03Z</time>
      </trkpt>
      <trkpt lat="44.05572" lon="1.99149">
        <ele>266.42</ele>
        <time>2020-06-06T08:45:06Z</time>
      </trkpt>
      <trkpt lat="44.05565" lon="1.99165">
        <ele>266.42</ele>
        <time>2020-06-06T08:45:16Z</time>
      </trkpt>
      <trkpt lat="44.05555" lon="1.99188">
        <ele>267.38</ele>
        <time>2020-06-06T08:45:27Z</time>
      </trkpt>
      <trkpt lat="44.05548" lon="1.99209">
        <ele>267.86</ele>
        <time>2020-06-06T08:45:37Z</time>
      </trkpt>
      <trkpt lat="44.05541" lon="1.9923">
        <ele>269.31</ele>
        <time>2020-06-06T08:45:47Z</time>
      </trkpt>
      <trkpt lat="44.05539" lon="1.99247">
        <ele>269.31</ele>
        <time>2020-06-06T08:45:56Z</time>
      </trkpt>
      <trkpt lat="44.05538" lon="1.99249">
        <ele>269.31</ele>
        <time>2020-06-06T08:45:57Z</time>
      </trkpt>
      <trkpt lat="44.05532" lon="1.99263">
        <ele>270.27</ele>
        <time>2020-06-06T08:46:06Z</time>
      </trkpt>
      <trkpt lat="44.05532" lon="1.99265">
        <ele>270.75</ele>
        <time>2020-06-06T08:46:07Z</time>
      </trkpt>
      <trkpt lat="44.05525" lon="1.99274">
        <ele>271.71</ele>
        <time>2020-06-06T08:46:17Z</time>
      </trkpt>
      <trkpt lat="44.05526" lon="1.9927">
        <ele>271.23</ele>
        <time>2020-06-06T08:46:24Z</time>
      </trkpt>
      <trkpt lat="44.05528" lon="1.99269">
        <ele>271.71</ele>
        <time>2020-06-06T08:46:29Z</time>
      </trkpt>
      <trkpt lat="44.05528" lon="1.99269">
        <ele>271.23</ele>
        <time>2020-06-06T08:46:38Z</time>
      </trkpt>
      <trkpt lat="44.05529" lon="1.99267">
        <ele>270.75</ele>
        <time>2020-06-06T08:46:53Z</time>
      </trkpt>
      <trkpt lat="44.05533" lon="1.99261">
        <ele>270.27</ele>
        <time>2020-06-06T08:47:00Z</time>
      </trkpt>
      <trkpt lat="44.05534" lon="1.99261">
        <ele>270.75</ele>
        <time>2020-06-06T08:47:06Z</time>
      </trkpt>
      <trkpt lat="44.05539" lon="1.99258">
        <ele>270.27</ele>
        <time>2020-06-06T08:47:12Z</time>
      </trkpt>
      <trkpt lat="44.05547" lon="1.99261">
        <ele>269.79</ele>
        <time>2020-06-06T08:47:20Z</time>
      </trkpt>
      <trkpt lat="44.0555" lon="1.99266">
        <ele>269.79</ele>
        <time>2020-06-06T08:47:27Z</time>
      </trkpt>
      <trkpt lat="44.05551" lon="1.99266">
        <ele>269.79</ele>
        <time>2020-06-06T08:47:37Z</time>
      </trkpt>
      <trkpt lat="44.05558" lon="1.99274">
        <ele>267.86</ele>
        <time>2020-06-06T08:47:46Z</time>
      </trkpt>
      <trkpt lat="44.05561" lon="1.99278">
        <ele>268.35</ele>
        <time>2020-06-06T08:47:50Z</time>
      </trkpt>
      <trkpt lat="44.05562" lon="1.99281">
        <ele>268.35</ele>
        <time>2020-06-06T08:47:52Z</time>
      </trkpt>
      <trkpt lat="44.05569" lon="1.99292">
        <ele>268.83</ele>
        <time>2020-06-06T08:48:02Z</time>
      </trkpt>
      <trkpt lat="44.05569" lon="1.99293">
        <ele>269.31</ele>
        <time>2020-06-06T08:48:10Z</time>
      </trkpt>
      <trkpt lat="44.05571" lon="1.99298">
        <ele>268.83</ele>
        <time>2020-06-06T08:48:27Z</time>
      </trkpt>
      <trkpt lat="44.05573" lon="1.993">
        <ele>267.86</ele>
        <time>2020-06-06T08:48:35Z</time>
      </trkpt>
      <trkpt lat="44.05574" lon="1.99302">
        <ele>267.86</ele>
        <time>2020-06-06T08:48:44Z</time>
      </trkpt>
      <trkpt lat="44.05577" lon="1.99305">
        <ele>266.9</ele>
        <time>2020-06-06T08:48:52Z</time>
      </trkpt>
      <trkpt lat="44.05576" lon="1.99306">
        <ele>265.46</ele>
        <time>2020-06-06T08:48:59Z</time>
      </trkpt>
      <trkpt lat="44.05578" lon="1.99308">
        <ele>265.94</ele>
        <time>2020-06-06T08:49:15Z</time>
      </trkpt>
      <trkpt lat="44.05579" lon="1.9931">
        <ele>265.46</ele>
        <time>2020-06-06T08:49:21Z</time>
      </trkpt>
      <trkpt lat="44.05582" lon="1.99312">
        <ele>264.98</ele>
        <time>2020-06-06T08:49:27Z</time>
      </trkpt>
      <trkpt lat="44.05589" lon="1.99316">
        <ele>264.02</ele>
        <time>2020-06-06T08:49:34Z</time>
      </trkpt>
      <trkpt lat="44.05599" lon="1.99315">
        <ele>264.5</ele>
        <time>2020-06-06T08:49:42Z</time>
      </trkpt>
      <trkpt lat="44.05609" lon="1.99311">
        <ele>264.5</ele>
        <time>2020-06-06T08:49:51Z</time>
      </trkpt>
      <trkpt lat="44.05617" lon="1.99307">
        <ele>263.54</ele>
        <time>2020-06-06T08:49:59Z</time>
      </trkpt>
      <trkpt lat="44.05624" lon="1.99305">
        <ele>263.54</ele>
        <time>2020-06-06T08:50:05Z</time>
      </trkpt>
      <trkpt lat="44.05634" lon="1.99299">
        <ele>264.02</ele>
        <time>2020-06-06T08:50:12Z</time>
      </trkpt>
      <trkpt lat="44.05644" lon="1.99295">
        <ele>263.06</ele>
        <time>2020-06-06T08:50:20Z</time>
      </trkpt>
      <trkpt lat="44.0565" lon="1.99293">
        <ele>262.1</ele>
        <time>2020-06-06T08:50:25Z</time>
      </trkpt>
      <trkpt lat="44.0566" lon="1.99291">
        <ele>261.14</ele>
        <time>2020-06-06T08:50:33Z</time>
      </trkpt>
      <trkpt lat="44.05672" lon="1.99289">
        <ele>258.73</ele>
        <time>2020-06-06T08:50:43Z</time>
      </trkpt>
      <trkpt lat="44.05683" lon="1.9929">
        <ele>256.81</ele>
        <time>2020-06-06T08:50:51Z</time>
      </trkpt>
      <trkpt lat="44.05692" lon="1.9929">
        <ele>255.85</ele>
        <time>2020-06-06T08:50:58Z</time>
      </trkpt>
      <trkpt lat="44.05703" lon="1.99287">
        <ele>255.37</ele>
        <time>2020-06-06T08:51:05Z</time>
      </trkpt>
      <trkpt lat="44.05717" lon="1.99285">
        <ele>252.48</ele>
        <time>2020-06-06T08:51:13Z</time>
      </trkpt>
      <trkpt lat="44.05727" lon="1.9928">
        <ele>252</ele>
        <time>2020-06-06T08:51:19Z</time>
      </trkpt>
      <trkpt lat="44.05737" lon="1.99275">
        <ele>251.04</ele>
        <time>2020-06-06T08:51:27Z</time>
      </trkpt>
      <trkpt lat="44.05745" lon="1.99269">
        <ele>251.52</ele>
        <time>2020-06-06T08:51:34Z</time>
      </trkpt>
      <trkpt lat="44.05754" lon="1.99263">
        <ele>252</ele>
        <time>2020-06-06T08:51:41Z</time>
      </trkpt>
      <trkpt lat="44.05763" lon="1.99258">
        <ele>252.48</ele>
        <time>2020-06-06T08:51:48Z</time>
      </trkpt>
      <trkpt lat="44.05774" lon="1.99251">
        <ele>250.08</ele>
        <time>2020-06-06T08:51:57Z</time>
      </trkpt>
      <trkpt lat="44.05783" lon="1.99247">
        <ele>249.12</ele>
        <time>2020-06-06T08:52:04Z</time>
      </trkpt>
      <trkpt lat="44.05792" lon="1.99243">
        <ele>248.16</ele>
        <time>2020-06-06T08:52:11Z</time>
      </trkpt>
      <trkpt lat="44.05801" lon="1.99239">
        <ele>245.75</ele>
        <time>2020-06-06T08:52:19Z</time>
      </trkpt>
      <trkpt lat="44.05809" lon="1.99236">
        <ele>244.31</ele>
        <time>2020-06-06T08:52:27Z</time>
      </trkpt>
      <trkpt lat="44.05825" lon="1.99242">
        <ele>240.47</ele>
        <time>2020-06-06T08:52:39Z</time>
      </trkpt>
      <trkpt lat="44.05834" lon="1.99254">
        <ele>238.06</ele>
        <time>2020-06-06T08:52:48Z</time>
      </trkpt>
      <trkpt lat="44.05843" lon="1.99266">
        <ele>233.74</ele>
        <time>2020-06-06T08:52:58Z</time>
      </trkpt>
      <trkpt lat="44.05849" lon="1.9928">
        <ele>232.78</ele>
        <time>2020-06-06T08:53:07Z</time>
      </trkpt>
      <trkpt lat="44.05854" lon="1.99295">
        <ele>231.81</ele>
        <time>2020-06-06T08:53:16Z</time>
      </trkpt>
      <trkpt lat="44.05858" lon="1.99304">
        <ele>232.78</ele>
        <time>2020-06-06T08:53:24Z</time>
      </trkpt>
      <trkpt lat="44.05865" lon="1.99321">
        <ele>232.78</ele>
        <time>2020-06-06T08:53:34Z</time>
      </trkpt>
      <trkpt lat="44.05869" lon="1.99332">
        <ele>232.78</ele>
        <time>2020-06-06T08:53:42Z</time>
      </trkpt>
      <trkpt lat="44.05872" lon="1.99342">
        <ele>233.26</ele>
        <time>2020-06-06T08:53:50Z</time>
      </trkpt>
      <trkpt lat="44.05873" lon="1.99342">
        <ele>234.7</ele>
        <time>2020-06-06T08:54:00Z</time>
      </trkpt>
      <trkpt lat="44.05872" lon="1.99342">
        <ele>235.18</ele>
        <time>2020-06-06T08:54:07Z</time>
      </trkpt>
      <trkpt lat="44.05871" lon="1.99342">
        <ele>236.14</ele>
        <time>2020-06-06T08:54:20Z</time>
      </trkpt>
      <trkpt lat="44.05872" lon="1.99343">
        <ele>235.66</ele>
        <time>2020-06-06T08:54:28Z</time>
      </trkpt>
      <trkpt lat="44.05873" lon="1.99343">
        <ele>235.66</ele>
        <time>2020-06-06T08:54:36Z</time>
      </trkpt>
      <trkpt lat="44.05872" lon="1.99344">
        <ele>234.22</ele>
        <time>2020-06-06T08:54:42Z</time>
      </trkpt>
      <trkpt lat="44.0587" lon="1.99359">
        <ele>235.18</ele>
        <time>2020-06-06T08:54:52Z</time>
      </trkpt>
      <trkpt lat="44.05867" lon="1.99366">
        <ele>235.18</ele>
        <time>2020-06-06T08:54:57Z</time>
      </trkpt>
      <trkpt lat="44.05861" lon="1.99371">
        <ele>235.18</ele>
        <time>2020-06-06T08:55:02Z</time>
      </trkpt>
      <trkpt lat="44.05858" lon="1.99374">
        <ele>235.66</ele>
        <time>2020-06-06T08:55:06Z</time>
      </trkpt>
      <trkpt lat="44.05852" lon="1.99377">
        <ele>237.1</ele>
        <time>2020-06-06T08:55:16Z</time>
      </trkpt>
      <trkpt lat="44.05853" lon="1.99376">
        <ele>237.1</ele>
        <time>2020-06-06T08:55:20Z</time>
      </trkpt>
      <trkpt lat="44.05866" lon="1.99368">
        <ele>237.1</ele>
        <time>2020-06-06T08:55:31Z</time>
      </trkpt>
      <trkpt lat="44.05876" lon="1.99352">
        <ele>239.02</ele>
        <time>2020-06-06T08:55:41Z</time>
      </trkpt>
      <trkpt lat="44.05881" lon="1.99339">
        <ele>238.54</ele>
        <time>2020-06-06T08:55:48Z</time>
      </trkpt>
      <trkpt lat="44.05885" lon="1.99332">
        <ele>239.99</ele>
        <time>2020-06-06T08:55:54Z</time>
      </trkpt>
      <trkpt lat="44.05894" lon="1.99317">
        <ele>240.47</ele>
        <time>2020-06-06T08:56:03Z</time>
      </trkpt>
      <trkpt lat="44.05901" lon="1.9931">
        <ele>240.47</ele>
        <time>2020-06-06T08:56:11Z</time>
      </trkpt>
      <trkpt lat="44.05908" lon="1.99307">
        <ele>240.95</ele>
        <time>2020-06-06T08:56:19Z</time>
      </trkpt>
      <trkpt lat="44.05914" lon="1.99304">
        <ele>242.39</ele>
        <time>2020-06-06T08:56:27Z</time>
      </trkpt>
      <trkpt lat="44.05919" lon="1.99302">
        <ele>242.39</ele>
        <time>2020-06-06T08:56:33Z</time>
      </trkpt>
      <trkpt lat="44.05921" lon="1.99302">
        <ele>242.87</ele>
        <time>2020-06-06T08:56:35Z</time>
      </trkpt>
      <trkpt lat="44.0593" lon="1.99298">
        <ele>243.83</ele>
        <time>2020-06-06T08:56:43Z</time>
      </trkpt>
      <trkpt lat="44.05943" lon="1.99295">
        <ele>245.27</ele>
        <time>2020-06-06T08:56:52Z</time>
      </trkpt>
      <trkpt lat="44.05954" lon="1.99292">
        <ele>248.64</ele>
        <time>2020-06-06T08:57:02Z</time>
      </trkpt>
      <trkpt lat="44.05968" lon="1.9929">
        <ele>253.44</ele>
        <time>2020-06-06T08:57:13Z</time>
      </trkpt>
      <trkpt lat="44.05978" lon="1.99291">
        <ele>253.93</ele>
        <time>2020-06-06T08:57:20Z</time>
      </trkpt>
      <trkpt lat="44.05983" lon="1.99295">
        <ele>253.93</ele>
        <time>2020-06-06T08:57:27Z</time>
      </trkpt>
      <trkpt lat="44.05984" lon="1.99298">
        <ele>254.89</ele>
        <time>2020-06-06T08:57:31Z</time>
      </trkpt>
      <trkpt lat="44.05986" lon="1.99305">
        <ele>254.89</ele>
        <time>2020-06-06T08:57:35Z</time>
      </trkpt>
      <trkpt lat="44.05994" lon="1.99317">
        <ele>257.29</ele>
        <time>2020-06-06T08:57:45Z</time>
      </trkpt>
      <trkpt lat="44.05999" lon="1.99335">
        <ele>258.25</ele>
        <time>2020-06-06T08:57:55Z</time>
      </trkpt>
      <trkpt lat="44.05998" lon="1.99343">
        <ele>260.17</ele>
        <time>2020-06-06T08:58:03Z</time>
      </trkpt>
      <trkpt lat="44.05998" lon="1.99343">
        <ele>260.65</ele>
        <time>2020-06-06T08:58:06Z</time>
      </trkpt>
      <trkpt lat="44.05992" lon="1.99346">
        <ele>262.58</ele>
        <time>2020-06-06T08:58:14Z</time>
      </trkpt>
      <trkpt lat="44.05988" lon="1.99346">
        <ele>263.54</ele>
        <time>2020-06-06T08:58:17Z</time>
      </trkpt>
      <trkpt lat="44.05984" lon="1.99347">
        <ele>264.5</ele>
        <time>2020-06-06T08:58:21Z</time>
      </trkpt>
      <trkpt lat="44.05974" lon="1.99349">
        <ele>265.46</ele>
        <time>2020-06-06T08:58:30Z</time>
      </trkpt>
      <trkpt lat="44.05967" lon="1.99353">
        <ele>266.9</ele>
        <time>2020-06-06T08:58:39Z</time>
      </trkpt>
      <trkpt lat="44.05968" lon="1.99354">
        <ele>265.94</ele>
        <time>2020-06-06T08:58:54Z</time>
      </trkpt>
      <trkpt lat="44.05964" lon="1.99358">
        <ele>267.86</ele>
        <time>2020-06-06T08:59:00Z</time>
      </trkpt>
      <trkpt lat="44.05962" lon="1.99362">
        <ele>268.35</ele>
        <time>2020-06-06T08:59:06Z</time>
      </trkpt>
      <trkpt lat="44.0596" lon="1.99363">
        <ele>267.86</ele>
        <time>2020-06-06T08:59:14Z</time>
      </trkpt>
      <trkpt lat="44.05962" lon="1.99371">
        <ele>268.35</ele>
        <time>2020-06-06T08:59:19Z</time>
      </trkpt>
      <trkpt lat="44.05963" lon="1.99382">
        <ele>269.31</ele>
        <time>2020-06-06T08:59:26Z</time>
      </trkpt>
      <trkpt lat="44.05962" lon="1.99387">
        <ele>269.79</ele>
        <time>2020-06-06T08:59:29Z</time>
      </trkpt>
      <trkpt lat="44.05966" lon="1.99395">
        <ele>271.23</ele>
        <time>2020-06-06T08:59:37Z</time>
      </trkpt>
      <trkpt lat="44.05969" lon="1.994">
        <ele>272.67</ele>
        <time>2020-06-06T08:59:43Z</time>
      </trkpt>
      <trkpt lat="44.05973" lon="1.99404">
        <ele>274.11</ele>
        <time>2020-06-06T08:59:48Z</time>
      </trkpt>
      <trkpt lat="44.05978" lon="1.99416">
        <ele>276.04</ele>
        <time>2020-06-06T08:59:57Z</time>
      </trkpt>
      <trkpt lat="44.05979" lon="1.99418">
        <ele>276.52</ele>
        <time>2020-06-06T08:59:59Z</time>
      </trkpt>
      <trkpt lat="44.05982" lon="1.99429">
        <ele>277.48</ele>
        <time>2020-06-06T09:00:07Z</time>
      </trkpt>
      <trkpt lat="44.05986" lon="1.99441">
        <ele>278.92</ele>
        <time>2020-06-06T09:00:16Z</time>
      </trkpt>
      <trkpt lat="44.0599" lon="1.99452">
        <ele>280.36</ele>
        <time>2020-06-06T09:00:24Z</time>
      </trkpt>
      <trkpt lat="44.05993" lon="1.99461">
        <ele>281.32</ele>
        <time>2020-06-06T09:00:32Z</time>
      </trkpt>
      <trkpt lat="44.05997" lon="1.9947">
        <ele>281.8</ele>
        <time>2020-06-06T09:00:39Z</time>
      </trkpt>
      <trkpt lat="44.06002" lon="1.99482">
        <ele>283.25</ele>
        <time>2020-06-06T09:00:48Z</time>
      </trkpt>
      <trkpt lat="44.06005" lon="1.99485">
        <ele>283.25</ele>
        <time>2020-06-06T09:00:56Z</time>
      </trkpt>
      <trkpt lat="44.06006" lon="1.99489">
        <ele>282.77</ele>
        <time>2020-06-06T09:01:11Z</time>
      </trkpt>
      <trkpt lat="44.06006" lon="1.99493">
        <ele>284.21</ele>
        <time>2020-06-06T09:01:19Z</time>
      </trkpt>
      <trkpt lat="44.06008" lon="1.99497">
        <ele>285.65</ele>
        <time>2020-06-06T09:01:26Z</time>
      </trkpt>
      <trkpt lat="44.0601" lon="1.99503">
        <ele>287.57</ele>
        <time>2020-06-06T09:01:36Z</time>
      </trkpt>
      <trkpt lat="44.06015" lon="1.99516">
        <ele>289.01</ele>
        <time>2020-06-06T09:01:44Z</time>
      </trkpt>
      <trkpt lat="44.06018" lon="1.99524">
        <ele>290.94</ele>
        <time>2020-06-06T09:01:52Z</time>
      </trkpt>
      <trkpt lat="44.06021" lon="1.99529">
        <ele>292.86</ele>
        <time>2020-06-06T09:02:01Z</time>
      </trkpt>
      <trkpt lat="44.06029" lon="1.99549">
        <ele>295.26</ele>
        <time>2020-06-06T09:02:12Z</time>
      </trkpt>
      <trkpt lat="44.06037" lon="1.99565">
        <ele>299.11</ele>
        <time>2020-06-06T09:02:22Z</time>
      </trkpt>
      <trkpt lat="44.06042" lon="1.99578">
        <ele>300.55</ele>
        <time>2020-06-06T09:02:30Z</time>
      </trkpt>
      <trkpt lat="44.06048" lon="1.99594">
        <ele>301.99</ele>
        <time>2020-06-06T09:02:40Z</time>
      </trkpt>
      <trkpt lat="44.06049" lon="1.99595">
        <ele>301.99</ele>
        <time>2020-06-06T09:02:41Z</time>
      </trkpt>
      <trkpt lat="44.06054" lon="1.99607">
        <ele>302.47</ele>
        <time>2020-06-06T09:02:49Z</time>
      </trkpt>
      <trkpt lat="44.06058" lon="1.99615">
        <ele>302.95</ele>
        <time>2020-06-06T09:02:55Z</time>
      </trkpt>
      <trkpt lat="44.06063" lon="1.99631">
        <ele>302.47</ele>
        <time>2020-06-06T09:03:06Z</time>
      </trkpt>
      <trkpt lat="44.06066" lon="1.99637">
        <ele>302.47</ele>
        <time>2020-06-06T09:03:11Z</time>
      </trkpt>
      <trkpt lat="44.06067" lon="1.99639">
        <ele>302.47</ele>
        <time>2020-06-06T09:03:13Z</time>
      </trkpt>
      <trkpt lat="44.06065" lon="1.99643">
        <ele>302.95</ele>
        <time>2020-06-06T09:03:19Z</time>
      </trkpt>
      <trkpt lat="44.06062" lon="1.9965">
        <ele>302.95</ele>
        <time>2020-06-06T09:03:26Z</time>
      </trkpt>
      <trkpt lat="44.06062" lon="1.99651">
        <ele>303.43</ele>
        <time>2020-06-06T09:03:27Z</time>
      </trkpt>
      <trkpt lat="44.06059" lon="1.99657">
        <ele>303.43</ele>
        <time>2020-06-06T09:03:31Z</time>
      </trkpt>
      <trkpt lat="44.06056" lon="1.99665">
        <ele>304.39</ele>
        <time>2020-06-06T09:03:38Z</time>
      </trkpt>
      <trkpt lat="44.0605" lon="1.99677">
        <ele>305.84</ele>
        <time>2020-06-06T09:03:47Z</time>
      </trkpt>
      <trkpt lat="44.06045" lon="1.99688">
        <ele>305.84</ele>
        <time>2020-06-06T09:03:56Z</time>
      </trkpt>
      <trkpt lat="44.06038" lon="1.997">
        <ele>305.84</ele>
        <time>2020-06-06T09:04:05Z</time>
      </trkpt>
      <trkpt lat="44.06037" lon="1.99704">
        <ele>306.8</ele>
        <time>2020-06-06T09:04:11Z</time>
      </trkpt>
      <trkpt lat="44.06037" lon="1.99704">
        <ele>306.32</ele>
        <time>2020-06-06T09:04:21Z</time>
      </trkpt>
      <trkpt lat="44.06037" lon="1.99703">
        <ele>306.32</ele>
        <time>2020-06-06T09:04:34Z</time>
      </trkpt>
      <trkpt lat="44.06038" lon="1.99706">
        <ele>304.88</ele>
        <time>2020-06-06T09:04:47Z</time>
      </trkpt>
      <trkpt lat="44.06037" lon="1.99706">
        <ele>304.88</ele>
        <time>2020-06-06T09:04:55Z</time>
      </trkpt>
      <trkpt lat="44.06035" lon="1.99707">
        <ele>303.91</ele>
        <time>2020-06-06T09:05:10Z</time>
      </trkpt>
      <trkpt lat="44.06035" lon="1.99706">
        <ele>303.91</ele>
        <time>2020-06-06T09:05:22Z</time>
      </trkpt>
      <trkpt lat="44.06037" lon="1.99705">
        <ele>303.91</ele>
        <time>2020-06-06T09:05:35Z</time>
      </trkpt>
      <trkpt lat="44.06037" lon="1.99707">
        <ele>304.88</ele>
        <time>2020-06-06T09:05:45Z</time>
      </trkpt>
      <trkpt lat="44.06038" lon="1.99708">
        <ele>304.88</ele>
        <time>2020-06-06T09:05:55Z</time>
      </trkpt>
      <trkpt lat="44.06045" lon="1.99718">
        <ele>303.91</ele>
        <time>2020-06-06T09:06:04Z</time>
      </trkpt>
      <trkpt lat="44.06052" lon="1.9973">
        <ele>303.43</ele>
        <time>2020-06-06T09:06:13Z</time>
      </trkpt>
      <trkpt lat="44.06064" lon="1.99746">
        <ele>302.95</ele>
        <time>2020-06-06T09:06:25Z</time>
      </trkpt>
      <trkpt lat="44.06075" lon="1.99759">
        <ele>305.36</ele>
        <time>2020-06-06T09:06:35Z</time>
      </trkpt>
      <trkpt lat="44.06086" lon="1.99772">
        <ele>305.84</ele>
        <time>2020-06-06T09:06:45Z</time>
      </trkpt>
      <trkpt lat="44.06093" lon="1.99779">
        <ele>306.32</ele>
        <time>2020-06-06T09:06:54Z</time>
      </trkpt>
      <trkpt lat="44.06095" lon="1.99781">
        <ele>306.32</ele>
        <time>2020-06-06T09:07:00Z</time>
      </trkpt>
      <trkpt lat="44.06094" lon="1.99785">
        <ele>305.84</ele>
        <time>2020-06-06T09:07:08Z</time>
      </trkpt>
      <trkpt lat="44.06096" lon="1.99789">
        <ele>305.84</ele>
        <time>2020-06-06T09:07:13Z</time>
      </trkpt>
      <trkpt lat="44.06097" lon="1.99791">
        <ele>305.84</ele>
        <time>2020-06-06T09:07:18Z</time>
      </trkpt>
      <trkpt lat="44.06097" lon="1.99791">
        <ele>306.32</ele>
        <time>2020-06-06T09:07:20Z</time>
      </trkpt>
      <trkpt lat="44.06101" lon="1.99792">
        <ele>307.28</ele>
        <time>2020-06-06T09:07:24Z</time>
      </trkpt>
      <trkpt lat="44.06113" lon="1.99802">
        <ele>308.24</ele>
        <time>2020-06-06T09:07:34Z</time>
      </trkpt>
      <trkpt lat="44.06128" lon="1.99818">
        <ele>306.32</ele>
        <time>2020-06-06T09:07:46Z</time>
      </trkpt>
      <trkpt lat="44.06136" lon="1.99829">
        <ele>306.32</ele>
        <time>2020-06-06T09:07:53Z</time>
      </trkpt>
      <trkpt lat="44.06148" lon="1.99846">
        <ele>307.76</ele>
        <time>2020-06-06T09:08:04Z</time>
      </trkpt>
      <trkpt lat="44.06156" lon="1.99856">
        <ele>306.8</ele>
        <time>2020-06-06T09:08:12Z</time>
      </trkpt>
      <trkpt lat="44.06159" lon="1.99862">
        <ele>306.8</ele>
        <time>2020-06-06T09:08:19Z</time>
      </trkpt>
      <trkpt lat="44.06163" lon="1.99868">
        <ele>306.8</ele>
        <time>2020-06-06T09:08:27Z</time>
      </trkpt>
      <trkpt lat="44.06169" lon="1.9989">
        <ele>307.28</ele>
        <time>2020-06-06T09:08:38Z</time>
      </trkpt>
      <trkpt lat="44.06173" lon="1.99914">
        <ele>306.32</ele>
        <time>2020-06-06T09:08:49Z</time>
      </trkpt>
      <trkpt lat="44.06174" lon="1.99935">
        <ele>305.84</ele>
        <time>2020-06-06T09:08:59Z</time>
      </trkpt>
      <trkpt lat="44.06175" lon="1.99947">
        <ele>305.84</ele>
        <time>2020-06-06T09:09:06Z</time>
      </trkpt>
      <trkpt lat="44.06176" lon="1.99962">
        <ele>306.32</ele>
        <time>2020-06-06T09:09:14Z</time>
      </trkpt>
      <trkpt lat="44.06179" lon="1.99981">
        <ele>305.36</ele>
        <time>2020-06-06T09:09:23Z</time>
      </trkpt>
      <trkpt lat="44.06181" lon="2.00002">
        <ele>304.39</ele>
        <time>2020-06-06T09:09:32Z</time>
      </trkpt>
      <trkpt lat="44.06181" lon="2.00004">
        <ele>303.91</ele>
        <time>2020-06-06T09:09:33Z</time>
      </trkpt>
      <trkpt lat="44.06183" lon="2.00016">
        <ele>302.95</ele>
        <time>2020-06-06T09:09:38Z</time>
      </trkpt>
      <trkpt lat="44.06187" lon="2.00041">
        <ele>301.99</ele>
        <time>2020-06-06T09:09:49Z</time>
      </trkpt>
      <trkpt lat="44.06187" lon="2.00068">
        <ele>301.03</ele>
        <time>2020-06-06T09:10:00Z</time>
      </trkpt>
      <trkpt lat="44.06187" lon="2.00085">
        <ele>300.55</ele>
        <time>2020-06-06T09:10:08Z</time>
      </trkpt>
      <trkpt lat="44.06191" lon="2.00107">
        <ele>300.07</ele>
        <time>2020-06-06T09:10:19Z</time>
      </trkpt>
      <trkpt lat="44.06194" lon="2.00125">
        <ele>300.07</ele>
        <time>2020-06-06T09:10:29Z</time>
      </trkpt>
      <trkpt lat="44.06203" lon="2.00143">
        <ele>298.63</ele>
        <time>2020-06-06T09:10:39Z</time>
      </trkpt>
      <trkpt lat="44.06212" lon="2.00156">
        <ele>297.18</ele>
        <time>2020-06-06T09:10:49Z</time>
      </trkpt>
      <trkpt lat="44.06219" lon="2.0017">
        <ele>296.7</ele>
        <time>2020-06-06T09:10:58Z</time>
      </trkpt>
      <trkpt lat="44.06226" lon="2.00181">
        <ele>295.26</ele>
        <time>2020-06-06T09:11:06Z</time>
      </trkpt>
      <trkpt lat="44.0623" lon="2.00192">
        <ele>294.78</ele>
        <time>2020-06-06T09:11:14Z</time>
      </trkpt>
      <trkpt lat="44.06233" lon="2.00199">
        <ele>295.26</ele>
        <time>2020-06-06T09:11:24Z</time>
      </trkpt>
      <trkpt lat="44.06234" lon="2.00201">
        <ele>295.74</ele>
        <time>2020-06-06T09:11:32Z</time>
      </trkpt>
      <trkpt lat="44.06236" lon="2.00205">
        <ele>295.26</ele>
        <time>2020-06-06T09:11:38Z</time>
      </trkpt>
      <trkpt lat="44.0624" lon="2.00217">
        <ele>295.74</ele>
        <time>2020-06-06T09:11:47Z</time>
      </trkpt>
      <trkpt lat="44.06244" lon="2.00233">
        <ele>296.22</ele>
        <time>2020-06-06T09:11:57Z</time>
      </trkpt>
      <trkpt lat="44.06247" lon="2.00254">
        <ele>296.22</ele>
        <time>2020-06-06T09:12:08Z</time>
      </trkpt>
      <trkpt lat="44.06247" lon="2.0027">
        <ele>294.3</ele>
        <time>2020-06-06T09:12:16Z</time>
      </trkpt>
      <trkpt lat="44.06247" lon="2.00292">
        <ele>293.82</ele>
        <time>2020-06-06T09:12:25Z</time>
      </trkpt>
      <trkpt lat="44.06246" lon="2.00305">
        <ele>293.82</ele>
        <time>2020-06-06T09:12:31Z</time>
      </trkpt>
      <trkpt lat="44.06243" lon="2.00314">
        <ele>293.34</ele>
        <time>2020-06-06T09:12:36Z</time>
      </trkpt>
      <trkpt lat="44.06242" lon="2.0033">
        <ele>292.86</ele>
        <time>2020-06-06T09:12:43Z</time>
      </trkpt>
      <trkpt lat="44.06236" lon="2.00343">
        <ele>291.9</ele>
        <time>2020-06-06T09:12:51Z</time>
      </trkpt>
      <trkpt lat="44.0623" lon="2.00361">
        <ele>290.94</ele>
        <time>2020-06-06T09:12:59Z</time>
      </trkpt>
      <trkpt lat="44.06226" lon="2.00367">
        <ele>290.46</ele>
        <time>2020-06-06T09:13:02Z</time>
      </trkpt>
      <trkpt lat="44.06214" lon="2.00378">
        <ele>287.57</ele>
        <time>2020-06-06T09:13:12Z</time>
      </trkpt>
      <trkpt lat="44.06206" lon="2.00386">
        <ele>284.21</ele>
        <time>2020-06-06T09:13:20Z</time>
      </trkpt>
      <trkpt lat="44.06194" lon="2.00399">
        <ele>282.28</ele>
        <time>2020-06-06T09:13:30Z</time>
      </trkpt>
      <trkpt lat="44.06187" lon="2.00407">
        <ele>281.32</ele>
        <time>2020-06-06T09:13:37Z</time>
      </trkpt>
      <trkpt lat="44.06177" lon="2.00413">
        <ele>280.36</ele>
        <time>2020-06-06T09:13:45Z</time>
      </trkpt>
      <trkpt lat="44.06172" lon="2.00417">
        <ele>279.88</ele>
        <time>2020-06-06T09:13:50Z</time>
      </trkpt>
      <trkpt lat="44.0616" lon="2.00421">
        <ele>277.96</ele>
        <time>2020-06-06T09:13:59Z</time>
      </trkpt>
      <trkpt lat="44.06153" lon="2.00425">
        <ele>276.04</ele>
        <time>2020-06-06T09:14:04Z</time>
      </trkpt>
      <trkpt lat="44.06151" lon="2.00428">
        <ele>275.56</ele>
        <time>2020-06-06T09:14:06Z</time>
      </trkpt>
      <trkpt lat="44.06155" lon="2.00438">
        <ele>270.75</ele>
        <time>2020-06-06T09:14:14Z</time>
      </trkpt>
      <trkpt lat="44.06158" lon="2.0044">
        <ele>268.83</ele>
        <time>2020-06-06T09:14:18Z</time>
      </trkpt>
      <trkpt lat="44.06165" lon="2.00442">
        <ele>267.38</ele>
        <time>2020-06-06T09:14:25Z</time>
      </trkpt>
      <trkpt lat="44.06173" lon="2.00444">
        <ele>264.98</ele>
        <time>2020-06-06T09:14:32Z</time>
      </trkpt>
      <trkpt lat="44.06181" lon="2.00446">
        <ele>263.54</ele>
        <time>2020-06-06T09:14:39Z</time>
      </trkpt>
      <trkpt lat="44.06185" lon="2.00448">
        <ele>263.54</ele>
        <time>2020-06-06T09:14:42Z</time>
      </trkpt>
      <trkpt lat="44.06188" lon="2.00449">
        <ele>264.5</ele>
        <time>2020-06-06T09:14:45Z</time>
      </trkpt>
      <trkpt lat="44.06199" lon="2.00455">
        <ele>264.98</ele>
        <time>2020-06-06T09:14:53Z</time>
      </trkpt>
      <trkpt lat="44.06202" lon="2.00457">
        <ele>264.02</ele>
        <time>2020-06-06T09:14:55Z</time>
      </trkpt>
      <trkpt lat="44.06218" lon="2.00459">
        <ele>259.21</ele>
        <time>2020-06-06T09:15:06Z</time>
      </trkpt>
      <trkpt lat="44.0623" lon="2.00459">
        <ele>258.25</ele>
        <time>2020-06-06T09:15:15Z</time>
      </trkpt>
      <trkpt lat="44.06237" lon="2.0046">
        <ele>257.29</ele>
        <time>2020-06-06T09:15:21Z</time>
      </trkpt>
      <trkpt lat="44.06246" lon="2.00462">
        <ele>256.81</ele>
        <time>2020-06-06T09:15:28Z</time>
      </trkpt>
      <trkpt lat="44.06259" lon="2.00465">
        <ele>257.29</ele>
        <time>2020-06-06T09:15:36Z</time>
      </trkpt>
      <trkpt lat="44.0627" lon="2.00469">
        <ele>254.41</ele>
        <time>2020-06-06T09:15:44Z</time>
      </trkpt>
      <trkpt lat="44.06272" lon="2.00471">
        <ele>253.44</ele>
        <time>2020-06-06T09:15:46Z</time>
      </trkpt>
      <trkpt lat="44.06275" lon="2.00476">
        <ele>252</ele>
        <time>2020-06-06T09:15:50Z</time>
      </trkpt>
      <trkpt lat="44.06277" lon="2.00494">
        <ele>248.16</ele>
        <time>2020-06-06T09:16:01Z</time>
      </trkpt>
      <trkpt lat="44.06279" lon="2.00509">
        <ele>249.12</ele>
        <time>2020-06-06T09:16:10Z</time>
      </trkpt>
      <trkpt lat="44.06281" lon="2.00532">
        <ele>248.64</ele>
        <time>2020-06-06T09:16:22Z</time>
      </trkpt>
      <trkpt lat="44.06283" lon="2.0054">
        <ele>249.12</ele>
        <time>2020-06-06T09:16:29Z</time>
      </trkpt>
      <trkpt lat="44.06283" lon="2.00538">
        <ele>248.16</ele>
        <time>2020-06-06T09:16:36Z</time>
      </trkpt>
      <trkpt lat="44.06284" lon="2.00538">
        <ele>246.72</ele>
        <time>2020-06-06T09:16:45Z</time>
      </trkpt>
      <trkpt lat="44.06284" lon="2.00547">
        <ele>246.72</ele>
        <time>2020-06-06T09:16:53Z</time>
      </trkpt>
      <trkpt lat="44.06285" lon="2.0055">
        <ele>246.72</ele>
        <time>2020-06-06T09:16:58Z</time>
      </trkpt>
      <trkpt lat="44.06285" lon="2.00552">
        <ele>246.23</ele>
        <time>2020-06-06T09:17:11Z</time>
      </trkpt>
      <trkpt lat="44.06286" lon="2.0056">
        <ele>247.2</ele>
        <time>2020-06-06T09:17:16Z</time>
      </trkpt>
      <trkpt lat="44.06289" lon="2.00579">
        <ele>248.64</ele>
        <time>2020-06-06T09:17:25Z</time>
      </trkpt>
      <trkpt lat="44.06294" lon="2.00596">
        <ele>252</ele>
        <time>2020-06-06T09:17:34Z</time>
      </trkpt>
      <trkpt lat="44.06299" lon="2.00611">
        <ele>252.96</ele>
        <time>2020-06-06T09:17:44Z</time>
      </trkpt>
      <trkpt lat="44.06301" lon="2.00618">
        <ele>254.89</ele>
        <time>2020-06-06T09:17:59Z</time>
      </trkpt>
      <trkpt lat="44.0631" lon="2.00632">
        <ele>253.44</ele>
        <time>2020-06-06T09:18:08Z</time>
      </trkpt>
      <trkpt lat="44.06318" lon="2.00652">
        <ele>252.48</ele>
        <time>2020-06-06T09:18:18Z</time>
      </trkpt>
      <trkpt lat="44.06321" lon="2.00671">
        <ele>252.48</ele>
        <time>2020-06-06T09:18:28Z</time>
      </trkpt>
      <trkpt lat="44.06322" lon="2.0069">
        <ele>252.48</ele>
        <time>2020-06-06T09:18:38Z</time>
      </trkpt>
      <trkpt lat="44.06321" lon="2.00708">
        <ele>253.44</ele>
        <time>2020-06-06T09:18:47Z</time>
      </trkpt>
      <trkpt lat="44.06321" lon="2.00713">
        <ele>252.48</ele>
        <time>2020-06-06T09:18:50Z</time>
      </trkpt>
      <trkpt lat="44.06323" lon="2.00724">
        <ele>252.48</ele>
        <time>2020-06-06T09:18:56Z</time>
      </trkpt>
      <trkpt lat="44.06323" lon="2.00751">
        <ele>251.04</ele>
        <time>2020-06-06T09:19:09Z</time>
      </trkpt>
      <trkpt lat="44.06321" lon="2.00771">
        <ele>251.04</ele>
        <time>2020-06-06T09:19:20Z</time>
      </trkpt>
      <trkpt lat="44.06313" lon="2.00789">
        <ele>252</ele>
        <time>2020-06-06T09:19:30Z</time>
      </trkpt>
      <trkpt lat="44.06303" lon="2.00809">
        <ele>252</ele>
        <time>2020-06-06T09:19:43Z</time>
      </trkpt>
      <trkpt lat="44.06293" lon="2.00818">
        <ele>252.96</ele>
        <time>2020-06-06T09:19:52Z</time>
      </trkpt>
      <trkpt lat="44.06283" lon="2.00826">
        <ele>252.48</ele>
        <time>2020-06-06T09:20:01Z</time>
      </trkpt>
      <trkpt lat="44.06275" lon="2.0084">
        <ele>252</ele>
        <time>2020-06-06T09:20:11Z</time>
      </trkpt>
      <trkpt lat="44.06276" lon="2.00852">
        <ele>252</ele>
        <time>2020-06-06T09:20:20Z</time>
      </trkpt>
      <trkpt lat="44.0628" lon="2.00857">
        <ele>252.48</ele>
        <time>2020-06-06T09:20:27Z</time>
      </trkpt>
      <trkpt lat="44.06293" lon="2.00865">
        <ele>252</ele>
        <time>2020-06-06T09:20:38Z</time>
      </trkpt>
      <trkpt lat="44.06306" lon="2.00874">
        <ele>252</ele>
        <time>2020-06-06T09:20:49Z</time>
      </trkpt>
      <trkpt lat="44.06318" lon="2.00886">
        <ele>252</ele>
        <time>2020-06-06T09:21:00Z</time>
      </trkpt>
      <trkpt lat="44.06325" lon="2.00897">
        <ele>253.44</ele>
        <time>2020-06-06T09:21:09Z</time>
      </trkpt>
      <trkpt lat="44.06332" lon="2.00909">
        <ele>255.37</ele>
        <time>2020-06-06T09:21:18Z</time>
      </trkpt>
      <trkpt lat="44.06338" lon="2.00924">
        <ele>255.85</ele>
        <time>2020-06-06T09:21:27Z</time>
      </trkpt>
      <trkpt lat="44.06343" lon="2.00941">
        <ele>257.29</ele>
        <time>2020-06-06T09:21:37Z</time>
      </trkpt>
      <trkpt lat="44.06345" lon="2.00949">
        <ele>257.77</ele>
        <time>2020-06-06T09:21:42Z</time>
      </trkpt>
      <trkpt lat="44.06348" lon="2.00964">
        <ele>258.25</ele>
        <time>2020-06-06T09:21:50Z</time>
      </trkpt>
      <trkpt lat="44.0635" lon="2.00981">
        <ele>258.25</ele>
        <time>2020-06-06T09:21:59Z</time>
      </trkpt>
      <trkpt lat="44.06351" lon="2.01004">
        <ele>258.25</ele>
        <time>2020-06-06T09:22:11Z</time>
      </trkpt>
      <trkpt lat="44.06348" lon="2.0102">
        <ele>260.17</ele>
        <time>2020-06-06T09:22:20Z</time>
      </trkpt>
      <trkpt lat="44.06341" lon="2.01028">
        <ele>261.14</ele>
        <time>2020-06-06T09:22:28Z</time>
      </trkpt>
      <trkpt lat="44.06334" lon="2.01034">
        <ele>262.1</ele>
        <time>2020-06-06T09:22:36Z</time>
      </trkpt>
      <trkpt lat="44.06326" lon="2.01041">
        <ele>263.54</ele>
        <time>2020-06-06T09:22:45Z</time>
      </trkpt>
      <trkpt lat="44.06323" lon="2.01042">
        <ele>263.54</ele>
        <time>2020-06-06T09:22:52Z</time>
      </trkpt>
      <trkpt lat="44.06323" lon="2.01041">
        <ele>263.54</ele>
        <time>2020-06-06T09:23:00Z</time>
      </trkpt>
      <trkpt lat="44.06319" lon="2.01046">
        <ele>264.5</ele>
        <time>2020-06-06T09:23:04Z</time>
      </trkpt>
      <trkpt lat="44.06313" lon="2.01051">
        <ele>265.46</ele>
        <time>2020-06-06T09:23:13Z</time>
      </trkpt>
      <trkpt lat="44.06309" lon="2.01055">
        <ele>264.98</ele>
        <time>2020-06-06T09:23:22Z</time>
      </trkpt>
      <trkpt lat="44.06305" lon="2.01057">
        <ele>265.46</ele>
        <time>2020-06-06T09:23:32Z</time>
      </trkpt>
      <trkpt lat="44.0629" lon="2.01069">
        <ele>267.86</ele>
        <time>2020-06-06T09:23:45Z</time>
      </trkpt>
      <trkpt lat="44.06279" lon="2.01075">
        <ele>270.27</ele>
        <time>2020-06-06T09:23:54Z</time>
      </trkpt>
      <trkpt lat="44.06266" lon="2.01085">
        <ele>274.59</ele>
        <time>2020-06-06T09:24:06Z</time>
      </trkpt>
      <trkpt lat="44.06254" lon="2.01091">
        <ele>276.52</ele>
        <time>2020-06-06T09:24:16Z</time>
      </trkpt>
      <trkpt lat="44.06242" lon="2.01097">
        <ele>279.88</ele>
        <time>2020-06-06T09:24:27Z</time>
      </trkpt>
      <trkpt lat="44.06237" lon="2.01095">
        <ele>279.88</ele>
        <time>2020-06-06T09:24:35Z</time>
      </trkpt>
      <trkpt lat="44.06237" lon="2.01095">
        <ele>280.36</ele>
        <time>2020-06-06T09:24:46Z</time>
      </trkpt>
      <trkpt lat="44.06236" lon="2.01095">
        <ele>279.88</ele>
        <time>2020-06-06T09:24:51Z</time>
      </trkpt>
      <trkpt lat="44.06232" lon="2.01101">
        <ele>281.32</ele>
        <time>2020-06-06T09:24:59Z</time>
      </trkpt>
      <trkpt lat="44.06217" lon="2.01114">
        <ele>284.69</ele>
        <time>2020-06-06T09:25:12Z</time>
      </trkpt>
      <trkpt lat="44.06203" lon="2.01127">
        <ele>287.09</ele>
        <time>2020-06-06T09:25:25Z</time>
      </trkpt>
      <trkpt lat="44.06191" lon="2.01135">
        <ele>290.46</ele>
        <time>2020-06-06T09:25:36Z</time>
      </trkpt>
      <trkpt lat="44.06183" lon="2.0114">
        <ele>292.38</ele>
        <time>2020-06-06T09:25:45Z</time>
      </trkpt>
      <trkpt lat="44.06182" lon="2.01141">
        <ele>292.38</ele>
        <time>2020-06-06T09:25:53Z</time>
      </trkpt>
      <trkpt lat="44.06172" lon="2.01146">
        <ele>293.82</ele>
        <time>2020-06-06T09:26:01Z</time>
      </trkpt>
      <trkpt lat="44.06166" lon="2.01149">
        <ele>295.26</ele>
        <time>2020-06-06T09:26:07Z</time>
      </trkpt>
      <trkpt lat="44.06156" lon="2.01159">
        <ele>296.7</ele>
        <time>2020-06-06T09:26:16Z</time>
      </trkpt>
      <trkpt lat="44.06142" lon="2.01169">
        <ele>298.15</ele>
        <time>2020-06-06T09:26:27Z</time>
      </trkpt>
      <trkpt lat="44.06128" lon="2.0118">
        <ele>300.55</ele>
        <time>2020-06-06T09:26:39Z</time>
      </trkpt>
      <trkpt lat="44.06117" lon="2.01188">
        <ele>301.51</ele>
        <time>2020-06-06T09:26:48Z</time>
      </trkpt>
      <trkpt lat="44.06112" lon="2.01188">
        <ele>301.51</ele>
        <time>2020-06-06T09:26:52Z</time>
      </trkpt>
      <trkpt lat="44.06095" lon="2.01199">
        <ele>302.47</ele>
        <time>2020-06-06T09:27:05Z</time>
      </trkpt>
      <trkpt lat="44.06082" lon="2.01208">
        <ele>303.91</ele>
        <time>2020-06-06T09:27:16Z</time>
      </trkpt>
      <trkpt lat="44.06071" lon="2.01218">
        <ele>304.39</ele>
        <time>2020-06-06T09:27:25Z</time>
      </trkpt>
      <trkpt lat="44.06062" lon="2.01223">
        <ele>304.88</ele>
        <time>2020-06-06T09:27:33Z</time>
      </trkpt>
      <trkpt lat="44.06048" lon="2.01233">
        <ele>304.39</ele>
        <time>2020-06-06T09:27:45Z</time>
      </trkpt>
      <trkpt lat="44.0604" lon="2.01237">
        <ele>304.39</ele>
        <time>2020-06-06T09:27:53Z</time>
      </trkpt>
      <trkpt lat="44.06028" lon="2.01246">
        <ele>305.36</ele>
        <time>2020-06-06T09:28:03Z</time>
      </trkpt>
      <trkpt lat="44.06015" lon="2.01256">
        <ele>305.36</ele>
        <time>2020-06-06T09:28:14Z</time>
      </trkpt>
      <trkpt lat="44.06011" lon="2.01259">
        <ele>305.36</ele>
        <time>2020-06-06T09:28:18Z</time>
      </trkpt>
      <trkpt lat="44.06" lon="2.01266">
        <ele>305.36</ele>
        <time>2020-06-06T09:28:27Z</time>
      </trkpt>
      <trkpt lat="44.05998" lon="2.01267">
        <ele>305.36</ele>
        <time>2020-06-06T09:28:28Z</time>
      </trkpt>
      <trkpt lat="44.05983" lon="2.01279">
        <ele>305.84</ele>
        <time>2020-06-06T09:28:41Z</time>
      </trkpt>
      <trkpt lat="44.05968" lon="2.0129">
        <ele>305.84</ele>
        <time>2020-06-06T09:28:53Z</time>
      </trkpt>
      <trkpt lat="44.05951" lon="2.013">
        <ele>305.84</ele>
        <time>2020-06-06T09:29:07Z</time>
      </trkpt>
      <trkpt lat="44.0595" lon="2.01301">
        <ele>305.84</ele>
        <time>2020-06-06T09:29:08Z</time>
      </trkpt>
      <trkpt lat="44.05936" lon="2.01306">
        <ele>306.8</ele>
        <time>2020-06-06T09:29:19Z</time>
      </trkpt>
      <trkpt lat="44.05923" lon="2.01309">
        <ele>306.32</ele>
        <time>2020-06-06T09:29:28Z</time>
      </trkpt>
      <trkpt lat="44.0591" lon="2.01314">
        <ele>306.32</ele>
        <time>2020-06-06T09:29:37Z</time>
      </trkpt>
      <trkpt lat="44.05899" lon="2.01319">
        <ele>307.28</ele>
        <time>2020-06-06T09:29:46Z</time>
      </trkpt>
      <trkpt lat="44.05886" lon="2.01323">
        <ele>307.28</ele>
        <time>2020-06-06T09:29:56Z</time>
      </trkpt>
      <trkpt lat="44.05873" lon="2.01329">
        <ele>307.28</ele>
        <time>2020-06-06T09:30:06Z</time>
      </trkpt>
      <trkpt lat="44.0586" lon="2.01333">
        <ele>308.72</ele>
        <time>2020-06-06T09:30:16Z</time>
      </trkpt>
      <trkpt lat="44.05854" lon="2.01334">
        <ele>309.2</ele>
        <time>2020-06-06T09:30:20Z</time>
      </trkpt>
      <trkpt lat="44.05837" lon="2.01339">
        <ele>309.68</ele>
        <time>2020-06-06T09:30:33Z</time>
      </trkpt>
      <trkpt lat="44.05826" lon="2.01341">
        <ele>310.16</ele>
        <time>2020-06-06T09:30:42Z</time>
      </trkpt>
      <trkpt lat="44.05813" lon="2.01344">
        <ele>311.6</ele>
        <time>2020-06-06T09:30:52Z</time>
      </trkpt>
      <trkpt lat="44.05799" lon="2.01346">
        <ele>312.09</ele>
        <time>2020-06-06T09:31:02Z</time>
      </trkpt>
      <trkpt lat="44.0579" lon="2.01347">
        <ele>312.09</ele>
        <time>2020-06-06T09:31:08Z</time>
      </trkpt>
      <trkpt lat="44.05775" lon="2.0135">
        <ele>313.05</ele>
        <time>2020-06-06T09:31:19Z</time>
      </trkpt>
      <trkpt lat="44.05754" lon="2.01355">
        <ele>313.53</ele>
        <time>2020-06-06T09:31:34Z</time>
      </trkpt>
      <trkpt lat="44.05737" lon="2.0136">
        <ele>314.01</ele>
        <time>2020-06-06T09:31:46Z</time>
      </trkpt>
      <trkpt lat="44.0572" lon="2.01365">
        <ele>314.97</ele>
        <time>2020-06-06T09:31:59Z</time>
      </trkpt>
      <trkpt lat="44.05712" lon="2.01369">
        <ele>316.41</ele>
        <time>2020-06-06T09:32:06Z</time>
      </trkpt>
      <trkpt lat="44.05696" lon="2.01375">
        <ele>315.93</ele>
        <time>2020-06-06T09:32:17Z</time>
      </trkpt>
      <trkpt lat="44.05681" lon="2.01384">
        <ele>316.89</ele>
        <time>2020-06-06T09:32:29Z</time>
      </trkpt>
      <trkpt lat="44.05668" lon="2.0139">
        <ele>316.89</ele>
        <time>2020-06-06T09:32:39Z</time>
      </trkpt>
      <trkpt lat="44.05653" lon="2.01397">
        <ele>317.85</ele>
        <time>2020-06-06T09:32:51Z</time>
      </trkpt>
      <trkpt lat="44.05638" lon="2.01402">
        <ele>317.37</ele>
        <time>2020-06-06T09:33:02Z</time>
      </trkpt>
      <trkpt lat="44.05622" lon="2.01408">
        <ele>317.85</ele>
        <time>2020-06-06T09:33:14Z</time>
      </trkpt>
      <trkpt lat="44.05615" lon="2.0141">
        <ele>317.85</ele>
        <time>2020-06-06T09:33:23Z</time>
      </trkpt>
      <trkpt lat="44.05616" lon="2.01406">
        <ele>318.33</ele>
        <time>2020-06-06T09:33:33Z</time>
      </trkpt>
      <trkpt lat="44.05615" lon="2.01406">
        <ele>318.81</ele>
        <time>2020-06-06T09:33:35Z</time>
      </trkpt>
      <trkpt lat="44.05597" lon="2.0141">
        <ele>319.78</ele>
        <time>2020-06-06T09:33:47Z</time>
      </trkpt>
      <trkpt lat="44.05591" lon="2.01407">
        <ele>318.81</ele>
        <time>2020-06-06T09:33:54Z</time>
      </trkpt>
      <trkpt lat="44.05589" lon="2.01408">
        <ele>319.3</ele>
        <time>2020-06-06T09:34:12Z</time>
      </trkpt>
      <trkpt lat="44.05578" lon="2.01407">
        <ele>317.85</ele>
        <time>2020-06-06T09:34:20Z</time>
      </trkpt>
      <trkpt lat="44.05566" lon="2.01404">
        <ele>317.85</ele>
        <time>2020-06-06T09:34:29Z</time>
      </trkpt>
      <trkpt lat="44.05563" lon="2.01402">
        <ele>318.33</ele>
        <time>2020-06-06T09:34:37Z</time>
      </trkpt>
      <trkpt lat="44.05551" lon="2.01399">
        <ele>318.81</ele>
        <time>2020-06-06T09:34:45Z</time>
      </trkpt>
      <trkpt lat="44.05536" lon="2.01393">
        <ele>320.26</ele>
        <time>2020-06-06T09:34:55Z</time>
      </trkpt>
      <trkpt lat="44.05523" lon="2.01385">
        <ele>318.81</ele>
        <time>2020-06-06T09:35:04Z</time>
      </trkpt>
      <trkpt lat="44.05507" lon="2.01369">
        <ele>321.7</ele>
        <time>2020-06-06T09:35:17Z</time>
      </trkpt>
      <trkpt lat="44.05494" lon="2.01357">
        <ele>323.62</ele>
        <time>2020-06-06T09:35:27Z</time>
      </trkpt>
      <trkpt lat="44.05478" lon="2.01344">
        <ele>322.66</ele>
        <time>2020-06-06T09:35:38Z</time>
      </trkpt>
      <trkpt lat="44.05461" lon="2.01331">
        <ele>323.14</ele>
        <time>2020-06-06T09:35:51Z</time>
      </trkpt>
      <trkpt lat="44.05456" lon="2.01333">
        <ele>323.62</ele>
        <time>2020-06-06T09:35:55Z</time>
      </trkpt>
      <trkpt lat="44.05453" lon="2.01342">
        <ele>324.58</ele>
        <time>2020-06-06T09:36:01Z</time>
      </trkpt>
      <trkpt lat="44.05447" lon="2.01367">
        <ele>325.54</ele>
        <time>2020-06-06T09:36:14Z</time>
      </trkpt>
      <trkpt lat="44.05442" lon="2.01387">
        <ele>324.58</ele>
        <time>2020-06-06T09:36:24Z</time>
      </trkpt>
      <trkpt lat="44.05436" lon="2.01405">
        <ele>324.58</ele>
        <time>2020-06-06T09:36:34Z</time>
      </trkpt>
      <trkpt lat="44.05428" lon="2.01419">
        <ele>324.58</ele>
        <time>2020-06-06T09:36:44Z</time>
      </trkpt>
      <trkpt lat="44.05418" lon="2.01433">
        <ele>324.58</ele>
        <time>2020-06-06T09:36:54Z</time>
      </trkpt>
      <trkpt lat="44.05411" lon="2.01444">
        <ele>324.1</ele>
        <time>2020-06-06T09:37:02Z</time>
      </trkpt>
      <trkpt lat="44.054" lon="2.0146">
        <ele>323.62</ele>
        <time>2020-06-06T09:37:13Z</time>
      </trkpt>
      <trkpt lat="44.05386" lon="2.01481">
        <ele>323.62</ele>
        <time>2020-06-06T09:37:28Z</time>
      </trkpt>
      <trkpt lat="44.05373" lon="2.015">
        <ele>323.62</ele>
        <time>2020-06-06T09:37:42Z</time>
      </trkpt>
      <trkpt lat="44.05371" lon="2.01504">
        <ele>323.62</ele>
        <time>2020-06-06T09:37:45Z</time>
      </trkpt>
      <trkpt lat="44.0537" lon="2.01506">
        <ele>323.62</ele>
        <time>2020-06-06T09:37:47Z</time>
      </trkpt>
      <trkpt lat="44.05365" lon="2.01514">
        <ele>323.14</ele>
        <time>2020-06-06T09:37:53Z</time>
      </trkpt>
      <trkpt lat="44.05358" lon="2.01529">
        <ele>322.66</ele>
        <time>2020-06-06T09:38:03Z</time>
      </trkpt>
      <trkpt lat="44.05349" lon="2.01547">
        <ele>323.62</ele>
        <time>2020-06-06T09:38:14Z</time>
      </trkpt>
      <trkpt lat="44.05343" lon="2.01567">
        <ele>323.14</ele>
        <time>2020-06-06T09:38:26Z</time>
      </trkpt>
      <trkpt lat="44.0534" lon="2.01575">
        <ele>324.1</ele>
        <time>2020-06-06T09:38:31Z</time>
      </trkpt>
      <trkpt lat="44.05338" lon="2.01583">
        <ele>323.14</ele>
        <time>2020-06-06T09:38:36Z</time>
      </trkpt>
      <trkpt lat="44.05331" lon="2.01602">
        <ele>323.62</ele>
        <time>2020-06-06T09:38:47Z</time>
      </trkpt>
      <trkpt lat="44.05327" lon="2.01616">
        <ele>324.1</ele>
        <time>2020-06-06T09:38:55Z</time>
      </trkpt>
      <trkpt lat="44.05325" lon="2.01625">
        <ele>323.62</ele>
        <time>2020-06-06T09:39:00Z</time>
      </trkpt>
      <trkpt lat="44.0532" lon="2.01639">
        <ele>323.62</ele>
        <time>2020-06-06T09:39:08Z</time>
      </trkpt>
      <trkpt lat="44.05318" lon="2.01648">
        <ele>323.62</ele>
        <time>2020-06-06T09:39:13Z</time>
      </trkpt>
      <trkpt lat="44.05313" lon="2.01669">
        <ele>323.62</ele>
        <time>2020-06-06T09:39:25Z</time>
      </trkpt>
      <trkpt lat="44.05306" lon="2.01689">
        <ele>325.54</ele>
        <time>2020-06-06T09:39:36Z</time>
      </trkpt>
      <trkpt lat="44.053" lon="2.0171">
        <ele>324.58</ele>
        <time>2020-06-06T09:39:48Z</time>
      </trkpt>
      <trkpt lat="44.05293" lon="2.01731">
        <ele>325.06</ele>
        <time>2020-06-06T09:40:00Z</time>
      </trkpt>
      <trkpt lat="44.0529" lon="2.01743">
        <ele>324.58</ele>
        <time>2020-06-06T09:40:07Z</time>
      </trkpt>
      <trkpt lat="44.05287" lon="2.0175">
        <ele>324.58</ele>
        <time>2020-06-06T09:40:12Z</time>
      </trkpt>
      <trkpt lat="44.05279" lon="2.01768">
        <ele>324.58</ele>
        <time>2020-06-06T09:40:23Z</time>
      </trkpt>
      <trkpt lat="44.05275" lon="2.01773">
        <ele>324.1</ele>
        <time>2020-06-06T09:40:28Z</time>
      </trkpt>
      <trkpt lat="44.05272" lon="2.01778">
        <ele>324.1</ele>
        <time>2020-06-06T09:40:36Z</time>
      </trkpt>
      <trkpt lat="44.05272" lon="2.01779">
        <ele>323.62</ele>
        <time>2020-06-06T09:40:44Z</time>
      </trkpt>
      <trkpt lat="44.05271" lon="2.0178">
        <ele>323.62</ele>
        <time>2020-06-06T09:40:45Z</time>
      </trkpt>
      <trkpt lat="44.05268" lon="2.0179">
        <ele>323.14</ele>
        <time>2020-06-06T09:40:54Z</time>
      </trkpt>
      <trkpt lat="44.05265" lon="2.01796">
        <ele>323.62</ele>
        <time>2020-06-06T09:40:58Z</time>
      </trkpt>
      <trkpt lat="44.05264" lon="2.01801">
        <ele>323.14</ele>
        <time>2020-06-06T09:41:03Z</time>
      </trkpt>
      <trkpt lat="44.05258" lon="2.01814">
        <ele>322.66</ele>
        <time>2020-06-06T09:41:12Z</time>
      </trkpt>
      <trkpt lat="44.05252" lon="2.0183">
        <ele>322.66</ele>
        <time>2020-06-06T09:41:22Z</time>
      </trkpt>
      <trkpt lat="44.05247" lon="2.01845">
        <ele>321.7</ele>
        <time>2020-06-06T09:41:32Z</time>
      </trkpt>
      <trkpt lat="44.05242" lon="2.01859">
        <ele>321.22</ele>
        <time>2020-06-06T09:41:41Z</time>
      </trkpt>
      <trkpt lat="44.05238" lon="2.01871">
        <ele>321.22</ele>
        <time>2020-06-06T09:41:49Z</time>
      </trkpt>
      <trkpt lat="44.05237" lon="2.01872">
        <ele>320.74</ele>
        <time>2020-06-06T09:41:51Z</time>
      </trkpt>
      <trkpt lat="44.05231" lon="2.01889">
        <ele>318.81</ele>
        <time>2020-06-06T09:42:01Z</time>
      </trkpt>
      <trkpt lat="44.05226" lon="2.01904">
        <ele>317.85</ele>
        <time>2020-06-06T09:42:10Z</time>
      </trkpt>
      <trkpt lat="44.05226" lon="2.01905">
        <ele>317.85</ele>
        <time>2020-06-06T09:42:11Z</time>
      </trkpt>
      <trkpt lat="44.05224" lon="2.01911">
        <ele>317.37</ele>
        <time>2020-06-06T09:42:17Z</time>
      </trkpt>
      <trkpt lat="44.05221" lon="2.01924">
        <ele>316.89</ele>
        <time>2020-06-06T09:42:26Z</time>
      </trkpt>
      <trkpt lat="44.05214" lon="2.01942">
        <ele>316.41</ele>
        <time>2020-06-06T09:42:38Z</time>
      </trkpt>
      <trkpt lat="44.05209" lon="2.01959">
        <ele>315.45</ele>
        <time>2020-06-06T09:42:48Z</time>
      </trkpt>
      <trkpt lat="44.05203" lon="2.01974">
        <ele>315.93</ele>
        <time>2020-06-06T09:42:58Z</time>
      </trkpt>
      <trkpt lat="44.05199" lon="2.01981">
        <ele>315.45</ele>
        <time>2020-06-06T09:43:03Z</time>
      </trkpt>
      <trkpt lat="44.05191" lon="2.01997">
        <ele>314.49</ele>
        <time>2020-06-06T09:43:13Z</time>
      </trkpt>
      <trkpt lat="44.05184" lon="2.02015">
        <ele>314.49</ele>
        <time>2020-06-06T09:43:24Z</time>
      </trkpt>
      <trkpt lat="44.05177" lon="2.02033">
        <ele>314.49</ele>
        <time>2020-06-06T09:43:35Z</time>
      </trkpt>
      <trkpt lat="44.05168" lon="2.02053">
        <ele>314.49</ele>
        <time>2020-06-06T09:43:47Z</time>
      </trkpt>
      <trkpt lat="44.05161" lon="2.0207">
        <ele>313.53</ele>
        <time>2020-06-06T09:43:58Z</time>
      </trkpt>
      <trkpt lat="44.05152" lon="2.02089">
        <ele>313.53</ele>
        <time>2020-06-06T09:44:11Z</time>
      </trkpt>
      <trkpt lat="44.05149" lon="2.02096">
        <ele>313.05</ele>
        <time>2020-06-06T09:44:20Z</time>
      </trkpt>
      <trkpt lat="44.05148" lon="2.02098">
        <ele>313.05</ele>
        <time>2020-06-06T09:44:41Z</time>
      </trkpt>
      <trkpt lat="44.0514" lon="2.02116">
        <ele>312.57</ele>
        <time>2020-06-06T09:44:52Z</time>
      </trkpt>
      <trkpt lat="44.05129" lon="2.02139">
        <ele>313.53</ele>
        <time>2020-06-06T09:45:06Z</time>
      </trkpt>
      <trkpt lat="44.05123" lon="2.02159">
        <ele>314.97</ele>
        <time>2020-06-06T09:45:17Z</time>
      </trkpt>
      <trkpt lat="44.05117" lon="2.02184">
        <ele>314.97</ele>
        <time>2020-06-06T09:45:30Z</time>
      </trkpt>
      <trkpt lat="44.05113" lon="2.02203">
        <ele>314.97</ele>
        <time>2020-06-06T09:45:39Z</time>
      </trkpt>
      <trkpt lat="44.05107" lon="2.02228">
        <ele>315.45</ele>
        <time>2020-06-06T09:45:51Z</time>
      </trkpt>
      <trkpt lat="44.05101" lon="2.02254">
        <ele>315.93</ele>
        <time>2020-06-06T09:46:03Z</time>
      </trkpt>
      <trkpt lat="44.05096" lon="2.02276">
        <ele>314.01</ele>
        <time>2020-06-06T09:46:14Z</time>
      </trkpt>
      <trkpt lat="44.0509" lon="2.02297">
        <ele>315.45</ele>
        <time>2020-06-06T09:46:24Z</time>
      </trkpt>
      <trkpt lat="44.05081" lon="2.02326">
        <ele>314.97</ele>
        <time>2020-06-06T09:46:38Z</time>
      </trkpt>
      <trkpt lat="44.05071" lon="2.02351">
        <ele>314.49</ele>
        <time>2020-06-06T09:46:51Z</time>
      </trkpt>
      <trkpt lat="44.05067" lon="2.02367">
        <ele>316.89</ele>
        <time>2020-06-06T09:46:59Z</time>
      </trkpt>
      <trkpt lat="44.05062" lon="2.02382">
        <ele>317.85</ele>
        <time>2020-06-06T09:47:07Z</time>
      </trkpt>
      <trkpt lat="44.05059" lon="2.02391">
        <ele>317.37</ele>
        <time>2020-06-06T09:47:12Z</time>
      </trkpt>
      <trkpt lat="44.05052" lon="2.02414">
        <ele>318.33</ele>
        <time>2020-06-06T09:47:25Z</time>
      </trkpt>
      <trkpt lat="44.05047" lon="2.02433">
        <ele>318.33</ele>
        <time>2020-06-06T09:47:35Z</time>
      </trkpt>
      <trkpt lat="44.05048" lon="2.02447">
        <ele>318.33</ele>
        <time>2020-06-06T09:47:45Z</time>
      </trkpt>
      <trkpt lat="44.05048" lon="2.02449">
        <ele>318.33</ele>
        <time>2020-06-06T09:47:48Z</time>
      </trkpt>
      <trkpt lat="44.05043" lon="2.02467">
        <ele>317.85</ele>
        <time>2020-06-06T09:47:58Z</time>
      </trkpt>
      <trkpt lat="44.05039" lon="2.02478">
        <ele>317.85</ele>
        <time>2020-06-06T09:48:05Z</time>
      </trkpt>
      <trkpt lat="44.05034" lon="2.02497">
        <ele>319.78</ele>
        <time>2020-06-06T09:48:16Z</time>
      </trkpt>
      <trkpt lat="44.05032" lon="2.02503">
        <ele>320.74</ele>
        <time>2020-06-06T09:48:20Z</time>
      </trkpt>
      <trkpt lat="44.05026" lon="2.02521">
        <ele>320.74</ele>
        <time>2020-06-06T09:48:31Z</time>
      </trkpt>
      <trkpt lat="44.05018" lon="2.0254">
        <ele>321.7</ele>
        <time>2020-06-06T09:48:42Z</time>
      </trkpt>
      <trkpt lat="44.05014" lon="2.02554">
        <ele>320.74</ele>
        <time>2020-06-06T09:48:51Z</time>
      </trkpt>
      <trkpt lat="44.05008" lon="2.02569">
        <ele>321.22</ele>
        <time>2020-06-06T09:49:00Z</time>
      </trkpt>
      <trkpt lat="44.05004" lon="2.02578">
        <ele>321.7</ele>
        <time>2020-06-06T09:49:06Z</time>
      </trkpt>
      <trkpt lat="44.05" lon="2.02589">
        <ele>322.66</ele>
        <time>2020-06-06T09:49:13Z</time>
      </trkpt>
      <trkpt lat="44.04993" lon="2.02607">
        <ele>323.62</ele>
        <time>2020-06-06T09:49:24Z</time>
      </trkpt>
      <trkpt lat="44.04988" lon="2.02621">
        <ele>323.14</ele>
        <time>2020-06-06T09:49:32Z</time>
      </trkpt>
      <trkpt lat="44.04984" lon="2.02628">
        <ele>323.14</ele>
        <time>2020-06-06T09:49:37Z</time>
      </trkpt>
      <trkpt lat="44.04984" lon="2.02633">
        <ele>322.18</ele>
        <time>2020-06-06T09:49:43Z</time>
      </trkpt>
      <trkpt lat="44.04981" lon="2.02638">
        <ele>321.22</ele>
        <time>2020-06-06T09:49:49Z</time>
      </trkpt>
      <trkpt lat="44.04978" lon="2.02642">
        <ele>321.22</ele>
        <time>2020-06-06T09:49:52Z</time>
      </trkpt>
      <trkpt lat="44.04975" lon="2.02648">
        <ele>321.7</ele>
        <time>2020-06-06T09:49:56Z</time>
      </trkpt>
      <trkpt lat="44.04963" lon="2.02664">
        <ele>322.18</ele>
        <time>2020-06-06T09:50:08Z</time>
      </trkpt>
      <trkpt lat="44.0496" lon="2.02667">
        <ele>322.18</ele>
        <time>2020-06-06T09:50:10Z</time>
      </trkpt>
      <trkpt lat="44.04953" lon="2.02674">
        <ele>320.74</ele>
        <time>2020-06-06T09:50:17Z</time>
      </trkpt>
      <trkpt lat="44.0495" lon="2.02676">
        <ele>320.74</ele>
        <time>2020-06-06T09:50:20Z</time>
      </trkpt>
      <trkpt lat="44.04945" lon="2.02685">
        <ele>319.78</ele>
        <time>2020-06-06T09:50:26Z</time>
      </trkpt>
      <trkpt lat="44.04939" lon="2.02695">
        <ele>318.81</ele>
        <time>2020-06-06T09:50:34Z</time>
      </trkpt>
      <trkpt lat="44.04936" lon="2.027">
        <ele>318.81</ele>
        <time>2020-06-06T09:50:38Z</time>
      </trkpt>
      <trkpt lat="44.04934" lon="2.02703">
        <ele>318.81</ele>
        <time>2020-06-06T09:50:40Z</time>
      </trkpt>
      <trkpt lat="44.04926" lon="2.02715">
        <ele>319.3</ele>
        <time>2020-06-06T09:50:49Z</time>
      </trkpt>
      <trkpt lat="44.04919" lon="2.02727">
        <ele>320.26</ele>
        <time>2020-06-06T09:50:58Z</time>
      </trkpt>
      <trkpt lat="44.04914" lon="2.02737">
        <ele>319.78</ele>
        <time>2020-06-06T09:51:04Z</time>
      </trkpt>
      <trkpt lat="44.04907" lon="2.02751">
        <ele>321.7</ele>
        <time>2020-06-06T09:51:14Z</time>
      </trkpt>
      <trkpt lat="44.04903" lon="2.02763">
        <ele>322.18</ele>
        <time>2020-06-06T09:51:21Z</time>
      </trkpt>
      <trkpt lat="44.04895" lon="2.02779">
        <ele>322.18</ele>
        <time>2020-06-06T09:51:32Z</time>
      </trkpt>
      <trkpt lat="44.04888" lon="2.02791">
        <ele>322.18</ele>
        <time>2020-06-06T09:51:40Z</time>
      </trkpt>
      <trkpt lat="44.04881" lon="2.02801">
        <ele>321.7</ele>
        <time>2020-06-06T09:51:48Z</time>
      </trkpt>
      <trkpt lat="44.04871" lon="2.02819">
        <ele>321.7</ele>
        <time>2020-06-06T09:52:00Z</time>
      </trkpt>
      <trkpt lat="44.04865" lon="2.0283">
        <ele>321.22</ele>
        <time>2020-06-06T09:52:07Z</time>
      </trkpt>
      <trkpt lat="44.04859" lon="2.02841">
        <ele>321.7</ele>
        <time>2020-06-06T09:52:15Z</time>
      </trkpt>
      <trkpt lat="44.04851" lon="2.02853">
        <ele>322.18</ele>
        <time>2020-06-06T09:52:24Z</time>
      </trkpt>
      <trkpt lat="44.0484" lon="2.02869">
        <ele>322.18</ele>
        <time>2020-06-06T09:52:35Z</time>
      </trkpt>
      <trkpt lat="44.04831" lon="2.02884">
        <ele>321.7</ele>
        <time>2020-06-06T09:52:46Z</time>
      </trkpt>
      <trkpt lat="44.04831" lon="2.02885">
        <ele>321.22</ele>
        <time>2020-06-06T09:52:47Z</time>
      </trkpt>
      <trkpt lat="44.04825" lon="2.02891">
        <ele>322.18</ele>
        <time>2020-06-06T09:52:53Z</time>
      </trkpt>
      <trkpt lat="44.04813" lon="2.02912">
        <ele>323.14</ele>
        <time>2020-06-06T09:53:07Z</time>
      </trkpt>
      <trkpt lat="44.04804" lon="2.02924">
        <ele>323.62</ele>
        <time>2020-06-06T09:53:18Z</time>
      </trkpt>
      <trkpt lat="44.04802" lon="2.02929">
        <ele>324.1</ele>
        <time>2020-06-06T09:53:21Z</time>
      </trkpt>
      <trkpt lat="44.04797" lon="2.02938">
        <ele>324.1</ele>
        <time>2020-06-06T09:53:30Z</time>
      </trkpt>
      <trkpt lat="44.04797" lon="2.02938">
        <ele>324.1</ele>
        <time>2020-06-06T09:53:46Z</time>
      </trkpt>
      <trkpt lat="44.04797" lon="2.02938">
        <ele>324.1</ele>
        <time>2020-06-06T09:53:47Z</time>
      </trkpt>
      <trkpt lat="44.04791" lon="2.02934">
        <ele>324.1</ele>
        <time>2020-06-06T09:53:52Z</time>
      </trkpt>
      <trkpt lat="44.04772" lon="2.02926">
        <ele>322.66</ele>
        <time>2020-06-06T09:54:05Z</time>
      </trkpt>
      <trkpt lat="44.04772" lon="2.02923">
        <ele>323.14</ele>
        <time>2020-06-06T09:54:10Z</time>
      </trkpt>
      <trkpt lat="44.04771" lon="2.02921">
        <ele>323.14</ele>
        <time>2020-06-06T09:54:20Z</time>
      </trkpt>
      <trkpt lat="44.04767" lon="2.02921">
        <ele>323.14</ele>
        <time>2020-06-06T09:54:27Z</time>
      </trkpt>
      <trkpt lat="44.04762" lon="2.0292">
        <ele>323.62</ele>
        <time>2020-06-06T09:54:42Z</time>
      </trkpt>
      <trkpt lat="44.04746" lon="2.02914">
        <ele>325.54</ele>
        <time>2020-06-06T09:54:53Z</time>
      </trkpt>
      <trkpt lat="44.0473" lon="2.02906">
        <ele>326.02</ele>
        <time>2020-06-06T09:55:04Z</time>
      </trkpt>
      <trkpt lat="44.04713" lon="2.02899">
        <ele>326.99</ele>
        <time>2020-06-06T09:55:15Z</time>
      </trkpt>
      <trkpt lat="44.04698" lon="2.02897">
        <ele>327.47</ele>
        <time>2020-06-06T09:55:25Z</time>
      </trkpt>
      <trkpt lat="44.04684" lon="2.02896">
        <ele>326.99</ele>
        <time>2020-06-06T09:55:34Z</time>
      </trkpt>
      <trkpt lat="44.04663" lon="2.02896">
        <ele>325.06</ele>
        <time>2020-06-06T09:55:47Z</time>
      </trkpt>
      <trkpt lat="44.04643" lon="2.02897">
        <ele>324.58</ele>
        <time>2020-06-06T09:55:59Z</time>
      </trkpt>
      <trkpt lat="44.04624" lon="2.02897">
        <ele>323.14</ele>
        <time>2020-06-06T09:56:10Z</time>
      </trkpt>
      <trkpt lat="44.04604" lon="2.02898">
        <ele>322.18</ele>
        <time>2020-06-06T09:56:22Z</time>
      </trkpt>
      <trkpt lat="44.0459" lon="2.02898">
        <ele>322.18</ele>
        <time>2020-06-06T09:56:32Z</time>
      </trkpt>
      <trkpt lat="44.04574" lon="2.02898">
        <ele>321.7</ele>
        <time>2020-06-06T09:56:43Z</time>
      </trkpt>
      <trkpt lat="44.04554" lon="2.02899">
        <ele>320.26</ele>
        <time>2020-06-06T09:56:56Z</time>
      </trkpt>
      <trkpt lat="44.04537" lon="2.02901">
        <ele>319.78</ele>
        <time>2020-06-06T09:57:09Z</time>
      </trkpt>
      <trkpt lat="44.04517" lon="2.02902">
        <ele>321.22</ele>
        <time>2020-06-06T09:57:22Z</time>
      </trkpt>
      <trkpt lat="44.04503" lon="2.02902">
        <ele>321.22</ele>
        <time>2020-06-06T09:57:32Z</time>
      </trkpt>
      <trkpt lat="44.04488" lon="2.02898">
        <ele>322.18</ele>
        <time>2020-06-06T09:57:42Z</time>
      </trkpt>
      <trkpt lat="44.04473" lon="2.02891">
        <ele>323.62</ele>
        <time>2020-06-06T09:57:52Z</time>
      </trkpt>
      <trkpt lat="44.04455" lon="2.02881">
        <ele>323.14</ele>
        <time>2020-06-06T09:58:05Z</time>
      </trkpt>
      <trkpt lat="44.04441" lon="2.02875">
        <ele>323.14</ele>
        <time>2020-06-06T09:58:16Z</time>
      </trkpt>
      <trkpt lat="44.04426" lon="2.02867">
        <ele>323.14</ele>
        <time>2020-06-06T09:58:27Z</time>
      </trkpt>
      <trkpt lat="44.04412" lon="2.02862">
        <ele>322.66</ele>
        <time>2020-06-06T09:58:38Z</time>
      </trkpt>
      <trkpt lat="44.04398" lon="2.02859">
        <ele>322.18</ele>
        <time>2020-06-06T09:58:48Z</time>
      </trkpt>
      <trkpt lat="44.04381" lon="2.02861">
        <ele>322.66</ele>
        <time>2020-06-06T09:59:00Z</time>
      </trkpt>
      <trkpt lat="44.04366" lon="2.0287">
        <ele>321.22</ele>
        <time>2020-06-06T09:59:11Z</time>
      </trkpt>
      <trkpt lat="44.04355" lon="2.02878">
        <ele>322.66</ele>
        <time>2020-06-06T09:59:20Z</time>
      </trkpt>
      <trkpt lat="44.04342" lon="2.02885">
        <ele>322.18</ele>
        <time>2020-06-06T09:59:30Z</time>
      </trkpt>
      <trkpt lat="44.04321" lon="2.02897">
        <ele>322.18</ele>
        <time>2020-06-06T09:59:45Z</time>
      </trkpt>
      <trkpt lat="44.04303" lon="2.02907">
        <ele>320.74</ele>
        <time>2020-06-06T09:59:59Z</time>
      </trkpt>
      <trkpt lat="44.04282" lon="2.02919">
        <ele>322.18</ele>
        <time>2020-06-06T10:00:15Z</time>
      </trkpt>
      <trkpt lat="44.04265" lon="2.02925">
        <ele>322.18</ele>
        <time>2020-06-06T10:00:27Z</time>
      </trkpt>
      <trkpt lat="44.04257" lon="2.02926">
        <ele>322.18</ele>
        <time>2020-06-06T10:00:33Z</time>
      </trkpt>
      <trkpt lat="44.04236" lon="2.02931">
        <ele>322.18</ele>
        <time>2020-06-06T10:00:48Z</time>
      </trkpt>
      <trkpt lat="44.04219" lon="2.02936">
        <ele>320.26</ele>
        <time>2020-06-06T10:01:00Z</time>
      </trkpt>
      <trkpt lat="44.04206" lon="2.02939">
        <ele>319.78</ele>
        <time>2020-06-06T10:01:10Z</time>
      </trkpt>
      <trkpt lat="44.04186" lon="2.02942">
        <ele>318.81</ele>
        <time>2020-06-06T10:01:24Z</time>
      </trkpt>
      <trkpt lat="44.04174" lon="2.02944">
        <ele>319.78</ele>
        <time>2020-06-06T10:01:33Z</time>
      </trkpt>
      <trkpt lat="44.04163" lon="2.02946">
        <ele>319.3</ele>
        <time>2020-06-06T10:01:41Z</time>
      </trkpt>
      <trkpt lat="44.04152" lon="2.0295">
        <ele>320.26</ele>
        <time>2020-06-06T10:01:50Z</time>
      </trkpt>
      <trkpt lat="44.04139" lon="2.02952">
        <ele>320.26</ele>
        <time>2020-06-06T10:02:00Z</time>
      </trkpt>
      <trkpt lat="44.04122" lon="2.02956">
        <ele>319.78</ele>
        <time>2020-06-06T10:02:12Z</time>
      </trkpt>
      <trkpt lat="44.04104" lon="2.02957">
        <ele>320.26</ele>
        <time>2020-06-06T10:02:25Z</time>
      </trkpt>
      <trkpt lat="44.04088" lon="2.02959">
        <ele>320.74</ele>
        <time>2020-06-06T10:02:37Z</time>
      </trkpt>
      <trkpt lat="44.04069" lon="2.02959">
        <ele>320.74</ele>
        <time>2020-06-06T10:02:50Z</time>
      </trkpt>
      <trkpt lat="44.04056" lon="2.02959">
        <ele>321.22</ele>
        <time>2020-06-06T10:02:59Z</time>
      </trkpt>
      <trkpt lat="44.04038" lon="2.02962">
        <ele>319.3</ele>
        <time>2020-06-06T10:03:11Z</time>
      </trkpt>
      <trkpt lat="44.04024" lon="2.02963">
        <ele>319.78</ele>
        <time>2020-06-06T10:03:21Z</time>
      </trkpt>
      <trkpt lat="44.04012" lon="2.02964">
        <ele>319.78</ele>
        <time>2020-06-06T10:03:30Z</time>
      </trkpt>
      <trkpt lat="44.03994" lon="2.02965">
        <ele>318.81</ele>
        <time>2020-06-06T10:03:43Z</time>
      </trkpt>
      <trkpt lat="44.03977" lon="2.02964">
        <ele>319.3</ele>
        <time>2020-06-06T10:03:55Z</time>
      </trkpt>
      <trkpt lat="44.0396" lon="2.02962">
        <ele>318.33</ele>
        <time>2020-06-06T10:04:07Z</time>
      </trkpt>
      <trkpt lat="44.03942" lon="2.02961">
        <ele>319.3</ele>
        <time>2020-06-06T10:04:20Z</time>
      </trkpt>
      <trkpt lat="44.03924" lon="2.02959">
        <ele>319.3</ele>
        <time>2020-06-06T10:04:33Z</time>
      </trkpt>
      <trkpt lat="44.03909" lon="2.02955">
        <ele>320.26</ele>
        <time>2020-06-06T10:04:44Z</time>
      </trkpt>
      <trkpt lat="44.03893" lon="2.02952">
        <ele>320.26</ele>
        <time>2020-06-06T10:04:56Z</time>
      </trkpt>
      <trkpt lat="44.03881" lon="2.02949">
        <ele>320.74</ele>
        <time>2020-06-06T10:05:06Z</time>
      </trkpt>
      <trkpt lat="44.03874" lon="2.02947">
        <ele>319.78</ele>
        <time>2020-06-06T10:05:13Z</time>
      </trkpt>
      <trkpt lat="44.03858" lon="2.02942">
        <ele>320.26</ele>
        <time>2020-06-06T10:05:25Z</time>
      </trkpt>
      <trkpt lat="44.03848" lon="2.02939">
        <ele>319.78</ele>
        <time>2020-06-06T10:05:34Z</time>
      </trkpt>
      <trkpt lat="44.03842" lon="2.02937">
        <ele>318.81</ele>
        <time>2020-06-06T10:05:41Z</time>
      </trkpt>
      <trkpt lat="44.03838" lon="2.02937">
        <ele>318.81</ele>
        <time>2020-06-06T10:05:45Z</time>
      </trkpt>
      <trkpt lat="44.03824" lon="2.02933">
        <ele>317.85</ele>
        <time>2020-06-06T10:05:56Z</time>
      </trkpt>
      <trkpt lat="44.03813" lon="2.0293">
        <ele>316.89</ele>
        <time>2020-06-06T10:06:05Z</time>
      </trkpt>
      <trkpt lat="44.03803" lon="2.02928">
        <ele>317.37</ele>
        <time>2020-06-06T10:06:13Z</time>
      </trkpt>
      <trkpt lat="44.03789" lon="2.02924">
        <ele>315.93</ele>
        <time>2020-06-06T10:06:23Z</time>
      </trkpt>
      <trkpt lat="44.03772" lon="2.02917">
        <ele>315.45</ele>
        <time>2020-06-06T10:06:36Z</time>
      </trkpt>
      <trkpt lat="44.03757" lon="2.02913">
        <ele>315.93</ele>
        <time>2020-06-06T10:06:47Z</time>
      </trkpt>
      <trkpt lat="44.03751" lon="2.0291">
        <ele>316.41</ele>
        <time>2020-06-06T10:06:51Z</time>
      </trkpt>
      <trkpt lat="44.03737" lon="2.02902">
        <ele>315.93</ele>
        <time>2020-06-06T10:07:02Z</time>
      </trkpt>
      <trkpt lat="44.03721" lon="2.02891">
        <ele>316.89</ele>
        <time>2020-06-06T10:07:15Z</time>
      </trkpt>
      <trkpt lat="44.03712" lon="2.02885">
        <ele>316.41</ele>
        <time>2020-06-06T10:07:24Z</time>
      </trkpt>
      <trkpt lat="44.03699" lon="2.02876">
        <ele>317.37</ele>
        <time>2020-06-06T10:07:35Z</time>
      </trkpt>
      <trkpt lat="44.03686" lon="2.02866">
        <ele>317.85</ele>
        <time>2020-06-06T10:07:46Z</time>
      </trkpt>
      <trkpt lat="44.03671" lon="2.02856">
        <ele>318.33</ele>
        <time>2020-06-06T10:07:58Z</time>
      </trkpt>
      <trkpt lat="44.03661" lon="2.0285">
        <ele>318.81</ele>
        <time>2020-06-06T10:08:07Z</time>
      </trkpt>
      <trkpt lat="44.03657" lon="2.02848">
        <ele>318.81</ele>
        <time>2020-06-06T10:08:13Z</time>
      </trkpt>
      <trkpt lat="44.03648" lon="2.02843">
        <ele>318.81</ele>
        <time>2020-06-06T10:08:21Z</time>
      </trkpt>
      <trkpt lat="44.03643" lon="2.0284">
        <ele>318.33</ele>
        <time>2020-06-06T10:08:26Z</time>
      </trkpt>
      <trkpt lat="44.03628" lon="2.02832">
        <ele>317.85</ele>
        <time>2020-06-06T10:08:38Z</time>
      </trkpt>
      <trkpt lat="44.03622" lon="2.02828">
        <ele>317.37</ele>
        <time>2020-06-06T10:08:47Z</time>
      </trkpt>
      <trkpt lat="44.03616" lon="2.02825">
        <ele>317.37</ele>
        <time>2020-06-06T10:08:57Z</time>
      </trkpt>
      <trkpt lat="44.03604" lon="2.02817">
        <ele>316.89</ele>
        <time>2020-06-06T10:09:08Z</time>
      </trkpt>
      <trkpt lat="44.03599" lon="2.02814">
        <ele>316.89</ele>
        <time>2020-06-06T10:09:13Z</time>
      </trkpt>
      <trkpt lat="44.03585" lon="2.02804">
        <ele>316.41</ele>
        <time>2020-06-06T10:09:24Z</time>
      </trkpt>
      <trkpt lat="44.03573" lon="2.02793">
        <ele>316.89</ele>
        <time>2020-06-06T10:09:34Z</time>
      </trkpt>
      <trkpt lat="44.0356" lon="2.02784">
        <ele>316.41</ele>
        <time>2020-06-06T10:09:45Z</time>
      </trkpt>
      <trkpt lat="44.03544" lon="2.02771">
        <ele>316.89</ele>
        <time>2020-06-06T10:09:58Z</time>
      </trkpt>
      <trkpt lat="44.03531" lon="2.02759">
        <ele>316.41</ele>
        <time>2020-06-06T10:10:09Z</time>
      </trkpt>
      <trkpt lat="44.03515" lon="2.02746">
        <ele>315.45</ele>
        <time>2020-06-06T10:10:22Z</time>
      </trkpt>
      <trkpt lat="44.03498" lon="2.02732">
        <ele>314.49</ele>
        <time>2020-06-06T10:10:35Z</time>
      </trkpt>
      <trkpt lat="44.03481" lon="2.02717">
        <ele>312.09</ele>
        <time>2020-06-06T10:10:49Z</time>
      </trkpt>
      <trkpt lat="44.03466" lon="2.02704">
        <ele>310.16</ele>
        <time>2020-06-06T10:11:01Z</time>
      </trkpt>
      <trkpt lat="44.0345" lon="2.02692">
        <ele>309.68</ele>
        <time>2020-06-06T10:11:14Z</time>
      </trkpt>
      <trkpt lat="44.03437" lon="2.02683">
        <ele>308.24</ele>
        <time>2020-06-06T10:11:24Z</time>
      </trkpt>
      <trkpt lat="44.03425" lon="2.02672">
        <ele>307.28</ele>
        <time>2020-06-06T10:11:34Z</time>
      </trkpt>
      <trkpt lat="44.03413" lon="2.02663">
        <ele>307.28</ele>
        <time>2020-06-06T10:11:44Z</time>
      </trkpt>
      <trkpt lat="44.03398" lon="2.02652">
        <ele>304.39</ele>
        <time>2020-06-06T10:11:56Z</time>
      </trkpt>
      <trkpt lat="44.03383" lon="2.02641">
        <ele>302.47</ele>
        <time>2020-06-06T10:12:08Z</time>
      </trkpt>
      <trkpt lat="44.03368" lon="2.02629">
        <ele>301.51</ele>
        <time>2020-06-06T10:12:20Z</time>
      </trkpt>
      <trkpt lat="44.03364" lon="2.02625">
        <ele>301.51</ele>
        <time>2020-06-06T10:12:24Z</time>
      </trkpt>
      <trkpt lat="44.03354" lon="2.02617">
        <ele>300.07</ele>
        <time>2020-06-06T10:12:32Z</time>
      </trkpt>
      <trkpt lat="44.03337" lon="2.02605">
        <ele>297.67</ele>
        <time>2020-06-06T10:12:45Z</time>
      </trkpt>
      <trkpt lat="44.03325" lon="2.02601">
        <ele>297.67</ele>
        <time>2020-06-06T10:12:54Z</time>
      </trkpt>
      <trkpt lat="44.03307" lon="2.02594">
        <ele>295.74</ele>
        <time>2020-06-06T10:13:07Z</time>
      </trkpt>
      <trkpt lat="44.03297" lon="2.0259">
        <ele>296.7</ele>
        <time>2020-06-06T10:13:14Z</time>
      </trkpt>
      <trkpt lat="44.03281" lon="2.02585">
        <ele>295.26</ele>
        <time>2020-06-06T10:13:25Z</time>
      </trkpt>
      <trkpt lat="44.03261" lon="2.02581">
        <ele>293.82</ele>
        <time>2020-06-06T10:13:39Z</time>
      </trkpt>
      <trkpt lat="44.03245" lon="2.02579">
        <ele>293.82</ele>
        <time>2020-06-06T10:13:50Z</time>
      </trkpt>
      <trkpt lat="44.03226" lon="2.02577">
        <ele>294.3</ele>
        <time>2020-06-06T10:14:03Z</time>
      </trkpt>
      <trkpt lat="44.03205" lon="2.02577">
        <ele>291.42</ele>
        <time>2020-06-06T10:14:18Z</time>
      </trkpt>
      <trkpt lat="44.03186" lon="2.0258">
        <ele>291.9</ele>
        <time>2020-06-06T10:14:31Z</time>
      </trkpt>
      <trkpt lat="44.03173" lon="2.02581">
        <ele>291.9</ele>
        <time>2020-06-06T10:14:41Z</time>
      </trkpt>
      <trkpt lat="44.0316" lon="2.02585">
        <ele>292.86</ele>
        <time>2020-06-06T10:14:51Z</time>
      </trkpt>
      <trkpt lat="44.03143" lon="2.02591">
        <ele>292.38</ele>
        <time>2020-06-06T10:15:04Z</time>
      </trkpt>
      <trkpt lat="44.03133" lon="2.02596">
        <ele>291.9</ele>
        <time>2020-06-06T10:15:12Z</time>
      </trkpt>
      <trkpt lat="44.0312" lon="2.02601">
        <ele>291.42</ele>
        <time>2020-06-06T10:15:22Z</time>
      </trkpt>
      <trkpt lat="44.03106" lon="2.02607">
        <ele>290.94</ele>
        <time>2020-06-06T10:15:33Z</time>
      </trkpt>
      <trkpt lat="44.03088" lon="2.02613">
        <ele>289.97</ele>
        <time>2020-06-06T10:15:46Z</time>
      </trkpt>
      <trkpt lat="44.03081" lon="2.02617">
        <ele>289.49</ele>
        <time>2020-06-06T10:15:52Z</time>
      </trkpt>
      <trkpt lat="44.03071" lon="2.02622">
        <ele>289.97</ele>
        <time>2020-06-06T10:16:01Z</time>
      </trkpt>
      <trkpt lat="44.03063" lon="2.02625">
        <ele>290.46</ele>
        <time>2020-06-06T10:16:09Z</time>
      </trkpt>
      <trkpt lat="44.03053" lon="2.02629">
        <ele>290.46</ele>
        <time>2020-06-06T10:16:18Z</time>
      </trkpt>
      <trkpt lat="44.03043" lon="2.02635">
        <ele>292.86</ele>
        <time>2020-06-06T10:16:26Z</time>
      </trkpt>
      <trkpt lat="44.03032" lon="2.02641">
        <ele>293.34</ele>
        <time>2020-06-06T10:16:35Z</time>
      </trkpt>
      <trkpt lat="44.03022" lon="2.02645">
        <ele>293.34</ele>
        <time>2020-06-06T10:16:42Z</time>
      </trkpt>
      <trkpt lat="44.03006" lon="2.02653">
        <ele>292.86</ele>
        <time>2020-06-06T10:16:54Z</time>
      </trkpt>
      <trkpt lat="44.02999" lon="2.02657">
        <ele>292.38</ele>
        <time>2020-06-06T10:17:01Z</time>
      </trkpt>
      <trkpt lat="44.02997" lon="2.02659">
        <ele>291.9</ele>
        <time>2020-06-06T10:17:03Z</time>
      </trkpt>
      <trkpt lat="44.02989" lon="2.02668">
        <ele>290.46</ele>
        <time>2020-06-06T10:17:12Z</time>
      </trkpt>
      <trkpt lat="44.02978" lon="2.02679">
        <ele>289.49</ele>
        <time>2020-06-06T10:17:22Z</time>
      </trkpt>
      <trkpt lat="44.02967" lon="2.0269">
        <ele>288.53</ele>
        <time>2020-06-06T10:17:33Z</time>
      </trkpt>
      <trkpt lat="44.02962" lon="2.02693">
        <ele>287.09</ele>
        <time>2020-06-06T10:17:38Z</time>
      </trkpt>
      <trkpt lat="44.02952" lon="2.02704">
        <ele>285.65</ele>
        <time>2020-06-06T10:17:48Z</time>
      </trkpt>
      <trkpt lat="44.02946" lon="2.02709">
        <ele>285.65</ele>
        <time>2020-06-06T10:17:54Z</time>
      </trkpt>
      <trkpt lat="44.02939" lon="2.02714">
        <ele>285.65</ele>
        <time>2020-06-06T10:18:04Z</time>
      </trkpt>
      <trkpt lat="44.02939" lon="2.02715">
        <ele>285.65</ele>
        <time>2020-06-06T10:18:05Z</time>
      </trkpt>
      <trkpt lat="44.02943" lon="2.02722">
        <ele>285.17</ele>
        <time>2020-06-06T10:18:11Z</time>
      </trkpt>
      <trkpt lat="44.02949" lon="2.02733">
        <ele>284.21</ele>
        <time>2020-06-06T10:18:21Z</time>
      </trkpt>
      <trkpt lat="44.02948" lon="2.0273">
        <ele>283.73</ele>
        <time>2020-06-06T10:18:28Z</time>
      </trkpt>
      <trkpt lat="44.02949" lon="2.02733">
        <ele>283.73</ele>
        <time>2020-06-06T10:18:35Z</time>
      </trkpt>
      <trkpt lat="44.02948" lon="2.02732">
        <ele>284.21</ele>
        <time>2020-06-06T10:18:40Z</time>
      </trkpt>
      <trkpt lat="44.02938" lon="2.02723">
        <ele>285.17</ele>
        <time>2020-06-06T10:18:51Z</time>
      </trkpt>
      <trkpt lat="44.02934" lon="2.02719">
        <ele>286.13</ele>
        <time>2020-06-06T10:19:00Z</time>
      </trkpt>
      <trkpt lat="44.02933" lon="2.02718">
        <ele>286.13</ele>
        <time>2020-06-06T10:19:02Z</time>
      </trkpt>
      <trkpt lat="44.02928" lon="2.02719">
        <ele>286.13</ele>
        <time>2020-06-06T10:19:07Z</time>
      </trkpt>
      <trkpt lat="44.02928" lon="2.02731">
        <ele>285.17</ele>
        <time>2020-06-06T10:19:18Z</time>
      </trkpt>
      <trkpt lat="44.02928" lon="2.02733">
        <ele>282.77</ele>
        <time>2020-06-06T10:19:36Z</time>
      </trkpt>
      <trkpt lat="44.02927" lon="2.02736">
        <ele>284.21</ele>
        <time>2020-06-06T10:19:43Z</time>
      </trkpt>
      <trkpt lat="44.02927" lon="2.02737">
        <ele>283.25</ele>
        <time>2020-06-06T10:19:54Z</time>
      </trkpt>
      <trkpt lat="44.02927" lon="2.02736">
        <ele>283.25</ele>
        <time>2020-06-06T10:19:59Z</time>
      </trkpt>
      <trkpt lat="44.02923" lon="2.02731">
        <ele>283.73</ele>
        <time>2020-06-06T10:20:04Z</time>
      </trkpt>
      <trkpt lat="44.02919" lon="2.02723">
        <ele>282.77</ele>
        <time>2020-06-06T10:20:12Z</time>
      </trkpt>
      <trkpt lat="44.02911" lon="2.02715">
        <ele>282.77</ele>
        <time>2020-06-06T10:20:21Z</time>
      </trkpt>
      <trkpt lat="44.0291" lon="2.02714">
        <ele>282.77</ele>
        <time>2020-06-06T10:20:28Z</time>
      </trkpt>
      <trkpt lat="44.02909" lon="2.02714">
        <ele>281.8</ele>
        <time>2020-06-06T10:20:38Z</time>
      </trkpt>
      <trkpt lat="44.02908" lon="2.02714">
        <ele>281.8</ele>
        <time>2020-06-06T10:20:46Z</time>
      </trkpt>
      <trkpt lat="44.02909" lon="2.02715">
        <ele>281.32</ele>
        <time>2020-06-06T10:20:54Z</time>
      </trkpt>
      <trkpt lat="44.02911" lon="2.02714">
        <ele>280.84</ele>
        <time>2020-06-06T10:21:07Z</time>
      </trkpt>
      <trkpt lat="44.02911" lon="2.02714">
        <ele>281.32</ele>
        <time>2020-06-06T10:21:19Z</time>
      </trkpt>
      <trkpt lat="44.0291" lon="2.02714">
        <ele>281.8</ele>
        <time>2020-06-06T10:21:32Z</time>
      </trkpt>
      <trkpt lat="44.0291" lon="2.02714">
        <ele>283.25</ele>
        <time>2020-06-06T10:21:51Z</time>
      </trkpt>
      <trkpt lat="44.02909" lon="2.02716">
        <ele>282.28</ele>
        <time>2020-06-06T10:22:00Z</time>
      </trkpt>
      <trkpt lat="44.02909" lon="2.02715">
        <ele>281.32</ele>
        <time>2020-06-06T10:22:09Z</time>
      </trkpt>
      <trkpt lat="44.02909" lon="2.02716">
        <ele>281.32</ele>
        <time>2020-06-06T10:22:20Z</time>
      </trkpt>
      <trkpt lat="44.02909" lon="2.02717">
        <ele>280.84</ele>
        <time>2020-06-06T10:22:29Z</time>
      </trkpt>
      <trkpt lat="44.02911" lon="2.02716">
        <ele>281.8</ele>
        <time>2020-06-06T10:22:41Z</time>
      </trkpt>
      <trkpt lat="44.02914" lon="2.02716">
        <ele>282.77</ele>
        <time>2020-06-06T10:22:57Z</time>
      </trkpt>
      <trkpt lat="44.02912" lon="2.02716">
        <ele>282.28</ele>
        <time>2020-06-06T10:23:09Z</time>
      </trkpt>
      <trkpt lat="44.02909" lon="2.02713">
        <ele>281.32</ele>
        <time>2020-06-06T10:23:31Z</time>
      </trkpt>
      <trkpt lat="44.02908" lon="2.02711">
        <ele>279.4</ele>
        <time>2020-06-06T10:23:54Z</time>
      </trkpt>
      <trkpt lat="44.02906" lon="2.0271">
        <ele>277.96</ele>
        <time>2020-06-06T10:24:10Z</time>
      </trkpt>
      <trkpt lat="44.02908" lon="2.02711">
        <ele>278.44</ele>
        <time>2020-06-06T10:24:27Z</time>
      </trkpt>
      <trkpt lat="44.02909" lon="2.02713">
        <ele>278.92</ele>
        <time>2020-06-06T10:24:46Z</time>
      </trkpt>
      <trkpt lat="44.0291" lon="2.02714">
        <ele>280.36</ele>
        <time>2020-06-06T10:25:07Z</time>
      </trkpt>
      <trkpt lat="44.0291" lon="2.02715">
        <ele>281.32</ele>
        <time>2020-06-06T10:25:26Z</time>
      </trkpt>
      <trkpt lat="44.02909" lon="2.02715">
        <ele>281.32</ele>
        <time>2020-06-06T10:25:47Z</time>
      </trkpt>
      <trkpt lat="44.02906" lon="2.02714">
        <ele>280.84</ele>
        <time>2020-06-06T10:26:09Z</time>
      </trkpt>
      <trkpt lat="44.02906" lon="2.02713">
        <ele>281.8</ele>
        <time>2020-06-06T10:26:26Z</time>
      </trkpt>
      <trkpt lat="44.02908" lon="2.02712">
        <ele>280.84</ele>
        <time>2020-06-06T10:26:47Z</time>
      </trkpt>
      <trkpt lat="44.0291" lon="2.02713">
        <ele>280.36</ele>
        <time>2020-06-06T10:27:09Z</time>
      </trkpt>
      <trkpt lat="44.0291" lon="2.02714">
        <ele>280.36</ele>
        <time>2020-06-06T10:27:29Z</time>
      </trkpt>
      <trkpt lat="44.02911" lon="2.02713">
        <ele>280.84</ele>
        <time>2020-06-06T10:27:45Z</time>
      </trkpt>
      <trkpt lat="44.02911" lon="2.02714">
        <ele>281.8</ele>
        <time>2020-06-06T10:28:05Z</time>
      </trkpt>
      <trkpt lat="44.02909" lon="2.02714">
        <ele>281.32</ele>
        <time>2020-06-06T10:28:26Z</time>
      </trkpt>
      <trkpt lat="44.0291" lon="2.02713">
        <ele>279.88</ele>
        <time>2020-06-06T10:28:43Z</time>
      </trkpt>
      <trkpt lat="44.0291" lon="2.02711">
        <ele>279.88</ele>
        <time>2020-06-06T10:29:05Z</time>
      </trkpt>
      <trkpt lat="44.02909" lon="2.02711">
        <ele>279.88</ele>
        <time>2020-06-06T10:29:24Z</time>
      </trkpt>
      <trkpt lat="44.02909" lon="2.02711">
        <ele>280.84</ele>
        <time>2020-06-06T10:29:47Z</time>
      </trkpt>
      <trkpt lat="44.02909" lon="2.0271">
        <ele>280.36</ele>
        <time>2020-06-06T10:30:05Z</time>
      </trkpt>
      <trkpt lat="44.02909" lon="2.02707">
        <ele>279.4</ele>
        <time>2020-06-06T10:30:25Z</time>
      </trkpt>
      <trkpt lat="44.02908" lon="2.02707">
        <ele>280.84</ele>
        <time>2020-06-06T10:30:44Z</time>
      </trkpt>
      <trkpt lat="44.02908" lon="2.02708">
        <ele>280.36</ele>
        <time>2020-06-06T10:30:58Z</time>
      </trkpt>
      <trkpt lat="44.0291" lon="2.02708">
        <ele>278.44</ele>
        <time>2020-06-06T10:31:21Z</time>
      </trkpt>
      <trkpt lat="44.02909" lon="2.02711">
        <ele>278.92</ele>
        <time>2020-06-06T10:31:41Z</time>
      </trkpt>
      <trkpt lat="44.02908" lon="2.02711">
        <ele>281.32</ele>
        <time>2020-06-06T10:31:58Z</time>
      </trkpt>
      <trkpt lat="44.02907" lon="2.02713">
        <ele>282.28</ele>
        <time>2020-06-06T10:32:17Z</time>
      </trkpt>
      <trkpt lat="44.02907" lon="2.02713">
        <ele>281.8</ele>
        <time>2020-06-06T10:32:35Z</time>
      </trkpt>
      <trkpt lat="44.02907" lon="2.02713">
        <ele>280.84</ele>
        <time>2020-06-06T10:32:53Z</time>
      </trkpt>
      <trkpt lat="44.02909" lon="2.02711">
        <ele>278.92</ele>
        <time>2020-06-06T10:33:18Z</time>
      </trkpt>
      <trkpt lat="44.0291" lon="2.02711">
        <ele>281.32</ele>
        <time>2020-06-06T10:33:39Z</time>
      </trkpt>
      <trkpt lat="44.0291" lon="2.0271">
        <ele>281.8</ele>
        <time>2020-06-06T10:33:59Z</time>
      </trkpt>
      <trkpt lat="44.02911" lon="2.02711">
        <ele>283.25</ele>
        <time>2020-06-06T10:34:21Z</time>
      </trkpt>
      <trkpt lat="44.0291" lon="2.02716">
        <ele>286.61</ele>
        <time>2020-06-06T10:34:45Z</time>
      </trkpt>
      <trkpt lat="44.02908" lon="2.02717">
        <ele>286.13</ele>
        <time>2020-06-06T10:35:10Z</time>
      </trkpt>
      <trkpt lat="44.02909" lon="2.02715">
        <ele>284.69</ele>
        <time>2020-06-06T10:35:33Z</time>
      </trkpt>
      <trkpt lat="44.0291" lon="2.02718">
        <ele>285.17</ele>
        <time>2020-06-06T10:35:56Z</time>
      </trkpt>
      <trkpt lat="44.0291" lon="2.02717">
        <ele>285.65</ele>
        <time>2020-06-06T10:36:19Z</time>
      </trkpt>
      <trkpt lat="44.02908" lon="2.02716">
        <ele>285.65</ele>
        <time>2020-06-06T10:36:40Z</time>
      </trkpt>
      <trkpt lat="44.02908" lon="2.02717">
        <ele>287.09</ele>
        <time>2020-06-06T10:36:59Z</time>
      </trkpt>
      <trkpt lat="44.02909" lon="2.02716">
        <ele>288.05</ele>
        <time>2020-06-06T10:37:16Z</time>
      </trkpt>
      <trkpt lat="44.02909" lon="2.02718">
        <ele>289.01</ele>
        <time>2020-06-06T10:37:36Z</time>
      </trkpt>
      <trkpt lat="44.02909" lon="2.02718">
        <ele>288.05</ele>
        <time>2020-06-06T10:37:52Z</time>
      </trkpt>
      <trkpt lat="44.02908" lon="2.02716">
        <ele>284.69</ele>
        <time>2020-06-06T10:38:10Z</time>
      </trkpt>
      <trkpt lat="44.02908" lon="2.0272">
        <ele>281.8</ele>
        <time>2020-06-06T10:38:32Z</time>
      </trkpt>
      <trkpt lat="44.02907" lon="2.02714">
        <ele>286.61</ele>
        <time>2020-06-06T10:38:53Z</time>
      </trkpt>
      <trkpt lat="44.02907" lon="2.02714">
        <ele>286.61</ele>
        <time>2020-06-06T10:39:16Z</time>
      </trkpt>
      <trkpt lat="44.02908" lon="2.02717">
        <ele>286.13</ele>
        <time>2020-06-06T10:39:34Z</time>
      </trkpt>
      <trkpt lat="44.02908" lon="2.02718">
        <ele>286.61</ele>
        <time>2020-06-06T10:39:50Z</time>
      </trkpt>
      <trkpt lat="44.02909" lon="2.02719">
        <ele>286.61</ele>
        <time>2020-06-06T10:40:07Z</time>
      </trkpt>
      <trkpt lat="44.0291" lon="2.02718">
        <ele>288.53</ele>
        <time>2020-06-06T10:40:27Z</time>
      </trkpt>
      <trkpt lat="44.02911" lon="2.02716">
        <ele>287.09</ele>
        <time>2020-06-06T10:40:44Z</time>
      </trkpt>
      <trkpt lat="44.02909" lon="2.0272">
        <ele>286.13</ele>
        <time>2020-06-06T10:41:03Z</time>
      </trkpt>
      <trkpt lat="44.02909" lon="2.02718">
        <ele>286.13</ele>
        <time>2020-06-06T10:41:23Z</time>
      </trkpt>
      <trkpt lat="44.02907" lon="2.02716">
        <ele>285.65</ele>
        <time>2020-06-06T10:41:45Z</time>
      </trkpt>
      <trkpt lat="44.02908" lon="2.02718">
        <ele>284.21</ele>
        <time>2020-06-06T10:42:04Z</time>
      </trkpt>
      <trkpt lat="44.02907" lon="2.02716">
        <ele>282.77</ele>
        <time>2020-06-06T10:42:22Z</time>
      </trkpt>
      <trkpt lat="44.02908" lon="2.02718">
        <ele>283.25</ele>
        <time>2020-06-06T10:42:38Z</time>
      </trkpt>
      <trkpt lat="44.02909" lon="2.02719">
        <ele>284.21</ele>
        <time>2020-06-06T10:42:56Z</time>
      </trkpt>
      <trkpt lat="44.02909" lon="2.02719">
        <ele>284.21</ele>
        <time>2020-06-06T10:43:12Z</time>
      </trkpt>
      <trkpt lat="44.02909" lon="2.02719">
        <ele>285.65</ele>
        <time>2020-06-06T10:43:29Z</time>
      </trkpt>
      <trkpt lat="44.02911" lon="2.02718">
        <ele>285.17</ele>
        <time>2020-06-06T10:43:51Z</time>
      </trkpt>
      <trkpt lat="44.0291" lon="2.0272">
        <ele>285.65</ele>
        <time>2020-06-06T10:44:10Z</time>
      </trkpt>
      <trkpt lat="44.02909" lon="2.02721">
        <ele>284.21</ele>
        <time>2020-06-06T10:44:27Z</time>
      </trkpt>
      <trkpt lat="44.02909" lon="2.02721">
        <ele>284.69</ele>
        <time>2020-06-06T10:44:43Z</time>
      </trkpt>
      <trkpt lat="44.02908" lon="2.0272">
        <ele>284.21</ele>
        <time>2020-06-06T10:45:02Z</time>
      </trkpt>
      <trkpt lat="44.02908" lon="2.02717">
        <ele>283.73</ele>
        <time>2020-06-06T10:45:21Z</time>
      </trkpt>
      <trkpt lat="44.02908" lon="2.02717">
        <ele>283.73</ele>
        <time>2020-06-06T10:45:39Z</time>
      </trkpt>
      <trkpt lat="44.02908" lon="2.02716">
        <ele>284.21</ele>
        <time>2020-06-06T10:45:59Z</time>
      </trkpt>
      <trkpt lat="44.02908" lon="2.02715">
        <ele>284.21</ele>
        <time>2020-06-06T10:46:13Z</time>
      </trkpt>
      <trkpt lat="44.02907" lon="2.02714">
        <ele>284.21</ele>
        <time>2020-06-06T10:46:32Z</time>
      </trkpt>
      <trkpt lat="44.02908" lon="2.02714">
        <ele>283.73</ele>
        <time>2020-06-06T10:46:49Z</time>
      </trkpt>
      <trkpt lat="44.02907" lon="2.02715">
        <ele>284.21</ele>
        <time>2020-06-06T10:47:08Z</time>
      </trkpt>
      <trkpt lat="44.02907" lon="2.02715">
        <ele>283.25</ele>
        <time>2020-06-06T10:47:24Z</time>
      </trkpt>
      <trkpt lat="44.02907" lon="2.02714">
        <ele>283.25</ele>
        <time>2020-06-06T10:47:39Z</time>
      </trkpt>
      <trkpt lat="44.02909" lon="2.02715">
        <ele>283.25</ele>
        <time>2020-06-06T10:47:53Z</time>
      </trkpt>
      <trkpt lat="44.02908" lon="2.02714">
        <ele>283.25</ele>
        <time>2020-06-06T10:48:04Z</time>
      </trkpt>
      <trkpt lat="44.02908" lon="2.02716">
        <ele>284.21</ele>
        <time>2020-06-06T10:48:12Z</time>
      </trkpt>
      <trkpt lat="44.02908" lon="2.02716">
        <ele>284.69</ele>
        <time>2020-06-06T10:48:25Z</time>
      </trkpt>
      <trkpt lat="44.02909" lon="2.02716">
        <ele>283.73</ele>
        <time>2020-06-06T10:48:36Z</time>
      </trkpt>
      <trkpt lat="44.0291" lon="2.02718">
        <ele>283.73</ele>
        <time>2020-06-06T10:48:50Z</time>
      </trkpt>
      <trkpt lat="44.0291" lon="2.02717">
        <ele>284.69</ele>
        <time>2020-06-06T10:48:55Z</time>
      </trkpt>
      <trkpt lat="44.02909" lon="2.02715">
        <ele>285.17</ele>
        <time>2020-06-06T10:49:05Z</time>
      </trkpt>
      <trkpt lat="44.02909" lon="2.02715">
        <ele>287.09</ele>
        <time>2020-06-06T10:49:17Z</time>
      </trkpt>
      <trkpt lat="44.02909" lon="2.02715">
        <ele>285.65</ele>
        <time>2020-06-06T10:49:35Z</time>
      </trkpt>
      <trkpt lat="44.0291" lon="2.02713">
        <ele>285.65</ele>
        <time>2020-06-06T10:49:45Z</time>
      </trkpt>
      <trkpt lat="44.02908" lon="2.02712">
        <ele>286.13</ele>
        <time>2020-06-06T10:49:57Z</time>
      </trkpt>
      <trkpt lat="44.02908" lon="2.02712">
        <ele>285.17</ele>
        <time>2020-06-06T10:50:11Z</time>
      </trkpt>
      <trkpt lat="44.02909" lon="2.02711">
        <ele>284.21</ele>
        <time>2020-06-06T10:50:23Z</time>
      </trkpt>
      <trkpt lat="44.02906" lon="2.02709">
        <ele>277.48</ele>
        <time>2020-06-06T10:50:43Z</time>
      </trkpt>
      <trkpt lat="44.02904" lon="2.02709">
        <ele>277.48</ele>
        <time>2020-06-06T10:50:56Z</time>
      </trkpt>
      <trkpt lat="44.02904" lon="2.02709">
        <ele>278.44</ele>
        <time>2020-06-06T10:51:08Z</time>
      </trkpt>
      <trkpt lat="44.02906" lon="2.02711">
        <ele>278.92</ele>
        <time>2020-06-06T10:51:17Z</time>
      </trkpt>
      <trkpt lat="44.02906" lon="2.02712">
        <ele>280.84</ele>
        <time>2020-06-06T10:51:25Z</time>
      </trkpt>
      <trkpt lat="44.02906" lon="2.02712">
        <ele>281.32</ele>
        <time>2020-06-06T10:51:34Z</time>
      </trkpt>
      <trkpt lat="44.02906" lon="2.02709">
        <ele>281.32</ele>
        <time>2020-06-06T10:51:41Z</time>
      </trkpt>
      <trkpt lat="44.02904" lon="2.02707">
        <ele>281.8</ele>
        <time>2020-06-06T10:51:49Z</time>
      </trkpt>
      <trkpt lat="44.02899" lon="2.027">
        <ele>282.28</ele>
        <time>2020-06-06T10:51:58Z</time>
      </trkpt>
      <trkpt lat="44.02894" lon="2.02694">
        <ele>281.8</ele>
        <time>2020-06-06T10:52:06Z</time>
      </trkpt>
      <trkpt lat="44.02887" lon="2.02687">
        <ele>282.28</ele>
        <time>2020-06-06T10:52:15Z</time>
      </trkpt>
      <trkpt lat="44.02887" lon="2.02686">
        <ele>281.8</ele>
        <time>2020-06-06T10:52:16Z</time>
      </trkpt>
      <trkpt lat="44.02885" lon="2.02682">
        <ele>281.8</ele>
        <time>2020-06-06T10:52:22Z</time>
      </trkpt>
      <trkpt lat="44.02885" lon="2.02681">
        <ele>281.8</ele>
        <time>2020-06-06T10:52:30Z</time>
      </trkpt>
      <trkpt lat="44.02881" lon="2.0268">
        <ele>281.32</ele>
        <time>2020-06-06T10:52:37Z</time>
      </trkpt>
      <trkpt lat="44.02867" lon="2.02682">
        <ele>280.36</ele>
        <time>2020-06-06T10:52:47Z</time>
      </trkpt>
      <trkpt lat="44.02853" lon="2.02688">
        <ele>277.48</ele>
        <time>2020-06-06T10:52:58Z</time>
      </trkpt>
      <trkpt lat="44.02843" lon="2.02692">
        <ele>276.52</ele>
        <time>2020-06-06T10:53:08Z</time>
      </trkpt>
      <trkpt lat="44.02833" lon="2.02698">
        <ele>276.52</ele>
        <time>2020-06-06T10:53:18Z</time>
      </trkpt>
      <trkpt lat="44.02823" lon="2.02702">
        <ele>276.04</ele>
        <time>2020-06-06T10:53:26Z</time>
      </trkpt>
      <trkpt lat="44.02816" lon="2.02705">
        <ele>274.59</ele>
        <time>2020-06-06T10:53:33Z</time>
      </trkpt>
      <trkpt lat="44.02808" lon="2.02711">
        <ele>274.11</ele>
        <time>2020-06-06T10:53:41Z</time>
      </trkpt>
      <trkpt lat="44.02805" lon="2.02723">
        <ele>274.11</ele>
        <time>2020-06-06T10:53:50Z</time>
      </trkpt>
      <trkpt lat="44.02807" lon="2.02733">
        <ele>273.63</ele>
        <time>2020-06-06T10:54:00Z</time>
      </trkpt>
      <trkpt lat="44.02807" lon="2.02734">
        <ele>273.63</ele>
        <time>2020-06-06T10:54:08Z</time>
      </trkpt>
      <trkpt lat="44.02807" lon="2.02733">
        <ele>272.67</ele>
        <time>2020-06-06T10:54:15Z</time>
      </trkpt>
      <trkpt lat="44.02809" lon="2.02733">
        <ele>272.67</ele>
        <time>2020-06-06T10:54:23Z</time>
      </trkpt>
      <trkpt lat="44.0281" lon="2.02736">
        <ele>273.15</ele>
        <time>2020-06-06T10:54:30Z</time>
      </trkpt>
      <trkpt lat="44.02813" lon="2.0274">
        <ele>273.63</ele>
        <time>2020-06-06T10:54:37Z</time>
      </trkpt>
      <trkpt lat="44.02815" lon="2.02743">
        <ele>273.15</ele>
        <time>2020-06-06T10:54:44Z</time>
      </trkpt>
      <trkpt lat="44.02815" lon="2.02744">
        <ele>273.15</ele>
        <time>2020-06-06T10:54:51Z</time>
      </trkpt>
      <trkpt lat="44.02815" lon="2.02744">
        <ele>272.67</ele>
        <time>2020-06-06T10:54:56Z</time>
      </trkpt>
      <trkpt lat="44.02811" lon="2.02741">
        <ele>272.67</ele>
        <time>2020-06-06T10:55:05Z</time>
      </trkpt>
      <trkpt lat="44.02811" lon="2.02742">
        <ele>272.67</ele>
        <time>2020-06-06T10:55:07Z</time>
      </trkpt>
      <trkpt lat="44.02817" lon="2.02747">
        <ele>270.75</ele>
        <time>2020-06-06T10:55:16Z</time>
      </trkpt>
      <trkpt lat="44.02818" lon="2.02747">
        <ele>270.27</ele>
        <time>2020-06-06T10:55:25Z</time>
      </trkpt>
      <trkpt lat="44.02821" lon="2.0275">
        <ele>270.27</ele>
        <time>2020-06-06T10:55:33Z</time>
      </trkpt>
      <trkpt lat="44.02823" lon="2.02752">
        <ele>270.27</ele>
        <time>2020-06-06T10:55:35Z</time>
      </trkpt>
      <trkpt lat="44.02825" lon="2.02756">
        <ele>270.75</ele>
        <time>2020-06-06T10:55:39Z</time>
      </trkpt>
      <trkpt lat="44.02833" lon="2.02767">
        <ele>269.31</ele>
        <time>2020-06-06T10:55:50Z</time>
      </trkpt>
      <trkpt lat="44.0284" lon="2.02777">
        <ele>267.86</ele>
        <time>2020-06-06T10:55:59Z</time>
      </trkpt>
      <trkpt lat="44.02848" lon="2.02788">
        <ele>266.42</ele>
        <time>2020-06-06T10:56:09Z</time>
      </trkpt>
      <trkpt lat="44.02856" lon="2.02799">
        <ele>265.46</ele>
        <time>2020-06-06T10:56:18Z</time>
      </trkpt>
      <trkpt lat="44.02856" lon="2.028">
        <ele>265.46</ele>
        <time>2020-06-06T10:56:19Z</time>
      </trkpt>
      <trkpt lat="44.02861" lon="2.02809">
        <ele>265.46</ele>
        <time>2020-06-06T10:56:26Z</time>
      </trkpt>
      <trkpt lat="44.02867" lon="2.02821">
        <ele>265.46</ele>
        <time>2020-06-06T10:56:35Z</time>
      </trkpt>
      <trkpt lat="44.02873" lon="2.02831">
        <ele>265.94</ele>
        <time>2020-06-06T10:56:43Z</time>
      </trkpt>
      <trkpt lat="44.02883" lon="2.02845">
        <ele>264.5</ele>
        <time>2020-06-06T10:56:53Z</time>
      </trkpt>
      <trkpt lat="44.02892" lon="2.02854">
        <ele>263.54</ele>
        <time>2020-06-06T10:57:02Z</time>
      </trkpt>
      <trkpt lat="44.02907" lon="2.02869">
        <ele>259.21</ele>
        <time>2020-06-06T10:57:15Z</time>
      </trkpt>
      <trkpt lat="44.02918" lon="2.02882">
        <ele>257.29</ele>
        <time>2020-06-06T10:57:24Z</time>
      </trkpt>
      <trkpt lat="44.02927" lon="2.02894">
        <ele>257.29</ele>
        <time>2020-06-06T10:57:34Z</time>
      </trkpt>
      <trkpt lat="44.02929" lon="2.02902">
        <ele>257.77</ele>
        <time>2020-06-06T10:57:39Z</time>
      </trkpt>
      <trkpt lat="44.02928" lon="2.02903">
        <ele>257.77</ele>
        <time>2020-06-06T10:57:41Z</time>
      </trkpt>
      <trkpt lat="44.02923" lon="2.02901">
        <ele>257.77</ele>
        <time>2020-06-06T10:57:51Z</time>
      </trkpt>
      <trkpt lat="44.02923" lon="2.029">
        <ele>255.85</ele>
        <time>2020-06-06T10:58:04Z</time>
      </trkpt>
      <trkpt lat="44.02923" lon="2.02901">
        <ele>253.93</ele>
        <time>2020-06-06T10:58:16Z</time>
      </trkpt>
      <trkpt lat="44.02924" lon="2.02904">
        <ele>254.89</ele>
        <time>2020-06-06T10:58:26Z</time>
      </trkpt>
      <trkpt lat="44.02924" lon="2.02903">
        <ele>255.37</ele>
        <time>2020-06-06T10:58:27Z</time>
      </trkpt>
      <trkpt lat="44.02929" lon="2.02907">
        <ele>257.77</ele>
        <time>2020-06-06T10:58:34Z</time>
      </trkpt>
      <trkpt lat="44.02929" lon="2.02921">
        <ele>258.73</ele>
        <time>2020-06-06T10:58:42Z</time>
      </trkpt>
      <trkpt lat="44.02919" lon="2.02938">
        <ele>259.21</ele>
        <time>2020-06-06T10:58:52Z</time>
      </trkpt>
      <trkpt lat="44.02909" lon="2.02954">
        <ele>259.21</ele>
        <time>2020-06-06T10:59:03Z</time>
      </trkpt>
      <trkpt lat="44.02895" lon="2.02967">
        <ele>259.21</ele>
        <time>2020-06-06T10:59:14Z</time>
      </trkpt>
      <trkpt lat="44.02884" lon="2.02973">
        <ele>259.21</ele>
        <time>2020-06-06T10:59:22Z</time>
      </trkpt>
      <trkpt lat="44.02872" lon="2.02974">
        <ele>258.73</ele>
        <time>2020-06-06T10:59:30Z</time>
      </trkpt>
      <trkpt lat="44.02854" lon="2.02981">
        <ele>259.69</ele>
        <time>2020-06-06T10:59:42Z</time>
      </trkpt>
      <trkpt lat="44.02842" lon="2.0299">
        <ele>261.14</ele>
        <time>2020-06-06T10:59:51Z</time>
      </trkpt>
      <trkpt lat="44.0283" lon="2.02995">
        <ele>262.58</ele>
        <time>2020-06-06T11:00:00Z</time>
      </trkpt>
      <trkpt lat="44.02815" lon="2.03">
        <ele>265.94</ele>
        <time>2020-06-06T11:00:11Z</time>
      </trkpt>
      <trkpt lat="44.02803" lon="2.03004">
        <ele>268.83</ele>
        <time>2020-06-06T11:00:19Z</time>
      </trkpt>
      <trkpt lat="44.02793" lon="2.03012">
        <ele>272.19</ele>
        <time>2020-06-06T11:00:28Z</time>
      </trkpt>
      <trkpt lat="44.02785" lon="2.03021">
        <ele>275.07</ele>
        <time>2020-06-06T11:00:36Z</time>
      </trkpt>
      <trkpt lat="44.02775" lon="2.0303">
        <ele>277.96</ele>
        <time>2020-06-06T11:00:45Z</time>
      </trkpt>
      <trkpt lat="44.02773" lon="2.03033">
        <ele>278.44</ele>
        <time>2020-06-06T11:00:47Z</time>
      </trkpt>
      <trkpt lat="44.0277" lon="2.03036">
        <ele>278.92</ele>
        <time>2020-06-06T11:00:50Z</time>
      </trkpt>
      <trkpt lat="44.02763" lon="2.0304">
        <ele>279.88</ele>
        <time>2020-06-06T11:00:57Z</time>
      </trkpt>
      <trkpt lat="44.0276" lon="2.03042">
        <ele>279.4</ele>
        <time>2020-06-06T11:01:00Z</time>
      </trkpt>
      <trkpt lat="44.0275" lon="2.03049">
        <ele>279.4</ele>
        <time>2020-06-06T11:01:10Z</time>
      </trkpt>
      <trkpt lat="44.02742" lon="2.03053">
        <ele>278.92</ele>
        <time>2020-06-06T11:01:18Z</time>
      </trkpt>
      <trkpt lat="44.02734" lon="2.03055">
        <ele>279.4</ele>
        <time>2020-06-06T11:01:26Z</time>
      </trkpt>
      <trkpt lat="44.02726" lon="2.03059">
        <ele>278.92</ele>
        <time>2020-06-06T11:01:34Z</time>
      </trkpt>
      <trkpt lat="44.02719" lon="2.03062">
        <ele>279.88</ele>
        <time>2020-06-06T11:01:41Z</time>
      </trkpt>
      <trkpt lat="44.0271" lon="2.03067">
        <ele>281.32</ele>
        <time>2020-06-06T11:01:50Z</time>
      </trkpt>
      <trkpt lat="44.027" lon="2.03075">
        <ele>283.25</ele>
        <time>2020-06-06T11:02:00Z</time>
      </trkpt>
      <trkpt lat="44.02692" lon="2.03081">
        <ele>283.25</ele>
        <time>2020-06-06T11:02:08Z</time>
      </trkpt>
      <trkpt lat="44.02684" lon="2.03088">
        <ele>283.25</ele>
        <time>2020-06-06T11:02:17Z</time>
      </trkpt>
      <trkpt lat="44.02675" lon="2.03096">
        <ele>282.28</ele>
        <time>2020-06-06T11:02:25Z</time>
      </trkpt>
      <trkpt lat="44.0267" lon="2.03103">
        <ele>282.28</ele>
        <time>2020-06-06T11:02:32Z</time>
      </trkpt>
      <trkpt lat="44.02662" lon="2.03111">
        <ele>282.77</ele>
        <time>2020-06-06T11:02:41Z</time>
      </trkpt>
      <trkpt lat="44.02652" lon="2.03119">
        <ele>283.73</ele>
        <time>2020-06-06T11:02:50Z</time>
      </trkpt>
      <trkpt lat="44.02643" lon="2.0313">
        <ele>284.21</ele>
        <time>2020-06-06T11:02:59Z</time>
      </trkpt>
      <trkpt lat="44.02637" lon="2.03137">
        <ele>285.65</ele>
        <time>2020-06-06T11:03:05Z</time>
      </trkpt>
      <trkpt lat="44.02624" lon="2.0315">
        <ele>287.09</ele>
        <time>2020-06-06T11:03:18Z</time>
      </trkpt>
      <trkpt lat="44.02614" lon="2.0316">
        <ele>287.57</ele>
        <time>2020-06-06T11:03:26Z</time>
      </trkpt>
      <trkpt lat="44.02602" lon="2.03171">
        <ele>288.05</ele>
        <time>2020-06-06T11:03:36Z</time>
      </trkpt>
      <trkpt lat="44.02592" lon="2.03181">
        <ele>289.97</ele>
        <time>2020-06-06T11:03:46Z</time>
      </trkpt>
      <trkpt lat="44.02584" lon="2.03189">
        <ele>290.46</ele>
        <time>2020-06-06T11:03:54Z</time>
      </trkpt>
      <trkpt lat="44.02576" lon="2.03198">
        <ele>289.97</ele>
        <time>2020-06-06T11:04:02Z</time>
      </trkpt>
      <trkpt lat="44.02567" lon="2.03207">
        <ele>288.53</ele>
        <time>2020-06-06T11:04:12Z</time>
      </trkpt>
      <trkpt lat="44.02561" lon="2.0321">
        <ele>288.53</ele>
        <time>2020-06-06T11:04:20Z</time>
      </trkpt>
      <trkpt lat="44.02558" lon="2.03211">
        <ele>287.09</ele>
        <time>2020-06-06T11:04:30Z</time>
      </trkpt>
      <trkpt lat="44.02557" lon="2.03212">
        <ele>287.09</ele>
        <time>2020-06-06T11:04:45Z</time>
      </trkpt>
      <trkpt lat="44.02556" lon="2.03211">
        <ele>287.57</ele>
        <time>2020-06-06T11:04:59Z</time>
      </trkpt>
      <trkpt lat="44.02555" lon="2.03212">
        <ele>287.09</ele>
        <time>2020-06-06T11:05:17Z</time>
      </trkpt>
      <trkpt lat="44.02556" lon="2.03212">
        <ele>286.61</ele>
        <time>2020-06-06T11:05:28Z</time>
      </trkpt>
      <trkpt lat="44.02556" lon="2.03212">
        <ele>286.61</ele>
        <time>2020-06-06T11:05:38Z</time>
      </trkpt>
      <trkpt lat="44.02553" lon="2.03219">
        <ele>286.61</ele>
        <time>2020-06-06T11:05:43Z</time>
      </trkpt>
      <trkpt lat="44.02541" lon="2.03229">
        <ele>286.13</ele>
        <time>2020-06-06T11:05:53Z</time>
      </trkpt>
      <trkpt lat="44.02531" lon="2.03236">
        <ele>287.09</ele>
        <time>2020-06-06T11:06:01Z</time>
      </trkpt>
      <trkpt lat="44.02519" lon="2.03245">
        <ele>287.57</ele>
        <time>2020-06-06T11:06:10Z</time>
      </trkpt>
      <trkpt lat="44.02505" lon="2.03256">
        <ele>288.53</ele>
        <time>2020-06-06T11:06:21Z</time>
      </trkpt>
      <trkpt lat="44.02494" lon="2.03266">
        <ele>288.05</ele>
        <time>2020-06-06T11:06:30Z</time>
      </trkpt>
      <trkpt lat="44.02484" lon="2.03275">
        <ele>289.01</ele>
        <time>2020-06-06T11:06:39Z</time>
      </trkpt>
      <trkpt lat="44.02467" lon="2.03285">
        <ele>289.97</ele>
        <time>2020-06-06T11:06:51Z</time>
      </trkpt>
      <trkpt lat="44.02454" lon="2.03294">
        <ele>289.97</ele>
        <time>2020-06-06T11:07:00Z</time>
      </trkpt>
      <trkpt lat="44.02441" lon="2.03304">
        <ele>290.94</ele>
        <time>2020-06-06T11:07:10Z</time>
      </trkpt>
      <trkpt lat="44.02433" lon="2.0331">
        <ele>291.9</ele>
        <time>2020-06-06T11:07:16Z</time>
      </trkpt>
      <trkpt lat="44.02419" lon="2.0332">
        <ele>293.34</ele>
        <time>2020-06-06T11:07:27Z</time>
      </trkpt>
      <trkpt lat="44.02406" lon="2.03332">
        <ele>293.34</ele>
        <time>2020-06-06T11:07:37Z</time>
      </trkpt>
      <trkpt lat="44.02394" lon="2.03346">
        <ele>292.86</ele>
        <time>2020-06-06T11:07:48Z</time>
      </trkpt>
      <trkpt lat="44.02382" lon="2.03359">
        <ele>293.82</ele>
        <time>2020-06-06T11:07:58Z</time>
      </trkpt>
      <trkpt lat="44.02369" lon="2.03379">
        <ele>293.34</ele>
        <time>2020-06-06T11:08:11Z</time>
      </trkpt>
      <trkpt lat="44.02357" lon="2.03395">
        <ele>294.3</ele>
        <time>2020-06-06T11:08:22Z</time>
      </trkpt>
      <trkpt lat="44.02347" lon="2.03406">
        <ele>294.78</ele>
        <time>2020-06-06T11:08:31Z</time>
      </trkpt>
      <trkpt lat="44.0234" lon="2.0342">
        <ele>295.74</ele>
        <time>2020-06-06T11:08:40Z</time>
      </trkpt>
      <trkpt lat="44.02337" lon="2.03425">
        <ele>295.74</ele>
        <time>2020-06-06T11:08:43Z</time>
      </trkpt>
      <trkpt lat="44.02331" lon="2.03432">
        <ele>296.22</ele>
        <time>2020-06-06T11:08:50Z</time>
      </trkpt>
      <trkpt lat="44.0233" lon="2.03431">
        <ele>296.7</ele>
        <time>2020-06-06T11:08:58Z</time>
      </trkpt>
      <trkpt lat="44.02338" lon="2.03419">
        <ele>296.22</ele>
        <time>2020-06-06T11:09:10Z</time>
      </trkpt>
      <trkpt lat="44.02339" lon="2.03417">
        <ele>296.22</ele>
        <time>2020-06-06T11:09:12Z</time>
      </trkpt>
      <trkpt lat="44.02341" lon="2.03412">
        <ele>296.22</ele>
        <time>2020-06-06T11:09:17Z</time>
      </trkpt>
      <trkpt lat="44.02339" lon="2.03405">
        <ele>297.18</ele>
        <time>2020-06-06T11:09:22Z</time>
      </trkpt>
      <trkpt lat="44.02334" lon="2.03399">
        <ele>297.18</ele>
        <time>2020-06-06T11:09:28Z</time>
      </trkpt>
      <trkpt lat="44.02329" lon="2.03394">
        <ele>297.67</ele>
        <time>2020-06-06T11:09:34Z</time>
      </trkpt>
      <trkpt lat="44.02318" lon="2.03382">
        <ele>297.18</ele>
        <time>2020-06-06T11:09:46Z</time>
      </trkpt>
      <trkpt lat="44.02312" lon="2.03375">
        <ele>297.18</ele>
        <time>2020-06-06T11:09:54Z</time>
      </trkpt>
      <trkpt lat="44.02309" lon="2.03373">
        <ele>297.18</ele>
        <time>2020-06-06T11:09:58Z</time>
      </trkpt>
      <trkpt lat="44.02307" lon="2.0337">
        <ele>297.67</ele>
        <time>2020-06-06T11:10:05Z</time>
      </trkpt>
      <trkpt lat="44.02299" lon="2.03373">
        <ele>297.67</ele>
        <time>2020-06-06T11:10:11Z</time>
      </trkpt>
      <trkpt lat="44.02281" lon="2.03383">
        <ele>295.26</ele>
        <time>2020-06-06T11:10:25Z</time>
      </trkpt>
      <trkpt lat="44.02267" lon="2.03393">
        <ele>295.26</ele>
        <time>2020-06-06T11:10:37Z</time>
      </trkpt>
      <trkpt lat="44.02257" lon="2.03399">
        <ele>295.26</ele>
        <time>2020-06-06T11:10:46Z</time>
      </trkpt>
      <trkpt lat="44.02251" lon="2.03402">
        <ele>295.26</ele>
        <time>2020-06-06T11:10:51Z</time>
      </trkpt>
      <trkpt lat="44.02247" lon="2.03404">
        <ele>295.26</ele>
        <time>2020-06-06T11:10:55Z</time>
      </trkpt>
      <trkpt lat="44.02236" lon="2.0341">
        <ele>295.74</ele>
        <time>2020-06-06T11:11:05Z</time>
      </trkpt>
      <trkpt lat="44.02225" lon="2.03416">
        <ele>296.22</ele>
        <time>2020-06-06T11:11:15Z</time>
      </trkpt>
      <trkpt lat="44.02223" lon="2.03419">
        <ele>296.22</ele>
        <time>2020-06-06T11:11:18Z</time>
      </trkpt>
      <trkpt lat="44.02219" lon="2.03422">
        <ele>296.22</ele>
        <time>2020-06-06T11:11:22Z</time>
      </trkpt>
      <trkpt lat="44.0221" lon="2.03426">
        <ele>296.22</ele>
        <time>2020-06-06T11:11:30Z</time>
      </trkpt>
      <trkpt lat="44.02201" lon="2.03431">
        <ele>296.22</ele>
        <time>2020-06-06T11:11:39Z</time>
      </trkpt>
      <trkpt lat="44.02187" lon="2.03441">
        <ele>295.74</ele>
        <time>2020-06-06T11:11:52Z</time>
      </trkpt>
      <trkpt lat="44.02176" lon="2.0345">
        <ele>294.78</ele>
        <time>2020-06-06T11:12:02Z</time>
      </trkpt>
      <trkpt lat="44.02165" lon="2.03462">
        <ele>293.82</ele>
        <time>2020-06-06T11:12:13Z</time>
      </trkpt>
      <trkpt lat="44.02154" lon="2.0347">
        <ele>292.86</ele>
        <time>2020-06-06T11:12:23Z</time>
      </trkpt>
      <trkpt lat="44.02146" lon="2.03471">
        <ele>292.86</ele>
        <time>2020-06-06T11:12:30Z</time>
      </trkpt>
      <trkpt lat="44.02136" lon="2.03471">
        <ele>293.34</ele>
        <time>2020-06-06T11:12:38Z</time>
      </trkpt>
      <trkpt lat="44.02123" lon="2.03469">
        <ele>293.82</ele>
        <time>2020-06-06T11:12:48Z</time>
      </trkpt>
      <trkpt lat="44.02108" lon="2.03468">
        <ele>294.3</ele>
        <time>2020-06-06T11:13:00Z</time>
      </trkpt>
      <trkpt lat="44.02092" lon="2.03468">
        <ele>294.3</ele>
        <time>2020-06-06T11:13:12Z</time>
      </trkpt>
      <trkpt lat="44.02081" lon="2.03468">
        <ele>293.82</ele>
        <time>2020-06-06T11:13:21Z</time>
      </trkpt>
      <trkpt lat="44.02068" lon="2.03469">
        <ele>293.82</ele>
        <time>2020-06-06T11:13:31Z</time>
      </trkpt>
      <trkpt lat="44.0206" lon="2.03469">
        <ele>293.34</ele>
        <time>2020-06-06T11:13:39Z</time>
      </trkpt>
      <trkpt lat="44.02051" lon="2.03471">
        <ele>293.34</ele>
        <time>2020-06-06T11:13:47Z</time>
      </trkpt>
      <trkpt lat="44.02049" lon="2.03473">
        <ele>294.3</ele>
        <time>2020-06-06T11:13:54Z</time>
      </trkpt>
      <trkpt lat="44.02049" lon="2.03474">
        <ele>293.34</ele>
        <time>2020-06-06T11:14:01Z</time>
      </trkpt>
      <trkpt lat="44.02049" lon="2.03474">
        <ele>292.38</ele>
        <time>2020-06-06T11:14:15Z</time>
      </trkpt>
      <trkpt lat="44.0205" lon="2.03475">
        <ele>292.38</ele>
        <time>2020-06-06T11:14:27Z</time>
      </trkpt>
      <trkpt lat="44.02048" lon="2.03475">
        <ele>291.9</ele>
        <time>2020-06-06T11:14:38Z</time>
      </trkpt>
      <trkpt lat="44.02048" lon="2.03475">
        <ele>291.9</ele>
        <time>2020-06-06T11:14:49Z</time>
      </trkpt>
      <trkpt lat="44.02048" lon="2.03475">
        <ele>292.38</ele>
        <time>2020-06-06T11:14:59Z</time>
      </trkpt>
      <trkpt lat="44.02049" lon="2.03474">
        <ele>291.42</ele>
        <time>2020-06-06T11:15:09Z</time>
      </trkpt>
      <trkpt lat="44.02049" lon="2.03475">
        <ele>290.94</ele>
        <time>2020-06-06T11:15:15Z</time>
      </trkpt>
      <trkpt lat="44.02048" lon="2.03476">
        <ele>290.94</ele>
        <time>2020-06-06T11:15:28Z</time>
      </trkpt>
      <trkpt lat="44.02048" lon="2.03474">
        <ele>290.94</ele>
        <time>2020-06-06T11:15:36Z</time>
      </trkpt>
      <trkpt lat="44.02046" lon="2.03472">
        <ele>291.42</ele>
        <time>2020-06-06T11:15:38Z</time>
      </trkpt>
      <trkpt lat="44.02037" lon="2.0346">
        <ele>292.86</ele>
        <time>2020-06-06T11:15:49Z</time>
      </trkpt>
      <trkpt lat="44.02027" lon="2.03447">
        <ele>292.86</ele>
        <time>2020-06-06T11:16:00Z</time>
      </trkpt>
      <trkpt lat="44.02015" lon="2.03432">
        <ele>293.82</ele>
        <time>2020-06-06T11:16:12Z</time>
      </trkpt>
      <trkpt lat="44.02003" lon="2.03416">
        <ele>292.86</ele>
        <time>2020-06-06T11:16:24Z</time>
      </trkpt>
      <trkpt lat="44.01991" lon="2.03398">
        <ele>293.34</ele>
        <time>2020-06-06T11:16:37Z</time>
      </trkpt>
      <trkpt lat="44.01976" lon="2.0338">
        <ele>292.86</ele>
        <time>2020-06-06T11:16:51Z</time>
      </trkpt>
      <trkpt lat="44.01965" lon="2.03366">
        <ele>292.86</ele>
        <time>2020-06-06T11:17:03Z</time>
      </trkpt>
      <trkpt lat="44.01951" lon="2.03346">
        <ele>292.86</ele>
        <time>2020-06-06T11:17:17Z</time>
      </trkpt>
      <trkpt lat="44.01937" lon="2.03328">
        <ele>292.38</ele>
        <time>2020-06-06T11:17:31Z</time>
      </trkpt>
      <trkpt lat="44.01929" lon="2.0332">
        <ele>292.38</ele>
        <time>2020-06-06T11:17:39Z</time>
      </trkpt>
      <trkpt lat="44.01918" lon="2.03303">
        <ele>292.38</ele>
        <time>2020-06-06T11:17:51Z</time>
      </trkpt>
      <trkpt lat="44.01907" lon="2.0329">
        <ele>292.38</ele>
        <time>2020-06-06T11:18:02Z</time>
      </trkpt>
      <trkpt lat="44.01895" lon="2.03274">
        <ele>291.9</ele>
        <time>2020-06-06T11:18:14Z</time>
      </trkpt>
      <trkpt lat="44.01881" lon="2.03259">
        <ele>290.46</ele>
        <time>2020-06-06T11:18:27Z</time>
      </trkpt>
      <trkpt lat="44.01872" lon="2.0325">
        <ele>290.94</ele>
        <time>2020-06-06T11:18:36Z</time>
      </trkpt>
      <trkpt lat="44.01863" lon="2.03239">
        <ele>289.97</ele>
        <time>2020-06-06T11:18:45Z</time>
      </trkpt>
      <trkpt lat="44.0185" lon="2.03226">
        <ele>288.05</ele>
        <time>2020-06-06T11:18:56Z</time>
      </trkpt>
      <trkpt lat="44.01837" lon="2.03213">
        <ele>287.09</ele>
        <time>2020-06-06T11:19:07Z</time>
      </trkpt>
      <trkpt lat="44.01824" lon="2.032">
        <ele>286.61</ele>
        <time>2020-06-06T11:19:18Z</time>
      </trkpt>
      <trkpt lat="44.01808" lon="2.03186">
        <ele>285.17</ele>
        <time>2020-06-06T11:19:31Z</time>
      </trkpt>
      <trkpt lat="44.01792" lon="2.03177">
        <ele>284.69</ele>
        <time>2020-06-06T11:19:43Z</time>
      </trkpt>
      <trkpt lat="44.01774" lon="2.03172">
        <ele>285.17</ele>
        <time>2020-06-06T11:19:56Z</time>
      </trkpt>
      <trkpt lat="44.01755" lon="2.03168">
        <ele>284.69</ele>
        <time>2020-06-06T11:20:09Z</time>
      </trkpt>
      <trkpt lat="44.01734" lon="2.03156">
        <ele>283.25</ele>
        <time>2020-06-06T11:20:25Z</time>
      </trkpt>
      <trkpt lat="44.01716" lon="2.03145">
        <ele>282.77</ele>
        <time>2020-06-06T11:20:39Z</time>
      </trkpt>
      <trkpt lat="44.01698" lon="2.03132">
        <ele>283.25</ele>
        <time>2020-06-06T11:20:53Z</time>
      </trkpt>
      <trkpt lat="44.01687" lon="2.03125">
        <ele>283.73</ele>
        <time>2020-06-06T11:21:02Z</time>
      </trkpt>
      <trkpt lat="44.01676" lon="2.03117">
        <ele>283.73</ele>
        <time>2020-06-06T11:21:11Z</time>
      </trkpt>
      <trkpt lat="44.01663" lon="2.03109">
        <ele>283.25</ele>
        <time>2020-06-06T11:21:21Z</time>
      </trkpt>
      <trkpt lat="44.01647" lon="2.03099">
        <ele>284.21</ele>
        <time>2020-06-06T11:21:33Z</time>
      </trkpt>
      <trkpt lat="44.01629" lon="2.03088">
        <ele>283.25</ele>
        <time>2020-06-06T11:21:47Z</time>
      </trkpt>
      <trkpt lat="44.01614" lon="2.03082">
        <ele>282.77</ele>
        <time>2020-06-06T11:21:58Z</time>
      </trkpt>
      <trkpt lat="44.01598" lon="2.03076">
        <ele>283.25</ele>
        <time>2020-06-06T11:22:10Z</time>
      </trkpt>
      <trkpt lat="44.01584" lon="2.03073">
        <ele>283.73</ele>
        <time>2020-06-06T11:22:20Z</time>
      </trkpt>
      <trkpt lat="44.01568" lon="2.03069">
        <ele>283.73</ele>
        <time>2020-06-06T11:22:32Z</time>
      </trkpt>
      <trkpt lat="44.01551" lon="2.03064">
        <ele>283.73</ele>
        <time>2020-06-06T11:22:45Z</time>
      </trkpt>
      <trkpt lat="44.01535" lon="2.03062">
        <ele>283.73</ele>
        <time>2020-06-06T11:22:57Z</time>
      </trkpt>
      <trkpt lat="44.01531" lon="2.03067">
        <ele>283.73</ele>
        <time>2020-06-06T11:23:02Z</time>
      </trkpt>
      <trkpt lat="44.01524" lon="2.03079">
        <ele>283.73</ele>
        <time>2020-06-06T11:23:11Z</time>
      </trkpt>
      <trkpt lat="44.01522" lon="2.03084">
        <ele>283.73</ele>
        <time>2020-06-06T11:23:14Z</time>
      </trkpt>
      <trkpt lat="44.01514" lon="2.03103">
        <ele>284.69</ele>
        <time>2020-06-06T11:23:26Z</time>
      </trkpt>
      <trkpt lat="44.01505" lon="2.03127">
        <ele>285.17</ele>
        <time>2020-06-06T11:23:41Z</time>
      </trkpt>
      <trkpt lat="44.01497" lon="2.03144">
        <ele>285.17</ele>
        <time>2020-06-06T11:23:52Z</time>
      </trkpt>
      <trkpt lat="44.01489" lon="2.03162">
        <ele>285.17</ele>
        <time>2020-06-06T11:24:04Z</time>
      </trkpt>
      <trkpt lat="44.01488" lon="2.03163">
        <ele>285.17</ele>
        <time>2020-06-06T11:24:05Z</time>
      </trkpt>
      <trkpt lat="44.01478" lon="2.03186">
        <ele>284.69</ele>
        <time>2020-06-06T11:24:20Z</time>
      </trkpt>
      <trkpt lat="44.0147" lon="2.03201">
        <ele>283.73</ele>
        <time>2020-06-06T11:24:31Z</time>
      </trkpt>
      <trkpt lat="44.01467" lon="2.0321">
        <ele>284.21</ele>
        <time>2020-06-06T11:24:37Z</time>
      </trkpt>
      <trkpt lat="44.01465" lon="2.03212">
        <ele>283.73</ele>
        <time>2020-06-06T11:24:39Z</time>
      </trkpt>
      <trkpt lat="44.01463" lon="2.0322">
        <ele>283.25</ele>
        <time>2020-06-06T11:24:43Z</time>
      </trkpt>
      <trkpt lat="44.01457" lon="2.03234">
        <ele>282.28</ele>
        <time>2020-06-06T11:24:53Z</time>
      </trkpt>
      <trkpt lat="44.01451" lon="2.03245">
        <ele>280.84</ele>
        <time>2020-06-06T11:25:02Z</time>
      </trkpt>
      <trkpt lat="44.01452" lon="2.03248">
        <ele>280.84</ele>
        <time>2020-06-06T11:25:08Z</time>
      </trkpt>
      <trkpt lat="44.01452" lon="2.03247">
        <ele>281.32</ele>
        <time>2020-06-06T11:25:16Z</time>
      </trkpt>
      <trkpt lat="44.0145" lon="2.03248">
        <ele>280.84</ele>
        <time>2020-06-06T11:25:25Z</time>
      </trkpt>
      <trkpt lat="44.0145" lon="2.03248">
        <ele>280.84</ele>
        <time>2020-06-06T11:25:37Z</time>
      </trkpt>
      <trkpt lat="44.01449" lon="2.03247">
        <ele>281.32</ele>
        <time>2020-06-06T11:25:48Z</time>
      </trkpt>
      <trkpt lat="44.01451" lon="2.03248">
        <ele>282.77</ele>
        <time>2020-06-06T11:26:09Z</time>
      </trkpt>
      <trkpt lat="44.01451" lon="2.03248">
        <ele>284.21</ele>
        <time>2020-06-06T11:26:24Z</time>
      </trkpt>
      <trkpt lat="44.01449" lon="2.03248">
        <ele>284.69</ele>
        <time>2020-06-06T11:26:29Z</time>
      </trkpt>
      <trkpt lat="44.01444" lon="2.0326">
        <ele>285.17</ele>
        <time>2020-06-06T11:26:37Z</time>
      </trkpt>
      <trkpt lat="44.01433" lon="2.03282">
        <ele>282.28</ele>
        <time>2020-06-06T11:26:51Z</time>
      </trkpt>
      <trkpt lat="44.01423" lon="2.03302">
        <ele>280.84</ele>
        <time>2020-06-06T11:27:03Z</time>
      </trkpt>
      <trkpt lat="44.01415" lon="2.03315">
        <ele>281.8</ele>
        <time>2020-06-06T11:27:11Z</time>
      </trkpt>
      <trkpt lat="44.01408" lon="2.03332">
        <ele>282.28</ele>
        <time>2020-06-06T11:27:20Z</time>
      </trkpt>
      <trkpt lat="44.01403" lon="2.03347">
        <ele>281.32</ele>
        <time>2020-06-06T11:27:28Z</time>
      </trkpt>
      <trkpt lat="44.01394" lon="2.03365">
        <ele>281.32</ele>
        <time>2020-06-06T11:27:39Z</time>
      </trkpt>
      <trkpt lat="44.01398" lon="2.03374">
        <ele>281.8</ele>
        <time>2020-06-06T11:27:47Z</time>
      </trkpt>
      <trkpt lat="44.014" lon="2.0338">
        <ele>281.32</ele>
        <time>2020-06-06T11:27:50Z</time>
      </trkpt>
      <trkpt lat="44.01406" lon="2.03387">
        <ele>280.36</ele>
        <time>2020-06-06T11:27:58Z</time>
      </trkpt>
      <trkpt lat="44.01404" lon="2.03387">
        <ele>279.88</ele>
        <time>2020-06-06T11:28:08Z</time>
      </trkpt>
      <trkpt lat="44.01403" lon="2.03388">
        <ele>280.84</ele>
        <time>2020-06-06T11:28:10Z</time>
      </trkpt>
      <trkpt lat="44.01403" lon="2.03397">
        <ele>281.32</ele>
        <time>2020-06-06T11:28:15Z</time>
      </trkpt>
      <trkpt lat="44.0141" lon="2.0342">
        <ele>278.44</ele>
        <time>2020-06-06T11:28:26Z</time>
      </trkpt>
      <trkpt lat="44.01414" lon="2.03439">
        <ele>276.04</ele>
        <time>2020-06-06T11:28:36Z</time>
      </trkpt>
      <trkpt lat="44.01417" lon="2.03457">
        <ele>275.07</ele>
        <time>2020-06-06T11:28:46Z</time>
      </trkpt>
      <trkpt lat="44.01419" lon="2.0348">
        <ele>269.79</ele>
        <time>2020-06-06T11:28:56Z</time>
      </trkpt>
      <trkpt lat="44.01422" lon="2.03509">
        <ele>264.5</ele>
        <time>2020-06-06T11:29:09Z</time>
      </trkpt>
      <trkpt lat="44.01419" lon="2.03532">
        <ele>261.62</ele>
        <time>2020-06-06T11:29:20Z</time>
      </trkpt>
      <trkpt lat="44.01414" lon="2.03549">
        <ele>258.73</ele>
        <time>2020-06-06T11:29:29Z</time>
      </trkpt>
      <trkpt lat="44.01408" lon="2.03568">
        <ele>257.29</ele>
        <time>2020-06-06T11:29:41Z</time>
      </trkpt>
      <trkpt lat="44.01404" lon="2.03583">
        <ele>255.85</ele>
        <time>2020-06-06T11:29:50Z</time>
      </trkpt>
      <trkpt lat="44.01402" lon="2.03592">
        <ele>255.85</ele>
        <time>2020-06-06T11:29:55Z</time>
      </trkpt>
      <trkpt lat="44.01406" lon="2.03603">
        <ele>255.85</ele>
        <time>2020-06-06T11:30:01Z</time>
      </trkpt>
      <trkpt lat="44.01416" lon="2.03612">
        <ele>255.85</ele>
        <time>2020-06-06T11:30:11Z</time>
      </trkpt>
      <trkpt lat="44.01422" lon="2.03616">
        <ele>255.85</ele>
        <time>2020-06-06T11:30:17Z</time>
      </trkpt>
      <trkpt lat="44.01433" lon="2.03622">
        <ele>256.33</ele>
        <time>2020-06-06T11:30:26Z</time>
      </trkpt>
      <trkpt lat="44.01442" lon="2.03627">
        <ele>255.85</ele>
        <time>2020-06-06T11:30:34Z</time>
      </trkpt>
      <trkpt lat="44.01451" lon="2.03634">
        <ele>257.29</ele>
        <time>2020-06-06T11:30:42Z</time>
      </trkpt>
      <trkpt lat="44.01457" lon="2.03641">
        <ele>257.29</ele>
        <time>2020-06-06T11:30:48Z</time>
      </trkpt>
      <trkpt lat="44.01462" lon="2.03645">
        <ele>256.81</ele>
        <time>2020-06-06T11:30:52Z</time>
      </trkpt>
      <trkpt lat="44.01473" lon="2.03658">
        <ele>257.77</ele>
        <time>2020-06-06T11:31:03Z</time>
      </trkpt>
      <trkpt lat="44.01478" lon="2.03664">
        <ele>257.77</ele>
        <time>2020-06-06T11:31:09Z</time>
      </trkpt>
      <trkpt lat="44.01485" lon="2.03675">
        <ele>257.77</ele>
        <time>2020-06-06T11:31:17Z</time>
      </trkpt>
      <trkpt lat="44.01494" lon="2.03688">
        <ele>258.25</ele>
        <time>2020-06-06T11:31:27Z</time>
      </trkpt>
      <trkpt lat="44.01503" lon="2.03697">
        <ele>258.25</ele>
        <time>2020-06-06T11:31:35Z</time>
      </trkpt>
      <trkpt lat="44.01515" lon="2.03711">
        <ele>260.17</ele>
        <time>2020-06-06T11:31:45Z</time>
      </trkpt>
      <trkpt lat="44.0153" lon="2.03722">
        <ele>261.14</ele>
        <time>2020-06-06T11:31:57Z</time>
      </trkpt>
      <trkpt lat="44.01544" lon="2.03733">
        <ele>260.65</ele>
        <time>2020-06-06T11:32:09Z</time>
      </trkpt>
      <trkpt lat="44.01558" lon="2.03748">
        <ele>260.17</ele>
        <time>2020-06-06T11:32:22Z</time>
      </trkpt>
      <trkpt lat="44.01566" lon="2.03759">
        <ele>261.14</ele>
        <time>2020-06-06T11:32:31Z</time>
      </trkpt>
      <trkpt lat="44.0157" lon="2.03765">
        <ele>260.65</ele>
        <time>2020-06-06T11:32:38Z</time>
      </trkpt>
      <trkpt lat="44.01579" lon="2.03774">
        <ele>260.65</ele>
        <time>2020-06-06T11:32:46Z</time>
      </trkpt>
      <trkpt lat="44.01595" lon="2.03789">
        <ele>260.65</ele>
        <time>2020-06-06T11:32:58Z</time>
      </trkpt>
      <trkpt lat="44.01608" lon="2.03804">
        <ele>260.65</ele>
        <time>2020-06-06T11:33:09Z</time>
      </trkpt>
      <trkpt lat="44.01622" lon="2.03819">
        <ele>260.65</ele>
        <time>2020-06-06T11:33:21Z</time>
      </trkpt>
      <trkpt lat="44.01632" lon="2.03831">
        <ele>260.17</ele>
        <time>2020-06-06T11:33:32Z</time>
      </trkpt>
      <trkpt lat="44.0164" lon="2.03842">
        <ele>260.65</ele>
        <time>2020-06-06T11:33:40Z</time>
      </trkpt>
      <trkpt lat="44.0165" lon="2.03853">
        <ele>259.69</ele>
        <time>2020-06-06T11:33:50Z</time>
      </trkpt>
      <trkpt lat="44.01659" lon="2.03868">
        <ele>259.69</ele>
        <time>2020-06-06T11:34:00Z</time>
      </trkpt>
      <trkpt lat="44.01669" lon="2.03893">
        <ele>259.69</ele>
        <time>2020-06-06T11:34:15Z</time>
      </trkpt>
      <trkpt lat="44.01676" lon="2.03913">
        <ele>260.17</ele>
        <time>2020-06-06T11:34:27Z</time>
      </trkpt>
      <trkpt lat="44.01683" lon="2.03932">
        <ele>260.65</ele>
        <time>2020-06-06T11:34:38Z</time>
      </trkpt>
      <trkpt lat="44.01688" lon="2.03948">
        <ele>260.65</ele>
        <time>2020-06-06T11:34:48Z</time>
      </trkpt>
      <trkpt lat="44.01695" lon="2.0397">
        <ele>261.14</ele>
        <time>2020-06-06T11:35:00Z</time>
      </trkpt>
      <trkpt lat="44.01701" lon="2.03989">
        <ele>261.62</ele>
        <time>2020-06-06T11:35:11Z</time>
      </trkpt>
      <trkpt lat="44.01709" lon="2.04009">
        <ele>261.62</ele>
        <time>2020-06-06T11:35:23Z</time>
      </trkpt>
      <trkpt lat="44.0172" lon="2.04029">
        <ele>262.1</ele>
        <time>2020-06-06T11:35:35Z</time>
      </trkpt>
      <trkpt lat="44.0173" lon="2.04043">
        <ele>262.1</ele>
        <time>2020-06-06T11:35:45Z</time>
      </trkpt>
      <trkpt lat="44.01743" lon="2.04056">
        <ele>262.1</ele>
        <time>2020-06-06T11:35:57Z</time>
      </trkpt>
      <trkpt lat="44.01754" lon="2.04066">
        <ele>263.06</ele>
        <time>2020-06-06T11:36:07Z</time>
      </trkpt>
      <trkpt lat="44.01759" lon="2.04071">
        <ele>263.54</ele>
        <time>2020-06-06T11:36:13Z</time>
      </trkpt>
      <trkpt lat="44.01768" lon="2.04085">
        <ele>263.06</ele>
        <time>2020-06-06T11:36:24Z</time>
      </trkpt>
      <trkpt lat="44.0177" lon="2.0409">
        <ele>263.06</ele>
        <time>2020-06-06T11:36:27Z</time>
      </trkpt>
      <trkpt lat="44.01773" lon="2.04099">
        <ele>263.06</ele>
        <time>2020-06-06T11:36:32Z</time>
      </trkpt>
      <trkpt lat="44.01775" lon="2.04104">
        <ele>263.06</ele>
        <time>2020-06-06T11:36:35Z</time>
      </trkpt>
      <trkpt lat="44.01781" lon="2.04116">
        <ele>262.58</ele>
        <time>2020-06-06T11:36:43Z</time>
      </trkpt>
      <trkpt lat="44.01787" lon="2.04136">
        <ele>261.14</ele>
        <time>2020-06-06T11:36:54Z</time>
      </trkpt>
      <trkpt lat="44.01793" lon="2.04151">
        <ele>260.65</ele>
        <time>2020-06-06T11:37:03Z</time>
      </trkpt>
      <trkpt lat="44.018" lon="2.04172">
        <ele>261.14</ele>
        <time>2020-06-06T11:37:15Z</time>
      </trkpt>
      <trkpt lat="44.01809" lon="2.04195">
        <ele>261.14</ele>
        <time>2020-06-06T11:37:29Z</time>
      </trkpt>
      <trkpt lat="44.01813" lon="2.04209">
        <ele>260.17</ele>
        <time>2020-06-06T11:37:39Z</time>
      </trkpt>
      <trkpt lat="44.01818" lon="2.04222">
        <ele>260.17</ele>
        <time>2020-06-06T11:37:47Z</time>
      </trkpt>
      <trkpt lat="44.01822" lon="2.04238">
        <ele>259.21</ele>
        <time>2020-06-06T11:37:57Z</time>
      </trkpt>
      <trkpt lat="44.01827" lon="2.04257">
        <ele>259.69</ele>
        <time>2020-06-06T11:38:08Z</time>
      </trkpt>
      <trkpt lat="44.01829" lon="2.04266">
        <ele>259.69</ele>
        <time>2020-06-06T11:38:14Z</time>
      </trkpt>
      <trkpt lat="44.01833" lon="2.04283">
        <ele>259.69</ele>
        <time>2020-06-06T11:38:24Z</time>
      </trkpt>
      <trkpt lat="44.01837" lon="2.04298">
        <ele>261.14</ele>
        <time>2020-06-06T11:38:33Z</time>
      </trkpt>
      <trkpt lat="44.01839" lon="2.04318">
        <ele>262.58</ele>
        <time>2020-06-06T11:38:44Z</time>
      </trkpt>
      <trkpt lat="44.01839" lon="2.04321">
        <ele>262.58</ele>
        <time>2020-06-06T11:38:46Z</time>
      </trkpt>
      <trkpt lat="44.01838" lon="2.04323">
        <ele>263.06</ele>
        <time>2020-06-06T11:38:48Z</time>
      </trkpt>
      <trkpt lat="44.01829" lon="2.04326">
        <ele>262.58</ele>
        <time>2020-06-06T11:38:57Z</time>
      </trkpt>
      <trkpt lat="44.01826" lon="2.04328">
        <ele>262.58</ele>
        <time>2020-06-06T11:38:59Z</time>
      </trkpt>
      <trkpt lat="44.01808" lon="2.04334">
        <ele>261.62</ele>
        <time>2020-06-06T11:39:13Z</time>
      </trkpt>
      <trkpt lat="44.01797" lon="2.0434">
        <ele>260.65</ele>
        <time>2020-06-06T11:39:21Z</time>
      </trkpt>
      <trkpt lat="44.0178" lon="2.04347">
        <ele>260.17</ele>
        <time>2020-06-06T11:39:34Z</time>
      </trkpt>
      <trkpt lat="44.01774" lon="2.0435">
        <ele>260.17</ele>
        <time>2020-06-06T11:39:40Z</time>
      </trkpt>
      <trkpt lat="44.01761" lon="2.04359">
        <ele>260.17</ele>
        <time>2020-06-06T11:39:50Z</time>
      </trkpt>
      <trkpt lat="44.0175" lon="2.04357">
        <ele>262.1</ele>
        <time>2020-06-06T11:39:59Z</time>
      </trkpt>
      <trkpt lat="44.01739" lon="2.04352">
        <ele>264.5</ele>
        <time>2020-06-06T11:40:08Z</time>
      </trkpt>
      <trkpt lat="44.01726" lon="2.04355">
        <ele>266.9</ele>
        <time>2020-06-06T11:40:19Z</time>
      </trkpt>
      <trkpt lat="44.01719" lon="2.04362">
        <ele>269.31</ele>
        <time>2020-06-06T11:40:28Z</time>
      </trkpt>
      <trkpt lat="44.01717" lon="2.04367">
        <ele>271.23</ele>
        <time>2020-06-06T11:40:34Z</time>
      </trkpt>
      <trkpt lat="44.01715" lon="2.04376">
        <ele>272.67</ele>
        <time>2020-06-06T11:40:41Z</time>
      </trkpt>
      <trkpt lat="44.01717" lon="2.04387">
        <ele>274.11</ele>
        <time>2020-06-06T11:40:49Z</time>
      </trkpt>
      <trkpt lat="44.01721" lon="2.04397">
        <ele>275.07</ele>
        <time>2020-06-06T11:40:56Z</time>
      </trkpt>
      <trkpt lat="44.01724" lon="2.04405">
        <ele>276.52</ele>
        <time>2020-06-06T11:41:02Z</time>
      </trkpt>
      <trkpt lat="44.01729" lon="2.0441">
        <ele>277.48</ele>
        <time>2020-06-06T11:41:07Z</time>
      </trkpt>
      <trkpt lat="44.0173" lon="2.04425">
        <ele>280.84</ele>
        <time>2020-06-06T11:41:17Z</time>
      </trkpt>
      <trkpt lat="44.01729" lon="2.04442">
        <ele>283.25</ele>
        <time>2020-06-06T11:41:27Z</time>
      </trkpt>
      <trkpt lat="44.01727" lon="2.04452">
        <ele>285.17</ele>
        <time>2020-06-06T11:41:36Z</time>
      </trkpt>
      <trkpt lat="44.01725" lon="2.04457">
        <ele>286.13</ele>
        <time>2020-06-06T11:41:41Z</time>
      </trkpt>
      <trkpt lat="44.01723" lon="2.04472">
        <ele>288.05</ele>
        <time>2020-06-06T11:41:51Z</time>
      </trkpt>
      <trkpt lat="44.01722" lon="2.04484">
        <ele>289.01</ele>
        <time>2020-06-06T11:41:59Z</time>
      </trkpt>
      <trkpt lat="44.01719" lon="2.045">
        <ele>289.49</ele>
        <time>2020-06-06T11:42:09Z</time>
      </trkpt>
      <trkpt lat="44.01718" lon="2.04502">
        <ele>289.49</ele>
        <time>2020-06-06T11:42:10Z</time>
      </trkpt>
      <trkpt lat="44.01711" lon="2.04518">
        <ele>290.46</ele>
        <time>2020-06-06T11:42:21Z</time>
      </trkpt>
      <trkpt lat="44.01703" lon="2.0453">
        <ele>291.9</ele>
        <time>2020-06-06T11:42:30Z</time>
      </trkpt>
      <trkpt lat="44.01695" lon="2.04544">
        <ele>292.86</ele>
        <time>2020-06-06T11:42:40Z</time>
      </trkpt>
      <trkpt lat="44.01685" lon="2.04564">
        <ele>294.78</ele>
        <time>2020-06-06T11:42:52Z</time>
      </trkpt>
      <trkpt lat="44.01676" lon="2.04584">
        <ele>293.82</ele>
        <time>2020-06-06T11:43:04Z</time>
      </trkpt>
      <trkpt lat="44.01668" lon="2.04601">
        <ele>293.34</ele>
        <time>2020-06-06T11:43:14Z</time>
      </trkpt>
      <trkpt lat="44.01656" lon="2.04623">
        <ele>293.82</ele>
        <time>2020-06-06T11:43:27Z</time>
      </trkpt>
      <trkpt lat="44.0165" lon="2.04633">
        <ele>293.34</ele>
        <time>2020-06-06T11:43:36Z</time>
      </trkpt>
      <trkpt lat="44.01646" lon="2.04639">
        <ele>292.86</ele>
        <time>2020-06-06T11:43:41Z</time>
      </trkpt>
      <trkpt lat="44.01634" lon="2.04659">
        <ele>292.86</ele>
        <time>2020-06-06T11:43:55Z</time>
      </trkpt>
      <trkpt lat="44.01627" lon="2.04676">
        <ele>292.86</ele>
        <time>2020-06-06T11:44:05Z</time>
      </trkpt>
      <trkpt lat="44.01617" lon="2.04695">
        <ele>294.78</ele>
        <time>2020-06-06T11:44:18Z</time>
      </trkpt>
      <trkpt lat="44.01615" lon="2.04695">
        <ele>294.78</ele>
        <time>2020-06-06T11:44:31Z</time>
      </trkpt>
      <trkpt lat="44.01614" lon="2.04697">
        <ele>295.26</ele>
        <time>2020-06-06T11:44:39Z</time>
      </trkpt>
      <trkpt lat="44.01611" lon="2.04703">
        <ele>295.26</ele>
        <time>2020-06-06T11:44:45Z</time>
      </trkpt>
      <trkpt lat="44.01606" lon="2.04715">
        <ele>296.22</ele>
        <time>2020-06-06T11:44:54Z</time>
      </trkpt>
      <trkpt lat="44.01598" lon="2.0473">
        <ele>297.18</ele>
        <time>2020-06-06T11:45:05Z</time>
      </trkpt>
      <trkpt lat="44.01591" lon="2.04744">
        <ele>296.7</ele>
        <time>2020-06-06T11:45:15Z</time>
      </trkpt>
      <trkpt lat="44.01585" lon="2.04754">
        <ele>297.18</ele>
        <time>2020-06-06T11:45:23Z</time>
      </trkpt>
      <trkpt lat="44.01581" lon="2.04759">
        <ele>296.7</ele>
        <time>2020-06-06T11:45:31Z</time>
      </trkpt>
      <trkpt lat="44.01581" lon="2.0476">
        <ele>296.22</ele>
        <time>2020-06-06T11:45:40Z</time>
      </trkpt>
      <trkpt lat="44.01581" lon="2.04759">
        <ele>295.74</ele>
        <time>2020-06-06T11:45:57Z</time>
      </trkpt>
      <trkpt lat="44.01582" lon="2.04759">
        <ele>295.26</ele>
        <time>2020-06-06T11:46:15Z</time>
      </trkpt>
      <trkpt lat="44.0158" lon="2.04757">
        <ele>295.74</ele>
        <time>2020-06-06T11:46:33Z</time>
      </trkpt>
      <trkpt lat="44.0158" lon="2.04759">
        <ele>295.74</ele>
        <time>2020-06-06T11:46:50Z</time>
      </trkpt>
      <trkpt lat="44.01578" lon="2.04762">
        <ele>295.74</ele>
        <time>2020-06-06T11:46:55Z</time>
      </trkpt>
      <trkpt lat="44.01575" lon="2.04763">
        <ele>296.7</ele>
        <time>2020-06-06T11:46:59Z</time>
      </trkpt>
      <trkpt lat="44.01572" lon="2.04766">
        <ele>297.18</ele>
        <time>2020-06-06T11:47:09Z</time>
      </trkpt>
      <trkpt lat="44.01569" lon="2.04769">
        <ele>297.18</ele>
        <time>2020-06-06T11:47:17Z</time>
      </trkpt>
      <trkpt lat="44.01562" lon="2.04778">
        <ele>297.67</ele>
        <time>2020-06-06T11:47:26Z</time>
      </trkpt>
      <trkpt lat="44.01552" lon="2.04791">
        <ele>298.63</ele>
        <time>2020-06-06T11:47:37Z</time>
      </trkpt>
      <trkpt lat="44.01542" lon="2.04802">
        <ele>299.11</ele>
        <time>2020-06-06T11:47:47Z</time>
      </trkpt>
      <trkpt lat="44.01531" lon="2.04815">
        <ele>299.11</ele>
        <time>2020-06-06T11:47:58Z</time>
      </trkpt>
      <trkpt lat="44.01518" lon="2.04829">
        <ele>298.63</ele>
        <time>2020-06-06T11:48:10Z</time>
      </trkpt>
      <trkpt lat="44.01508" lon="2.04839">
        <ele>299.59</ele>
        <time>2020-06-06T11:48:21Z</time>
      </trkpt>
      <trkpt lat="44.015" lon="2.04849">
        <ele>300.07</ele>
        <time>2020-06-06T11:48:30Z</time>
      </trkpt>
      <trkpt lat="44.01492" lon="2.04858">
        <ele>300.55</ele>
        <time>2020-06-06T11:48:38Z</time>
      </trkpt>
      <trkpt lat="44.01481" lon="2.04869">
        <ele>301.03</ele>
        <time>2020-06-06T11:48:49Z</time>
      </trkpt>
      <trkpt lat="44.01469" lon="2.04881">
        <ele>301.99</ele>
        <time>2020-06-06T11:49:01Z</time>
      </trkpt>
      <trkpt lat="44.01461" lon="2.04891">
        <ele>301.99</ele>
        <time>2020-06-06T11:49:10Z</time>
      </trkpt>
      <trkpt lat="44.0146" lon="2.04893">
        <ele>302.47</ele>
        <time>2020-06-06T11:49:16Z</time>
      </trkpt>
      <trkpt lat="44.01456" lon="2.04897">
        <ele>302.47</ele>
        <time>2020-06-06T11:49:21Z</time>
      </trkpt>
      <trkpt lat="44.01453" lon="2.04899">
        <ele>301.99</ele>
        <time>2020-06-06T11:49:24Z</time>
      </trkpt>
      <trkpt lat="44.01439" lon="2.04914">
        <ele>302.47</ele>
        <time>2020-06-06T11:49:37Z</time>
      </trkpt>
      <trkpt lat="44.01428" lon="2.04926">
        <ele>302.95</ele>
        <time>2020-06-06T11:49:47Z</time>
      </trkpt>
      <trkpt lat="44.01414" lon="2.04941">
        <ele>302.95</ele>
        <time>2020-06-06T11:50:00Z</time>
      </trkpt>
      <trkpt lat="44.01402" lon="2.04954">
        <ele>303.43</ele>
        <time>2020-06-06T11:50:11Z</time>
      </trkpt>
      <trkpt lat="44.01398" lon="2.04959">
        <ele>303.43</ele>
        <time>2020-06-06T11:50:18Z</time>
      </trkpt>
      <trkpt lat="44.01385" lon="2.04972">
        <ele>303.43</ele>
        <time>2020-06-06T11:50:29Z</time>
      </trkpt>
      <trkpt lat="44.01373" lon="2.04985">
        <ele>303.91</ele>
        <time>2020-06-06T11:50:39Z</time>
      </trkpt>
      <trkpt lat="44.01358" lon="2.05001">
        <ele>303.91</ele>
        <time>2020-06-06T11:50:52Z</time>
      </trkpt>
      <trkpt lat="44.01346" lon="2.05016">
        <ele>302.47</ele>
        <time>2020-06-06T11:51:04Z</time>
      </trkpt>
      <trkpt lat="44.01335" lon="2.0503">
        <ele>302.95</ele>
        <time>2020-06-06T11:51:14Z</time>
      </trkpt>
      <trkpt lat="44.01323" lon="2.05047">
        <ele>302.95</ele>
        <time>2020-06-06T11:51:27Z</time>
      </trkpt>
      <trkpt lat="44.01311" lon="2.05063">
        <ele>302.95</ele>
        <time>2020-06-06T11:51:39Z</time>
      </trkpt>
      <trkpt lat="44.01301" lon="2.0508">
        <ele>303.43</ele>
        <time>2020-06-06T11:51:51Z</time>
      </trkpt>
      <trkpt lat="44.01291" lon="2.05098">
        <ele>303.91</ele>
        <time>2020-06-06T11:52:03Z</time>
      </trkpt>
      <trkpt lat="44.01284" lon="2.0511">
        <ele>303.91</ele>
        <time>2020-06-06T11:52:12Z</time>
      </trkpt>
      <trkpt lat="44.01284" lon="2.05108">
        <ele>303.91</ele>
        <time>2020-06-06T11:52:17Z</time>
      </trkpt>
      <trkpt lat="44.01285" lon="2.05107">
        <ele>303.91</ele>
        <time>2020-06-06T11:52:18Z</time>
      </trkpt>
      <trkpt lat="44.01289" lon="2.05099">
        <ele>303.91</ele>
        <time>2020-06-06T11:52:25Z</time>
      </trkpt>
      <trkpt lat="44.01295" lon="2.05083">
        <ele>303.43</ele>
        <time>2020-06-06T11:52:36Z</time>
      </trkpt>
      <trkpt lat="44.01294" lon="2.05077">
        <ele>302.95</ele>
        <time>2020-06-06T11:52:40Z</time>
      </trkpt>
      <trkpt lat="44.01288" lon="2.05061">
        <ele>301.99</ele>
        <time>2020-06-06T11:52:51Z</time>
      </trkpt>
      <trkpt lat="44.01281" lon="2.05046">
        <ele>301.51</ele>
        <time>2020-06-06T11:53:02Z</time>
      </trkpt>
      <trkpt lat="44.01276" lon="2.05033">
        <ele>301.51</ele>
        <time>2020-06-06T11:53:10Z</time>
      </trkpt>
      <trkpt lat="44.01271" lon="2.05019">
        <ele>301.99</ele>
        <time>2020-06-06T11:53:19Z</time>
      </trkpt>
      <trkpt lat="44.01264" lon="2.05001">
        <ele>303.43</ele>
        <time>2020-06-06T11:53:30Z</time>
      </trkpt>
      <trkpt lat="44.01259" lon="2.04992">
        <ele>303.43</ele>
        <time>2020-06-06T11:53:36Z</time>
      </trkpt>
      <trkpt lat="44.01258" lon="2.04989">
        <ele>303.43</ele>
        <time>2020-06-06T11:53:38Z</time>
      </trkpt>
      <trkpt lat="44.01252" lon="2.04976">
        <ele>304.88</ele>
        <time>2020-06-06T11:53:46Z</time>
      </trkpt>
      <trkpt lat="44.0125" lon="2.04973">
        <ele>304.39</ele>
        <time>2020-06-06T11:53:48Z</time>
      </trkpt>
      <trkpt lat="44.01244" lon="2.04961">
        <ele>304.39</ele>
        <time>2020-06-06T11:53:56Z</time>
      </trkpt>
      <trkpt lat="44.01236" lon="2.04944">
        <ele>303.91</ele>
        <time>2020-06-06T11:54:07Z</time>
      </trkpt>
      <trkpt lat="44.01227" lon="2.04927">
        <ele>304.88</ele>
        <time>2020-06-06T11:54:17Z</time>
      </trkpt>
      <trkpt lat="44.01218" lon="2.04911">
        <ele>304.88</ele>
        <time>2020-06-06T11:54:28Z</time>
      </trkpt>
      <trkpt lat="44.01209" lon="2.04896">
        <ele>304.88</ele>
        <time>2020-06-06T11:54:39Z</time>
      </trkpt>
      <trkpt lat="44.01197" lon="2.04878">
        <ele>304.88</ele>
        <time>2020-06-06T11:54:52Z</time>
      </trkpt>
      <trkpt lat="44.01187" lon="2.04863">
        <ele>304.39</ele>
        <time>2020-06-06T11:55:03Z</time>
      </trkpt>
      <trkpt lat="44.0118" lon="2.04852">
        <ele>304.39</ele>
        <time>2020-06-06T11:55:12Z</time>
      </trkpt>
      <trkpt lat="44.01171" lon="2.04838">
        <ele>304.39</ele>
        <time>2020-06-06T11:55:22Z</time>
      </trkpt>
      <trkpt lat="44.01168" lon="2.04832">
        <ele>304.39</ele>
        <time>2020-06-06T11:55:26Z</time>
      </trkpt>
      <trkpt lat="44.01161" lon="2.04817">
        <ele>304.39</ele>
        <time>2020-06-06T11:55:36Z</time>
      </trkpt>
      <trkpt lat="44.01153" lon="2.04799">
        <ele>303.91</ele>
        <time>2020-06-06T11:55:47Z</time>
      </trkpt>
      <trkpt lat="44.01145" lon="2.04782">
        <ele>304.39</ele>
        <time>2020-06-06T11:55:57Z</time>
      </trkpt>
      <trkpt lat="44.01143" lon="2.04777">
        <ele>304.39</ele>
        <time>2020-06-06T11:56:00Z</time>
      </trkpt>
      <trkpt lat="44.0114" lon="2.04771">
        <ele>304.39</ele>
        <time>2020-06-06T11:56:04Z</time>
      </trkpt>
      <trkpt lat="44.01133" lon="2.04756">
        <ele>304.39</ele>
        <time>2020-06-06T11:56:14Z</time>
      </trkpt>
      <trkpt lat="44.01124" lon="2.04734">
        <ele>303.91</ele>
        <time>2020-06-06T11:56:27Z</time>
      </trkpt>
      <trkpt lat="44.01117" lon="2.04719">
        <ele>304.39</ele>
        <time>2020-06-06T11:56:37Z</time>
      </trkpt>
      <trkpt lat="44.01112" lon="2.04706">
        <ele>304.39</ele>
        <time>2020-06-06T11:56:46Z</time>
      </trkpt>
      <trkpt lat="44.01111" lon="2.04705">
        <ele>303.91</ele>
        <time>2020-06-06T11:56:57Z</time>
      </trkpt>
      <trkpt lat="44.01106" lon="2.04692">
        <ele>304.39</ele>
        <time>2020-06-06T11:57:04Z</time>
      </trkpt>
      <trkpt lat="44.01098" lon="2.04667">
        <ele>304.39</ele>
        <time>2020-06-06T11:57:17Z</time>
      </trkpt>
      <trkpt lat="44.01094" lon="2.04647">
        <ele>304.88</ele>
        <time>2020-06-06T11:57:27Z</time>
      </trkpt>
      <trkpt lat="44.0109" lon="2.0463">
        <ele>305.84</ele>
        <time>2020-06-06T11:57:36Z</time>
      </trkpt>
      <trkpt lat="44.01086" lon="2.04607">
        <ele>306.8</ele>
        <time>2020-06-06T11:57:47Z</time>
      </trkpt>
      <trkpt lat="44.01081" lon="2.04584">
        <ele>305.84</ele>
        <time>2020-06-06T11:57:59Z</time>
      </trkpt>
      <trkpt lat="44.01077" lon="2.04562">
        <ele>305.84</ele>
        <time>2020-06-06T11:58:11Z</time>
      </trkpt>
      <trkpt lat="44.01074" lon="2.04547">
        <ele>305.36</ele>
        <time>2020-06-06T11:58:21Z</time>
      </trkpt>
      <trkpt lat="44.01072" lon="2.04534">
        <ele>305.36</ele>
        <time>2020-06-06T11:58:29Z</time>
      </trkpt>
      <trkpt lat="44.0107" lon="2.04519">
        <ele>305.36</ele>
        <time>2020-06-06T11:58:38Z</time>
      </trkpt>
      <trkpt lat="44.01068" lon="2.04497">
        <ele>305.84</ele>
        <time>2020-06-06T11:58:50Z</time>
      </trkpt>
      <trkpt lat="44.01067" lon="2.04478">
        <ele>306.32</ele>
        <time>2020-06-06T11:59:00Z</time>
      </trkpt>
      <trkpt lat="44.01065" lon="2.04459">
        <ele>306.32</ele>
        <time>2020-06-06T11:59:10Z</time>
      </trkpt>
      <trkpt lat="44.01065" lon="2.04434">
        <ele>305.84</ele>
        <time>2020-06-06T11:59:23Z</time>
      </trkpt>
      <trkpt lat="44.01065" lon="2.0442">
        <ele>306.32</ele>
        <time>2020-06-06T11:59:32Z</time>
      </trkpt>
      <trkpt lat="44.01066" lon="2.04411">
        <ele>305.36</ele>
        <time>2020-06-06T11:59:39Z</time>
      </trkpt>
      <trkpt lat="44.01068" lon="2.04387">
        <ele>305.36</ele>
        <time>2020-06-06T11:59:51Z</time>
      </trkpt>
      <trkpt lat="44.01069" lon="2.04368">
        <ele>304.88</ele>
        <time>2020-06-06T12:00:01Z</time>
      </trkpt>
      <trkpt lat="44.01071" lon="2.04352">
        <ele>303.43</ele>
        <time>2020-06-06T12:00:09Z</time>
      </trkpt>
      <trkpt lat="44.01075" lon="2.04325">
        <ele>303.91</ele>
        <time>2020-06-06T12:00:24Z</time>
      </trkpt>
      <trkpt lat="44.01078" lon="2.04305">
        <ele>303.43</ele>
        <time>2020-06-06T12:00:35Z</time>
      </trkpt>
      <trkpt lat="44.01081" lon="2.04286">
        <ele>303.43</ele>
        <time>2020-06-06T12:00:45Z</time>
      </trkpt>
      <trkpt lat="44.01085" lon="2.04267">
        <ele>302.95</ele>
        <time>2020-06-06T12:00:56Z</time>
      </trkpt>
      <trkpt lat="44.01087" lon="2.04247">
        <ele>303.43</ele>
        <time>2020-06-06T12:01:06Z</time>
      </trkpt>
      <trkpt lat="44.01091" lon="2.0422">
        <ele>303.43</ele>
        <time>2020-06-06T12:01:20Z</time>
      </trkpt>
      <trkpt lat="44.01092" lon="2.04199">
        <ele>301.99</ele>
        <time>2020-06-06T12:01:30Z</time>
      </trkpt>
      <trkpt lat="44.0109" lon="2.04173">
        <ele>301.03</ele>
        <time>2020-06-06T12:01:43Z</time>
      </trkpt>
      <trkpt lat="44.01088" lon="2.04155">
        <ele>301.51</ele>
        <time>2020-06-06T12:01:53Z</time>
      </trkpt>
      <trkpt lat="44.01087" lon="2.04133">
        <ele>300.55</ele>
        <time>2020-06-06T12:02:04Z</time>
      </trkpt>
      <trkpt lat="44.01085" lon="2.04113">
        <ele>300.07</ele>
        <time>2020-06-06T12:02:15Z</time>
      </trkpt>
      <trkpt lat="44.01082" lon="2.04091">
        <ele>299.59</ele>
        <time>2020-06-06T12:02:26Z</time>
      </trkpt>
      <trkpt lat="44.01079" lon="2.04063">
        <ele>298.63</ele>
        <time>2020-06-06T12:02:40Z</time>
      </trkpt>
      <trkpt lat="44.01073" lon="2.04041">
        <ele>298.63</ele>
        <time>2020-06-06T12:02:52Z</time>
      </trkpt>
      <trkpt lat="44.01066" lon="2.04018">
        <ele>299.11</ele>
        <time>2020-06-06T12:03:04Z</time>
      </trkpt>
      <trkpt lat="44.01061" lon="2.03999">
        <ele>299.11</ele>
        <time>2020-06-06T12:03:14Z</time>
      </trkpt>
      <trkpt lat="44.01053" lon="2.03976">
        <ele>297.18</ele>
        <time>2020-06-06T12:03:26Z</time>
      </trkpt>
      <trkpt lat="44.01052" lon="2.03972">
        <ele>297.18</ele>
        <time>2020-06-06T12:03:28Z</time>
      </trkpt>
      <trkpt lat="44.01047" lon="2.03958">
        <ele>297.18</ele>
        <time>2020-06-06T12:03:36Z</time>
      </trkpt>
      <trkpt lat="44.01039" lon="2.03929">
        <ele>296.22</ele>
        <time>2020-06-06T12:03:52Z</time>
      </trkpt>
      <trkpt lat="44.01034" lon="2.03909">
        <ele>296.22</ele>
        <time>2020-06-06T12:04:03Z</time>
      </trkpt>
      <trkpt lat="44.0103" lon="2.0389">
        <ele>295.26</ele>
        <time>2020-06-06T12:04:14Z</time>
      </trkpt>
      <trkpt lat="44.01027" lon="2.0387">
        <ele>293.82</ele>
        <time>2020-06-06T12:04:25Z</time>
      </trkpt>
      <trkpt lat="44.01022" lon="2.03852">
        <ele>292.38</ele>
        <time>2020-06-06T12:04:35Z</time>
      </trkpt>
      <trkpt lat="44.01015" lon="2.03835">
        <ele>291.9</ele>
        <time>2020-06-06T12:04:45Z</time>
      </trkpt>
      <trkpt lat="44.01006" lon="2.03818">
        <ele>289.01</ele>
        <time>2020-06-06T12:04:56Z</time>
      </trkpt>
      <trkpt lat="44.00996" lon="2.03804">
        <ele>287.57</ele>
        <time>2020-06-06T12:05:06Z</time>
      </trkpt>
      <trkpt lat="44.00987" lon="2.03793">
        <ele>286.61</ele>
        <time>2020-06-06T12:05:16Z</time>
      </trkpt>
      <trkpt lat="44.00981" lon="2.03782">
        <ele>286.13</ele>
        <time>2020-06-06T12:05:24Z</time>
      </trkpt>
      <trkpt lat="44.00976" lon="2.03777">
        <ele>285.65</ele>
        <time>2020-06-06T12:05:28Z</time>
      </trkpt>
      <trkpt lat="44.00975" lon="2.03775">
        <ele>285.17</ele>
        <time>2020-06-06T12:05:30Z</time>
      </trkpt>
      <trkpt lat="44.00962" lon="2.03762">
        <ele>285.17</ele>
        <time>2020-06-06T12:05:41Z</time>
      </trkpt>
      <trkpt lat="44.00949" lon="2.03751">
        <ele>286.13</ele>
        <time>2020-06-06T12:05:50Z</time>
      </trkpt>
      <trkpt lat="44.00944" lon="2.03748">
        <ele>285.65</ele>
        <time>2020-06-06T12:05:54Z</time>
      </trkpt>
      <trkpt lat="44.00935" lon="2.03744">
        <ele>284.69</ele>
        <time>2020-06-06T12:06:02Z</time>
      </trkpt>
      <trkpt lat="44.00931" lon="2.03742">
        <ele>283.73</ele>
        <time>2020-06-06T12:06:05Z</time>
      </trkpt>
      <trkpt lat="44.00918" lon="2.0374">
        <ele>281.8</ele>
        <time>2020-06-06T12:06:15Z</time>
      </trkpt>
      <trkpt lat="44.00905" lon="2.03735">
        <ele>280.84</ele>
        <time>2020-06-06T12:06:25Z</time>
      </trkpt>
      <trkpt lat="44.00891" lon="2.03731">
        <ele>278.44</ele>
        <time>2020-06-06T12:06:36Z</time>
      </trkpt>
      <trkpt lat="44.00878" lon="2.03727">
        <ele>276.04</ele>
        <time>2020-06-06T12:06:45Z</time>
      </trkpt>
      <trkpt lat="44.00863" lon="2.03723">
        <ele>273.63</ele>
        <time>2020-06-06T12:06:55Z</time>
      </trkpt>
      <trkpt lat="44.00853" lon="2.03717">
        <ele>271.71</ele>
        <time>2020-06-06T12:07:03Z</time>
      </trkpt>
      <trkpt lat="44.00842" lon="2.0371">
        <ele>270.27</ele>
        <time>2020-06-06T12:07:12Z</time>
      </trkpt>
      <trkpt lat="44.00826" lon="2.037">
        <ele>268.35</ele>
        <time>2020-06-06T12:07:24Z</time>
      </trkpt>
      <trkpt lat="44.00811" lon="2.0369">
        <ele>264.98</ele>
        <time>2020-06-06T12:07:36Z</time>
      </trkpt>
      <trkpt lat="44.00797" lon="2.03682">
        <ele>264.5</ele>
        <time>2020-06-06T12:07:47Z</time>
      </trkpt>
      <trkpt lat="44.00782" lon="2.03671">
        <ele>265.46</ele>
        <time>2020-06-06T12:08:00Z</time>
      </trkpt>
      <trkpt lat="44.00771" lon="2.03663">
        <ele>264.02</ele>
        <time>2020-06-06T12:08:09Z</time>
      </trkpt>
      <trkpt lat="44.00763" lon="2.03653">
        <ele>264.02</ele>
        <time>2020-06-06T12:08:19Z</time>
      </trkpt>
      <trkpt lat="44.00762" lon="2.03649">
        <ele>263.54</ele>
        <time>2020-06-06T12:08:29Z</time>
      </trkpt>
      <trkpt lat="44.0076" lon="2.0364">
        <ele>262.58</ele>
        <time>2020-06-06T12:08:36Z</time>
      </trkpt>
      <trkpt lat="44.00759" lon="2.03639">
        <ele>262.58</ele>
        <time>2020-06-06T12:08:37Z</time>
      </trkpt>
      <trkpt lat="44.00759" lon="2.03633">
        <ele>262.1</ele>
        <time>2020-06-06T12:08:45Z</time>
      </trkpt>
      <trkpt lat="44.0076" lon="2.03633">
        <ele>262.58</ele>
        <time>2020-06-06T12:08:52Z</time>
      </trkpt>
      <trkpt lat="44.00764" lon="2.03639">
        <ele>263.54</ele>
        <time>2020-06-06T12:08:58Z</time>
      </trkpt>
      <trkpt lat="44.00765" lon="2.0364">
        <ele>264.5</ele>
        <time>2020-06-06T12:09:04Z</time>
      </trkpt>
      <trkpt lat="44.00764" lon="2.0364">
        <ele>264.5</ele>
        <time>2020-06-06T12:09:08Z</time>
      </trkpt>
      <trkpt lat="44.00761" lon="2.03635">
        <ele>263.54</ele>
        <time>2020-06-06T12:09:15Z</time>
      </trkpt>
      <trkpt lat="44.00758" lon="2.03624">
        <ele>263.54</ele>
        <time>2020-06-06T12:09:23Z</time>
      </trkpt>
      <trkpt lat="44.00758" lon="2.03623">
        <ele>262.58</ele>
        <time>2020-06-06T12:09:32Z</time>
      </trkpt>
      <trkpt lat="44.00757" lon="2.03619">
        <ele>261.62</ele>
        <time>2020-06-06T12:09:40Z</time>
      </trkpt>
      <trkpt lat="44.0076" lon="2.03608">
        <ele>260.65</ele>
        <time>2020-06-06T12:09:49Z</time>
      </trkpt>
      <trkpt lat="44.00759" lon="2.03607">
        <ele>261.14</ele>
        <time>2020-06-06T12:09:57Z</time>
      </trkpt>
      <trkpt lat="44.00764" lon="2.03596">
        <ele>260.17</ele>
        <time>2020-06-06T12:10:03Z</time>
      </trkpt>
      <trkpt lat="44.00772" lon="2.03577">
        <ele>257.77</ele>
        <time>2020-06-06T12:10:13Z</time>
      </trkpt>
      <trkpt lat="44.00778" lon="2.03556">
        <ele>255.37</ele>
        <time>2020-06-06T12:10:23Z</time>
      </trkpt>
      <trkpt lat="44.00782" lon="2.03541">
        <ele>254.41</ele>
        <time>2020-06-06T12:10:33Z</time>
      </trkpt>
      <trkpt lat="44.00782" lon="2.03539">
        <ele>252.48</ele>
        <time>2020-06-06T12:10:39Z</time>
      </trkpt>
      <trkpt lat="44.00787" lon="2.03523">
        <ele>250.08</ele>
        <time>2020-06-06T12:10:48Z</time>
      </trkpt>
      <trkpt lat="44.00791" lon="2.03504">
        <ele>247.68</ele>
        <time>2020-06-06T12:10:57Z</time>
      </trkpt>
      <trkpt lat="44.00798" lon="2.03479">
        <ele>245.75</ele>
        <time>2020-06-06T12:11:09Z</time>
      </trkpt>
      <trkpt lat="44.00804" lon="2.03458">
        <ele>245.27</ele>
        <time>2020-06-06T12:11:19Z</time>
      </trkpt>
      <trkpt lat="44.00805" lon="2.03432">
        <ele>243.83</ele>
        <time>2020-06-06T12:11:31Z</time>
      </trkpt>
      <trkpt lat="44.00798" lon="2.03413">
        <ele>242.87</ele>
        <time>2020-06-06T12:11:42Z</time>
      </trkpt>
      <trkpt lat="44.00795" lon="2.0341">
        <ele>242.39</ele>
        <time>2020-06-06T12:11:45Z</time>
      </trkpt>
      <trkpt lat="44.00789" lon="2.03407">
        <ele>241.91</ele>
        <time>2020-06-06T12:11:53Z</time>
      </trkpt>
      <trkpt lat="44.0079" lon="2.03405">
        <ele>241.91</ele>
        <time>2020-06-06T12:11:57Z</time>
      </trkpt>
      <trkpt lat="44.00802" lon="2.03404">
        <ele>241.43</ele>
        <time>2020-06-06T12:12:08Z</time>
      </trkpt>
      <trkpt lat="44.00802" lon="2.03404">
        <ele>241.91</ele>
        <time>2020-06-06T12:12:09Z</time>
      </trkpt>
      <trkpt lat="44.00804" lon="2.03403">
        <ele>241.91</ele>
        <time>2020-06-06T12:12:11Z</time>
      </trkpt>
      <trkpt lat="44.00812" lon="2.03409">
        <ele>241.43</ele>
        <time>2020-06-06T12:12:20Z</time>
      </trkpt>
      <trkpt lat="44.00813" lon="2.0341">
        <ele>241.91</ele>
        <time>2020-06-06T12:12:26Z</time>
      </trkpt>
      <trkpt lat="44.00815" lon="2.03405">
        <ele>242.39</ele>
        <time>2020-06-06T12:12:30Z</time>
      </trkpt>
      <trkpt lat="44.00817" lon="2.03386">
        <ele>241.91</ele>
        <time>2020-06-06T12:12:41Z</time>
      </trkpt>
      <trkpt lat="44.00817" lon="2.03365">
        <ele>241.91</ele>
        <time>2020-06-06T12:12:52Z</time>
      </trkpt>
      <trkpt lat="44.00817" lon="2.0336">
        <ele>241.91</ele>
        <time>2020-06-06T12:12:55Z</time>
      </trkpt>
      <trkpt lat="44.00817" lon="2.03346">
        <ele>243.35</ele>
        <time>2020-06-06T12:13:03Z</time>
      </trkpt>
      <trkpt lat="44.00816" lon="2.03332">
        <ele>244.79</ele>
        <time>2020-06-06T12:13:11Z</time>
      </trkpt>
      <trkpt lat="44.00815" lon="2.03323">
        <ele>245.75</ele>
        <time>2020-06-06T12:13:17Z</time>
      </trkpt>
      <trkpt lat="44.00811" lon="2.03303">
        <ele>247.2</ele>
        <time>2020-06-06T12:13:29Z</time>
      </trkpt>
      <trkpt lat="44.00806" lon="2.03291">
        <ele>247.68</ele>
        <time>2020-06-06T12:13:38Z</time>
      </trkpt>
      <trkpt lat="44.00803" lon="2.03283">
        <ele>249.12</ele>
        <time>2020-06-06T12:13:46Z</time>
      </trkpt>
      <trkpt lat="44.00802" lon="2.03281">
        <ele>249.6</ele>
        <time>2020-06-06T12:13:56Z</time>
      </trkpt>
      <trkpt lat="44.008" lon="2.03278">
        <ele>249.12</ele>
        <time>2020-06-06T12:14:04Z</time>
      </trkpt>
      <trkpt lat="44.008" lon="2.03278">
        <ele>249.6</ele>
        <time>2020-06-06T12:14:11Z</time>
      </trkpt>
      <trkpt lat="44.008" lon="2.03277">
        <ele>249.6</ele>
        <time>2020-06-06T12:14:17Z</time>
      </trkpt>
      <trkpt lat="44.008" lon="2.03275">
        <ele>249.6</ele>
        <time>2020-06-06T12:14:21Z</time>
      </trkpt>
      <trkpt lat="44.008" lon="2.03266">
        <ele>250.56</ele>
        <time>2020-06-06T12:14:28Z</time>
      </trkpt>
      <trkpt lat="44.00807" lon="2.03253">
        <ele>250.56</ele>
        <time>2020-06-06T12:14:38Z</time>
      </trkpt>
      <trkpt lat="44.00809" lon="2.0325">
        <ele>250.56</ele>
        <time>2020-06-06T12:14:41Z</time>
      </trkpt>
      <trkpt lat="44.00813" lon="2.03245">
        <ele>251.04</ele>
        <time>2020-06-06T12:14:47Z</time>
      </trkpt>
      <trkpt lat="44.00811" lon="2.03233">
        <ele>251.04</ele>
        <time>2020-06-06T12:14:55Z</time>
      </trkpt>
      <trkpt lat="44.00804" lon="2.0322">
        <ele>249.12</ele>
        <time>2020-06-06T12:15:05Z</time>
      </trkpt>
      <trkpt lat="44.00792" lon="2.03211">
        <ele>247.2</ele>
        <time>2020-06-06T12:15:16Z</time>
      </trkpt>
      <trkpt lat="44.00782" lon="2.03204">
        <ele>243.35</ele>
        <time>2020-06-06T12:15:26Z</time>
      </trkpt>
      <trkpt lat="44.00772" lon="2.03197">
        <ele>241.91</ele>
        <time>2020-06-06T12:15:36Z</time>
      </trkpt>
      <trkpt lat="44.00761" lon="2.0319">
        <ele>240.47</ele>
        <time>2020-06-06T12:15:45Z</time>
      </trkpt>
      <trkpt lat="44.00754" lon="2.03185">
        <ele>239.02</ele>
        <time>2020-06-06T12:15:52Z</time>
      </trkpt>
      <trkpt lat="44.00747" lon="2.0318">
        <ele>238.06</ele>
        <time>2020-06-06T12:15:59Z</time>
      </trkpt>
      <trkpt lat="44.00729" lon="2.03169">
        <ele>237.1</ele>
        <time>2020-06-06T12:16:13Z</time>
      </trkpt>
      <trkpt lat="44.00715" lon="2.0316">
        <ele>236.14</ele>
        <time>2020-06-06T12:16:24Z</time>
      </trkpt>
      <trkpt lat="44.00702" lon="2.03152">
        <ele>236.14</ele>
        <time>2020-06-06T12:16:35Z</time>
      </trkpt>
      <trkpt lat="44.00696" lon="2.0315">
        <ele>237.1</ele>
        <time>2020-06-06T12:16:42Z</time>
      </trkpt>
      <trkpt lat="44.00687" lon="2.03142">
        <ele>237.1</ele>
        <time>2020-06-06T12:16:50Z</time>
      </trkpt>
      <trkpt lat="44.00676" lon="2.03133">
        <ele>237.58</ele>
        <time>2020-06-06T12:17:00Z</time>
      </trkpt>
      <trkpt lat="44.00662" lon="2.03122">
        <ele>237.1</ele>
        <time>2020-06-06T12:17:11Z</time>
      </trkpt>
      <trkpt lat="44.00652" lon="2.03116">
        <ele>237.1</ele>
        <time>2020-06-06T12:17:20Z</time>
      </trkpt>
      <trkpt lat="44.00637" lon="2.03106">
        <ele>238.54</ele>
        <time>2020-06-06T12:17:31Z</time>
      </trkpt>
      <trkpt lat="44.00622" lon="2.03094">
        <ele>238.54</ele>
        <time>2020-06-06T12:17:43Z</time>
      </trkpt>
      <trkpt lat="44.00606" lon="2.03083">
        <ele>238.54</ele>
        <time>2020-06-06T12:17:55Z</time>
      </trkpt>
      <trkpt lat="44.00591" lon="2.03073">
        <ele>238.54</ele>
        <time>2020-06-06T12:18:06Z</time>
      </trkpt>
      <trkpt lat="44.00579" lon="2.03064">
        <ele>238.54</ele>
        <time>2020-06-06T12:18:16Z</time>
      </trkpt>
      <trkpt lat="44.0057" lon="2.03058">
        <ele>239.51</ele>
        <time>2020-06-06T12:18:24Z</time>
      </trkpt>
      <trkpt lat="44.00557" lon="2.0305">
        <ele>239.99</ele>
        <time>2020-06-06T12:18:35Z</time>
      </trkpt>
      <trkpt lat="44.00546" lon="2.03044">
        <ele>240.95</ele>
        <time>2020-06-06T12:18:45Z</time>
      </trkpt>
      <trkpt lat="44.00536" lon="2.03038">
        <ele>242.87</ele>
        <time>2020-06-06T12:18:54Z</time>
      </trkpt>
      <trkpt lat="44.00526" lon="2.03029">
        <ele>244.31</ele>
        <time>2020-06-06T12:19:04Z</time>
      </trkpt>
      <trkpt lat="44.00521" lon="2.03018">
        <ele>245.75</ele>
        <time>2020-06-06T12:19:12Z</time>
      </trkpt>
      <trkpt lat="44.0052" lon="2.03015">
        <ele>245.75</ele>
        <time>2020-06-06T12:19:15Z</time>
      </trkpt>
      <trkpt lat="44.0052" lon="2.03001">
        <ele>248.16</ele>
        <time>2020-06-06T12:19:24Z</time>
      </trkpt>
      <trkpt lat="44.00521" lon="2.02992">
        <ele>250.08</ele>
        <time>2020-06-06T12:19:31Z</time>
      </trkpt>
      <trkpt lat="44.00523" lon="2.02978">
        <ele>252</ele>
        <time>2020-06-06T12:19:39Z</time>
      </trkpt>
      <trkpt lat="44.00525" lon="2.02963">
        <ele>253.93</ele>
        <time>2020-06-06T12:19:49Z</time>
      </trkpt>
      <trkpt lat="44.00526" lon="2.02951">
        <ele>254.89</ele>
        <time>2020-06-06T12:19:56Z</time>
      </trkpt>
      <trkpt lat="44.00529" lon="2.02934">
        <ele>256.33</ele>
        <time>2020-06-06T12:20:06Z</time>
      </trkpt>
      <trkpt lat="44.00531" lon="2.02924">
        <ele>256.33</ele>
        <time>2020-06-06T12:20:13Z</time>
      </trkpt>
      <trkpt lat="44.00532" lon="2.02909">
        <ele>257.29</ele>
        <time>2020-06-06T12:20:22Z</time>
      </trkpt>
      <trkpt lat="44.00531" lon="2.0289">
        <ele>259.21</ele>
        <time>2020-06-06T12:20:33Z</time>
      </trkpt>
      <trkpt lat="44.0053" lon="2.02885">
        <ele>259.21</ele>
        <time>2020-06-06T12:20:36Z</time>
      </trkpt>
      <trkpt lat="44.00528" lon="2.02884">
        <ele>259.21</ele>
        <time>2020-06-06T12:20:39Z</time>
      </trkpt>
      <trkpt lat="44.00526" lon="2.02883">
        <ele>259.69</ele>
        <time>2020-06-06T12:20:41Z</time>
      </trkpt>
      <trkpt lat="44.0052" lon="2.02881">
        <ele>260.17</ele>
        <time>2020-06-06T12:20:47Z</time>
      </trkpt>
      <trkpt lat="44.00511" lon="2.02883">
        <ele>261.14</ele>
        <time>2020-06-06T12:20:56Z</time>
      </trkpt>
      <trkpt lat="44.00505" lon="2.02886">
        <ele>262.1</ele>
        <time>2020-06-06T12:21:02Z</time>
      </trkpt>
      <trkpt lat="44.00496" lon="2.0289">
        <ele>263.06</ele>
        <time>2020-06-06T12:21:11Z</time>
      </trkpt>
      <trkpt lat="44.00488" lon="2.02893">
        <ele>264.02</ele>
        <time>2020-06-06T12:21:19Z</time>
      </trkpt>
      <trkpt lat="44.00486" lon="2.02893">
        <ele>264.02</ele>
        <time>2020-06-06T12:21:26Z</time>
      </trkpt>
      <trkpt lat="44.00486" lon="2.02893">
        <ele>264.02</ele>
        <time>2020-06-06T12:21:28Z</time>
      </trkpt>
      <trkpt lat="44.0047" lon="2.02902">
        <ele>266.9</ele>
        <time>2020-06-06T12:21:40Z</time>
      </trkpt>
      <trkpt lat="44.00456" lon="2.02914">
        <ele>269.79</ele>
        <time>2020-06-06T12:21:52Z</time>
      </trkpt>
      <trkpt lat="44.0045" lon="2.02919">
        <ele>270.75</ele>
        <time>2020-06-06T12:21:59Z</time>
      </trkpt>
      <trkpt lat="44.00444" lon="2.02924">
        <ele>272.19</ele>
        <time>2020-06-06T12:22:06Z</time>
      </trkpt>
      <trkpt lat="44.00436" lon="2.02931">
        <ele>273.15</ele>
        <time>2020-06-06T12:22:14Z</time>
      </trkpt>
      <trkpt lat="44.0043" lon="2.02937">
        <ele>275.07</ele>
        <time>2020-06-06T12:22:22Z</time>
      </trkpt>
      <trkpt lat="44.00422" lon="2.02947">
        <ele>277.96</ele>
        <time>2020-06-06T12:22:31Z</time>
      </trkpt>
      <trkpt lat="44.00411" lon="2.02956">
        <ele>278.92</ele>
        <time>2020-06-06T12:22:41Z</time>
      </trkpt>
      <trkpt lat="44.00398" lon="2.02965">
        <ele>279.4</ele>
        <time>2020-06-06T12:22:52Z</time>
      </trkpt>
      <trkpt lat="44.00389" lon="2.02972">
        <ele>280.36</ele>
        <time>2020-06-06T12:23:00Z</time>
      </trkpt>
      <trkpt lat="44.00377" lon="2.0298">
        <ele>281.8</ele>
        <time>2020-06-06T12:23:10Z</time>
      </trkpt>
      <trkpt lat="44.00367" lon="2.02987">
        <ele>282.28</ele>
        <time>2020-06-06T12:23:19Z</time>
      </trkpt>
      <trkpt lat="44.00356" lon="2.02995">
        <ele>282.28</ele>
        <time>2020-06-06T12:23:28Z</time>
      </trkpt>
      <trkpt lat="44.00348" lon="2.03001">
        <ele>283.25</ele>
        <time>2020-06-06T12:23:36Z</time>
      </trkpt>
      <trkpt lat="44.00338" lon="2.03008">
        <ele>284.21</ele>
        <time>2020-06-06T12:23:45Z</time>
      </trkpt>
      <trkpt lat="44.00327" lon="2.03015">
        <ele>284.69</ele>
        <time>2020-06-06T12:23:54Z</time>
      </trkpt>
      <trkpt lat="44.00316" lon="2.03024">
        <ele>284.69</ele>
        <time>2020-06-06T12:24:04Z</time>
      </trkpt>
      <trkpt lat="44.00308" lon="2.0303">
        <ele>285.17</ele>
        <time>2020-06-06T12:24:13Z</time>
      </trkpt>
      <trkpt lat="44.00309" lon="2.0303">
        <ele>283.73</ele>
        <time>2020-06-06T12:24:21Z</time>
      </trkpt>
      <trkpt lat="44.00308" lon="2.03029">
        <ele>282.77</ele>
        <time>2020-06-06T12:24:27Z</time>
      </trkpt>
      <trkpt lat="44.003" lon="2.03029">
        <ele>281.8</ele>
        <time>2020-06-06T12:24:32Z</time>
      </trkpt>
      <trkpt lat="44.00282" lon="2.03032">
        <ele>283.73</ele>
        <time>2020-06-06T12:24:44Z</time>
      </trkpt>
      <trkpt lat="44.00266" lon="2.03032">
        <ele>284.21</ele>
        <time>2020-06-06T12:24:55Z</time>
      </trkpt>
      <trkpt lat="44.00263" lon="2.03031">
        <ele>285.17</ele>
        <time>2020-06-06T12:24:58Z</time>
      </trkpt>
      <trkpt lat="44.00259" lon="2.03025">
        <ele>286.13</ele>
        <time>2020-06-06T12:25:02Z</time>
      </trkpt>
      <trkpt lat="44.00249" lon="2.03002">
        <ele>284.21</ele>
        <time>2020-06-06T12:25:14Z</time>
      </trkpt>
      <trkpt lat="44.00247" lon="2.02993">
        <ele>283.25</ele>
        <time>2020-06-06T12:25:21Z</time>
      </trkpt>
      <trkpt lat="44.00248" lon="2.02986">
        <ele>283.73</ele>
        <time>2020-06-06T12:25:25Z</time>
      </trkpt>
      <trkpt lat="44.00245" lon="2.02965">
        <ele>284.69</ele>
        <time>2020-06-06T12:25:37Z</time>
      </trkpt>
      <trkpt lat="44.00241" lon="2.02946">
        <ele>285.65</ele>
        <time>2020-06-06T12:25:49Z</time>
      </trkpt>
      <trkpt lat="44.00237" lon="2.02932">
        <ele>286.13</ele>
        <time>2020-06-06T12:25:58Z</time>
      </trkpt>
      <trkpt lat="44.00237" lon="2.0293">
        <ele>285.65</ele>
        <time>2020-06-06T12:26:00Z</time>
      </trkpt>
      <trkpt lat="44.00238" lon="2.02924">
        <ele>286.13</ele>
        <time>2020-06-06T12:26:04Z</time>
      </trkpt>
      <trkpt lat="44.00236" lon="2.02905">
        <ele>289.01</ele>
        <time>2020-06-06T12:26:15Z</time>
      </trkpt>
      <trkpt lat="44.00235" lon="2.02888">
        <ele>290.94</ele>
        <time>2020-06-06T12:26:26Z</time>
      </trkpt>
      <trkpt lat="44.00235" lon="2.0288">
        <ele>290.94</ele>
        <time>2020-06-06T12:26:31Z</time>
      </trkpt>
      <trkpt lat="44.00237" lon="2.0287">
        <ele>291.42</ele>
        <time>2020-06-06T12:26:37Z</time>
      </trkpt>
      <trkpt lat="44.0024" lon="2.02857">
        <ele>290.94</ele>
        <time>2020-06-06T12:26:45Z</time>
      </trkpt>
      <trkpt lat="44.00243" lon="2.02847">
        <ele>289.49</ele>
        <time>2020-06-06T12:26:50Z</time>
      </trkpt>
      <trkpt lat="44.00252" lon="2.02837">
        <ele>289.49</ele>
        <time>2020-06-06T12:27:00Z</time>
      </trkpt>
      <trkpt lat="44.00253" lon="2.0283">
        <ele>289.49</ele>
        <time>2020-06-06T12:27:04Z</time>
      </trkpt>
      <trkpt lat="44.00254" lon="2.02817">
        <ele>288.53</ele>
        <time>2020-06-06T12:27:13Z</time>
      </trkpt>
      <trkpt lat="44.00255" lon="2.02816">
        <ele>288.53</ele>
        <time>2020-06-06T12:27:14Z</time>
      </trkpt>
      <trkpt lat="44.00258" lon="2.02806">
        <ele>289.49</ele>
        <time>2020-06-06T12:27:20Z</time>
      </trkpt>
      <trkpt lat="44.00259" lon="2.02802">
        <ele>289.97</ele>
        <time>2020-06-06T12:27:26Z</time>
      </trkpt>
      <trkpt lat="44.00259" lon="2.02792">
        <ele>289.97</ele>
        <time>2020-06-06T12:27:32Z</time>
      </trkpt>
      <trkpt lat="44.00258" lon="2.02774">
        <ele>289.01</ele>
        <time>2020-06-06T12:27:41Z</time>
      </trkpt>
      <trkpt lat="44.00256" lon="2.02755">
        <ele>287.57</ele>
        <time>2020-06-06T12:27:51Z</time>
      </trkpt>
      <trkpt lat="44.00251" lon="2.02738">
        <ele>286.61</ele>
        <time>2020-06-06T12:28:00Z</time>
      </trkpt>
      <trkpt lat="44.00241" lon="2.02724">
        <ele>287.09</ele>
        <time>2020-06-06T12:28:10Z</time>
      </trkpt>
      <trkpt lat="44.00231" lon="2.0271">
        <ele>288.05</ele>
        <time>2020-06-06T12:28:20Z</time>
      </trkpt>
      <trkpt lat="44.00219" lon="2.02695">
        <ele>287.09</ele>
        <time>2020-06-06T12:28:31Z</time>
      </trkpt>
      <trkpt lat="44.00206" lon="2.02688">
        <ele>286.13</ele>
        <time>2020-06-06T12:28:41Z</time>
      </trkpt>
      <trkpt lat="44.00194" lon="2.02688">
        <ele>281.8</ele>
        <time>2020-06-06T12:28:50Z</time>
      </trkpt>
      <trkpt lat="44.00183" lon="2.02694">
        <ele>279.4</ele>
        <time>2020-06-06T12:29:00Z</time>
      </trkpt>
      <trkpt lat="44.00185" lon="2.02699">
        <ele>277.48</ele>
        <time>2020-06-06T12:29:07Z</time>
      </trkpt>
      <trkpt lat="44.00184" lon="2.02697">
        <ele>277.48</ele>
        <time>2020-06-06T12:29:14Z</time>
      </trkpt>
      <trkpt lat="44.00172" lon="2.02701">
        <ele>277.48</ele>
        <time>2020-06-06T12:29:23Z</time>
      </trkpt>
      <trkpt lat="44.00161" lon="2.02708">
        <ele>275.56</ele>
        <time>2020-06-06T12:29:31Z</time>
      </trkpt>
      <trkpt lat="44.00148" lon="2.02718">
        <ele>273.63</ele>
        <time>2020-06-06T12:29:41Z</time>
      </trkpt>
      <trkpt lat="44.00135" lon="2.02732">
        <ele>270.75</ele>
        <time>2020-06-06T12:29:52Z</time>
      </trkpt>
      <trkpt lat="44.00121" lon="2.02745">
        <ele>269.31</ele>
        <time>2020-06-06T12:30:03Z</time>
      </trkpt>
      <trkpt lat="44.00111" lon="2.02756">
        <ele>268.35</ele>
        <time>2020-06-06T12:30:11Z</time>
      </trkpt>
      <trkpt lat="44.00099" lon="2.02767">
        <ele>268.35</ele>
        <time>2020-06-06T12:30:21Z</time>
      </trkpt>
      <trkpt lat="44.00079" lon="2.02776">
        <ele>266.42</ele>
        <time>2020-06-06T12:30:34Z</time>
      </trkpt>
      <trkpt lat="44.00062" lon="2.02784">
        <ele>264.02</ele>
        <time>2020-06-06T12:30:46Z</time>
      </trkpt>
      <trkpt lat="44.00048" lon="2.02791">
        <ele>262.1</ele>
        <time>2020-06-06T12:30:56Z</time>
      </trkpt>
      <trkpt lat="44.00034" lon="2.02798">
        <ele>261.62</ele>
        <time>2020-06-06T12:31:07Z</time>
      </trkpt>
      <trkpt lat="44.0002" lon="2.02804">
        <ele>262.1</ele>
        <time>2020-06-06T12:31:18Z</time>
      </trkpt>
      <trkpt lat="44.00008" lon="2.02809">
        <ele>261.14</ele>
        <time>2020-06-06T12:31:27Z</time>
      </trkpt>
      <trkpt lat="43.99996" lon="2.02814">
        <ele>259.69</ele>
        <time>2020-06-06T12:31:37Z</time>
      </trkpt>
      <trkpt lat="43.99985" lon="2.02816">
        <ele>259.21</ele>
        <time>2020-06-06T12:31:45Z</time>
      </trkpt>
      <trkpt lat="43.99967" lon="2.02818">
        <ele>259.69</ele>
        <time>2020-06-06T12:31:57Z</time>
      </trkpt>
      <trkpt lat="43.99955" lon="2.02817">
        <ele>259.69</ele>
        <time>2020-06-06T12:32:07Z</time>
      </trkpt>
      <trkpt lat="43.99953" lon="2.02816">
        <ele>259.69</ele>
        <time>2020-06-06T12:32:09Z</time>
      </trkpt>
      <trkpt lat="43.99941" lon="2.02811">
        <ele>260.17</ele>
        <time>2020-06-06T12:32:19Z</time>
      </trkpt>
      <trkpt lat="43.9994" lon="2.0281">
        <ele>260.17</ele>
        <time>2020-06-06T12:32:20Z</time>
      </trkpt>
      <trkpt lat="43.99937" lon="2.02806">
        <ele>260.65</ele>
        <time>2020-06-06T12:32:23Z</time>
      </trkpt>
      <trkpt lat="43.99934" lon="2.02802">
        <ele>260.65</ele>
        <time>2020-06-06T12:32:27Z</time>
      </trkpt>
      <trkpt lat="43.99922" lon="2.02788">
        <ele>262.1</ele>
        <time>2020-06-06T12:32:38Z</time>
      </trkpt>
      <trkpt lat="43.99911" lon="2.02768">
        <ele>263.06</ele>
        <time>2020-06-06T12:32:51Z</time>
      </trkpt>
      <trkpt lat="43.99907" lon="2.02761">
        <ele>263.54</ele>
        <time>2020-06-06T12:32:55Z</time>
      </trkpt>
      <trkpt lat="43.99901" lon="2.02745">
        <ele>264.02</ele>
        <time>2020-06-06T12:33:04Z</time>
      </trkpt>
      <trkpt lat="43.99898" lon="2.0272">
        <ele>265.46</ele>
        <time>2020-06-06T12:33:17Z</time>
      </trkpt>
      <trkpt lat="43.99902" lon="2.027">
        <ele>267.86</ele>
        <time>2020-06-06T12:33:28Z</time>
      </trkpt>
      <trkpt lat="43.99907" lon="2.02686">
        <ele>270.27</ele>
        <time>2020-06-06T12:33:38Z</time>
      </trkpt>
      <trkpt lat="43.99912" lon="2.02672">
        <ele>272.19</ele>
        <time>2020-06-06T12:33:47Z</time>
      </trkpt>
      <trkpt lat="43.99918" lon="2.02661">
        <ele>275.07</ele>
        <time>2020-06-06T12:33:56Z</time>
      </trkpt>
      <trkpt lat="43.99926" lon="2.02645">
        <ele>277</ele>
        <time>2020-06-06T12:34:07Z</time>
      </trkpt>
      <trkpt lat="43.99934" lon="2.02628">
        <ele>278.44</ele>
        <time>2020-06-06T12:34:18Z</time>
      </trkpt>
      <trkpt lat="43.99941" lon="2.02621">
        <ele>278.44</ele>
        <time>2020-06-06T12:34:24Z</time>
      </trkpt>
      <trkpt lat="43.99951" lon="2.02604">
        <ele>281.8</ele>
        <time>2020-06-06T12:34:35Z</time>
      </trkpt>
      <trkpt lat="43.99958" lon="2.02587">
        <ele>282.28</ele>
        <time>2020-06-06T12:34:46Z</time>
      </trkpt>
      <trkpt lat="43.99962" lon="2.02585">
        <ele>280.84</ele>
        <time>2020-06-06T12:34:52Z</time>
      </trkpt>
      <trkpt lat="43.99962" lon="2.02584">
        <ele>280.84</ele>
        <time>2020-06-06T12:34:53Z</time>
      </trkpt>
      <trkpt lat="43.99962" lon="2.02577">
        <ele>280.36</ele>
        <time>2020-06-06T12:34:57Z</time>
      </trkpt>
      <trkpt lat="43.99968" lon="2.02563">
        <ele>280.84</ele>
        <time>2020-06-06T12:35:07Z</time>
      </trkpt>
      <trkpt lat="43.9997" lon="2.02563">
        <ele>280.84</ele>
        <time>2020-06-06T12:35:11Z</time>
      </trkpt>
      <trkpt lat="43.99972" lon="2.02556">
        <ele>281.32</ele>
        <time>2020-06-06T12:35:15Z</time>
      </trkpt>
      <trkpt lat="43.99978" lon="2.02535">
        <ele>285.17</ele>
        <time>2020-06-06T12:35:27Z</time>
      </trkpt>
      <trkpt lat="43.99978" lon="2.02522">
        <ele>287.57</ele>
        <time>2020-06-06T12:35:36Z</time>
      </trkpt>
      <trkpt lat="43.99978" lon="2.02505">
        <ele>289.01</ele>
        <time>2020-06-06T12:35:45Z</time>
      </trkpt>
      <trkpt lat="43.99973" lon="2.02483">
        <ele>289.01</ele>
        <time>2020-06-06T12:35:57Z</time>
      </trkpt>
      <trkpt lat="43.99968" lon="2.02472">
        <ele>288.05</ele>
        <time>2020-06-06T12:36:06Z</time>
      </trkpt>
      <trkpt lat="43.99961" lon="2.02455">
        <ele>289.01</ele>
        <time>2020-06-06T12:36:17Z</time>
      </trkpt>
      <trkpt lat="43.9996" lon="2.02453">
        <ele>289.01</ele>
        <time>2020-06-06T12:36:19Z</time>
      </trkpt>
      <trkpt lat="43.99957" lon="2.02447">
        <ele>289.97</ele>
        <time>2020-06-06T12:36:23Z</time>
      </trkpt>
      <trkpt lat="43.99948" lon="2.02428">
        <ele>290.46</ele>
        <time>2020-06-06T12:36:35Z</time>
      </trkpt>
      <trkpt lat="43.99941" lon="2.02413">
        <ele>289.01</ele>
        <time>2020-06-06T12:36:43Z</time>
      </trkpt>
      <trkpt lat="43.99932" lon="2.02394">
        <ele>288.53</ele>
        <time>2020-06-06T12:36:55Z</time>
      </trkpt>
      <trkpt lat="43.99924" lon="2.02375">
        <ele>287.09</ele>
        <time>2020-06-06T12:37:06Z</time>
      </trkpt>
      <trkpt lat="43.99923" lon="2.02371">
        <ele>286.61</ele>
        <time>2020-06-06T12:37:10Z</time>
      </trkpt>
      <trkpt lat="43.99925" lon="2.02369">
        <ele>286.61</ele>
        <time>2020-06-06T12:37:16Z</time>
      </trkpt>
      <trkpt lat="43.99924" lon="2.02367">
        <ele>286.61</ele>
        <time>2020-06-06T12:37:32Z</time>
      </trkpt>
      <trkpt lat="43.99925" lon="2.02366">
        <ele>286.13</ele>
        <time>2020-06-06T12:37:36Z</time>
      </trkpt>
      <trkpt lat="43.9992" lon="2.02364">
        <ele>286.13</ele>
        <time>2020-06-06T12:37:40Z</time>
      </trkpt>
      <trkpt lat="43.99908" lon="2.02342">
        <ele>286.61</ele>
        <time>2020-06-06T12:37:53Z</time>
      </trkpt>
      <trkpt lat="43.99896" lon="2.02321">
        <ele>284.21</ele>
        <time>2020-06-06T12:38:05Z</time>
      </trkpt>
      <trkpt lat="43.99887" lon="2.02301">
        <ele>284.69</ele>
        <time>2020-06-06T12:38:16Z</time>
      </trkpt>
      <trkpt lat="43.99879" lon="2.02286">
        <ele>284.69</ele>
        <time>2020-06-06T12:38:25Z</time>
      </trkpt>
      <trkpt lat="43.99872" lon="2.0227">
        <ele>284.69</ele>
        <time>2020-06-06T12:38:34Z</time>
      </trkpt>
      <trkpt lat="43.99862" lon="2.02251">
        <ele>285.65</ele>
        <time>2020-06-06T12:38:45Z</time>
      </trkpt>
      <trkpt lat="43.99854" lon="2.02236">
        <ele>285.65</ele>
        <time>2020-06-06T12:38:54Z</time>
      </trkpt>
      <trkpt lat="43.99845" lon="2.02217">
        <ele>285.17</ele>
        <time>2020-06-06T12:39:05Z</time>
      </trkpt>
      <trkpt lat="43.99837" lon="2.022">
        <ele>283.73</ele>
        <time>2020-06-06T12:39:15Z</time>
      </trkpt>
      <trkpt lat="43.99832" lon="2.02186">
        <ele>282.28</ele>
        <time>2020-06-06T12:39:23Z</time>
      </trkpt>
      <trkpt lat="43.99824" lon="2.02163">
        <ele>281.8</ele>
        <time>2020-06-06T12:39:36Z</time>
      </trkpt>
      <trkpt lat="43.99818" lon="2.02145">
        <ele>283.25</ele>
        <time>2020-06-06T12:39:45Z</time>
      </trkpt>
      <trkpt lat="43.9981" lon="2.02121">
        <ele>281.8</ele>
        <time>2020-06-06T12:39:58Z</time>
      </trkpt>
      <trkpt lat="43.99802" lon="2.02094">
        <ele>282.28</ele>
        <time>2020-06-06T12:40:12Z</time>
      </trkpt>
      <trkpt lat="43.99795" lon="2.02074">
        <ele>281.32</ele>
        <time>2020-06-06T12:40:23Z</time>
      </trkpt>
      <trkpt lat="43.99787" lon="2.02049">
        <ele>280.84</ele>
        <time>2020-06-06T12:40:37Z</time>
      </trkpt>
      <trkpt lat="43.99781" lon="2.02033">
        <ele>279.88</ele>
        <time>2020-06-06T12:40:46Z</time>
      </trkpt>
      <trkpt lat="43.99778" lon="2.02026">
        <ele>280.36</ele>
        <time>2020-06-06T12:40:50Z</time>
      </trkpt>
      <trkpt lat="43.9977" lon="2.01997">
        <ele>278.92</ele>
        <time>2020-06-06T12:41:05Z</time>
      </trkpt>
      <trkpt lat="43.99761" lon="2.01979">
        <ele>278.44</ele>
        <time>2020-06-06T12:41:16Z</time>
      </trkpt>
      <trkpt lat="43.99749" lon="2.01956">
        <ele>277.48</ele>
        <time>2020-06-06T12:41:31Z</time>
      </trkpt>
      <trkpt lat="43.99737" lon="2.0194">
        <ele>277</ele>
        <time>2020-06-06T12:41:43Z</time>
      </trkpt>
      <trkpt lat="43.99728" lon="2.01929">
        <ele>277</ele>
        <time>2020-06-06T12:41:52Z</time>
      </trkpt>
      <trkpt lat="43.99718" lon="2.01919">
        <ele>277</ele>
        <time>2020-06-06T12:42:00Z</time>
      </trkpt>
      <trkpt lat="43.99701" lon="2.01898">
        <ele>277.96</ele>
        <time>2020-06-06T12:42:16Z</time>
      </trkpt>
      <trkpt lat="43.99687" lon="2.01881">
        <ele>278.44</ele>
        <time>2020-06-06T12:42:29Z</time>
      </trkpt>
      <trkpt lat="43.99672" lon="2.01863">
        <ele>277.48</ele>
        <time>2020-06-06T12:42:43Z</time>
      </trkpt>
      <trkpt lat="43.99664" lon="2.01855">
        <ele>277.96</ele>
        <time>2020-06-06T12:42:50Z</time>
      </trkpt>
      <trkpt lat="43.99652" lon="2.0184">
        <ele>277.96</ele>
        <time>2020-06-06T12:43:02Z</time>
      </trkpt>
      <trkpt lat="43.99641" lon="2.01826">
        <ele>278.44</ele>
        <time>2020-06-06T12:43:13Z</time>
      </trkpt>
      <trkpt lat="43.99631" lon="2.01815">
        <ele>278.44</ele>
        <time>2020-06-06T12:43:22Z</time>
      </trkpt>
      <trkpt lat="43.99619" lon="2.01802">
        <ele>277.48</ele>
        <time>2020-06-06T12:43:33Z</time>
      </trkpt>
      <trkpt lat="43.99611" lon="2.0179">
        <ele>277.96</ele>
        <time>2020-06-06T12:43:42Z</time>
      </trkpt>
      <trkpt lat="43.99608" lon="2.01785">
        <ele>278.44</ele>
        <time>2020-06-06T12:43:45Z</time>
      </trkpt>
      <trkpt lat="43.99603" lon="2.01777">
        <ele>278.92</ele>
        <time>2020-06-06T12:43:51Z</time>
      </trkpt>
      <trkpt lat="43.99598" lon="2.01758">
        <ele>278.92</ele>
        <time>2020-06-06T12:44:01Z</time>
      </trkpt>
      <trkpt lat="43.99597" lon="2.01751">
        <ele>278.92</ele>
        <time>2020-06-06T12:44:05Z</time>
      </trkpt>
      <trkpt lat="43.996" lon="2.0173">
        <ele>277.96</ele>
        <time>2020-06-06T12:44:17Z</time>
      </trkpt>
      <trkpt lat="43.99605" lon="2.01714">
        <ele>277.48</ele>
        <time>2020-06-06T12:44:27Z</time>
      </trkpt>
      <trkpt lat="43.99614" lon="2.01693">
        <ele>277.96</ele>
        <time>2020-06-06T12:44:39Z</time>
      </trkpt>
      <trkpt lat="43.99621" lon="2.0168">
        <ele>278.44</ele>
        <time>2020-06-06T12:44:47Z</time>
      </trkpt>
      <trkpt lat="43.99628" lon="2.01664">
        <ele>279.4</ele>
        <time>2020-06-06T12:44:56Z</time>
      </trkpt>
      <trkpt lat="43.99636" lon="2.01645">
        <ele>278.92</ele>
        <time>2020-06-06T12:45:07Z</time>
      </trkpt>
      <trkpt lat="43.99648" lon="2.01624">
        <ele>278.44</ele>
        <time>2020-06-06T12:45:21Z</time>
      </trkpt>
      <trkpt lat="43.99658" lon="2.0161">
        <ele>278.44</ele>
        <time>2020-06-06T12:45:30Z</time>
      </trkpt>
      <trkpt lat="43.99673" lon="2.01591">
        <ele>277.96</ele>
        <time>2020-06-06T12:45:45Z</time>
      </trkpt>
      <trkpt lat="43.9969" lon="2.01573">
        <ele>278.92</ele>
        <time>2020-06-06T12:46:00Z</time>
      </trkpt>
      <trkpt lat="43.99703" lon="2.01572">
        <ele>278.44</ele>
        <time>2020-06-06T12:46:09Z</time>
      </trkpt>
      <trkpt lat="43.99715" lon="2.01581">
        <ele>279.4</ele>
        <time>2020-06-06T12:46:18Z</time>
      </trkpt>
      <trkpt lat="43.99727" lon="2.0159">
        <ele>278.44</ele>
        <time>2020-06-06T12:46:27Z</time>
      </trkpt>
      <trkpt lat="43.99737" lon="2.01598">
        <ele>278.92</ele>
        <time>2020-06-06T12:46:35Z</time>
      </trkpt>
      <trkpt lat="43.99749" lon="2.01609">
        <ele>277.96</ele>
        <time>2020-06-06T12:46:44Z</time>
      </trkpt>
      <trkpt lat="43.99764" lon="2.01622">
        <ele>278.92</ele>
        <time>2020-06-06T12:46:56Z</time>
      </trkpt>
      <trkpt lat="43.99776" lon="2.01632">
        <ele>277.48</ele>
        <time>2020-06-06T12:47:05Z</time>
      </trkpt>
      <trkpt lat="43.99793" lon="2.01644">
        <ele>275.07</ele>
        <time>2020-06-06T12:47:18Z</time>
      </trkpt>
      <trkpt lat="43.99802" lon="2.01652">
        <ele>274.59</ele>
        <time>2020-06-06T12:47:26Z</time>
      </trkpt>
      <trkpt lat="43.99815" lon="2.01659">
        <ele>274.11</ele>
        <time>2020-06-06T12:47:35Z</time>
      </trkpt>
      <trkpt lat="43.99822" lon="2.01654">
        <ele>273.63</ele>
        <time>2020-06-06T12:47:42Z</time>
      </trkpt>
      <trkpt lat="43.99827" lon="2.01635">
        <ele>274.11</ele>
        <time>2020-06-06T12:47:53Z</time>
      </trkpt>
      <trkpt lat="43.99833" lon="2.01615">
        <ele>275.56</ele>
        <time>2020-06-06T12:48:04Z</time>
      </trkpt>
      <trkpt lat="43.99839" lon="2.01596">
        <ele>276.04</ele>
        <time>2020-06-06T12:48:15Z</time>
      </trkpt>
      <trkpt lat="43.9984" lon="2.01576">
        <ele>277.48</ele>
        <time>2020-06-06T12:48:26Z</time>
      </trkpt>
      <trkpt lat="43.99836" lon="2.01559">
        <ele>278.92</ele>
        <time>2020-06-06T12:48:36Z</time>
      </trkpt>
      <trkpt lat="43.99835" lon="2.01553">
        <ele>279.4</ele>
        <time>2020-06-06T12:48:39Z</time>
      </trkpt>
      <trkpt lat="43.99835" lon="2.0155">
        <ele>279.4</ele>
        <time>2020-06-06T12:48:46Z</time>
      </trkpt>
      <trkpt lat="43.99835" lon="2.01548">
        <ele>279.4</ele>
        <time>2020-06-06T12:48:50Z</time>
      </trkpt>
      <trkpt lat="43.99835" lon="2.0153">
        <ele>278.92</ele>
        <time>2020-06-06T12:49:01Z</time>
      </trkpt>
      <trkpt lat="43.99836" lon="2.01522">
        <ele>278.92</ele>
        <time>2020-06-06T12:49:06Z</time>
      </trkpt>
      <trkpt lat="43.99837" lon="2.01513">
        <ele>278.92</ele>
        <time>2020-06-06T12:49:11Z</time>
      </trkpt>
      <trkpt lat="43.99841" lon="2.01494">
        <ele>279.4</ele>
        <time>2020-06-06T12:49:22Z</time>
      </trkpt>
      <trkpt lat="43.99845" lon="2.01482">
        <ele>278.92</ele>
        <time>2020-06-06T12:49:30Z</time>
      </trkpt>
      <trkpt lat="43.99849" lon="2.0147">
        <ele>279.88</ele>
        <time>2020-06-06T12:49:37Z</time>
      </trkpt>
      <trkpt lat="43.99855" lon="2.01451">
        <ele>280.36</ele>
        <time>2020-06-06T12:49:48Z</time>
      </trkpt>
      <trkpt lat="43.99862" lon="2.01429">
        <ele>280.36</ele>
        <time>2020-06-06T12:50:00Z</time>
      </trkpt>
      <trkpt lat="43.99865" lon="2.01419">
        <ele>278.44</ele>
        <time>2020-06-06T12:50:07Z</time>
      </trkpt>
      <trkpt lat="43.99864" lon="2.01416">
        <ele>278.44</ele>
        <time>2020-06-06T12:50:11Z</time>
      </trkpt>
      <trkpt lat="43.99868" lon="2.01411">
        <ele>277.48</ele>
        <time>2020-06-06T12:50:19Z</time>
      </trkpt>
      <trkpt lat="43.9987" lon="2.01407">
        <ele>277.96</ele>
        <time>2020-06-06T12:50:26Z</time>
      </trkpt>
      <trkpt lat="43.99876" lon="2.01396">
        <ele>278.92</ele>
        <time>2020-06-06T12:50:34Z</time>
      </trkpt>
      <trkpt lat="43.99875" lon="2.01394">
        <ele>278.92</ele>
        <time>2020-06-06T12:50:35Z</time>
      </trkpt>
      <trkpt lat="43.99875" lon="2.01393">
        <ele>277</ele>
        <time>2020-06-06T12:50:42Z</time>
      </trkpt>
      <trkpt lat="43.99875" lon="2.01391">
        <ele>277.48</ele>
        <time>2020-06-06T12:50:48Z</time>
      </trkpt>
      <trkpt lat="43.99876" lon="2.01389">
        <ele>276.52</ele>
        <time>2020-06-06T12:50:55Z</time>
      </trkpt>
      <trkpt lat="43.99882" lon="2.01385">
        <ele>275.56</ele>
        <time>2020-06-06T12:51:00Z</time>
      </trkpt>
      <trkpt lat="43.99892" lon="2.01369">
        <ele>275.56</ele>
        <time>2020-06-06T12:51:11Z</time>
      </trkpt>
      <trkpt lat="43.99899" lon="2.01355">
        <ele>277</ele>
        <time>2020-06-06T12:51:20Z</time>
      </trkpt>
      <trkpt lat="43.99907" lon="2.01337">
        <ele>276.52</ele>
        <time>2020-06-06T12:51:30Z</time>
      </trkpt>
      <trkpt lat="43.9992" lon="2.01314">
        <ele>276.52</ele>
        <time>2020-06-06T12:51:43Z</time>
      </trkpt>
      <trkpt lat="43.99932" lon="2.01298">
        <ele>276.04</ele>
        <time>2020-06-06T12:51:54Z</time>
      </trkpt>
      <trkpt lat="43.9994" lon="2.01289">
        <ele>274.11</ele>
        <time>2020-06-06T12:52:02Z</time>
      </trkpt>
      <trkpt lat="43.99948" lon="2.01282">
        <ele>273.63</ele>
        <time>2020-06-06T12:52:09Z</time>
      </trkpt>
      <trkpt lat="43.99949" lon="2.01281">
        <ele>273.15</ele>
        <time>2020-06-06T12:52:22Z</time>
      </trkpt>
      <trkpt lat="43.99951" lon="2.01281">
        <ele>271.71</ele>
        <time>2020-06-06T12:52:35Z</time>
      </trkpt>
      <trkpt lat="43.99954" lon="2.01275">
        <ele>271.71</ele>
        <time>2020-06-06T12:52:39Z</time>
      </trkpt>
      <trkpt lat="43.99958" lon="2.01269">
        <ele>272.19</ele>
        <time>2020-06-06T12:52:47Z</time>
      </trkpt>
      <trkpt lat="43.99962" lon="2.01265">
        <ele>271.23</ele>
        <time>2020-06-06T12:52:59Z</time>
      </trkpt>
      <trkpt lat="43.99962" lon="2.01264">
        <ele>271.23</ele>
        <time>2020-06-06T12:53:04Z</time>
      </trkpt>
      <trkpt lat="43.99965" lon="2.01257">
        <ele>271.23</ele>
        <time>2020-06-06T12:53:13Z</time>
      </trkpt>
      <trkpt lat="43.99976" lon="2.0124">
        <ele>272.19</ele>
        <time>2020-06-06T12:53:23Z</time>
      </trkpt>
      <trkpt lat="43.99985" lon="2.01226">
        <ele>273.15</ele>
        <time>2020-06-06T12:53:31Z</time>
      </trkpt>
      <trkpt lat="43.99993" lon="2.01207">
        <ele>273.15</ele>
        <time>2020-06-06T12:53:40Z</time>
      </trkpt>
      <trkpt lat="44.00003" lon="2.01189">
        <ele>273.15</ele>
        <time>2020-06-06T12:53:50Z</time>
      </trkpt>
      <trkpt lat="44.00013" lon="2.01167">
        <ele>273.63</ele>
        <time>2020-06-06T12:54:01Z</time>
      </trkpt>
      <trkpt lat="44.00025" lon="2.01146">
        <ele>273.15</ele>
        <time>2020-06-06T12:54:13Z</time>
      </trkpt>
      <trkpt lat="44.00039" lon="2.01129">
        <ele>273.63</ele>
        <time>2020-06-06T12:54:24Z</time>
      </trkpt>
      <trkpt lat="44.00052" lon="2.01111">
        <ele>274.11</ele>
        <time>2020-06-06T12:54:35Z</time>
      </trkpt>
      <trkpt lat="44.00064" lon="2.01095">
        <ele>275.07</ele>
        <time>2020-06-06T12:54:45Z</time>
      </trkpt>
      <trkpt lat="44.00077" lon="2.01078">
        <ele>275.56</ele>
        <time>2020-06-06T12:54:56Z</time>
      </trkpt>
      <trkpt lat="44.00093" lon="2.01058">
        <ele>274.59</ele>
        <time>2020-06-06T12:55:09Z</time>
      </trkpt>
      <trkpt lat="44.00106" lon="2.01047">
        <ele>273.63</ele>
        <time>2020-06-06T12:55:18Z</time>
      </trkpt>
      <trkpt lat="44.00119" lon="2.01037">
        <ele>274.11</ele>
        <time>2020-06-06T12:55:27Z</time>
      </trkpt>
      <trkpt lat="44.00134" lon="2.01029">
        <ele>273.15</ele>
        <time>2020-06-06T12:55:37Z</time>
      </trkpt>
      <trkpt lat="44.00149" lon="2.01016">
        <ele>272.19</ele>
        <time>2020-06-06T12:55:48Z</time>
      </trkpt>
      <trkpt lat="44.00165" lon="2.01003">
        <ele>272.19</ele>
        <time>2020-06-06T12:55:59Z</time>
      </trkpt>
      <trkpt lat="44.00177" lon="2.00994">
        <ele>272.19</ele>
        <time>2020-06-06T12:56:07Z</time>
      </trkpt>
      <trkpt lat="44.00193" lon="2.00983">
        <ele>272.19</ele>
        <time>2020-06-06T12:56:18Z</time>
      </trkpt>
      <trkpt lat="44.0021" lon="2.0097">
        <ele>273.15</ele>
        <time>2020-06-06T12:56:30Z</time>
      </trkpt>
      <trkpt lat="44.00224" lon="2.00958">
        <ele>272.67</ele>
        <time>2020-06-06T12:56:40Z</time>
      </trkpt>
      <trkpt lat="44.00238" lon="2.00946">
        <ele>272.67</ele>
        <time>2020-06-06T12:56:50Z</time>
      </trkpt>
      <trkpt lat="44.00255" lon="2.00932">
        <ele>271.71</ele>
        <time>2020-06-06T12:57:01Z</time>
      </trkpt>
      <trkpt lat="44.00276" lon="2.00922">
        <ele>269.79</ele>
        <time>2020-06-06T12:57:13Z</time>
      </trkpt>
      <trkpt lat="44.00293" lon="2.0092">
        <ele>268.83</ele>
        <time>2020-06-06T12:57:23Z</time>
      </trkpt>
      <trkpt lat="44.00311" lon="2.00914">
        <ele>266.9</ele>
        <time>2020-06-06T12:57:34Z</time>
      </trkpt>
      <trkpt lat="44.0033" lon="2.00905">
        <ele>266.9</ele>
        <time>2020-06-06T12:57:46Z</time>
      </trkpt>
      <trkpt lat="44.00344" lon="2.00887">
        <ele>266.9</ele>
        <time>2020-06-06T12:57:57Z</time>
      </trkpt>
      <trkpt lat="44.0035" lon="2.00868">
        <ele>266.9</ele>
        <time>2020-06-06T12:58:07Z</time>
      </trkpt>
      <trkpt lat="44.00354" lon="2.00852">
        <ele>267.38</ele>
        <time>2020-06-06T12:58:16Z</time>
      </trkpt>
      <trkpt lat="44.00362" lon="2.00835">
        <ele>269.31</ele>
        <time>2020-06-06T12:58:26Z</time>
      </trkpt>
      <trkpt lat="44.00375" lon="2.0082">
        <ele>269.79</ele>
        <time>2020-06-06T12:58:36Z</time>
      </trkpt>
      <trkpt lat="44.00392" lon="2.0081">
        <ele>269.31</ele>
        <time>2020-06-06T12:58:48Z</time>
      </trkpt>
      <trkpt lat="44.00408" lon="2.00805">
        <ele>268.83</ele>
        <time>2020-06-06T12:58:59Z</time>
      </trkpt>
      <trkpt lat="44.00422" lon="2.00807">
        <ele>268.35</ele>
        <time>2020-06-06T12:59:09Z</time>
      </trkpt>
      <trkpt lat="44.0044" lon="2.00813">
        <ele>268.83</ele>
        <time>2020-06-06T12:59:22Z</time>
      </trkpt>
      <trkpt lat="44.00457" lon="2.00816">
        <ele>267.86</ele>
        <time>2020-06-06T12:59:35Z</time>
      </trkpt>
      <trkpt lat="44.00471" lon="2.00816">
        <ele>266.9</ele>
        <time>2020-06-06T12:59:45Z</time>
      </trkpt>
      <trkpt lat="44.00473" lon="2.00815">
        <ele>266.42</ele>
        <time>2020-06-06T12:59:48Z</time>
      </trkpt>
      <trkpt lat="44.00487" lon="2.00814">
        <ele>266.42</ele>
        <time>2020-06-06T12:59:59Z</time>
      </trkpt>
      <trkpt lat="44.00487" lon="2.00816">
        <ele>266.42</ele>
        <time>2020-06-06T13:00:09Z</time>
      </trkpt>
      <trkpt lat="44.00491" lon="2.00816">
        <ele>265.94</ele>
        <time>2020-06-06T13:00:17Z</time>
      </trkpt>
      <trkpt lat="44.00506" lon="2.00816">
        <ele>266.42</ele>
        <time>2020-06-06T13:00:27Z</time>
      </trkpt>
      <trkpt lat="44.00521" lon="2.00817">
        <ele>264.98</ele>
        <time>2020-06-06T13:00:38Z</time>
      </trkpt>
      <trkpt lat="44.00533" lon="2.00818">
        <ele>264.5</ele>
        <time>2020-06-06T13:00:47Z</time>
      </trkpt>
      <trkpt lat="44.00547" lon="2.00822">
        <ele>264.5</ele>
        <time>2020-06-06T13:00:57Z</time>
      </trkpt>
      <trkpt lat="44.00562" lon="2.00825">
        <ele>264.02</ele>
        <time>2020-06-06T13:01:08Z</time>
      </trkpt>
      <trkpt lat="44.00574" lon="2.00819">
        <ele>263.06</ele>
        <time>2020-06-06T13:01:17Z</time>
      </trkpt>
      <trkpt lat="44.00581" lon="2.00824">
        <ele>263.06</ele>
        <time>2020-06-06T13:01:25Z</time>
      </trkpt>
      <trkpt lat="44.00582" lon="2.00827">
        <ele>263.06</ele>
        <time>2020-06-06T13:01:34Z</time>
      </trkpt>
      <trkpt lat="44.00586" lon="2.00833">
        <ele>263.06</ele>
        <time>2020-06-06T13:01:42Z</time>
      </trkpt>
      <trkpt lat="44.00591" lon="2.00851">
        <ele>261.62</ele>
        <time>2020-06-06T13:01:53Z</time>
      </trkpt>
      <trkpt lat="44.00596" lon="2.00869">
        <ele>261.62</ele>
        <time>2020-06-06T13:02:04Z</time>
      </trkpt>
      <trkpt lat="44.00601" lon="2.00891">
        <ele>260.65</ele>
        <time>2020-06-06T13:02:15Z</time>
      </trkpt>
      <trkpt lat="44.00607" lon="2.00902">
        <ele>260.65</ele>
        <time>2020-06-06T13:02:22Z</time>
      </trkpt>
      <trkpt lat="44.00615" lon="2.00912">
        <ele>258.25</ele>
        <time>2020-06-06T13:02:30Z</time>
      </trkpt>
      <trkpt lat="44.00625" lon="2.00923">
        <ele>256.81</ele>
        <time>2020-06-06T13:02:39Z</time>
      </trkpt>
      <trkpt lat="44.00634" lon="2.00932">
        <ele>254.89</ele>
        <time>2020-06-06T13:02:48Z</time>
      </trkpt>
      <trkpt lat="44.00641" lon="2.00947">
        <ele>253.44</ele>
        <time>2020-06-06T13:02:58Z</time>
      </trkpt>
      <trkpt lat="44.00648" lon="2.00961">
        <ele>252.96</ele>
        <time>2020-06-06T13:03:07Z</time>
      </trkpt>
      <trkpt lat="44.0065" lon="2.0096">
        <ele>252</ele>
        <time>2020-06-06T13:03:10Z</time>
      </trkpt>
      <trkpt lat="44.00653" lon="2.00956">
        <ele>251.52</ele>
        <time>2020-06-06T13:03:14Z</time>
      </trkpt>
      <trkpt lat="44.00654" lon="2.00944">
        <ele>251.04</ele>
        <time>2020-06-06T13:03:24Z</time>
      </trkpt>
      <trkpt lat="44.00654" lon="2.00947">
        <ele>250.56</ele>
        <time>2020-06-06T13:03:30Z</time>
      </trkpt>
      <trkpt lat="44.00654" lon="2.0095">
        <ele>251.04</ele>
        <time>2020-06-06T13:03:32Z</time>
      </trkpt>
      <trkpt lat="44.00652" lon="2.00968">
        <ele>252</ele>
        <time>2020-06-06T13:03:43Z</time>
      </trkpt>
      <trkpt lat="44.00655" lon="2.00973">
        <ele>251.52</ele>
        <time>2020-06-06T13:03:50Z</time>
      </trkpt>
      <trkpt lat="44.00655" lon="2.00974">
        <ele>252</ele>
        <time>2020-06-06T13:03:57Z</time>
      </trkpt>
      <trkpt lat="44.00655" lon="2.00974">
        <ele>252</ele>
        <time>2020-06-06T13:03:59Z</time>
      </trkpt>
      <trkpt lat="44.00655" lon="2.00967">
        <ele>252</ele>
        <time>2020-06-06T13:04:04Z</time>
      </trkpt>
      <trkpt lat="44.00662" lon="2.00956">
        <ele>250.56</ele>
        <time>2020-06-06T13:04:13Z</time>
      </trkpt>
      <trkpt lat="44.00669" lon="2.00944">
        <ele>252.96</ele>
        <time>2020-06-06T13:04:23Z</time>
      </trkpt>
      <trkpt lat="44.0067" lon="2.0094">
        <ele>253.44</ele>
        <time>2020-06-06T13:04:29Z</time>
      </trkpt>
      <trkpt lat="44.00671" lon="2.00918">
        <ele>255.37</ele>
        <time>2020-06-06T13:04:42Z</time>
      </trkpt>
      <trkpt lat="44.00673" lon="2.00916">
        <ele>254.89</ele>
        <time>2020-06-06T13:04:52Z</time>
      </trkpt>
      <trkpt lat="44.00673" lon="2.00916">
        <ele>254.41</ele>
        <time>2020-06-06T13:05:01Z</time>
      </trkpt>
      <trkpt lat="44.00673" lon="2.00915">
        <ele>253.93</ele>
        <time>2020-06-06T13:05:10Z</time>
      </trkpt>
      <trkpt lat="44.00671" lon="2.00907">
        <ele>253.44</ele>
        <time>2020-06-06T13:05:17Z</time>
      </trkpt>
      <trkpt lat="44.0067" lon="2.00894">
        <ele>252.96</ele>
        <time>2020-06-06T13:05:26Z</time>
      </trkpt>
      <trkpt lat="44.00666" lon="2.0088">
        <ele>251.52</ele>
        <time>2020-06-06T13:05:35Z</time>
      </trkpt>
      <trkpt lat="44.00661" lon="2.00864">
        <ele>251.52</ele>
        <time>2020-06-06T13:05:46Z</time>
      </trkpt>
      <trkpt lat="44.00658" lon="2.00849">
        <ele>251.52</ele>
        <time>2020-06-06T13:05:55Z</time>
      </trkpt>
      <trkpt lat="44.00658" lon="2.00845">
        <ele>251.52</ele>
        <time>2020-06-06T13:05:57Z</time>
      </trkpt>
      <trkpt lat="44.00655" lon="2.00825">
        <ele>251.04</ele>
        <time>2020-06-06T13:06:08Z</time>
      </trkpt>
      <trkpt lat="44.00654" lon="2.00809">
        <ele>251.04</ele>
        <time>2020-06-06T13:06:17Z</time>
      </trkpt>
      <trkpt lat="44.00653" lon="2.00803">
        <ele>251.04</ele>
        <time>2020-06-06T13:06:21Z</time>
      </trkpt>
      <trkpt lat="44.00652" lon="2.00791">
        <ele>251.52</ele>
        <time>2020-06-06T13:06:28Z</time>
      </trkpt>
      <trkpt lat="44.00653" lon="2.00786">
        <ele>252</ele>
        <time>2020-06-06T13:06:31Z</time>
      </trkpt>
      <trkpt lat="44.00659" lon="2.00772">
        <ele>253.44</ele>
        <time>2020-06-06T13:06:41Z</time>
      </trkpt>
      <trkpt lat="44.0066" lon="2.00772">
        <ele>253.44</ele>
        <time>2020-06-06T13:06:42Z</time>
      </trkpt>
      <trkpt lat="44.00669" lon="2.00761">
        <ele>255.37</ele>
        <time>2020-06-06T13:06:51Z</time>
      </trkpt>
      <trkpt lat="44.00674" lon="2.00754">
        <ele>255.37</ele>
        <time>2020-06-06T13:06:57Z</time>
      </trkpt>
      <trkpt lat="44.00682" lon="2.00744">
        <ele>256.81</ele>
        <time>2020-06-06T13:07:05Z</time>
      </trkpt>
      <trkpt lat="44.0069" lon="2.0073">
        <ele>260.65</ele>
        <time>2020-06-06T13:07:15Z</time>
      </trkpt>
      <trkpt lat="44.00697" lon="2.0071">
        <ele>262.1</ele>
        <time>2020-06-06T13:07:26Z</time>
      </trkpt>
      <trkpt lat="44.00705" lon="2.00696">
        <ele>262.58</ele>
        <time>2020-06-06T13:07:36Z</time>
      </trkpt>
      <trkpt lat="44.00713" lon="2.00685">
        <ele>263.54</ele>
        <time>2020-06-06T13:07:45Z</time>
      </trkpt>
      <trkpt lat="44.0072" lon="2.00672">
        <ele>263.54</ele>
        <time>2020-06-06T13:07:53Z</time>
      </trkpt>
      <trkpt lat="44.00726" lon="2.00659">
        <ele>262.58</ele>
        <time>2020-06-06T13:08:01Z</time>
      </trkpt>
      <trkpt lat="44.00733" lon="2.00643">
        <ele>258.73</ele>
        <time>2020-06-06T13:08:10Z</time>
      </trkpt>
      <trkpt lat="44.00738" lon="2.00632">
        <ele>258.25</ele>
        <time>2020-06-06T13:08:17Z</time>
      </trkpt>
      <trkpt lat="44.00744" lon="2.00615">
        <ele>258.73</ele>
        <time>2020-06-06T13:08:26Z</time>
      </trkpt>
      <trkpt lat="44.00755" lon="2.00597">
        <ele>261.14</ele>
        <time>2020-06-06T13:08:37Z</time>
      </trkpt>
      <trkpt lat="44.00764" lon="2.00583">
        <ele>260.65</ele>
        <time>2020-06-06T13:08:46Z</time>
      </trkpt>
      <trkpt lat="44.0077" lon="2.00572">
        <ele>260.65</ele>
        <time>2020-06-06T13:08:54Z</time>
      </trkpt>
      <trkpt lat="44.00781" lon="2.00555">
        <ele>261.14</ele>
        <time>2020-06-06T13:09:06Z</time>
      </trkpt>
      <trkpt lat="44.0079" lon="2.00541">
        <ele>262.1</ele>
        <time>2020-06-06T13:09:15Z</time>
      </trkpt>
      <trkpt lat="44.00796" lon="2.00527">
        <ele>260.65</ele>
        <time>2020-06-06T13:09:24Z</time>
      </trkpt>
      <trkpt lat="44.00803" lon="2.00509">
        <ele>257.77</ele>
        <time>2020-06-06T13:09:35Z</time>
      </trkpt>
      <trkpt lat="44.00808" lon="2.00492">
        <ele>255.37</ele>
        <time>2020-06-06T13:09:44Z</time>
      </trkpt>
      <trkpt lat="44.00813" lon="2.00476">
        <ele>252.96</ele>
        <time>2020-06-06T13:09:53Z</time>
      </trkpt>
      <trkpt lat="44.00818" lon="2.00461">
        <ele>252</ele>
        <time>2020-06-06T13:10:02Z</time>
      </trkpt>
      <trkpt lat="44.0082" lon="2.00456">
        <ele>251.04</ele>
        <time>2020-06-06T13:10:09Z</time>
      </trkpt>
      <trkpt lat="44.00823" lon="2.00451">
        <ele>249.6</ele>
        <time>2020-06-06T13:10:19Z</time>
      </trkpt>
      <trkpt lat="44.00831" lon="2.00437">
        <ele>251.04</ele>
        <time>2020-06-06T13:10:29Z</time>
      </trkpt>
      <trkpt lat="44.00834" lon="2.0043">
        <ele>251.04</ele>
        <time>2020-06-06T13:10:34Z</time>
      </trkpt>
      <trkpt lat="44.00839" lon="2.00418">
        <ele>251.04</ele>
        <time>2020-06-06T13:10:42Z</time>
      </trkpt>
      <trkpt lat="44.00844" lon="2.00407">
        <ele>250.56</ele>
        <time>2020-06-06T13:10:49Z</time>
      </trkpt>
      <trkpt lat="44.00848" lon="2.00398">
        <ele>250.56</ele>
        <time>2020-06-06T13:10:55Z</time>
      </trkpt>
      <trkpt lat="44.00855" lon="2.00384">
        <ele>249.6</ele>
        <time>2020-06-06T13:11:04Z</time>
      </trkpt>
      <trkpt lat="44.00862" lon="2.00369">
        <ele>251.04</ele>
        <time>2020-06-06T13:11:13Z</time>
      </trkpt>
      <trkpt lat="44.00865" lon="2.00362">
        <ele>250.56</ele>
        <time>2020-06-06T13:11:19Z</time>
      </trkpt>
      <trkpt lat="44.00867" lon="2.00358">
        <ele>249.6</ele>
        <time>2020-06-06T13:11:25Z</time>
      </trkpt>
      <trkpt lat="44.00872" lon="2.00342">
        <ele>248.16</ele>
        <time>2020-06-06T13:11:35Z</time>
      </trkpt>
      <trkpt lat="44.0088" lon="2.00328">
        <ele>245.27</ele>
        <time>2020-06-06T13:11:44Z</time>
      </trkpt>
      <trkpt lat="44.00885" lon="2.00317">
        <ele>244.31</ele>
        <time>2020-06-06T13:11:51Z</time>
      </trkpt>
      <trkpt lat="44.00887" lon="2.00313">
        <ele>244.31</ele>
        <time>2020-06-06T13:11:54Z</time>
      </trkpt>
      <trkpt lat="44.0089" lon="2.00306">
        <ele>244.31</ele>
        <time>2020-06-06T13:11:59Z</time>
      </trkpt>
      <trkpt lat="44.00892" lon="2.003">
        <ele>243.83</ele>
        <time>2020-06-06T13:12:03Z</time>
      </trkpt>
      <trkpt lat="44.00898" lon="2.00286">
        <ele>244.79</ele>
        <time>2020-06-06T13:12:12Z</time>
      </trkpt>
      <trkpt lat="44.00903" lon="2.00271">
        <ele>244.79</ele>
        <time>2020-06-06T13:12:22Z</time>
      </trkpt>
      <trkpt lat="44.00905" lon="2.00265">
        <ele>244.31</ele>
        <time>2020-06-06T13:12:25Z</time>
      </trkpt>
      <trkpt lat="44.00909" lon="2.00255">
        <ele>245.27</ele>
        <time>2020-06-06T13:12:31Z</time>
      </trkpt>
      <trkpt lat="44.00914" lon="2.0024">
        <ele>245.75</ele>
        <time>2020-06-06T13:12:40Z</time>
      </trkpt>
      <trkpt lat="44.00917" lon="2.00225">
        <ele>245.27</ele>
        <time>2020-06-06T13:12:48Z</time>
      </trkpt>
      <trkpt lat="44.0092" lon="2.00212">
        <ele>243.83</ele>
        <time>2020-06-06T13:12:55Z</time>
      </trkpt>
      <trkpt lat="44.00921" lon="2.00191">
        <ele>242.39</ele>
        <time>2020-06-06T13:13:05Z</time>
      </trkpt>
      <trkpt lat="44.0092" lon="2.00171">
        <ele>241.43</ele>
        <time>2020-06-06T13:13:15Z</time>
      </trkpt>
      <trkpt lat="44.00918" lon="2.00149">
        <ele>239.51</ele>
        <time>2020-06-06T13:13:25Z</time>
      </trkpt>
      <trkpt lat="44.00914" lon="2.00127">
        <ele>238.54</ele>
        <time>2020-06-06T13:13:35Z</time>
      </trkpt>
      <trkpt lat="44.00907" lon="2.00106">
        <ele>236.14</ele>
        <time>2020-06-06T13:13:46Z</time>
      </trkpt>
      <trkpt lat="44.00899" lon="2.00086">
        <ele>234.7</ele>
        <time>2020-06-06T13:13:58Z</time>
      </trkpt>
      <trkpt lat="44.00895" lon="2.00074">
        <ele>235.18</ele>
        <time>2020-06-06T13:14:06Z</time>
      </trkpt>
      <trkpt lat="44.00894" lon="2.0007">
        <ele>235.66</ele>
        <time>2020-06-06T13:14:13Z</time>
      </trkpt>
      <trkpt lat="44.00893" lon="2.00066">
        <ele>236.14</ele>
        <time>2020-06-06T13:14:20Z</time>
      </trkpt>
      <trkpt lat="44.00887" lon="2.00045">
        <ele>236.62</ele>
        <time>2020-06-06T13:14:31Z</time>
      </trkpt>
      <trkpt lat="44.0088" lon="2.00028">
        <ele>236.14</ele>
        <time>2020-06-06T13:14:40Z</time>
      </trkpt>
      <trkpt lat="44.00875" lon="2.00006">
        <ele>234.7</ele>
        <time>2020-06-06T13:14:51Z</time>
      </trkpt>
      <trkpt lat="44.00872" lon="1.9999">
        <ele>233.26</ele>
        <time>2020-06-06T13:14:59Z</time>
      </trkpt>
      <trkpt lat="44.00868" lon="1.99971">
        <ele>232.3</ele>
        <time>2020-06-06T13:15:08Z</time>
      </trkpt>
      <trkpt lat="44.00867" lon="1.99949">
        <ele>231.81</ele>
        <time>2020-06-06T13:15:18Z</time>
      </trkpt>
      <trkpt lat="44.00864" lon="1.99922">
        <ele>231.81</ele>
        <time>2020-06-06T13:15:30Z</time>
      </trkpt>
      <trkpt lat="44.0086" lon="1.999">
        <ele>230.85</ele>
        <time>2020-06-06T13:15:40Z</time>
      </trkpt>
      <trkpt lat="44.00857" lon="1.99884">
        <ele>231.33</ele>
        <time>2020-06-06T13:15:48Z</time>
      </trkpt>
      <trkpt lat="44.00855" lon="1.99866">
        <ele>231.81</ele>
        <time>2020-06-06T13:15:57Z</time>
      </trkpt>
      <trkpt lat="44.00852" lon="1.99846">
        <ele>233.26</ele>
        <time>2020-06-06T13:16:08Z</time>
      </trkpt>
      <trkpt lat="44.00853" lon="1.99837">
        <ele>234.22</ele>
        <time>2020-06-06T13:16:17Z</time>
      </trkpt>
      <trkpt lat="44.00848" lon="1.99829">
        <ele>234.22</ele>
        <time>2020-06-06T13:16:26Z</time>
      </trkpt>
      <trkpt lat="44.0084" lon="1.99812">
        <ele>231.81</ele>
        <time>2020-06-06T13:16:35Z</time>
      </trkpt>
      <trkpt lat="44.00828" lon="1.99784">
        <ele>229.41</ele>
        <time>2020-06-06T13:16:49Z</time>
      </trkpt>
      <trkpt lat="44.00818" lon="1.99759">
        <ele>229.89</ele>
        <time>2020-06-06T13:17:02Z</time>
      </trkpt>
      <trkpt lat="44.00814" lon="1.99738">
        <ele>229.41</ele>
        <time>2020-06-06T13:17:13Z</time>
      </trkpt>
      <trkpt lat="44.00814" lon="1.99723">
        <ele>228.45</ele>
        <time>2020-06-06T13:17:20Z</time>
      </trkpt>
      <trkpt lat="44.00813" lon="1.99702">
        <ele>226.53</ele>
        <time>2020-06-06T13:17:31Z</time>
      </trkpt>
      <trkpt lat="44.00811" lon="1.99681">
        <ele>226.05</ele>
        <time>2020-06-06T13:17:43Z</time>
      </trkpt>
      <trkpt lat="44.0081" lon="1.99652">
        <ele>226.53</ele>
        <time>2020-06-06T13:17:56Z</time>
      </trkpt>
      <trkpt lat="44.00812" lon="1.99627">
        <ele>226.53</ele>
        <time>2020-06-06T13:18:08Z</time>
      </trkpt>
      <trkpt lat="44.00814" lon="1.99618">
        <ele>226.05</ele>
        <time>2020-06-06T13:18:16Z</time>
      </trkpt>
      <trkpt lat="44.00816" lon="1.99616">
        <ele>225.09</ele>
        <time>2020-06-06T13:18:33Z</time>
      </trkpt>
      <trkpt lat="44.00819" lon="1.99608">
        <ele>226.05</ele>
        <time>2020-06-06T13:18:39Z</time>
      </trkpt>
      <trkpt lat="44.00824" lon="1.99591">
        <ele>226.53</ele>
        <time>2020-06-06T13:18:49Z</time>
      </trkpt>
      <trkpt lat="44.0083" lon="1.99578">
        <ele>226.53</ele>
        <time>2020-06-06T13:18:57Z</time>
      </trkpt>
      <trkpt lat="44.00838" lon="1.9956">
        <ele>225.57</ele>
        <time>2020-06-06T13:19:08Z</time>
      </trkpt>
      <trkpt lat="44.00845" lon="1.99544">
        <ele>225.09</ele>
        <time>2020-06-06T13:19:18Z</time>
      </trkpt>
      <trkpt lat="44.00854" lon="1.99526">
        <ele>225.57</ele>
        <time>2020-06-06T13:19:28Z</time>
      </trkpt>
      <trkpt lat="44.00868" lon="1.99512">
        <ele>224.61</ele>
        <time>2020-06-06T13:19:38Z</time>
      </trkpt>
      <trkpt lat="44.00881" lon="1.99495">
        <ele>222.2</ele>
        <time>2020-06-06T13:19:50Z</time>
      </trkpt>
      <trkpt lat="44.00886" lon="1.99479">
        <ele>222.2</ele>
        <time>2020-06-06T13:19:59Z</time>
      </trkpt>
      <trkpt lat="44.00888" lon="1.9946">
        <ele>224.12</ele>
        <time>2020-06-06T13:20:10Z</time>
      </trkpt>
      <trkpt lat="44.00892" lon="1.99441">
        <ele>225.57</ele>
        <time>2020-06-06T13:20:21Z</time>
      </trkpt>
      <trkpt lat="44.00894" lon="1.99432">
        <ele>227.49</ele>
        <time>2020-06-06T13:20:29Z</time>
      </trkpt>
      <trkpt lat="44.00896" lon="1.99422">
        <ele>227.49</ele>
        <time>2020-06-06T13:20:36Z</time>
      </trkpt>
      <trkpt lat="44.00899" lon="1.99401">
        <ele>227.49</ele>
        <time>2020-06-06T13:20:47Z</time>
      </trkpt>
      <trkpt lat="44.00902" lon="1.99382">
        <ele>228.45</ele>
        <time>2020-06-06T13:20:57Z</time>
      </trkpt>
      <trkpt lat="44.00904" lon="1.99359">
        <ele>227.97</ele>
        <time>2020-06-06T13:21:09Z</time>
      </trkpt>
      <trkpt lat="44.00905" lon="1.9934">
        <ele>228.45</ele>
        <time>2020-06-06T13:21:20Z</time>
      </trkpt>
      <trkpt lat="44.00907" lon="1.99337">
        <ele>228.45</ele>
        <time>2020-06-06T13:21:22Z</time>
      </trkpt>
      <trkpt lat="44.00909" lon="1.99327">
        <ele>227.97</ele>
        <time>2020-06-06T13:21:27Z</time>
      </trkpt>
      <trkpt lat="44.00914" lon="1.99297">
        <ele>227.01</ele>
        <time>2020-06-06T13:21:42Z</time>
      </trkpt>
      <trkpt lat="44.00918" lon="1.99274">
        <ele>226.53</ele>
        <time>2020-06-06T13:21:54Z</time>
      </trkpt>
      <trkpt lat="44.00922" lon="1.99253">
        <ele>226.53</ele>
        <time>2020-06-06T13:22:05Z</time>
      </trkpt>
      <trkpt lat="44.00924" lon="1.99232">
        <ele>226.05</ele>
        <time>2020-06-06T13:22:16Z</time>
      </trkpt>
      <trkpt lat="44.0092" lon="1.99209">
        <ele>226.53</ele>
        <time>2020-06-06T13:22:28Z</time>
      </trkpt>
      <trkpt lat="44.00916" lon="1.9919">
        <ele>227.49</ele>
        <time>2020-06-06T13:22:38Z</time>
      </trkpt>
      <trkpt lat="44.00914" lon="1.99166">
        <ele>227.49</ele>
        <time>2020-06-06T13:22:51Z</time>
      </trkpt>
      <trkpt lat="44.00917" lon="1.99145">
        <ele>227.01</ele>
        <time>2020-06-06T13:23:02Z</time>
      </trkpt>
      <trkpt lat="44.00922" lon="1.99122">
        <ele>227.01</ele>
        <time>2020-06-06T13:23:14Z</time>
      </trkpt>
      <trkpt lat="44.00922" lon="1.99099">
        <ele>226.53</ele>
        <time>2020-06-06T13:23:26Z</time>
      </trkpt>
      <trkpt lat="44.00922" lon="1.99091">
        <ele>226.53</ele>
        <time>2020-06-06T13:23:33Z</time>
      </trkpt>
      <trkpt lat="44.00921" lon="1.99073">
        <ele>226.05</ele>
        <time>2020-06-06T13:23:43Z</time>
      </trkpt>
      <trkpt lat="44.00919" lon="1.99052">
        <ele>226.05</ele>
        <time>2020-06-06T13:23:54Z</time>
      </trkpt>
      <trkpt lat="44.00916" lon="1.99037">
        <ele>226.05</ele>
        <time>2020-06-06T13:24:03Z</time>
      </trkpt>
      <trkpt lat="44.0091" lon="1.99018">
        <ele>227.49</ele>
        <time>2020-06-06T13:24:13Z</time>
      </trkpt>
      <trkpt lat="44.00903" lon="1.98993">
        <ele>226.53</ele>
        <time>2020-06-06T13:24:26Z</time>
      </trkpt>
      <trkpt lat="44.00897" lon="1.98976">
        <ele>227.01</ele>
        <time>2020-06-06T13:24:36Z</time>
      </trkpt>
      <trkpt lat="44.00888" lon="1.98958">
        <ele>226.53</ele>
        <time>2020-06-06T13:24:47Z</time>
      </trkpt>
      <trkpt lat="44.00879" lon="1.9894">
        <ele>227.97</ele>
        <time>2020-06-06T13:24:58Z</time>
      </trkpt>
      <trkpt lat="44.00871" lon="1.98926">
        <ele>227.49</ele>
        <time>2020-06-06T13:25:08Z</time>
      </trkpt>
      <trkpt lat="44.00864" lon="1.98914">
        <ele>227.49</ele>
        <time>2020-06-06T13:25:16Z</time>
      </trkpt>
      <trkpt lat="44.00859" lon="1.98895">
        <ele>226.53</ele>
        <time>2020-06-06T13:25:27Z</time>
      </trkpt>
      <trkpt lat="44.00859" lon="1.98879">
        <ele>226.05</ele>
        <time>2020-06-06T13:25:37Z</time>
      </trkpt>
      <trkpt lat="44.00859" lon="1.98865">
        <ele>226.53</ele>
        <time>2020-06-06T13:25:46Z</time>
      </trkpt>
      <trkpt lat="44.0086" lon="1.98858">
        <ele>227.49</ele>
        <time>2020-06-06T13:25:52Z</time>
      </trkpt>
      <trkpt lat="44.0086" lon="1.98848">
        <ele>227.01</ele>
        <time>2020-06-06T13:25:58Z</time>
      </trkpt>
      <trkpt lat="44.00859" lon="1.98841">
        <ele>227.49</ele>
        <time>2020-06-06T13:26:03Z</time>
      </trkpt>
      <trkpt lat="44.0086" lon="1.98831">
        <ele>227.49</ele>
        <time>2020-06-06T13:26:11Z</time>
      </trkpt>
      <trkpt lat="44.00859" lon="1.98822">
        <ele>227.01</ele>
        <time>2020-06-06T13:26:17Z</time>
      </trkpt>
      <trkpt lat="44.00862" lon="1.988">
        <ele>226.53</ele>
        <time>2020-06-06T13:26:30Z</time>
      </trkpt>
      <trkpt lat="44.00872" lon="1.98785">
        <ele>224.61</ele>
        <time>2020-06-06T13:26:41Z</time>
      </trkpt>
      <trkpt lat="44.00876" lon="1.98779">
        <ele>224.12</ele>
        <time>2020-06-06T13:26:48Z</time>
      </trkpt>
      <trkpt lat="44.0088" lon="1.98775">
        <ele>224.12</ele>
        <time>2020-06-06T13:26:54Z</time>
      </trkpt>
      <trkpt lat="44.00883" lon="1.98773">
        <ele>224.61</ele>
        <time>2020-06-06T13:26:57Z</time>
      </trkpt>
      <trkpt lat="44.00894" lon="1.98764">
        <ele>226.53</ele>
        <time>2020-06-06T13:27:08Z</time>
      </trkpt>
      <trkpt lat="44.00905" lon="1.98756">
        <ele>227.01</ele>
        <time>2020-06-06T13:27:17Z</time>
      </trkpt>
      <trkpt lat="44.0091" lon="1.98753">
        <ele>225.57</ele>
        <time>2020-06-06T13:27:21Z</time>
      </trkpt>
      <trkpt lat="44.00915" lon="1.9875">
        <ele>225.09</ele>
        <time>2020-06-06T13:27:25Z</time>
      </trkpt>
      <trkpt lat="44.00921" lon="1.98745">
        <ele>225.57</ele>
        <time>2020-06-06T13:27:34Z</time>
      </trkpt>
      <trkpt lat="44.00924" lon="1.98744">
        <ele>227.97</ele>
        <time>2020-06-06T13:27:48Z</time>
      </trkpt>
      <trkpt lat="44.00939" lon="1.98732">
        <ele>227.01</ele>
        <time>2020-06-06T13:27:59Z</time>
      </trkpt>
      <trkpt lat="44.00953" lon="1.98719">
        <ele>226.53</ele>
        <time>2020-06-06T13:28:09Z</time>
      </trkpt>
      <trkpt lat="44.00958" lon="1.98711">
        <ele>226.05</ele>
        <time>2020-06-06T13:28:18Z</time>
      </trkpt>
      <trkpt lat="44.00959" lon="1.98708">
        <ele>226.05</ele>
        <time>2020-06-06T13:28:20Z</time>
      </trkpt>
      <trkpt lat="44.00961" lon="1.98696">
        <ele>227.49</ele>
        <time>2020-06-06T13:28:28Z</time>
      </trkpt>
      <trkpt lat="44.00957" lon="1.98682">
        <ele>227.97</ele>
        <time>2020-06-06T13:28:37Z</time>
      </trkpt>
      <trkpt lat="44.00957" lon="1.98682">
        <ele>228.45</ele>
        <time>2020-06-06T13:28:46Z</time>
      </trkpt>
      <trkpt lat="44.00956" lon="1.98679">
        <ele>228.45</ele>
        <time>2020-06-06T13:28:50Z</time>
      </trkpt>
      <trkpt lat="44.00957" lon="1.98674">
        <ele>228.93</ele>
        <time>2020-06-06T13:28:57Z</time>
      </trkpt>
      <trkpt lat="44.00957" lon="1.98678">
        <ele>229.41</ele>
        <time>2020-06-06T13:29:05Z</time>
      </trkpt>
      <trkpt lat="44.00958" lon="1.98676">
        <ele>228.45</ele>
        <time>2020-06-06T13:29:12Z</time>
      </trkpt>
      <trkpt lat="44.00959" lon="1.98679">
        <ele>228.93</ele>
        <time>2020-06-06T13:29:19Z</time>
      </trkpt>
      <trkpt lat="44.00959" lon="1.9868">
        <ele>228.93</ele>
        <time>2020-06-06T13:29:20Z</time>
      </trkpt>
      <trkpt lat="44.00967" lon="1.98687">
        <ele>230.37</ele>
        <time>2020-06-06T13:29:31Z</time>
      </trkpt>
      <trkpt lat="44.00968" lon="1.98687">
        <ele>230.85</ele>
        <time>2020-06-06T13:29:33Z</time>
      </trkpt>
      <trkpt lat="44.0097" lon="1.98682">
        <ele>231.33</ele>
        <time>2020-06-06T13:29:37Z</time>
      </trkpt>
      <trkpt lat="44.00972" lon="1.98665">
        <ele>230.37</ele>
        <time>2020-06-06T13:29:47Z</time>
      </trkpt>
      <trkpt lat="44.00973" lon="1.9865">
        <ele>230.37</ele>
        <time>2020-06-06T13:29:56Z</time>
      </trkpt>
      <trkpt lat="44.00974" lon="1.98628">
        <ele>230.37</ele>
        <time>2020-06-06T13:30:08Z</time>
      </trkpt>
      <trkpt lat="44.00975" lon="1.9861">
        <ele>230.37</ele>
        <time>2020-06-06T13:30:18Z</time>
      </trkpt>
      <trkpt lat="44.00975" lon="1.98591">
        <ele>230.85</ele>
        <time>2020-06-06T13:30:28Z</time>
      </trkpt>
      <trkpt lat="44.00974" lon="1.98575">
        <ele>231.33</ele>
        <time>2020-06-06T13:30:37Z</time>
      </trkpt>
      <trkpt lat="44.00973" lon="1.98557">
        <ele>233.26</ele>
        <time>2020-06-06T13:30:47Z</time>
      </trkpt>
      <trkpt lat="44.00971" lon="1.98537">
        <ele>235.18</ele>
        <time>2020-06-06T13:30:58Z</time>
      </trkpt>
      <trkpt lat="44.00969" lon="1.98519">
        <ele>237.58</ele>
        <time>2020-06-06T13:31:09Z</time>
      </trkpt>
      <trkpt lat="44.00967" lon="1.98505">
        <ele>239.02</ele>
        <time>2020-06-06T13:31:18Z</time>
      </trkpt>
      <trkpt lat="44.00965" lon="1.98486">
        <ele>240.95</ele>
        <time>2020-06-06T13:31:29Z</time>
      </trkpt>
      <trkpt lat="44.00964" lon="1.98471">
        <ele>242.87</ele>
        <time>2020-06-06T13:31:38Z</time>
      </trkpt>
      <trkpt lat="44.00963" lon="1.98455">
        <ele>244.79</ele>
        <time>2020-06-06T13:31:47Z</time>
      </trkpt>
      <trkpt lat="44.00961" lon="1.98442">
        <ele>245.27</ele>
        <time>2020-06-06T13:31:56Z</time>
      </trkpt>
      <trkpt lat="44.00962" lon="1.9844">
        <ele>245.75</ele>
        <time>2020-06-06T13:31:57Z</time>
      </trkpt>
      <trkpt lat="44.00962" lon="1.98432">
        <ele>246.23</ele>
        <time>2020-06-06T13:32:01Z</time>
      </trkpt>
      <trkpt lat="44.00963" lon="1.98413">
        <ele>247.2</ele>
        <time>2020-06-06T13:32:11Z</time>
      </trkpt>
      <trkpt lat="44.00964" lon="1.98399">
        <ele>248.16</ele>
        <time>2020-06-06T13:32:19Z</time>
      </trkpt>
      <trkpt lat="44.00964" lon="1.98389">
        <ele>248.16</ele>
        <time>2020-06-06T13:32:27Z</time>
      </trkpt>
      <trkpt lat="44.00965" lon="1.98387">
        <ele>248.64</ele>
        <time>2020-06-06T13:32:38Z</time>
      </trkpt>
      <trkpt lat="44.00966" lon="1.9837">
        <ele>250.08</ele>
        <time>2020-06-06T13:32:47Z</time>
      </trkpt>
      <trkpt lat="44.00969" lon="1.98351">
        <ele>251.04</ele>
        <time>2020-06-06T13:32:57Z</time>
      </trkpt>
      <trkpt lat="44.00975" lon="1.98336">
        <ele>251.52</ele>
        <time>2020-06-06T13:33:06Z</time>
      </trkpt>
      <trkpt lat="44.00974" lon="1.98321">
        <ele>254.89</ele>
        <time>2020-06-06T13:33:14Z</time>
      </trkpt>
      <trkpt lat="44.00973" lon="1.98319">
        <ele>256.33</ele>
        <time>2020-06-06T13:33:16Z</time>
      </trkpt>
      <trkpt lat="44.00979" lon="1.98309">
        <ele>258.25</ele>
        <time>2020-06-06T13:33:25Z</time>
      </trkpt>
      <trkpt lat="44.00982" lon="1.98306">
        <ele>257.77</ele>
        <time>2020-06-06T13:33:31Z</time>
      </trkpt>
      <trkpt lat="44.0098" lon="1.98306">
        <ele>254.89</ele>
        <time>2020-06-06T13:33:48Z</time>
      </trkpt>
      <trkpt lat="44.00981" lon="1.98307">
        <ele>251.52</ele>
        <time>2020-06-06T13:34:02Z</time>
      </trkpt>
      <trkpt lat="44.00983" lon="1.98305">
        <ele>250.56</ele>
        <time>2020-06-06T13:34:10Z</time>
      </trkpt>
    </trkseg>
  </trk>
</gpx>